<?xml version="1.0" encoding="UTF-8" standalone="no" ?>
<gpx xmlns="http://www.topografix.com/GPX/1/1" xmlns:xsi="http://www.w3.org/2001/XMLSchema-instance" xsi:schemaLocation="http://www.topografix.com/GPX/1/1 http://www.topografix.com/GPX/1/1/gpx.xsd" version="1.1" creator="VisuGPX - https://www.visugpx.com">
  <metadata>
    <name>RSPG : Velo Electrique Pellautier</name>
    <desc><![CDATA[Découverte du vélo à assistance électrique à 12 , un circuit sympa à partir de Pellautier pause à Savournon. Merci à l\'organisateur Jean Louis Tremeaux]]></desc>
  </metadata>
  <trk>
    <name><![CDATA[VAE RSPG Pellautier]]></name>
    <trkseg>
      <trkpt lat="44.51564" lon="6.01694">
        <ele>919.1577148</ele>
        <time>2013-05-14T07:39:28Z</time>
      </trkpt>
      <trkpt lat="44.51559" lon="6.01711">
        <ele>921.560791</ele>
        <time>2013-05-14T07:40:01Z</time>
      </trkpt>
      <trkpt lat="44.51559" lon="6.01711">
        <ele>924.4450684</ele>
        <time>2013-05-14T07:40:08Z</time>
      </trkpt>
      <trkpt lat="44.51557" lon="6.01712">
        <ele>927.8095703</ele>
        <time>2013-05-14T07:40:18Z</time>
      </trkpt>
      <trkpt lat="44.51559" lon="6.01709">
        <ele>929.2514648</ele>
        <time>2013-05-14T07:40:51Z</time>
      </trkpt>
      <trkpt lat="44.51556" lon="6.01713">
        <ele>932.6162109</ele>
        <time>2013-05-14T07:41:20Z</time>
      </trkpt>
      <trkpt lat="44.51559" lon="6.01706">
        <ele>935.0195313</ele>
        <time>2013-05-14T07:42:17Z</time>
      </trkpt>
      <trkpt lat="44.51554" lon="6.01703">
        <ele>935.5</ele>
        <time>2013-05-14T07:42:58Z</time>
      </trkpt>
      <trkpt lat="44.51558" lon="6.0169">
        <ele>936.4614258</ele>
        <time>2013-05-14T07:43:21Z</time>
      </trkpt>
      <trkpt lat="44.5155" lon="6.01682">
        <ele>935.5</ele>
        <time>2013-05-14T07:43:40Z</time>
      </trkpt>
      <trkpt lat="44.5155" lon="6.01681">
        <ele>935.0195313</ele>
        <time>2013-05-14T07:43:45Z</time>
      </trkpt>
      <trkpt lat="44.51534" lon="6.01678">
        <ele>933.0966797</ele>
        <time>2013-05-14T07:43:52Z</time>
      </trkpt>
      <trkpt lat="44.51525" lon="6.01688">
        <ele>931.1743164</ele>
        <time>2013-05-14T07:43:55Z</time>
      </trkpt>
      <trkpt lat="44.51512" lon="6.0171">
        <ele>927.8095703</ele>
        <time>2013-05-14T07:44:00Z</time>
      </trkpt>
      <trkpt lat="44.5151" lon="6.01727">
        <ele>926.3676758</ele>
        <time>2013-05-14T07:44:04Z</time>
      </trkpt>
      <trkpt lat="44.51514" lon="6.01738">
        <ele>925.40625</ele>
        <time>2013-05-14T07:44:08Z</time>
      </trkpt>
      <trkpt lat="44.51529" lon="6.01759">
        <ele>924.4450684</ele>
        <time>2013-05-14T07:44:13Z</time>
      </trkpt>
      <trkpt lat="44.5154" lon="6.01772">
        <ele>924.4450684</ele>
        <time>2013-05-14T07:44:16Z</time>
      </trkpt>
      <trkpt lat="44.51554" lon="6.01803">
        <ele>924.4450684</ele>
        <time>2013-05-14T07:44:21Z</time>
      </trkpt>
      <trkpt lat="44.51558" lon="6.01871">
        <ele>924.9257813</ele>
        <time>2013-05-14T07:44:33Z</time>
      </trkpt>
      <trkpt lat="44.51549" lon="6.01865">
        <ele>925.40625</ele>
        <time>2013-05-14T07:44:38Z</time>
      </trkpt>
      <trkpt lat="44.51549" lon="6.01864">
        <ele>924.9257813</ele>
        <time>2013-05-14T07:44:41Z</time>
      </trkpt>
      <trkpt lat="44.51557" lon="6.01864">
        <ele>924.9257813</ele>
        <time>2013-05-14T07:44:47Z</time>
      </trkpt>
      <trkpt lat="44.51559" lon="6.01894">
        <ele>926.3676758</ele>
        <time>2013-05-14T07:44:54Z</time>
      </trkpt>
      <trkpt lat="44.51569" lon="6.01893">
        <ele>927.8095703</ele>
        <time>2013-05-14T07:45:00Z</time>
      </trkpt>
      <trkpt lat="44.51579" lon="6.01887">
        <ele>928.7709961</ele>
        <time>2013-05-14T07:45:04Z</time>
      </trkpt>
      <trkpt lat="44.51575" lon="6.01889">
        <ele>928.7709961</ele>
        <time>2013-05-14T07:45:10Z</time>
      </trkpt>
      <trkpt lat="44.51564" lon="6.01895">
        <ele>927.8095703</ele>
        <time>2013-05-14T07:45:15Z</time>
      </trkpt>
      <trkpt lat="44.51558" lon="6.01879">
        <ele>924.9257813</ele>
        <time>2013-05-14T07:45:20Z</time>
      </trkpt>
      <trkpt lat="44.51559" lon="6.01872">
        <ele>925.8869629</ele>
        <time>2013-05-14T07:45:36Z</time>
      </trkpt>
      <trkpt lat="44.5156" lon="6.0185">
        <ele>925.8869629</ele>
        <time>2013-05-14T07:48:23Z</time>
      </trkpt>
      <trkpt lat="44.51555" lon="6.01848">
        <ele>925.40625</ele>
        <time>2013-05-14T07:48:30Z</time>
      </trkpt>
      <trkpt lat="44.51557" lon="6.01851">
        <ele>925.8869629</ele>
        <time>2013-05-14T07:48:40Z</time>
      </trkpt>
      <trkpt lat="44.51557" lon="6.01886">
        <ele>925.8869629</ele>
        <time>2013-05-14T07:48:50Z</time>
      </trkpt>
      <trkpt lat="44.51542" lon="6.01909">
        <ele>926.8483887</ele>
        <time>2013-05-14T07:48:57Z</time>
      </trkpt>
      <trkpt lat="44.51505" lon="6.01927">
        <ele>930.6936035</ele>
        <time>2013-05-14T07:49:10Z</time>
      </trkpt>
      <trkpt lat="44.5149" lon="6.01936">
        <ele>931.6547852</ele>
        <time>2013-05-14T07:49:15Z</time>
      </trkpt>
      <trkpt lat="44.51497" lon="6.01951">
        <ele>932.135498</ele>
        <time>2013-05-14T07:49:21Z</time>
      </trkpt>
      <trkpt lat="44.51539" lon="6.01943">
        <ele>934.0581055</ele>
        <time>2013-05-14T07:49:34Z</time>
      </trkpt>
      <trkpt lat="44.51585" lon="6.01915">
        <ele>936.9418945</ele>
        <time>2013-05-14T07:49:49Z</time>
      </trkpt>
      <trkpt lat="44.51622" lon="6.0189">
        <ele>940.3068848</ele>
        <time>2013-05-14T07:50:02Z</time>
      </trkpt>
      <trkpt lat="44.51654" lon="6.01852">
        <ele>942.2294922</ele>
        <time>2013-05-14T07:50:15Z</time>
      </trkpt>
      <trkpt lat="44.51652" lon="6.01785">
        <ele>945.5939941</ele>
        <time>2013-05-14T07:50:29Z</time>
      </trkpt>
      <trkpt lat="44.51642" lon="6.01737">
        <ele>948.4777832</ele>
        <time>2013-05-14T07:50:38Z</time>
      </trkpt>
      <trkpt lat="44.51635" lon="6.01711">
        <ele>949.9199219</ele>
        <time>2013-05-14T07:50:43Z</time>
      </trkpt>
      <trkpt lat="44.51632" lon="6.01654">
        <ele>953.2844238</ele>
        <time>2013-05-14T07:50:54Z</time>
      </trkpt>
      <trkpt lat="44.51647" lon="6.01604">
        <ele>952.322998</ele>
        <time>2013-05-14T07:51:04Z</time>
      </trkpt>
      <trkpt lat="44.51649" lon="6.01597">
        <ele>952.322998</ele>
        <time>2013-05-14T07:51:05Z</time>
      </trkpt>
      <trkpt lat="44.51649" lon="6.01562">
        <ele>951.3618164</ele>
        <time>2013-05-14T07:51:10Z</time>
      </trkpt>
      <trkpt lat="44.51646" lon="6.01544">
        <ele>951.8425293</ele>
        <time>2013-05-14T07:51:13Z</time>
      </trkpt>
      <trkpt lat="44.5163" lon="6.01494">
        <ele>954.7263184</ele>
        <time>2013-05-14T07:51:25Z</time>
      </trkpt>
      <trkpt lat="44.51615" lon="6.01461">
        <ele>958.0913086</ele>
        <time>2013-05-14T07:51:34Z</time>
      </trkpt>
      <trkpt lat="44.51592" lon="6.01438">
        <ele>960.0136719</ele>
        <time>2013-05-14T07:51:40Z</time>
      </trkpt>
      <trkpt lat="44.51558" lon="6.01392">
        <ele>962.8977051</ele>
        <time>2013-05-14T07:51:52Z</time>
      </trkpt>
      <trkpt lat="44.51551" lon="6.01322">
        <ele>965.7817383</ele>
        <time>2013-05-14T07:52:05Z</time>
      </trkpt>
      <trkpt lat="44.51555" lon="6.01278">
        <ele>969.1462402</ele>
        <time>2013-05-14T07:52:15Z</time>
      </trkpt>
      <trkpt lat="44.51555" lon="6.01274">
        <ele>969.1462402</ele>
        <time>2013-05-14T07:52:16Z</time>
      </trkpt>
      <trkpt lat="44.51549" lon="6.01206">
        <ele>970.1074219</ele>
        <time>2013-05-14T07:52:30Z</time>
      </trkpt>
      <trkpt lat="44.51521" lon="6.01162">
        <ele>971.5493164</ele>
        <time>2013-05-14T07:52:42Z</time>
      </trkpt>
      <trkpt lat="44.51508" lon="6.0112">
        <ele>973.9528809</ele>
        <time>2013-05-14T07:52:51Z</time>
      </trkpt>
      <trkpt lat="44.51491" lon="6.01069">
        <ele>977.317627</ele>
        <time>2013-05-14T07:53:03Z</time>
      </trkpt>
      <trkpt lat="44.51464" lon="6.01028">
        <ele>978.2788086</ele>
        <time>2013-05-14T07:53:16Z</time>
      </trkpt>
      <trkpt lat="44.51416" lon="6.01">
        <ele>980.201416</ele>
        <time>2013-05-14T07:53:30Z</time>
      </trkpt>
      <trkpt lat="44.51349" lon="6.00965">
        <ele>982.6047363</ele>
        <time>2013-05-14T07:53:47Z</time>
      </trkpt>
      <trkpt lat="44.51298" lon="6.00928">
        <ele>984.5273438</ele>
        <time>2013-05-14T07:54:02Z</time>
      </trkpt>
      <trkpt lat="44.51289" lon="6.00918">
        <ele>985.4885254</ele>
        <time>2013-05-14T07:54:05Z</time>
      </trkpt>
      <trkpt lat="44.51272" lon="6.00898">
        <ele>985.0080566</ele>
        <time>2013-05-14T07:54:10Z</time>
      </trkpt>
      <trkpt lat="44.51246" lon="6.00823">
        <ele>985.9692383</ele>
        <time>2013-05-14T07:54:26Z</time>
      </trkpt>
      <trkpt lat="44.51231" lon="6.00712">
        <ele>986.9304199</ele>
        <time>2013-05-14T07:54:46Z</time>
      </trkpt>
      <trkpt lat="44.51216" lon="6.00621">
        <ele>987.8918457</ele>
        <time>2013-05-14T07:55:04Z</time>
      </trkpt>
      <trkpt lat="44.51205" lon="6.00566">
        <ele>988.8535156</ele>
        <time>2013-05-14T07:55:16Z</time>
      </trkpt>
      <trkpt lat="44.51194" lon="6.00495">
        <ele>990.2954102</ele>
        <time>2013-05-14T07:55:30Z</time>
      </trkpt>
      <trkpt lat="44.51179" lon="6.00414">
        <ele>990.7758789</ele>
        <time>2013-05-14T07:55:45Z</time>
      </trkpt>
      <trkpt lat="44.51173" lon="6.00382">
        <ele>990.2954102</ele>
        <time>2013-05-14T07:55:51Z</time>
      </trkpt>
      <trkpt lat="44.51157" lon="6.00282">
        <ele>991.2565918</ele>
        <time>2013-05-14T07:56:09Z</time>
      </trkpt>
      <trkpt lat="44.51162" lon="6.00155">
        <ele>992.2180176</ele>
        <time>2013-05-14T07:56:30Z</time>
      </trkpt>
      <trkpt lat="44.51169" lon="6.0008">
        <ele>991.2565918</ele>
        <time>2013-05-14T07:56:42Z</time>
      </trkpt>
      <trkpt lat="44.5116" lon="6.00035">
        <ele>992.2180176</ele>
        <time>2013-05-14T07:56:50Z</time>
      </trkpt>
      <trkpt lat="44.51147" lon="6.00018">
        <ele>992.6987305</ele>
        <time>2013-05-14T07:56:54Z</time>
      </trkpt>
      <trkpt lat="44.51084" lon="5.99968">
        <ele>994.140625</ele>
        <time>2013-05-14T07:57:12Z</time>
      </trkpt>
      <trkpt lat="44.51053" lon="5.99895">
        <ele>996.0632324</ele>
        <time>2013-05-14T07:57:28Z</time>
      </trkpt>
      <trkpt lat="44.51031" lon="5.9982">
        <ele>997.505127</ele>
        <time>2013-05-14T07:57:44Z</time>
      </trkpt>
      <trkpt lat="44.51056" lon="5.99746">
        <ele>998.4663086</ele>
        <time>2013-05-14T07:57:59Z</time>
      </trkpt>
      <trkpt lat="44.5109" lon="5.99694">
        <ele>998.9470215</ele>
        <time>2013-05-14T07:58:11Z</time>
      </trkpt>
      <trkpt lat="44.51093" lon="5.99632">
        <ele>999.4277344</ele>
        <time>2013-05-14T07:58:22Z</time>
      </trkpt>
      <trkpt lat="44.51086" lon="5.99617">
        <ele>998.9470215</ele>
        <time>2013-05-14T07:58:25Z</time>
      </trkpt>
      <trkpt lat="44.51026" lon="5.99511">
        <ele>1000.8696289</ele>
        <time>2013-05-14T07:58:49Z</time>
      </trkpt>
      <trkpt lat="44.50997" lon="5.99413">
        <ele>1003.7536621</ele>
        <time>2013-05-14T07:59:11Z</time>
      </trkpt>
      <trkpt lat="44.51005" lon="5.99324">
        <ele>1006.1569824</ele>
        <time>2013-05-14T07:59:30Z</time>
      </trkpt>
      <trkpt lat="44.51002" lon="5.99255">
        <ele>1007.5991211</ele>
        <time>2013-05-14T07:59:44Z</time>
      </trkpt>
      <trkpt lat="44.50967" lon="5.99222">
        <ele>1009.5217285</ele>
        <time>2013-05-14T07:59:58Z</time>
      </trkpt>
      <trkpt lat="44.50901" lon="5.9921">
        <ele>1011.9250488</ele>
        <time>2013-05-14T08:00:18Z</time>
      </trkpt>
      <trkpt lat="44.50841" lon="5.99199">
        <ele>1015.2895508</ele>
        <time>2013-05-14T08:00:36Z</time>
      </trkpt>
      <trkpt lat="44.50777" lon="5.992">
        <ele>1017.2121582</ele>
        <time>2013-05-14T08:00:55Z</time>
      </trkpt>
      <trkpt lat="44.50746" lon="5.99218">
        <ele>1018.1733398</ele>
        <time>2013-05-14T08:01:06Z</time>
      </trkpt>
      <trkpt lat="44.50718" lon="5.9926">
        <ele>1018.1733398</ele>
        <time>2013-05-14T08:01:16Z</time>
      </trkpt>
      <trkpt lat="44.50695" lon="5.993">
        <ele>1018.1733398</ele>
        <time>2013-05-14T08:01:26Z</time>
      </trkpt>
      <trkpt lat="44.50674" lon="5.99338">
        <ele>1019.1347656</ele>
        <time>2013-05-14T08:01:37Z</time>
      </trkpt>
      <trkpt lat="44.50658" lon="5.99371">
        <ele>1019.6154785</ele>
        <time>2013-05-14T08:01:44Z</time>
      </trkpt>
      <trkpt lat="44.50635" lon="5.99419">
        <ele>1020.0961914</ele>
        <time>2013-05-14T08:01:56Z</time>
      </trkpt>
      <trkpt lat="44.50608" lon="5.99447">
        <ele>1020.5769043</ele>
        <time>2013-05-14T08:02:05Z</time>
      </trkpt>
      <trkpt lat="44.50563" lon="5.99481">
        <ele>1021.0576172</ele>
        <time>2013-05-14T08:02:17Z</time>
      </trkpt>
      <trkpt lat="44.50508" lon="5.99507">
        <ele>1021.5380859</ele>
        <time>2013-05-14T08:02:31Z</time>
      </trkpt>
      <trkpt lat="44.50496" lon="5.99513">
        <ele>1022.0187988</ele>
        <time>2013-05-14T08:02:34Z</time>
      </trkpt>
      <trkpt lat="44.50457" lon="5.99525">
        <ele>1022.0187988</ele>
        <time>2013-05-14T08:02:44Z</time>
      </trkpt>
      <trkpt lat="44.50397" lon="5.99518">
        <ele>1022.9802246</ele>
        <time>2013-05-14T08:02:59Z</time>
      </trkpt>
      <trkpt lat="44.50338" lon="5.99525">
        <ele>1023.4609375</ele>
        <time>2013-05-14T08:03:14Z</time>
      </trkpt>
      <trkpt lat="44.50335" lon="5.99526">
        <ele>1023.4609375</ele>
        <time>2013-05-14T08:03:15Z</time>
      </trkpt>
      <trkpt lat="44.50301" lon="5.99532">
        <ele>1023.9414063</ele>
        <time>2013-05-14T08:03:26Z</time>
      </trkpt>
      <trkpt lat="44.50255" lon="5.99535">
        <ele>1024.4221191</ele>
        <time>2013-05-14T08:03:39Z</time>
      </trkpt>
      <trkpt lat="44.50212" lon="5.99517">
        <ele>1025.3833008</ele>
        <time>2013-05-14T08:03:50Z</time>
      </trkpt>
      <trkpt lat="44.50147" lon="5.99493">
        <ele>1026.8254395</ele>
        <time>2013-05-14T08:04:06Z</time>
      </trkpt>
      <trkpt lat="44.50112" lon="5.99489">
        <ele>1029.2285156</ele>
        <time>2013-05-14T08:04:17Z</time>
      </trkpt>
      <trkpt lat="44.50075" lon="5.99496">
        <ele>1029.7092285</ele>
        <time>2013-05-14T08:04:27Z</time>
      </trkpt>
      <trkpt lat="44.50045" lon="5.99507">
        <ele>1030.6706543</ele>
        <time>2013-05-14T08:04:37Z</time>
      </trkpt>
      <trkpt lat="44.50012" lon="5.99519">
        <ele>1031.1513672</ele>
        <time>2013-05-14T08:04:47Z</time>
      </trkpt>
      <trkpt lat="44.49983" lon="5.99526">
        <ele>1032.5932617</ele>
        <time>2013-05-14T08:04:57Z</time>
      </trkpt>
      <trkpt lat="44.49942" lon="5.99541">
        <ele>1033.5544434</ele>
        <time>2013-05-14T08:05:07Z</time>
      </trkpt>
      <trkpt lat="44.49893" lon="5.99549">
        <ele>1034.5158691</ele>
        <time>2013-05-14T08:05:21Z</time>
      </trkpt>
      <trkpt lat="44.4984" lon="5.99554">
        <ele>1036.4387207</ele>
        <time>2013-05-14T08:05:36Z</time>
      </trkpt>
      <trkpt lat="44.49783" lon="5.99549">
        <ele>1037.8806152</ele>
        <time>2013-05-14T08:05:52Z</time>
      </trkpt>
      <trkpt lat="44.49737" lon="5.99526">
        <ele>1039.8032227</ele>
        <time>2013-05-14T08:06:06Z</time>
      </trkpt>
      <trkpt lat="44.49704" lon="5.99486">
        <ele>1041.7258301</ele>
        <time>2013-05-14T08:06:19Z</time>
      </trkpt>
      <trkpt lat="44.49703" lon="5.99468">
        <ele>1040.7644043</ele>
        <time>2013-05-14T08:06:22Z</time>
      </trkpt>
      <trkpt lat="44.49732" lon="5.99389">
        <ele>1040.7644043</ele>
        <time>2013-05-14T08:06:37Z</time>
      </trkpt>
      <trkpt lat="44.49765" lon="5.99353">
        <ele>1040.2839355</ele>
        <time>2013-05-14T08:06:47Z</time>
      </trkpt>
      <trkpt lat="44.49796" lon="5.99254">
        <ele>1040.7644043</ele>
        <time>2013-05-14T08:07:05Z</time>
      </trkpt>
      <trkpt lat="44.49793" lon="5.99136">
        <ele>1040.2839355</ele>
        <time>2013-05-14T08:07:23Z</time>
      </trkpt>
      <trkpt lat="44.49782" lon="5.99031">
        <ele>1039.8032227</ele>
        <time>2013-05-14T08:07:39Z</time>
      </trkpt>
      <trkpt lat="44.49766" lon="5.98996">
        <ele>1040.2839355</ele>
        <time>2013-05-14T08:07:46Z</time>
      </trkpt>
      <trkpt lat="44.49756" lon="5.98984">
        <ele>1040.2839355</ele>
        <time>2013-05-14T08:07:49Z</time>
      </trkpt>
      <trkpt lat="44.4972" lon="5.98956">
        <ele>1040.2839355</ele>
        <time>2013-05-14T08:07:58Z</time>
      </trkpt>
      <trkpt lat="44.49671" lon="5.9891">
        <ele>1040.2839355</ele>
        <time>2013-05-14T08:08:11Z</time>
      </trkpt>
      <trkpt lat="44.49664" lon="5.989">
        <ele>1040.2839355</ele>
        <time>2013-05-14T08:08:13Z</time>
      </trkpt>
      <trkpt lat="44.49649" lon="5.98869">
        <ele>1040.7644043</ele>
        <time>2013-05-14T08:08:19Z</time>
      </trkpt>
      <trkpt lat="44.49645" lon="5.98857">
        <ele>1040.7644043</ele>
        <time>2013-05-14T08:08:21Z</time>
      </trkpt>
      <trkpt lat="44.49627" lon="5.98764">
        <ele>1040.7644043</ele>
        <time>2013-05-14T08:08:35Z</time>
      </trkpt>
      <trkpt lat="44.4962" lon="5.9871">
        <ele>1040.7644043</ele>
        <time>2013-05-14T08:08:43Z</time>
      </trkpt>
      <trkpt lat="44.49617" lon="5.98692">
        <ele>1040.7644043</ele>
        <time>2013-05-14T08:08:46Z</time>
      </trkpt>
      <trkpt lat="44.4961" lon="5.98681">
        <ele>1040.7644043</ele>
        <time>2013-05-14T08:08:48Z</time>
      </trkpt>
      <trkpt lat="44.49596" lon="5.98666">
        <ele>1041.2451172</ele>
        <time>2013-05-14T08:08:52Z</time>
      </trkpt>
      <trkpt lat="44.49583" lon="5.98661">
        <ele>1041.2451172</ele>
        <time>2013-05-14T08:08:55Z</time>
      </trkpt>
      <trkpt lat="44.49558" lon="5.98655">
        <ele>1040.7644043</ele>
        <time>2013-05-14T08:09:00Z</time>
      </trkpt>
      <trkpt lat="44.49536" lon="5.98643">
        <ele>1040.7644043</ele>
        <time>2013-05-14T08:09:04Z</time>
      </trkpt>
      <trkpt lat="44.49453" lon="5.98603">
        <ele>1041.2451172</ele>
        <time>2013-05-14T08:09:21Z</time>
      </trkpt>
      <trkpt lat="44.49314" lon="5.98573">
        <ele>1040.7644043</ele>
        <time>2013-05-14T08:09:48Z</time>
      </trkpt>
      <trkpt lat="44.49205" lon="5.98548">
        <ele>1039.8032227</ele>
        <time>2013-05-14T08:10:09Z</time>
      </trkpt>
      <trkpt lat="44.49142" lon="5.98536">
        <ele>1040.2839355</ele>
        <time>2013-05-14T08:10:22Z</time>
      </trkpt>
      <trkpt lat="44.49053" lon="5.98548">
        <ele>1041.2451172</ele>
        <time>2013-05-14T08:10:42Z</time>
      </trkpt>
      <trkpt lat="44.48988" lon="5.98565">
        <ele>1041.7258301</ele>
        <time>2013-05-14T08:10:58Z</time>
      </trkpt>
      <trkpt lat="44.48976" lon="5.98568">
        <ele>1041.7258301</ele>
        <time>2013-05-14T08:11:01Z</time>
      </trkpt>
      <trkpt lat="44.48921" lon="5.98581">
        <ele>1042.6872559</ele>
        <time>2013-05-14T08:11:14Z</time>
      </trkpt>
      <trkpt lat="44.4889" lon="5.98588">
        <ele>1042.206543</ele>
        <time>2013-05-14T08:11:21Z</time>
      </trkpt>
      <trkpt lat="44.48821" lon="5.98605">
        <ele>1041.7258301</ele>
        <time>2013-05-14T08:11:36Z</time>
      </trkpt>
      <trkpt lat="44.48796" lon="5.98611">
        <ele>1041.2451172</ele>
        <time>2013-05-14T08:11:41Z</time>
      </trkpt>
      <trkpt lat="44.48749" lon="5.98623">
        <ele>1041.2451172</ele>
        <time>2013-05-14T08:11:51Z</time>
      </trkpt>
      <trkpt lat="44.48706" lon="5.98628">
        <ele>1040.7644043</ele>
        <time>2013-05-14T08:12:00Z</time>
      </trkpt>
      <trkpt lat="44.48629" lon="5.98611">
        <ele>1040.2839355</ele>
        <time>2013-05-14T08:12:15Z</time>
      </trkpt>
      <trkpt lat="44.48606" lon="5.98605">
        <ele>1040.7644043</ele>
        <time>2013-05-14T08:12:20Z</time>
      </trkpt>
      <trkpt lat="44.48593" lon="5.98599">
        <ele>1040.7644043</ele>
        <time>2013-05-14T08:12:23Z</time>
      </trkpt>
      <trkpt lat="44.48573" lon="5.98579">
        <ele>1041.2451172</ele>
        <time>2013-05-14T08:12:28Z</time>
      </trkpt>
      <trkpt lat="44.48552" lon="5.98542">
        <ele>1041.2451172</ele>
        <time>2013-05-14T08:12:35Z</time>
      </trkpt>
      <trkpt lat="44.4849" lon="5.98499">
        <ele>1042.6872559</ele>
        <time>2013-05-14T08:12:51Z</time>
      </trkpt>
      <trkpt lat="44.48416" lon="5.98502">
        <ele>1043.6484375</ele>
        <time>2013-05-14T08:13:08Z</time>
      </trkpt>
      <trkpt lat="44.48365" lon="5.98525">
        <ele>1043.1677246</ele>
        <time>2013-05-14T08:13:20Z</time>
      </trkpt>
      <trkpt lat="44.48349" lon="5.98524">
        <ele>1042.206543</ele>
        <time>2013-05-14T08:13:23Z</time>
      </trkpt>
      <trkpt lat="44.48331" lon="5.98515">
        <ele>1042.6872559</ele>
        <time>2013-05-14T08:13:27Z</time>
      </trkpt>
      <trkpt lat="44.48311" lon="5.98495">
        <ele>1040.2839355</ele>
        <time>2013-05-14T08:13:31Z</time>
      </trkpt>
      <trkpt lat="44.483" lon="5.98479">
        <ele>1039.3225098</ele>
        <time>2013-05-14T08:13:33Z</time>
      </trkpt>
      <trkpt lat="44.48275" lon="5.98434">
        <ele>1036.4387207</ele>
        <time>2013-05-14T08:13:38Z</time>
      </trkpt>
      <trkpt lat="44.48255" lon="5.98394">
        <ele>1033.0737305</ele>
        <time>2013-05-14T08:13:42Z</time>
      </trkpt>
      <trkpt lat="44.48233" lon="5.9835">
        <ele>1030.1899414</ele>
        <time>2013-05-14T08:13:46Z</time>
      </trkpt>
      <trkpt lat="44.48203" lon="5.98292">
        <ele>1027.7866211</ele>
        <time>2013-05-14T08:13:51Z</time>
      </trkpt>
      <trkpt lat="44.4819" lon="5.98267">
        <ele>1024.902832</ele>
        <time>2013-05-14T08:13:53Z</time>
      </trkpt>
      <trkpt lat="44.48184" lon="5.98255">
        <ele>1024.902832</ele>
        <time>2013-05-14T08:13:54Z</time>
      </trkpt>
      <trkpt lat="44.48151" lon="5.98194">
        <ele>1021.5380859</ele>
        <time>2013-05-14T08:13:59Z</time>
      </trkpt>
      <trkpt lat="44.48137" lon="5.98171">
        <ele>1021.0576172</ele>
        <time>2013-05-14T08:14:01Z</time>
      </trkpt>
      <trkpt lat="44.48098" lon="5.98113">
        <ele>1017.2121582</ele>
        <time>2013-05-14T08:14:06Z</time>
      </trkpt>
      <trkpt lat="44.48082" lon="5.98089">
        <ele>1014.328125</ele>
        <time>2013-05-14T08:14:08Z</time>
      </trkpt>
      <trkpt lat="44.48051" lon="5.98042">
        <ele>1013.8474121</ele>
        <time>2013-05-14T08:14:12Z</time>
      </trkpt>
      <trkpt lat="44.48035" lon="5.98019">
        <ele>1010.4829102</ele>
        <time>2013-05-14T08:14:14Z</time>
      </trkpt>
      <trkpt lat="44.48027" lon="5.98007">
        <ele>1010.4829102</ele>
        <time>2013-05-14T08:14:15Z</time>
      </trkpt>
      <trkpt lat="44.47988" lon="5.97949">
        <ele>1007.1184082</ele>
        <time>2013-05-14T08:14:20Z</time>
      </trkpt>
      <trkpt lat="44.47981" lon="5.97938">
        <ele>1007.5991211</ele>
        <time>2013-05-14T08:14:21Z</time>
      </trkpt>
      <trkpt lat="44.47938" lon="5.97874">
        <ele>1005.6765137</ele>
        <time>2013-05-14T08:14:27Z</time>
      </trkpt>
      <trkpt lat="44.47908" lon="5.97824">
        <ele>1006.1569824</ele>
        <time>2013-05-14T08:14:33Z</time>
      </trkpt>
      <trkpt lat="44.47897" lon="5.97813">
        <ele>1006.1569824</ele>
        <time>2013-05-14T08:14:35Z</time>
      </trkpt>
      <trkpt lat="44.47846" lon="5.97739">
        <ele>1008.5603027</ele>
        <time>2013-05-14T08:14:48Z</time>
      </trkpt>
      <trkpt lat="44.47796" lon="5.97659">
        <ele>1011.4443359</ele>
        <time>2013-05-14T08:15:06Z</time>
      </trkpt>
      <trkpt lat="44.47765" lon="5.97603">
        <ele>1013.3669434</ele>
        <time>2013-05-14T08:15:20Z</time>
      </trkpt>
      <trkpt lat="44.47738" lon="5.97551">
        <ele>1015.2895508</ele>
        <time>2013-05-14T08:15:34Z</time>
      </trkpt>
      <trkpt lat="44.47727" lon="5.97505">
        <ele>1017.692627</ele>
        <time>2013-05-14T08:15:49Z</time>
      </trkpt>
      <trkpt lat="44.47727" lon="5.97505">
        <ele>1017.2121582</ele>
        <time>2013-05-14T08:16:04Z</time>
      </trkpt>
      <trkpt lat="44.47727" lon="5.97505">
        <ele>1017.692627</ele>
        <time>2013-05-14T08:16:26Z</time>
      </trkpt>
      <trkpt lat="44.47727" lon="5.97505">
        <ele>1016.7314453</ele>
        <time>2013-05-14T08:16:30Z</time>
      </trkpt>
      <trkpt lat="44.47727" lon="5.97505">
        <ele>1016.7314453</ele>
        <time>2013-05-14T08:17:10Z</time>
      </trkpt>
      <trkpt lat="44.47727" lon="5.97505">
        <ele>1017.692627</ele>
        <time>2013-05-14T08:19:13Z</time>
      </trkpt>
      <trkpt lat="44.47727" lon="5.97497">
        <ele>1017.692627</ele>
        <time>2013-05-14T08:19:15Z</time>
      </trkpt>
      <trkpt lat="44.47727" lon="5.97444">
        <ele>1018.6540527</ele>
        <time>2013-05-14T08:19:27Z</time>
      </trkpt>
      <trkpt lat="44.47735" lon="5.97391">
        <ele>1018.1733398</ele>
        <time>2013-05-14T08:19:39Z</time>
      </trkpt>
      <trkpt lat="44.47741" lon="5.97385">
        <ele>1018.1733398</ele>
        <time>2013-05-14T08:19:41Z</time>
      </trkpt>
      <trkpt lat="44.47757" lon="5.97375">
        <ele>1018.1733398</ele>
        <time>2013-05-14T08:19:45Z</time>
      </trkpt>
      <trkpt lat="44.47778" lon="5.97359">
        <ele>1017.692627</ele>
        <time>2013-05-14T08:19:50Z</time>
      </trkpt>
      <trkpt lat="44.4779" lon="5.97345">
        <ele>1017.2121582</ele>
        <time>2013-05-14T08:19:53Z</time>
      </trkpt>
      <trkpt lat="44.47796" lon="5.97319">
        <ele>1017.2121582</ele>
        <time>2013-05-14T08:19:58Z</time>
      </trkpt>
      <trkpt lat="44.47794" lon="5.97307">
        <ele>1017.2121582</ele>
        <time>2013-05-14T08:20:00Z</time>
      </trkpt>
      <trkpt lat="44.47776" lon="5.97286">
        <ele>1016.2507324</ele>
        <time>2013-05-14T08:20:05Z</time>
      </trkpt>
      <trkpt lat="44.47738" lon="5.97274">
        <ele>1016.2507324</ele>
        <time>2013-05-14T08:20:13Z</time>
      </trkpt>
      <trkpt lat="44.4772" lon="5.9726">
        <ele>1015.2895508</ele>
        <time>2013-05-14T08:20:17Z</time>
      </trkpt>
      <trkpt lat="44.47676" lon="5.97174">
        <ele>1016.7314453</ele>
        <time>2013-05-14T08:20:32Z</time>
      </trkpt>
      <trkpt lat="44.4763" lon="5.97082">
        <ele>1015.7702637</ele>
        <time>2013-05-14T08:20:48Z</time>
      </trkpt>
      <trkpt lat="44.47605" lon="5.97054">
        <ele>1015.7702637</ele>
        <time>2013-05-14T08:20:55Z</time>
      </trkpt>
      <trkpt lat="44.4753" lon="5.96977">
        <ele>1016.2507324</ele>
        <time>2013-05-14T08:21:14Z</time>
      </trkpt>
      <trkpt lat="44.47504" lon="5.96943">
        <ele>1015.7702637</ele>
        <time>2013-05-14T08:21:21Z</time>
      </trkpt>
      <trkpt lat="44.47504" lon="5.96903">
        <ele>1015.7702637</ele>
        <time>2013-05-14T08:21:28Z</time>
      </trkpt>
      <trkpt lat="44.47524" lon="5.96872">
        <ele>1014.8088379</ele>
        <time>2013-05-14T08:21:33Z</time>
      </trkpt>
      <trkpt lat="44.47536" lon="5.9685">
        <ele>1013.3669434</ele>
        <time>2013-05-14T08:21:36Z</time>
      </trkpt>
      <trkpt lat="44.47542" lon="5.96832">
        <ele>1012.4055176</ele>
        <time>2013-05-14T08:21:38Z</time>
      </trkpt>
      <trkpt lat="44.47547" lon="5.96782">
        <ele>1010.4829102</ele>
        <time>2013-05-14T08:21:43Z</time>
      </trkpt>
      <trkpt lat="44.4756" lon="5.96742">
        <ele>1008.079834</ele>
        <time>2013-05-14T08:21:47Z</time>
      </trkpt>
      <trkpt lat="44.47579" lon="5.96695">
        <ele>1007.5991211</ele>
        <time>2013-05-14T08:21:52Z</time>
      </trkpt>
      <trkpt lat="44.47573" lon="5.9665">
        <ele>1008.079834</ele>
        <time>2013-05-14T08:21:59Z</time>
      </trkpt>
      <trkpt lat="44.4756" lon="5.96639">
        <ele>1008.079834</ele>
        <time>2013-05-14T08:22:02Z</time>
      </trkpt>
      <trkpt lat="44.47537" lon="5.96646">
        <ele>1006.6376953</ele>
        <time>2013-05-14T08:22:07Z</time>
      </trkpt>
      <trkpt lat="44.47527" lon="5.96654">
        <ele>1007.1184082</ele>
        <time>2013-05-14T08:22:09Z</time>
      </trkpt>
      <trkpt lat="44.47519" lon="5.96661">
        <ele>1007.5991211</ele>
        <time>2013-05-14T08:22:11Z</time>
      </trkpt>
      <trkpt lat="44.47494" lon="5.96684">
        <ele>1008.5603027</ele>
        <time>2013-05-14T08:22:18Z</time>
      </trkpt>
      <trkpt lat="44.47479" lon="5.96704">
        <ele>1008.5603027</ele>
        <time>2013-05-14T08:22:23Z</time>
      </trkpt>
      <trkpt lat="44.47465" lon="5.96733">
        <ele>1009.5217285</ele>
        <time>2013-05-14T08:22:29Z</time>
      </trkpt>
      <trkpt lat="44.47435" lon="5.96751">
        <ele>1008.079834</ele>
        <time>2013-05-14T08:22:35Z</time>
      </trkpt>
      <trkpt lat="44.47373" lon="5.96749">
        <ele>1004.7150879</ele>
        <time>2013-05-14T08:22:44Z</time>
      </trkpt>
      <trkpt lat="44.47365" lon="5.9675">
        <ele>1004.7150879</ele>
        <time>2013-05-14T08:22:45Z</time>
      </trkpt>
      <trkpt lat="44.47324" lon="5.96758">
        <ele>1002.3115234</ele>
        <time>2013-05-14T08:22:50Z</time>
      </trkpt>
      <trkpt lat="44.47306" lon="5.96763">
        <ele>1000.8696289</ele>
        <time>2013-05-14T08:22:52Z</time>
      </trkpt>
      <trkpt lat="44.4727" lon="5.96776">
        <ele>997.9858398</ele>
        <time>2013-05-14T08:22:56Z</time>
      </trkpt>
      <trkpt lat="44.47239" lon="5.96776">
        <ele>999.9084473</ele>
        <time>2013-05-14T08:23:00Z</time>
      </trkpt>
      <trkpt lat="44.47222" lon="5.96769">
        <ele>1002.3115234</ele>
        <time>2013-05-14T08:23:03Z</time>
      </trkpt>
      <trkpt lat="44.47191" lon="5.96762">
        <ele>1002.3115234</ele>
        <time>2013-05-14T08:23:09Z</time>
      </trkpt>
      <trkpt lat="44.47168" lon="5.96757">
        <ele>1000.8696289</ele>
        <time>2013-05-14T08:23:13Z</time>
      </trkpt>
      <trkpt lat="44.47149" lon="5.96755">
        <ele>1000.3891602</ele>
        <time>2013-05-14T08:23:16Z</time>
      </trkpt>
      <trkpt lat="44.47129" lon="5.96755">
        <ele>998.9470215</ele>
        <time>2013-05-14T08:23:19Z</time>
      </trkpt>
      <trkpt lat="44.47073" lon="5.96789">
        <ele>996.5439453</ele>
        <time>2013-05-14T08:23:27Z</time>
      </trkpt>
      <trkpt lat="44.46979" lon="5.9683">
        <ele>995.1018066</ele>
        <time>2013-05-14T08:23:41Z</time>
      </trkpt>
      <trkpt lat="44.46951" lon="5.96841">
        <ele>995.5825195</ele>
        <time>2013-05-14T08:23:46Z</time>
      </trkpt>
      <trkpt lat="44.4693" lon="5.96839">
        <ele>996.0632324</ele>
        <time>2013-05-14T08:23:50Z</time>
      </trkpt>
      <trkpt lat="44.46828" lon="5.96793">
        <ele>993.1791992</ele>
        <time>2013-05-14T08:24:09Z</time>
      </trkpt>
      <trkpt lat="44.46723" lon="5.96745">
        <ele>993.1791992</ele>
        <time>2013-05-14T08:24:30Z</time>
      </trkpt>
      <trkpt lat="44.46618" lon="5.96698">
        <ele>993.6599121</ele>
        <time>2013-05-14T08:24:54Z</time>
      </trkpt>
      <trkpt lat="44.46533" lon="5.9666">
        <ele>994.140625</ele>
        <time>2013-05-14T08:25:16Z</time>
      </trkpt>
      <trkpt lat="44.46517" lon="5.96658">
        <ele>993.6599121</ele>
        <time>2013-05-14T08:25:20Z</time>
      </trkpt>
      <trkpt lat="44.46506" lon="5.96662">
        <ele>994.140625</ele>
        <time>2013-05-14T08:25:23Z</time>
      </trkpt>
      <trkpt lat="44.46488" lon="5.96676">
        <ele>994.140625</ele>
        <time>2013-05-14T08:25:27Z</time>
      </trkpt>
      <trkpt lat="44.46463" lon="5.96714">
        <ele>993.6599121</ele>
        <time>2013-05-14T08:25:34Z</time>
      </trkpt>
      <trkpt lat="44.46441" lon="5.96729">
        <ele>993.6599121</ele>
        <time>2013-05-14T08:25:39Z</time>
      </trkpt>
      <trkpt lat="44.46355" lon="5.96759">
        <ele>994.6210938</ele>
        <time>2013-05-14T08:25:58Z</time>
      </trkpt>
      <trkpt lat="44.463" lon="5.96771">
        <ele>995.1018066</ele>
        <time>2013-05-14T08:26:12Z</time>
      </trkpt>
      <trkpt lat="44.46268" lon="5.96806">
        <ele>995.5825195</ele>
        <time>2013-05-14T08:26:22Z</time>
      </trkpt>
      <trkpt lat="44.46247" lon="5.9684">
        <ele>996.0632324</ele>
        <time>2013-05-14T08:26:31Z</time>
      </trkpt>
      <trkpt lat="44.46232" lon="5.96884">
        <ele>996.0632324</ele>
        <time>2013-05-14T08:26:38Z</time>
      </trkpt>
      <trkpt lat="44.46224" lon="5.96922">
        <ele>996.0632324</ele>
        <time>2013-05-14T08:26:44Z</time>
      </trkpt>
      <trkpt lat="44.46208" lon="5.96961">
        <ele>996.0632324</ele>
        <time>2013-05-14T08:26:50Z</time>
      </trkpt>
      <trkpt lat="44.462" lon="5.96969">
        <ele>996.5439453</ele>
        <time>2013-05-14T08:26:52Z</time>
      </trkpt>
      <trkpt lat="44.46168" lon="5.96982">
        <ele>996.5439453</ele>
        <time>2013-05-14T08:27:00Z</time>
      </trkpt>
      <trkpt lat="44.46154" lon="5.96993">
        <ele>997.0244141</ele>
        <time>2013-05-14T08:27:04Z</time>
      </trkpt>
      <trkpt lat="44.46123" lon="5.97063">
        <ele>997.0244141</ele>
        <time>2013-05-14T08:27:18Z</time>
      </trkpt>
      <trkpt lat="44.46118" lon="5.97091">
        <ele>997.0244141</ele>
        <time>2013-05-14T08:27:23Z</time>
      </trkpt>
      <trkpt lat="44.46088" lon="5.97118">
        <ele>997.0244141</ele>
        <time>2013-05-14T08:27:31Z</time>
      </trkpt>
      <trkpt lat="44.46058" lon="5.97126">
        <ele>997.505127</ele>
        <time>2013-05-14T08:27:39Z</time>
      </trkpt>
      <trkpt lat="44.46026" lon="5.9717">
        <ele>997.9858398</ele>
        <time>2013-05-14T08:27:49Z</time>
      </trkpt>
      <trkpt lat="44.46021" lon="5.97177">
        <ele>997.9858398</ele>
        <time>2013-05-14T08:27:51Z</time>
      </trkpt>
      <trkpt lat="44.45994" lon="5.97225">
        <ele>997.9858398</ele>
        <time>2013-05-14T08:28:01Z</time>
      </trkpt>
      <trkpt lat="44.4598" lon="5.97266">
        <ele>998.4663086</ele>
        <time>2013-05-14T08:28:08Z</time>
      </trkpt>
      <trkpt lat="44.45975" lon="5.97281">
        <ele>997.9858398</ele>
        <time>2013-05-14T08:28:11Z</time>
      </trkpt>
      <trkpt lat="44.45967" lon="5.97303">
        <ele>998.4663086</ele>
        <time>2013-05-14T08:28:15Z</time>
      </trkpt>
      <trkpt lat="44.45958" lon="5.97327">
        <ele>998.9470215</ele>
        <time>2013-05-14T08:28:19Z</time>
      </trkpt>
      <trkpt lat="44.45946" lon="5.97385">
        <ele>998.9470215</ele>
        <time>2013-05-14T08:28:28Z</time>
      </trkpt>
      <trkpt lat="44.45949" lon="5.97409">
        <ele>999.4277344</ele>
        <time>2013-05-14T08:28:32Z</time>
      </trkpt>
      <trkpt lat="44.4596" lon="5.97432">
        <ele>998.9470215</ele>
        <time>2013-05-14T08:28:37Z</time>
      </trkpt>
      <trkpt lat="44.45967" lon="5.97439">
        <ele>998.9470215</ele>
        <time>2013-05-14T08:28:39Z</time>
      </trkpt>
      <trkpt lat="44.45985" lon="5.97449">
        <ele>999.4277344</ele>
        <time>2013-05-14T08:28:43Z</time>
      </trkpt>
      <trkpt lat="44.46018" lon="5.97465">
        <ele>999.4277344</ele>
        <time>2013-05-14T08:28:51Z</time>
      </trkpt>
      <trkpt lat="44.46037" lon="5.97514">
        <ele>1000.3891602</ele>
        <time>2013-05-14T08:29:01Z</time>
      </trkpt>
      <trkpt lat="44.46035" lon="5.97527">
        <ele>1000.3891602</ele>
        <time>2013-05-14T08:29:03Z</time>
      </trkpt>
      <trkpt lat="44.46027" lon="5.97554">
        <ele>1000.8696289</ele>
        <time>2013-05-14T08:29:08Z</time>
      </trkpt>
      <trkpt lat="44.46015" lon="5.97592">
        <ele>1000.8696289</ele>
        <time>2013-05-14T08:29:15Z</time>
      </trkpt>
      <trkpt lat="44.45986" lon="5.97671">
        <ele>1000.8696289</ele>
        <time>2013-05-14T08:29:29Z</time>
      </trkpt>
      <trkpt lat="44.45934" lon="5.97691">
        <ele>1002.3115234</ele>
        <time>2013-05-14T08:29:41Z</time>
      </trkpt>
      <trkpt lat="44.45922" lon="5.97702">
        <ele>1001.8310547</ele>
        <time>2013-05-14T08:29:44Z</time>
      </trkpt>
      <trkpt lat="44.4589" lon="5.9775">
        <ele>1001.8310547</ele>
        <time>2013-05-14T08:29:55Z</time>
      </trkpt>
      <trkpt lat="44.45882" lon="5.97771">
        <ele>1001.8310547</ele>
        <time>2013-05-14T08:29:59Z</time>
      </trkpt>
      <trkpt lat="44.45879" lon="5.97783">
        <ele>1002.3115234</ele>
        <time>2013-05-14T08:30:01Z</time>
      </trkpt>
      <trkpt lat="44.45879" lon="5.97857">
        <ele>1002.7922363</ele>
        <time>2013-05-14T08:30:14Z</time>
      </trkpt>
      <trkpt lat="44.45855" lon="5.97913">
        <ele>1004.2346191</ele>
        <time>2013-05-14T08:30:27Z</time>
      </trkpt>
      <trkpt lat="44.45822" lon="5.97981">
        <ele>1005.1958008</ele>
        <time>2013-05-14T08:30:42Z</time>
      </trkpt>
      <trkpt lat="44.45788" lon="5.98047">
        <ele>1005.6765137</ele>
        <time>2013-05-14T08:30:57Z</time>
      </trkpt>
      <trkpt lat="44.45742" lon="5.98089">
        <ele>1007.1184082</ele>
        <time>2013-05-14T08:31:12Z</time>
      </trkpt>
      <trkpt lat="44.45699" lon="5.98124">
        <ele>1010.0021973</ele>
        <time>2013-05-14T08:31:27Z</time>
      </trkpt>
      <trkpt lat="44.45665" lon="5.98153">
        <ele>1012.4055176</ele>
        <time>2013-05-14T08:31:39Z</time>
      </trkpt>
      <trkpt lat="44.45627" lon="5.98175">
        <ele>1015.2895508</ele>
        <time>2013-05-14T08:31:52Z</time>
      </trkpt>
      <trkpt lat="44.45624" lon="5.98176">
        <ele>1015.2895508</ele>
        <time>2013-05-14T08:31:53Z</time>
      </trkpt>
      <trkpt lat="44.45607" lon="5.9818">
        <ele>1016.7314453</ele>
        <time>2013-05-14T08:31:58Z</time>
      </trkpt>
      <trkpt lat="44.45565" lon="5.98191">
        <ele>1020.0961914</ele>
        <time>2013-05-14T08:32:09Z</time>
      </trkpt>
      <trkpt lat="44.4556" lon="5.98193">
        <ele>1020.0961914</ele>
        <time>2013-05-14T08:32:10Z</time>
      </trkpt>
      <trkpt lat="44.45513" lon="5.98205">
        <ele>1023.9414063</ele>
        <time>2013-05-14T08:32:21Z</time>
      </trkpt>
      <trkpt lat="44.45475" lon="5.98218">
        <ele>1027.3061523</ele>
        <time>2013-05-14T08:32:30Z</time>
      </trkpt>
      <trkpt lat="44.45437" lon="5.98233">
        <ele>1030.6706543</ele>
        <time>2013-05-14T08:32:40Z</time>
      </trkpt>
      <trkpt lat="44.45433" lon="5.98235">
        <ele>1030.6706543</ele>
        <time>2013-05-14T08:32:41Z</time>
      </trkpt>
      <trkpt lat="44.454" lon="5.9824">
        <ele>1034.0351563</ele>
        <time>2013-05-14T08:32:49Z</time>
      </trkpt>
      <trkpt lat="44.45358" lon="5.98243">
        <ele>1036.9191895</ele>
        <time>2013-05-14T08:33:00Z</time>
      </trkpt>
      <trkpt lat="44.4535" lon="5.98243">
        <ele>1037.8806152</ele>
        <time>2013-05-14T08:33:02Z</time>
      </trkpt>
      <trkpt lat="44.45324" lon="5.98235">
        <ele>1039.8032227</ele>
        <time>2013-05-14T08:33:08Z</time>
      </trkpt>
      <trkpt lat="44.45287" lon="5.98224">
        <ele>1042.6872559</ele>
        <time>2013-05-14T08:33:19Z</time>
      </trkpt>
      <trkpt lat="44.45237" lon="5.98194">
        <ele>1045.090332</ele>
        <time>2013-05-14T08:33:36Z</time>
      </trkpt>
      <trkpt lat="44.45207" lon="5.98174">
        <ele>1045.090332</ele>
        <time>2013-05-14T08:33:50Z</time>
      </trkpt>
      <trkpt lat="44.45207" lon="5.98174">
        <ele>1045.090332</ele>
        <time>2013-05-14T08:41:13Z</time>
      </trkpt>
      <trkpt lat="44.45194" lon="5.98176">
        <ele>1044.1291504</ele>
        <time>2013-05-14T08:41:18Z</time>
      </trkpt>
      <trkpt lat="44.45167" lon="5.98219">
        <ele>1039.8032227</ele>
        <time>2013-05-14T08:41:25Z</time>
      </trkpt>
      <trkpt lat="44.45162" lon="5.98229">
        <ele>1039.8032227</ele>
        <time>2013-05-14T08:41:26Z</time>
      </trkpt>
      <trkpt lat="44.45151" lon="5.98249">
        <ele>1037.8806152</ele>
        <time>2013-05-14T08:41:28Z</time>
      </trkpt>
      <trkpt lat="44.45137" lon="5.98267">
        <ele>1036.4387207</ele>
        <time>2013-05-14T08:41:30Z</time>
      </trkpt>
      <trkpt lat="44.45122" lon="5.98282">
        <ele>1030.6706543</ele>
        <time>2013-05-14T08:41:32Z</time>
      </trkpt>
      <trkpt lat="44.45114" lon="5.98288">
        <ele>1030.6706543</ele>
        <time>2013-05-14T08:41:33Z</time>
      </trkpt>
      <trkpt lat="44.45105" lon="5.98293">
        <ele>1027.3061523</ele>
        <time>2013-05-14T08:41:34Z</time>
      </trkpt>
      <trkpt lat="44.45096" lon="5.98298">
        <ele>1027.3061523</ele>
        <time>2013-05-14T08:41:35Z</time>
      </trkpt>
      <trkpt lat="44.45086" lon="5.98301">
        <ele>1026.3447266</ele>
        <time>2013-05-14T08:41:36Z</time>
      </trkpt>
      <trkpt lat="44.45055" lon="5.98308">
        <ele>1022.4995117</ele>
        <time>2013-05-14T08:41:39Z</time>
      </trkpt>
      <trkpt lat="44.45044" lon="5.98309">
        <ele>1022.4995117</ele>
        <time>2013-05-14T08:41:40Z</time>
      </trkpt>
      <trkpt lat="44.45022" lon="5.98312">
        <ele>1019.6154785</ele>
        <time>2013-05-14T08:41:42Z</time>
      </trkpt>
      <trkpt lat="44.45" lon="5.98315">
        <ele>1017.692627</ele>
        <time>2013-05-14T08:41:44Z</time>
      </trkpt>
      <trkpt lat="44.44967" lon="5.98319">
        <ele>1014.8088379</ele>
        <time>2013-05-14T08:41:47Z</time>
      </trkpt>
      <trkpt lat="44.44945" lon="5.98322">
        <ele>1012.8862305</ele>
        <time>2013-05-14T08:41:49Z</time>
      </trkpt>
      <trkpt lat="44.44926" lon="5.98326">
        <ele>1010.963623</ele>
        <time>2013-05-14T08:41:51Z</time>
      </trkpt>
      <trkpt lat="44.44918" lon="5.98329">
        <ele>1009.5217285</ele>
        <time>2013-05-14T08:41:52Z</time>
      </trkpt>
      <trkpt lat="44.44904" lon="5.9834">
        <ele>1008.5603027</ele>
        <time>2013-05-14T08:41:54Z</time>
      </trkpt>
      <trkpt lat="44.44894" lon="5.98357">
        <ele>1007.1184082</ele>
        <time>2013-05-14T08:41:56Z</time>
      </trkpt>
      <trkpt lat="44.44891" lon="5.98376">
        <ele>1005.1958008</ele>
        <time>2013-05-14T08:41:58Z</time>
      </trkpt>
      <trkpt lat="44.4489" lon="5.98387">
        <ele>1003.7536621</ele>
        <time>2013-05-14T08:41:59Z</time>
      </trkpt>
      <trkpt lat="44.44889" lon="5.98412">
        <ele>1002.7922363</ele>
        <time>2013-05-14T08:42:01Z</time>
      </trkpt>
      <trkpt lat="44.44885" lon="5.98438">
        <ele>999.9084473</ele>
        <time>2013-05-14T08:42:03Z</time>
      </trkpt>
      <trkpt lat="44.44881" lon="5.98446">
        <ele>999.9084473</ele>
        <time>2013-05-14T08:42:04Z</time>
      </trkpt>
      <trkpt lat="44.44889" lon="5.98494">
        <ele>996.5439453</ele>
        <time>2013-05-14T08:42:09Z</time>
      </trkpt>
      <trkpt lat="44.44895" lon="5.98526">
        <ele>995.1018066</ele>
        <time>2013-05-14T08:42:12Z</time>
      </trkpt>
      <trkpt lat="44.44885" lon="5.98544">
        <ele>993.6599121</ele>
        <time>2013-05-14T08:42:14Z</time>
      </trkpt>
      <trkpt lat="44.44877" lon="5.9855">
        <ele>992.2180176</ele>
        <time>2013-05-14T08:42:15Z</time>
      </trkpt>
      <trkpt lat="44.44861" lon="5.98555">
        <ele>991.2565918</ele>
        <time>2013-05-14T08:42:17Z</time>
      </trkpt>
      <trkpt lat="44.44843" lon="5.98558">
        <ele>989.8146973</ele>
        <time>2013-05-14T08:42:19Z</time>
      </trkpt>
      <trkpt lat="44.44824" lon="5.98559">
        <ele>987.8918457</ele>
        <time>2013-05-14T08:42:21Z</time>
      </trkpt>
      <trkpt lat="44.44804" lon="5.98559">
        <ele>985.0080566</ele>
        <time>2013-05-14T08:42:23Z</time>
      </trkpt>
      <trkpt lat="44.44793" lon="5.98559">
        <ele>985.0080566</ele>
        <time>2013-05-14T08:42:24Z</time>
      </trkpt>
      <trkpt lat="44.44772" lon="5.98558">
        <ele>983.565918</ele>
        <time>2013-05-14T08:42:26Z</time>
      </trkpt>
      <trkpt lat="44.44751" lon="5.98557">
        <ele>981.1628418</ele>
        <time>2013-05-14T08:42:28Z</time>
      </trkpt>
      <trkpt lat="44.44729" lon="5.98555">
        <ele>976.3562012</ele>
        <time>2013-05-14T08:42:30Z</time>
      </trkpt>
      <trkpt lat="44.44718" lon="5.98554">
        <ele>976.3562012</ele>
        <time>2013-05-14T08:42:31Z</time>
      </trkpt>
      <trkpt lat="44.44698" lon="5.98556">
        <ele>974.4335938</ele>
        <time>2013-05-14T08:42:33Z</time>
      </trkpt>
      <trkpt lat="44.44676" lon="5.98561">
        <ele>972.0302734</ele>
        <time>2013-05-14T08:42:35Z</time>
      </trkpt>
      <trkpt lat="44.44646" lon="5.98574">
        <ele>968.1848145</ele>
        <time>2013-05-14T08:42:38Z</time>
      </trkpt>
      <trkpt lat="44.44626" lon="5.98584">
        <ele>965.7817383</ele>
        <time>2013-05-14T08:42:40Z</time>
      </trkpt>
      <trkpt lat="44.44583" lon="5.98607">
        <ele>962.8977051</ele>
        <time>2013-05-14T08:42:45Z</time>
      </trkpt>
      <trkpt lat="44.44566" lon="5.98615">
        <ele>961.4558105</ele>
        <time>2013-05-14T08:42:47Z</time>
      </trkpt>
      <trkpt lat="44.44546" lon="5.98616">
        <ele>960.0136719</ele>
        <time>2013-05-14T08:42:49Z</time>
      </trkpt>
      <trkpt lat="44.44526" lon="5.98623">
        <ele>957.6105957</ele>
        <time>2013-05-14T08:42:51Z</time>
      </trkpt>
      <trkpt lat="44.44506" lon="5.98627">
        <ele>955.6877441</ele>
        <time>2013-05-14T08:42:53Z</time>
      </trkpt>
      <trkpt lat="44.44477" lon="5.98642">
        <ele>955.2070313</ele>
        <time>2013-05-14T08:42:56Z</time>
      </trkpt>
      <trkpt lat="44.44459" lon="5.98653">
        <ele>953.7651367</ele>
        <time>2013-05-14T08:42:58Z</time>
      </trkpt>
      <trkpt lat="44.44442" lon="5.98669">
        <ele>950.4006348</ele>
        <time>2013-05-14T08:43:00Z</time>
      </trkpt>
      <trkpt lat="44.44414" lon="5.98677">
        <ele>948.9584961</ele>
        <time>2013-05-14T08:43:03Z</time>
      </trkpt>
      <trkpt lat="44.44404" lon="5.98679">
        <ele>947.0358887</ele>
        <time>2013-05-14T08:43:04Z</time>
      </trkpt>
      <trkpt lat="44.44364" lon="5.98681">
        <ele>944.1520996</ele>
        <time>2013-05-14T08:43:08Z</time>
      </trkpt>
      <trkpt lat="44.44343" lon="5.98679">
        <ele>941.7487793</ele>
        <time>2013-05-14T08:43:10Z</time>
      </trkpt>
      <trkpt lat="44.44321" lon="5.98675">
        <ele>939.8259277</ele>
        <time>2013-05-14T08:43:12Z</time>
      </trkpt>
      <trkpt lat="44.44299" lon="5.98672">
        <ele>936.4614258</ele>
        <time>2013-05-14T08:43:14Z</time>
      </trkpt>
      <trkpt lat="44.44289" lon="5.9867">
        <ele>936.4614258</ele>
        <time>2013-05-14T08:43:15Z</time>
      </trkpt>
      <trkpt lat="44.44279" lon="5.98668">
        <ele>935.0195313</ele>
        <time>2013-05-14T08:43:16Z</time>
      </trkpt>
      <trkpt lat="44.44252" lon="5.9866">
        <ele>933.5773926</ele>
        <time>2013-05-14T08:43:19Z</time>
      </trkpt>
      <trkpt lat="44.44225" lon="5.98656">
        <ele>931.6547852</ele>
        <time>2013-05-14T08:43:22Z</time>
      </trkpt>
      <trkpt lat="44.44209" lon="5.98667">
        <ele>930.2128906</ele>
        <time>2013-05-14T08:43:24Z</time>
      </trkpt>
      <trkpt lat="44.44194" lon="5.9868">
        <ele>928.7709961</ele>
        <time>2013-05-14T08:43:26Z</time>
      </trkpt>
      <trkpt lat="44.44183" lon="5.9868">
        <ele>927.8095703</ele>
        <time>2013-05-14T08:43:27Z</time>
      </trkpt>
      <trkpt lat="44.44165" lon="5.98676">
        <ele>926.3676758</ele>
        <time>2013-05-14T08:43:29Z</time>
      </trkpt>
      <trkpt lat="44.44147" lon="5.98671">
        <ele>925.40625</ele>
        <time>2013-05-14T08:43:31Z</time>
      </trkpt>
      <trkpt lat="44.44133" lon="5.9866">
        <ele>923.9641113</ele>
        <time>2013-05-14T08:43:33Z</time>
      </trkpt>
      <trkpt lat="44.44126" lon="5.98651">
        <ele>921.560791</ele>
        <time>2013-05-14T08:43:34Z</time>
      </trkpt>
      <trkpt lat="44.441" lon="5.98607">
        <ele>918.677002</ele>
        <time>2013-05-14T08:43:38Z</time>
      </trkpt>
      <trkpt lat="44.4409" lon="5.98586">
        <ele>918.1962891</ele>
        <time>2013-05-14T08:43:40Z</time>
      </trkpt>
      <trkpt lat="44.44076" lon="5.98567">
        <ele>916.2736816</ele>
        <time>2013-05-14T08:43:42Z</time>
      </trkpt>
      <trkpt lat="44.44059" lon="5.98554">
        <ele>912.4284668</ele>
        <time>2013-05-14T08:43:44Z</time>
      </trkpt>
      <trkpt lat="44.4405" lon="5.98548">
        <ele>912.4284668</ele>
        <time>2013-05-14T08:43:45Z</time>
      </trkpt>
      <trkpt lat="44.44011" lon="5.98524">
        <ele>909.0639648</ele>
        <time>2013-05-14T08:43:49Z</time>
      </trkpt>
      <trkpt lat="44.43989" lon="5.98512">
        <ele>905.2185059</ele>
        <time>2013-05-14T08:43:51Z</time>
      </trkpt>
      <trkpt lat="44.43979" lon="5.98506">
        <ele>905.2185059</ele>
        <time>2013-05-14T08:43:52Z</time>
      </trkpt>
      <trkpt lat="44.43959" lon="5.98494">
        <ele>903.2958984</ele>
        <time>2013-05-14T08:43:54Z</time>
      </trkpt>
      <trkpt lat="44.43922" lon="5.98468">
        <ele>899.4506836</ele>
        <time>2013-05-14T08:43:58Z</time>
      </trkpt>
      <trkpt lat="44.43913" lon="5.9846">
        <ele>899.4506836</ele>
        <time>2013-05-14T08:43:59Z</time>
      </trkpt>
      <trkpt lat="44.43879" lon="5.98435">
        <ele>896.5668945</ele>
        <time>2013-05-14T08:44:03Z</time>
      </trkpt>
      <trkpt lat="44.43856" lon="5.98429">
        <ele>895.1247559</ele>
        <time>2013-05-14T08:44:06Z</time>
      </trkpt>
      <trkpt lat="44.43837" lon="5.98445">
        <ele>892.7216797</ele>
        <time>2013-05-14T08:44:09Z</time>
      </trkpt>
      <trkpt lat="44.43825" lon="5.98459">
        <ele>892.2409668</ele>
        <time>2013-05-14T08:44:11Z</time>
      </trkpt>
      <trkpt lat="44.438" lon="5.98457">
        <ele>889.8374023</ele>
        <time>2013-05-14T08:44:15Z</time>
      </trkpt>
      <trkpt lat="44.43792" lon="5.98452">
        <ele>887.9147949</ele>
        <time>2013-05-14T08:44:16Z</time>
      </trkpt>
      <trkpt lat="44.43767" lon="5.98439">
        <ele>886.4729004</ele>
        <time>2013-05-14T08:44:19Z</time>
      </trkpt>
      <trkpt lat="44.43744" lon="5.98416">
        <ele>883.5888672</ele>
        <time>2013-05-14T08:44:22Z</time>
      </trkpt>
      <trkpt lat="44.43728" lon="5.98397">
        <ele>881.185791</ele>
        <time>2013-05-14T08:44:24Z</time>
      </trkpt>
      <trkpt lat="44.43713" lon="5.9838">
        <ele>879.2629395</ele>
        <time>2013-05-14T08:44:26Z</time>
      </trkpt>
      <trkpt lat="44.43692" lon="5.98364">
        <ele>877.8210449</ele>
        <time>2013-05-14T08:44:29Z</time>
      </trkpt>
      <trkpt lat="44.43658" lon="5.98365">
        <ele>874.9370117</ele>
        <time>2013-05-14T08:44:35Z</time>
      </trkpt>
      <trkpt lat="44.43653" lon="5.98371">
        <ele>874.9370117</ele>
        <time>2013-05-14T08:44:36Z</time>
      </trkpt>
      <trkpt lat="44.4364" lon="5.98386">
        <ele>873.0144043</ele>
        <time>2013-05-14T08:44:38Z</time>
      </trkpt>
      <trkpt lat="44.43627" lon="5.98404">
        <ele>871.0917969</ele>
        <time>2013-05-14T08:44:40Z</time>
      </trkpt>
      <trkpt lat="44.43612" lon="5.98423">
        <ele>866.7658691</ele>
        <time>2013-05-14T08:44:42Z</time>
      </trkpt>
      <trkpt lat="44.43605" lon="5.98433">
        <ele>866.7658691</ele>
        <time>2013-05-14T08:44:43Z</time>
      </trkpt>
      <trkpt lat="44.43589" lon="5.98451">
        <ele>865.3239746</ele>
        <time>2013-05-14T08:44:45Z</time>
      </trkpt>
      <trkpt lat="44.4357" lon="5.98467">
        <ele>863.4013672</ele>
        <time>2013-05-14T08:44:47Z</time>
      </trkpt>
      <trkpt lat="44.43551" lon="5.98481">
        <ele>860.0366211</ele>
        <time>2013-05-14T08:44:49Z</time>
      </trkpt>
      <trkpt lat="44.43543" lon="5.98488">
        <ele>860.0366211</ele>
        <time>2013-05-14T08:44:50Z</time>
      </trkpt>
      <trkpt lat="44.43527" lon="5.985">
        <ele>860.0366211</ele>
        <time>2013-05-14T08:44:52Z</time>
      </trkpt>
      <trkpt lat="44.43513" lon="5.98507">
        <ele>858.5944824</ele>
        <time>2013-05-14T08:44:54Z</time>
      </trkpt>
      <trkpt lat="44.43501" lon="5.98505">
        <ele>857.1525879</ele>
        <time>2013-05-14T08:44:56Z</time>
      </trkpt>
      <trkpt lat="44.43492" lon="5.98483">
        <ele>854.7492676</ele>
        <time>2013-05-14T08:44:59Z</time>
      </trkpt>
      <trkpt lat="44.43494" lon="5.98463">
        <ele>852.8266602</ele>
        <time>2013-05-14T08:45:01Z</time>
      </trkpt>
      <trkpt lat="44.43499" lon="5.98426">
        <ele>848.9814453</ele>
        <time>2013-05-14T08:45:04Z</time>
      </trkpt>
      <trkpt lat="44.43502" lon="5.98398">
        <ele>847.0588379</ele>
        <time>2013-05-14T08:45:06Z</time>
      </trkpt>
      <trkpt lat="44.43506" lon="5.98369">
        <ele>845.6169434</ele>
        <time>2013-05-14T08:45:08Z</time>
      </trkpt>
      <trkpt lat="44.43505" lon="5.98248">
        <ele>844.6555176</ele>
        <time>2013-05-14T08:45:17Z</time>
      </trkpt>
      <trkpt lat="44.43502" lon="5.98222">
        <ele>845.6169434</ele>
        <time>2013-05-14T08:45:20Z</time>
      </trkpt>
      <trkpt lat="44.43504" lon="5.98191">
        <ele>843.6940918</ele>
        <time>2013-05-14T08:45:24Z</time>
      </trkpt>
      <trkpt lat="44.43511" lon="5.98168">
        <ele>841.2907715</ele>
        <time>2013-05-14T08:45:27Z</time>
      </trkpt>
      <trkpt lat="44.43517" lon="5.98153">
        <ele>840.3295898</ele>
        <time>2013-05-14T08:45:29Z</time>
      </trkpt>
      <trkpt lat="44.43523" lon="5.98137">
        <ele>839.848877</ele>
        <time>2013-05-14T08:45:35Z</time>
      </trkpt>
      <trkpt lat="44.43535" lon="5.98137">
        <ele>839.848877</ele>
        <time>2013-05-14T08:45:54Z</time>
      </trkpt>
      <trkpt lat="44.43535" lon="5.98137">
        <ele>839.3681641</ele>
        <time>2013-05-14T08:46:34Z</time>
      </trkpt>
      <trkpt lat="44.43535" lon="5.98137">
        <ele>839.848877</ele>
        <time>2013-05-14T08:47:48Z</time>
      </trkpt>
      <trkpt lat="44.43535" lon="5.98137">
        <ele>840.8100586</ele>
        <time>2013-05-14T08:48:41Z</time>
      </trkpt>
      <trkpt lat="44.43535" lon="5.98137">
        <ele>841.2907715</ele>
        <time>2013-05-14T08:50:55Z</time>
      </trkpt>
      <trkpt lat="44.43535" lon="5.98137">
        <ele>840.8100586</ele>
        <time>2013-05-14T08:50:58Z</time>
      </trkpt>
      <trkpt lat="44.43535" lon="5.98137">
        <ele>840.8100586</ele>
        <time>2013-05-14T08:51:07Z</time>
      </trkpt>
      <trkpt lat="44.43542" lon="5.98137">
        <ele>840.3295898</ele>
        <time>2013-05-14T08:51:11Z</time>
      </trkpt>
      <trkpt lat="44.43564" lon="5.98138">
        <ele>839.3681641</ele>
        <time>2013-05-14T08:51:17Z</time>
      </trkpt>
      <trkpt lat="44.4359" lon="5.98142">
        <ele>837.4455566</ele>
        <time>2013-05-14T08:51:21Z</time>
      </trkpt>
      <trkpt lat="44.43614" lon="5.98143">
        <ele>836.0036621</ele>
        <time>2013-05-14T08:51:24Z</time>
      </trkpt>
      <trkpt lat="44.43634" lon="5.98137">
        <ele>835.5229492</ele>
        <time>2013-05-14T08:51:27Z</time>
      </trkpt>
      <trkpt lat="44.43664" lon="5.98152">
        <ele>834.0810547</ele>
        <time>2013-05-14T08:51:32Z</time>
      </trkpt>
      <trkpt lat="44.43695" lon="5.98187">
        <ele>833.1196289</ele>
        <time>2013-05-14T08:51:41Z</time>
      </trkpt>
      <trkpt lat="44.43708" lon="5.98204">
        <ele>831.1972656</ele>
        <time>2013-05-14T08:51:50Z</time>
      </trkpt>
      <trkpt lat="44.43752" lon="5.98183">
        <ele>828.7939453</ele>
        <time>2013-05-14T08:51:58Z</time>
      </trkpt>
      <trkpt lat="44.43764" lon="5.98154">
        <ele>825.909668</ele>
        <time>2013-05-14T08:52:01Z</time>
      </trkpt>
      <trkpt lat="44.43779" lon="5.98109">
        <ele>823.5065918</ele>
        <time>2013-05-14T08:52:05Z</time>
      </trkpt>
      <trkpt lat="44.43788" lon="5.98085">
        <ele>819.661377</ele>
        <time>2013-05-14T08:52:07Z</time>
      </trkpt>
      <trkpt lat="44.43793" lon="5.98073">
        <ele>819.661377</ele>
        <time>2013-05-14T08:52:08Z</time>
      </trkpt>
      <trkpt lat="44.43801" lon="5.98046">
        <ele>818.2192383</ele>
        <time>2013-05-14T08:52:10Z</time>
      </trkpt>
      <trkpt lat="44.4381" lon="5.98019">
        <ele>816.7773438</ele>
        <time>2013-05-14T08:52:12Z</time>
      </trkpt>
      <trkpt lat="44.43819" lon="5.9798">
        <ele>814.3740234</ele>
        <time>2013-05-14T08:52:15Z</time>
      </trkpt>
      <trkpt lat="44.43809" lon="5.97922">
        <ele>812.451416</ele>
        <time>2013-05-14T08:52:21Z</time>
      </trkpt>
      <trkpt lat="44.43781" lon="5.97878">
        <ele>810.5285645</ele>
        <time>2013-05-14T08:52:26Z</time>
      </trkpt>
      <trkpt lat="44.43771" lon="5.97824">
        <ele>808.605957</ele>
        <time>2013-05-14T08:52:31Z</time>
      </trkpt>
      <trkpt lat="44.43779" lon="5.97802">
        <ele>807.6447754</ele>
        <time>2013-05-14T08:52:33Z</time>
      </trkpt>
      <trkpt lat="44.43839" lon="5.97643">
        <ele>804.2802734</ele>
        <time>2013-05-14T08:52:48Z</time>
      </trkpt>
      <trkpt lat="44.43879" lon="5.97533">
        <ele>803.3188477</ele>
        <time>2013-05-14T08:53:00Z</time>
      </trkpt>
      <trkpt lat="44.439" lon="5.97429">
        <ele>801.3962402</ele>
        <time>2013-05-14T08:53:11Z</time>
      </trkpt>
      <trkpt lat="44.4393" lon="5.97285">
        <ele>798.512207</ele>
        <time>2013-05-14T08:53:25Z</time>
      </trkpt>
      <trkpt lat="44.43939" lon="5.97238">
        <ele>796.1091309</ele>
        <time>2013-05-14T08:53:29Z</time>
      </trkpt>
      <trkpt lat="44.43943" lon="5.97213">
        <ele>794.1862793</ele>
        <time>2013-05-14T08:53:31Z</time>
      </trkpt>
      <trkpt lat="44.43949" lon="5.97189">
        <ele>792.7443848</ele>
        <time>2013-05-14T08:53:33Z</time>
      </trkpt>
      <trkpt lat="44.43974" lon="5.97136">
        <ele>789.8603516</ele>
        <time>2013-05-14T08:53:38Z</time>
      </trkpt>
      <trkpt lat="44.4398" lon="5.97127">
        <ele>788.418457</ele>
        <time>2013-05-14T08:53:39Z</time>
      </trkpt>
      <trkpt lat="44.43978" lon="5.97071">
        <ele>789.3796387</ele>
        <time>2013-05-14T08:53:45Z</time>
      </trkpt>
      <trkpt lat="44.43973" lon="5.97064">
        <ele>789.3796387</ele>
        <time>2013-05-14T08:53:46Z</time>
      </trkpt>
      <trkpt lat="44.43957" lon="5.97039">
        <ele>790.3410645</ele>
        <time>2013-05-14T08:53:50Z</time>
      </trkpt>
      <trkpt lat="44.43946" lon="5.97019">
        <ele>790.8215332</ele>
        <time>2013-05-14T08:53:53Z</time>
      </trkpt>
      <trkpt lat="44.43938" lon="5.96934">
        <ele>794.1862793</ele>
        <time>2013-05-14T08:54:05Z</time>
      </trkpt>
      <trkpt lat="44.43931" lon="5.96849">
        <ele>796.1091309</ele>
        <time>2013-05-14T08:54:20Z</time>
      </trkpt>
      <trkpt lat="44.43933" lon="5.96752">
        <ele>797.0703125</ele>
        <time>2013-05-14T08:54:36Z</time>
      </trkpt>
      <trkpt lat="44.43934" lon="5.96746">
        <ele>797.0703125</ele>
        <time>2013-05-14T08:54:37Z</time>
      </trkpt>
      <trkpt lat="44.43943" lon="5.96686">
        <ele>796.5898438</ele>
        <time>2013-05-14T08:54:46Z</time>
      </trkpt>
      <trkpt lat="44.43948" lon="5.96654">
        <ele>795.1474609</ele>
        <time>2013-05-14T08:54:50Z</time>
      </trkpt>
      <trkpt lat="44.43958" lon="5.96597">
        <ele>790.8215332</ele>
        <time>2013-05-14T08:54:56Z</time>
      </trkpt>
      <trkpt lat="44.4396" lon="5.96584">
        <ele>790.8215332</ele>
        <time>2013-05-14T08:54:57Z</time>
      </trkpt>
      <trkpt lat="44.43969" lon="5.96547">
        <ele>787.9377441</ele>
        <time>2013-05-14T08:55:00Z</time>
      </trkpt>
      <trkpt lat="44.43973" lon="5.96535">
        <ele>787.9377441</ele>
        <time>2013-05-14T08:55:01Z</time>
      </trkpt>
      <trkpt lat="44.43983" lon="5.9651">
        <ele>783.6118164</ele>
        <time>2013-05-14T08:55:03Z</time>
      </trkpt>
      <trkpt lat="44.43988" lon="5.96497">
        <ele>783.6118164</ele>
        <time>2013-05-14T08:55:04Z</time>
      </trkpt>
      <trkpt lat="44.44009" lon="5.96447">
        <ele>782.6506348</ele>
        <time>2013-05-14T08:55:08Z</time>
      </trkpt>
      <trkpt lat="44.44021" lon="5.96415">
        <ele>785.5344238</ele>
        <time>2013-05-14T08:55:11Z</time>
      </trkpt>
      <trkpt lat="44.44027" lon="5.96399">
        <ele>787.4570313</ele>
        <time>2013-05-14T08:55:13Z</time>
      </trkpt>
      <trkpt lat="44.44041" lon="5.96355">
        <ele>789.3796387</ele>
        <time>2013-05-14T08:55:20Z</time>
      </trkpt>
      <trkpt lat="44.44065" lon="5.96279">
        <ele>792.2636719</ele>
        <time>2013-05-14T08:55:36Z</time>
      </trkpt>
      <trkpt lat="44.44085" lon="5.96213">
        <ele>793.7055664</ele>
        <time>2013-05-14T08:55:50Z</time>
      </trkpt>
      <trkpt lat="44.44103" lon="5.96155">
        <ele>795.1474609</ele>
        <time>2013-05-14T08:56:03Z</time>
      </trkpt>
      <trkpt lat="44.44108" lon="5.96135">
        <ele>795.6281738</ele>
        <time>2013-05-14T08:56:07Z</time>
      </trkpt>
      <trkpt lat="44.44122" lon="5.96116">
        <ele>796.1091309</ele>
        <time>2013-05-14T08:56:12Z</time>
      </trkpt>
      <trkpt lat="44.44136" lon="5.96107">
        <ele>796.1091309</ele>
        <time>2013-05-14T08:56:16Z</time>
      </trkpt>
      <trkpt lat="44.44152" lon="5.96105">
        <ele>796.1091309</ele>
        <time>2013-05-14T08:56:20Z</time>
      </trkpt>
      <trkpt lat="44.44168" lon="5.96106">
        <ele>796.1091309</ele>
        <time>2013-05-14T08:56:24Z</time>
      </trkpt>
      <trkpt lat="44.44196" lon="5.96071">
        <ele>791.782959</ele>
        <time>2013-05-14T08:56:31Z</time>
      </trkpt>
      <trkpt lat="44.44193" lon="5.96051">
        <ele>791.782959</ele>
        <time>2013-05-14T08:56:33Z</time>
      </trkpt>
      <trkpt lat="44.44203" lon="5.96002">
        <ele>789.3796387</ele>
        <time>2013-05-14T08:56:38Z</time>
      </trkpt>
      <trkpt lat="44.44217" lon="5.95974">
        <ele>788.418457</ele>
        <time>2013-05-14T08:56:41Z</time>
      </trkpt>
      <trkpt lat="44.44228" lon="5.9593">
        <ele>786.9763184</ele>
        <time>2013-05-14T08:56:45Z</time>
      </trkpt>
      <trkpt lat="44.44246" lon="5.95899">
        <ele>785.5344238</ele>
        <time>2013-05-14T08:56:49Z</time>
      </trkpt>
      <trkpt lat="44.44268" lon="5.95882">
        <ele>784.0925293</ele>
        <time>2013-05-14T08:56:52Z</time>
      </trkpt>
      <trkpt lat="44.44289" lon="5.9585">
        <ele>778.3244629</ele>
        <time>2013-05-14T08:56:55Z</time>
      </trkpt>
      <trkpt lat="44.44302" lon="5.95831">
        <ele>777.84375</ele>
        <time>2013-05-14T08:56:57Z</time>
      </trkpt>
      <trkpt lat="44.44332" lon="5.95813">
        <ele>781.2087402</ele>
        <time>2013-05-14T08:57:02Z</time>
      </trkpt>
      <trkpt lat="44.44356" lon="5.95812">
        <ele>780.7280273</ele>
        <time>2013-05-14T08:57:06Z</time>
      </trkpt>
      <trkpt lat="44.44377" lon="5.95811">
        <ele>778.8051758</ele>
        <time>2013-05-14T08:57:09Z</time>
      </trkpt>
      <trkpt lat="44.44409" lon="5.9576">
        <ele>775.4404297</ele>
        <time>2013-05-14T08:57:16Z</time>
      </trkpt>
      <trkpt lat="44.44387" lon="5.95703">
        <ele>774.9599609</ele>
        <time>2013-05-14T08:57:23Z</time>
      </trkpt>
      <trkpt lat="44.44364" lon="5.95677">
        <ele>775.4404297</ele>
        <time>2013-05-14T08:57:28Z</time>
      </trkpt>
      <trkpt lat="44.44298" lon="5.95647">
        <ele>777.84375</ele>
        <time>2013-05-14T08:57:43Z</time>
      </trkpt>
      <trkpt lat="44.44248" lon="5.95629">
        <ele>778.3244629</ele>
        <time>2013-05-14T08:57:57Z</time>
      </trkpt>
      <trkpt lat="44.44217" lon="5.95635">
        <ele>779.7663574</ele>
        <time>2013-05-14T08:58:06Z</time>
      </trkpt>
      <trkpt lat="44.44178" lon="5.95674">
        <ele>781.2087402</ele>
        <time>2013-05-14T08:58:19Z</time>
      </trkpt>
      <trkpt lat="44.44148" lon="5.95707">
        <ele>782.1699219</ele>
        <time>2013-05-14T08:58:30Z</time>
      </trkpt>
      <trkpt lat="44.4412" lon="5.9574">
        <ele>783.1311035</ele>
        <time>2013-05-14T08:58:40Z</time>
      </trkpt>
      <trkpt lat="44.44099" lon="5.95784">
        <ele>784.0925293</ele>
        <time>2013-05-14T08:58:51Z</time>
      </trkpt>
      <trkpt lat="44.44093" lon="5.95791">
        <ele>784.0925293</ele>
        <time>2013-05-14T08:58:53Z</time>
      </trkpt>
      <trkpt lat="44.44079" lon="5.95792">
        <ele>784.5732422</ele>
        <time>2013-05-14T08:58:57Z</time>
      </trkpt>
      <trkpt lat="44.44062" lon="5.95783">
        <ele>786.0151367</ele>
        <time>2013-05-14T08:59:02Z</time>
      </trkpt>
      <trkpt lat="44.44043" lon="5.95725">
        <ele>786.4958496</ele>
        <time>2013-05-14T08:59:14Z</time>
      </trkpt>
      <trkpt lat="44.44039" lon="5.95649">
        <ele>788.418457</ele>
        <time>2013-05-14T08:59:30Z</time>
      </trkpt>
      <trkpt lat="44.44016" lon="5.95583">
        <ele>789.3796387</ele>
        <time>2013-05-14T08:59:45Z</time>
      </trkpt>
      <trkpt lat="44.43996" lon="5.95548">
        <ele>789.8603516</ele>
        <time>2013-05-14T08:59:54Z</time>
      </trkpt>
      <trkpt lat="44.4398" lon="5.9548">
        <ele>790.3410645</ele>
        <time>2013-05-14T09:00:08Z</time>
      </trkpt>
      <trkpt lat="44.43979" lon="5.95417">
        <ele>790.3410645</ele>
        <time>2013-05-14T09:00:20Z</time>
      </trkpt>
      <trkpt lat="44.4399" lon="5.95335">
        <ele>790.8215332</ele>
        <time>2013-05-14T09:00:36Z</time>
      </trkpt>
      <trkpt lat="44.43992" lon="5.9532">
        <ele>791.3022461</ele>
        <time>2013-05-14T09:00:39Z</time>
      </trkpt>
      <trkpt lat="44.43998" lon="5.95242">
        <ele>791.3022461</ele>
        <time>2013-05-14T09:00:53Z</time>
      </trkpt>
      <trkpt lat="44.43991" lon="5.95221">
        <ele>790.8215332</ele>
        <time>2013-05-14T09:00:57Z</time>
      </trkpt>
      <trkpt lat="44.43986" lon="5.95212">
        <ele>791.3022461</ele>
        <time>2013-05-14T09:00:59Z</time>
      </trkpt>
      <trkpt lat="44.43929" lon="5.95143">
        <ele>792.2636719</ele>
        <time>2013-05-14T09:01:17Z</time>
      </trkpt>
      <trkpt lat="44.43919" lon="5.95132">
        <ele>791.3022461</ele>
        <time>2013-05-14T09:01:20Z</time>
      </trkpt>
      <trkpt lat="44.43904" lon="5.95121">
        <ele>791.3022461</ele>
        <time>2013-05-14T09:01:24Z</time>
      </trkpt>
      <trkpt lat="44.43896" lon="5.95118">
        <ele>790.8215332</ele>
        <time>2013-05-14T09:01:26Z</time>
      </trkpt>
      <trkpt lat="44.43872" lon="5.95109">
        <ele>791.782959</ele>
        <time>2013-05-14T09:01:32Z</time>
      </trkpt>
      <trkpt lat="44.43848" lon="5.951">
        <ele>791.3022461</ele>
        <time>2013-05-14T09:01:38Z</time>
      </trkpt>
      <trkpt lat="44.43768" lon="5.95067">
        <ele>790.8215332</ele>
        <time>2013-05-14T09:01:59Z</time>
      </trkpt>
      <trkpt lat="44.4374" lon="5.9504">
        <ele>790.8215332</ele>
        <time>2013-05-14T09:02:09Z</time>
      </trkpt>
      <trkpt lat="44.4372" lon="5.94997">
        <ele>791.782959</ele>
        <time>2013-05-14T09:02:21Z</time>
      </trkpt>
      <trkpt lat="44.43717" lon="5.94981">
        <ele>792.2636719</ele>
        <time>2013-05-14T09:02:25Z</time>
      </trkpt>
      <trkpt lat="44.4371" lon="5.94925">
        <ele>793.7055664</ele>
        <time>2013-05-14T09:02:38Z</time>
      </trkpt>
      <trkpt lat="44.43702" lon="5.94864">
        <ele>793.7055664</ele>
        <time>2013-05-14T09:02:52Z</time>
      </trkpt>
      <trkpt lat="44.43692" lon="5.94765">
        <ele>794.1862793</ele>
        <time>2013-05-14T09:03:09Z</time>
      </trkpt>
      <trkpt lat="44.43684" lon="5.94702">
        <ele>793.7055664</ele>
        <time>2013-05-14T09:03:19Z</time>
      </trkpt>
      <trkpt lat="44.4365" lon="5.9461">
        <ele>795.6281738</ele>
        <time>2013-05-14T09:03:37Z</time>
      </trkpt>
      <trkpt lat="44.43622" lon="5.94561">
        <ele>797.0703125</ele>
        <time>2013-05-14T09:03:50Z</time>
      </trkpt>
      <trkpt lat="44.43592" lon="5.94522">
        <ele>799.4736328</ele>
        <time>2013-05-14T09:04:02Z</time>
      </trkpt>
      <trkpt lat="44.43564" lon="5.94454">
        <ele>801.3962402</ele>
        <time>2013-05-14T09:04:19Z</time>
      </trkpt>
      <trkpt lat="44.43573" lon="5.94393">
        <ele>802.8381348</ele>
        <time>2013-05-14T09:04:32Z</time>
      </trkpt>
      <trkpt lat="44.43588" lon="5.94331">
        <ele>803.7995605</ele>
        <time>2013-05-14T09:04:45Z</time>
      </trkpt>
      <trkpt lat="44.43609" lon="5.94242">
        <ele>805.722168</ele>
        <time>2013-05-14T09:05:04Z</time>
      </trkpt>
      <trkpt lat="44.43611" lon="5.94158">
        <ele>806.2026367</ele>
        <time>2013-05-14T09:05:20Z</time>
      </trkpt>
      <trkpt lat="44.43609" lon="5.94099">
        <ele>808.605957</ele>
        <time>2013-05-14T09:05:33Z</time>
      </trkpt>
      <trkpt lat="44.43609" lon="5.94084">
        <ele>809.0866699</ele>
        <time>2013-05-14T09:05:36Z</time>
      </trkpt>
      <trkpt lat="44.43609" lon="5.94024">
        <ele>811.9707031</ele>
        <time>2013-05-14T09:05:49Z</time>
      </trkpt>
      <trkpt lat="44.43608" lon="5.93988">
        <ele>813.8933105</ele>
        <time>2013-05-14T09:05:57Z</time>
      </trkpt>
      <trkpt lat="44.43598" lon="5.93935">
        <ele>815.8161621</ele>
        <time>2013-05-14T09:06:09Z</time>
      </trkpt>
      <trkpt lat="44.43581" lon="5.93863">
        <ele>818.2192383</ele>
        <time>2013-05-14T09:06:26Z</time>
      </trkpt>
      <trkpt lat="44.43561" lon="5.93798">
        <ele>819.661377</ele>
        <time>2013-05-14T09:06:41Z</time>
      </trkpt>
      <trkpt lat="44.43526" lon="5.93768">
        <ele>821.5837402</ele>
        <time>2013-05-14T09:06:53Z</time>
      </trkpt>
      <trkpt lat="44.43473" lon="5.93727">
        <ele>823.5065918</ele>
        <time>2013-05-14T09:07:11Z</time>
      </trkpt>
      <trkpt lat="44.43434" lon="5.93694">
        <ele>824.9484863</ele>
        <time>2013-05-14T09:07:25Z</time>
      </trkpt>
      <trkpt lat="44.43413" lon="5.93673">
        <ele>825.909668</ele>
        <time>2013-05-14T09:07:33Z</time>
      </trkpt>
      <trkpt lat="44.43422" lon="5.93598">
        <ele>825.4289551</ele>
        <time>2013-05-14T09:07:46Z</time>
      </trkpt>
      <trkpt lat="44.43427" lon="5.93505">
        <ele>823.0258789</ele>
        <time>2013-05-14T09:08:00Z</time>
      </trkpt>
      <trkpt lat="44.43429" lon="5.93467">
        <ele>822.545166</ele>
        <time>2013-05-14T09:08:05Z</time>
      </trkpt>
      <trkpt lat="44.43446" lon="5.93388">
        <ele>820.1418457</ele>
        <time>2013-05-14T09:08:15Z</time>
      </trkpt>
      <trkpt lat="44.4348" lon="5.9328">
        <ele>817.7385254</ele>
        <time>2013-05-14T09:08:29Z</time>
      </trkpt>
      <trkpt lat="44.43488" lon="5.93259">
        <ele>817.2580566</ele>
        <time>2013-05-14T09:08:32Z</time>
      </trkpt>
      <trkpt lat="44.43506" lon="5.93225">
        <ele>815.8161621</ele>
        <time>2013-05-14T09:08:37Z</time>
      </trkpt>
      <trkpt lat="44.43512" lon="5.93188">
        <ele>815.3354492</ele>
        <time>2013-05-14T09:08:41Z</time>
      </trkpt>
      <trkpt lat="44.43504" lon="5.93145">
        <ele>818.2192383</ele>
        <time>2013-05-14T09:08:48Z</time>
      </trkpt>
      <trkpt lat="44.4352" lon="5.93104">
        <ele>820.6225586</ele>
        <time>2013-05-14T09:08:59Z</time>
      </trkpt>
      <trkpt lat="44.43559" lon="5.9306">
        <ele>823.0258789</ele>
        <time>2013-05-14T09:09:14Z</time>
      </trkpt>
      <trkpt lat="44.43579" lon="5.93026">
        <ele>823.5065918</ele>
        <time>2013-05-14T09:09:23Z</time>
      </trkpt>
      <trkpt lat="44.43581" lon="5.93022">
        <ele>824.4677734</ele>
        <time>2013-05-14T09:09:24Z</time>
      </trkpt>
      <trkpt lat="44.43577" lon="5.92981">
        <ele>823.5065918</ele>
        <time>2013-05-14T09:09:36Z</time>
      </trkpt>
      <trkpt lat="44.43576" lon="5.92976">
        <ele>822.0644531</ele>
        <time>2013-05-14T09:09:37Z</time>
      </trkpt>
      <trkpt lat="44.43568" lon="5.92948">
        <ele>820.1418457</ele>
        <time>2013-05-14T09:09:42Z</time>
      </trkpt>
      <trkpt lat="44.43553" lon="5.92904">
        <ele>816.7773438</ele>
        <time>2013-05-14T09:09:49Z</time>
      </trkpt>
      <trkpt lat="44.43544" lon="5.92883">
        <ele>816.7773438</ele>
        <time>2013-05-14T09:09:52Z</time>
      </trkpt>
      <trkpt lat="44.43539" lon="5.9287">
        <ele>814.3740234</ele>
        <time>2013-05-14T09:09:54Z</time>
      </trkpt>
      <trkpt lat="44.43532" lon="5.92856">
        <ele>812.9321289</ele>
        <time>2013-05-14T09:09:56Z</time>
      </trkpt>
      <trkpt lat="44.43518" lon="5.92839">
        <ele>811.4899902</ele>
        <time>2013-05-14T09:09:59Z</time>
      </trkpt>
      <trkpt lat="44.43502" lon="5.92822">
        <ele>809.5673828</ele>
        <time>2013-05-14T09:10:02Z</time>
      </trkpt>
      <trkpt lat="44.43491" lon="5.9281">
        <ele>807.6447754</ele>
        <time>2013-05-14T09:10:04Z</time>
      </trkpt>
      <trkpt lat="44.43478" lon="5.92796">
        <ele>806.6833496</ele>
        <time>2013-05-14T09:10:07Z</time>
      </trkpt>
      <trkpt lat="44.43464" lon="5.92761">
        <ele>804.7607422</ele>
        <time>2013-05-14T09:10:13Z</time>
      </trkpt>
      <trkpt lat="44.43484" lon="5.9273">
        <ele>802.3574219</ele>
        <time>2013-05-14T09:10:19Z</time>
      </trkpt>
      <trkpt lat="44.43521" lon="5.92722">
        <ele>798.0317383</ele>
        <time>2013-05-14T09:10:26Z</time>
      </trkpt>
      <trkpt lat="44.43527" lon="5.92721">
        <ele>798.0317383</ele>
        <time>2013-05-14T09:10:27Z</time>
      </trkpt>
      <trkpt lat="44.43539" lon="5.92719">
        <ele>796.1091309</ele>
        <time>2013-05-14T09:10:29Z</time>
      </trkpt>
      <trkpt lat="44.43565" lon="5.92699">
        <ele>795.1474609</ele>
        <time>2013-05-14T09:10:34Z</time>
      </trkpt>
      <trkpt lat="44.43577" lon="5.92684">
        <ele>793.7055664</ele>
        <time>2013-05-14T09:10:37Z</time>
      </trkpt>
      <trkpt lat="44.436" lon="5.92673">
        <ele>792.2636719</ele>
        <time>2013-05-14T09:10:41Z</time>
      </trkpt>
      <trkpt lat="44.43619" lon="5.92683">
        <ele>792.7443848</ele>
        <time>2013-05-14T09:10:45Z</time>
      </trkpt>
      <trkpt lat="44.43653" lon="5.92668">
        <ele>791.3022461</ele>
        <time>2013-05-14T09:10:52Z</time>
      </trkpt>
      <trkpt lat="44.43657" lon="5.92653">
        <ele>790.8215332</ele>
        <time>2013-05-14T09:10:54Z</time>
      </trkpt>
      <trkpt lat="44.4366" lon="5.92637">
        <ele>790.3410645</ele>
        <time>2013-05-14T09:10:56Z</time>
      </trkpt>
      <trkpt lat="44.43636" lon="5.92597">
        <ele>788.418457</ele>
        <time>2013-05-14T09:11:03Z</time>
      </trkpt>
      <trkpt lat="44.43626" lon="5.92595">
        <ele>787.4570313</ele>
        <time>2013-05-14T09:11:05Z</time>
      </trkpt>
      <trkpt lat="44.43617" lon="5.92587">
        <ele>786.4958496</ele>
        <time>2013-05-14T09:11:07Z</time>
      </trkpt>
      <trkpt lat="44.43614" lon="5.92573">
        <ele>785.0539551</ele>
        <time>2013-05-14T09:11:09Z</time>
      </trkpt>
      <trkpt lat="44.43615" lon="5.92557">
        <ele>784.0925293</ele>
        <time>2013-05-14T09:11:11Z</time>
      </trkpt>
      <trkpt lat="44.43616" lon="5.92537">
        <ele>783.1311035</ele>
        <time>2013-05-14T09:11:13Z</time>
      </trkpt>
      <trkpt lat="44.43614" lon="5.92509">
        <ele>782.6506348</ele>
        <time>2013-05-14T09:11:16Z</time>
      </trkpt>
      <trkpt lat="44.43605" lon="5.92473">
        <ele>784.5732422</ele>
        <time>2013-05-14T09:11:22Z</time>
      </trkpt>
      <trkpt lat="44.43611" lon="5.92455">
        <ele>784.0925293</ele>
        <time>2013-05-14T09:11:26Z</time>
      </trkpt>
      <trkpt lat="44.43633" lon="5.92426">
        <ele>782.6506348</ele>
        <time>2013-05-14T09:11:32Z</time>
      </trkpt>
      <trkpt lat="44.43673" lon="5.92403">
        <ele>780.2473145</ele>
        <time>2013-05-14T09:11:39Z</time>
      </trkpt>
      <trkpt lat="44.43705" lon="5.92397">
        <ele>778.3244629</ele>
        <time>2013-05-14T09:11:44Z</time>
      </trkpt>
      <trkpt lat="44.4371" lon="5.9239">
        <ele>778.3244629</ele>
        <time>2013-05-14T09:11:45Z</time>
      </trkpt>
      <trkpt lat="44.4372" lon="5.92372">
        <ele>777.3632813</ele>
        <time>2013-05-14T09:11:47Z</time>
      </trkpt>
      <trkpt lat="44.43751" lon="5.92358">
        <ele>777.3632813</ele>
        <time>2013-05-14T09:11:52Z</time>
      </trkpt>
      <trkpt lat="44.43786" lon="5.9234">
        <ele>776.4018555</ele>
        <time>2013-05-14T09:11:59Z</time>
      </trkpt>
      <trkpt lat="44.43815" lon="5.92307">
        <ele>775.4404297</ele>
        <time>2013-05-14T09:12:06Z</time>
      </trkpt>
      <trkpt lat="44.43833" lon="5.92296">
        <ele>774.479248</ele>
        <time>2013-05-14T09:12:09Z</time>
      </trkpt>
      <trkpt lat="44.43859" lon="5.92266">
        <ele>772.5566406</ele>
        <time>2013-05-14T09:12:14Z</time>
      </trkpt>
      <trkpt lat="44.43864" lon="5.9226">
        <ele>772.0759277</ele>
        <time>2013-05-14T09:12:15Z</time>
      </trkpt>
      <trkpt lat="44.43891" lon="5.92224">
        <ele>770.1533203</ele>
        <time>2013-05-14T09:12:21Z</time>
      </trkpt>
      <trkpt lat="44.43892" lon="5.92195">
        <ele>772.5566406</ele>
        <time>2013-05-14T09:12:27Z</time>
      </trkpt>
      <trkpt lat="44.43847" lon="5.9218">
        <ele>774.9599609</ele>
        <time>2013-05-14T09:12:40Z</time>
      </trkpt>
      <trkpt lat="44.4381" lon="5.92192">
        <ele>776.8825684</ele>
        <time>2013-05-14T09:12:52Z</time>
      </trkpt>
      <trkpt lat="44.43805" lon="5.92146">
        <ele>779.2856445</ele>
        <time>2013-05-14T09:13:02Z</time>
      </trkpt>
      <trkpt lat="44.43809" lon="5.92095">
        <ele>782.6506348</ele>
        <time>2013-05-14T09:13:12Z</time>
      </trkpt>
      <trkpt lat="44.4381" lon="5.92091">
        <ele>782.6506348</ele>
        <time>2013-05-14T09:13:13Z</time>
      </trkpt>
      <trkpt lat="44.43819" lon="5.92075">
        <ele>784.5732422</ele>
        <time>2013-05-14T09:13:17Z</time>
      </trkpt>
      <trkpt lat="44.43831" lon="5.9205">
        <ele>786.4958496</ele>
        <time>2013-05-14T09:13:23Z</time>
      </trkpt>
      <trkpt lat="44.4382" lon="5.92027">
        <ele>789.8603516</ele>
        <time>2013-05-14T09:13:31Z</time>
      </trkpt>
      <trkpt lat="44.43817" lon="5.92028">
        <ele>789.3796387</ele>
        <time>2013-05-14T09:13:32Z</time>
      </trkpt>
      <trkpt lat="44.43797" lon="5.92041">
        <ele>790.8215332</ele>
        <time>2013-05-14T09:13:37Z</time>
      </trkpt>
      <trkpt lat="44.43781" lon="5.92039">
        <ele>791.782959</ele>
        <time>2013-05-14T09:13:41Z</time>
      </trkpt>
      <trkpt lat="44.43776" lon="5.9203">
        <ele>793.2248535</ele>
        <time>2013-05-14T09:13:43Z</time>
      </trkpt>
      <trkpt lat="44.43757" lon="5.91989">
        <ele>797.0703125</ele>
        <time>2013-05-14T09:13:53Z</time>
      </trkpt>
      <trkpt lat="44.43744" lon="5.9199">
        <ele>798.512207</ele>
        <time>2013-05-14T09:13:57Z</time>
      </trkpt>
      <trkpt lat="44.43722" lon="5.92014">
        <ele>799.4736328</ele>
        <time>2013-05-14T09:14:04Z</time>
      </trkpt>
      <trkpt lat="44.43697" lon="5.92035">
        <ele>801.8769531</ele>
        <time>2013-05-14T09:14:11Z</time>
      </trkpt>
      <trkpt lat="44.43691" lon="5.92036">
        <ele>802.8381348</ele>
        <time>2013-05-14T09:14:13Z</time>
      </trkpt>
      <trkpt lat="44.43676" lon="5.92036">
        <ele>805.722168</ele>
        <time>2013-05-14T09:14:17Z</time>
      </trkpt>
      <trkpt lat="44.43636" lon="5.92027">
        <ele>808.605957</ele>
        <time>2013-05-14T09:14:28Z</time>
      </trkpt>
      <trkpt lat="44.43625" lon="5.9202">
        <ele>809.0866699</ele>
        <time>2013-05-14T09:14:31Z</time>
      </trkpt>
      <trkpt lat="44.43587" lon="5.91971">
        <ele>813.8933105</ele>
        <time>2013-05-14T09:14:44Z</time>
      </trkpt>
      <trkpt lat="44.43577" lon="5.91956">
        <ele>815.8161621</ele>
        <time>2013-05-14T09:14:48Z</time>
      </trkpt>
      <trkpt lat="44.43561" lon="5.91929">
        <ele>819.1806641</ele>
        <time>2013-05-14T09:14:56Z</time>
      </trkpt>
      <trkpt lat="44.43555" lon="5.91918">
        <ele>819.661377</ele>
        <time>2013-05-14T09:14:59Z</time>
      </trkpt>
      <trkpt lat="44.43517" lon="5.91921">
        <ele>822.545166</ele>
        <time>2013-05-14T09:15:11Z</time>
      </trkpt>
      <trkpt lat="44.43513" lon="5.91925">
        <ele>823.5065918</ele>
        <time>2013-05-14T09:15:12Z</time>
      </trkpt>
      <trkpt lat="44.43469" lon="5.91945">
        <ele>826.3903809</ele>
        <time>2013-05-14T09:15:25Z</time>
      </trkpt>
      <trkpt lat="44.43464" lon="5.91943">
        <ele>826.8710938</ele>
        <time>2013-05-14T09:15:27Z</time>
      </trkpt>
      <trkpt lat="44.43459" lon="5.91941">
        <ele>826.8710938</ele>
        <time>2013-05-14T09:15:29Z</time>
      </trkpt>
      <trkpt lat="44.43453" lon="5.91918">
        <ele>828.7939453</ele>
        <time>2013-05-14T09:15:33Z</time>
      </trkpt>
      <trkpt lat="44.43468" lon="5.91884">
        <ele>832.6391602</ele>
        <time>2013-05-14T09:15:41Z</time>
      </trkpt>
      <trkpt lat="44.4347" lon="5.91881">
        <ele>832.6391602</ele>
        <time>2013-05-14T09:15:42Z</time>
      </trkpt>
      <trkpt lat="44.43496" lon="5.91864">
        <ele>836.0036621</ele>
        <time>2013-05-14T09:15:51Z</time>
      </trkpt>
      <trkpt lat="44.43497" lon="5.91864">
        <ele>836.0036621</ele>
        <time>2013-05-14T09:15:52Z</time>
      </trkpt>
      <trkpt lat="44.43504" lon="5.91863">
        <ele>836.484375</ele>
        <time>2013-05-14T09:15:55Z</time>
      </trkpt>
      <trkpt lat="44.43504" lon="5.91863">
        <ele>837.9262695</ele>
        <time>2013-05-14T09:16:06Z</time>
      </trkpt>
      <trkpt lat="44.43504" lon="5.91863">
        <ele>838.4069824</ele>
        <time>2013-05-14T09:18:11Z</time>
      </trkpt>
      <trkpt lat="44.43523" lon="5.91835">
        <ele>837.9262695</ele>
        <time>2013-05-14T09:18:15Z</time>
      </trkpt>
      <trkpt lat="44.43523" lon="5.91824">
        <ele>839.3681641</ele>
        <time>2013-05-14T09:18:19Z</time>
      </trkpt>
      <trkpt lat="44.43523" lon="5.91806">
        <ele>839.848877</ele>
        <time>2013-05-14T09:18:24Z</time>
      </trkpt>
      <trkpt lat="44.43563" lon="5.9181">
        <ele>843.2133789</ele>
        <time>2013-05-14T09:18:38Z</time>
      </trkpt>
      <trkpt lat="44.43569" lon="5.91813">
        <ele>843.6940918</ele>
        <time>2013-05-14T09:18:41Z</time>
      </trkpt>
      <trkpt lat="44.4358" lon="5.91818">
        <ele>844.1750488</ele>
        <time>2013-05-14T09:18:45Z</time>
      </trkpt>
      <trkpt lat="44.43613" lon="5.91813">
        <ele>845.1362305</ele>
        <time>2013-05-14T09:18:53Z</time>
      </trkpt>
      <trkpt lat="44.43625" lon="5.9181">
        <ele>846.5783691</ele>
        <time>2013-05-14T09:18:56Z</time>
      </trkpt>
      <trkpt lat="44.43643" lon="5.91802">
        <ele>847.5395508</ele>
        <time>2013-05-14T09:19:01Z</time>
      </trkpt>
      <trkpt lat="44.43654" lon="5.91782">
        <ele>848.0202637</ele>
        <time>2013-05-14T09:19:04Z</time>
      </trkpt>
      <trkpt lat="44.43664" lon="5.91756">
        <ele>848.5007324</ele>
        <time>2013-05-14T09:19:09Z</time>
      </trkpt>
      <trkpt lat="44.43668" lon="5.91746">
        <ele>848.9814453</ele>
        <time>2013-05-14T09:19:11Z</time>
      </trkpt>
      <trkpt lat="44.43684" lon="5.91719">
        <ele>849.4621582</ele>
        <time>2013-05-14T09:19:16Z</time>
      </trkpt>
      <trkpt lat="44.43711" lon="5.91732">
        <ele>850.423584</ele>
        <time>2013-05-14T09:19:22Z</time>
      </trkpt>
      <trkpt lat="44.43712" lon="5.91746">
        <ele>850.423584</ele>
        <time>2013-05-14T09:19:24Z</time>
      </trkpt>
      <trkpt lat="44.43741" lon="5.91764">
        <ele>850.9040527</ele>
        <time>2013-05-14T09:19:31Z</time>
      </trkpt>
      <trkpt lat="44.438" lon="5.91727">
        <ele>853.7880859</ele>
        <time>2013-05-14T09:19:45Z</time>
      </trkpt>
      <trkpt lat="44.43845" lon="5.91686">
        <ele>857.1525879</ele>
        <time>2013-05-14T09:19:57Z</time>
      </trkpt>
      <trkpt lat="44.43874" lon="5.9166">
        <ele>860.0366211</ele>
        <time>2013-05-14T09:20:05Z</time>
      </trkpt>
      <trkpt lat="44.43917" lon="5.91613">
        <ele>863.4013672</ele>
        <time>2013-05-14T09:20:17Z</time>
      </trkpt>
      <trkpt lat="44.43924" lon="5.91602">
        <ele>863.8818359</ele>
        <time>2013-05-14T09:20:19Z</time>
      </trkpt>
      <trkpt lat="44.43931" lon="5.91587">
        <ele>864.8432617</ele>
        <time>2013-05-14T09:20:22Z</time>
      </trkpt>
      <trkpt lat="44.43938" lon="5.91572">
        <ele>866.2851563</ele>
        <time>2013-05-14T09:20:25Z</time>
      </trkpt>
      <trkpt lat="44.43973" lon="5.915">
        <ele>869.1691895</ele>
        <time>2013-05-14T09:20:39Z</time>
      </trkpt>
      <trkpt lat="44.43979" lon="5.91487">
        <ele>869.1691895</ele>
        <time>2013-05-14T09:20:41Z</time>
      </trkpt>
      <trkpt lat="44.43997" lon="5.91455">
        <ele>870.611084</ele>
        <time>2013-05-14T09:20:47Z</time>
      </trkpt>
      <trkpt lat="44.44048" lon="5.91403">
        <ele>873.9755859</ele>
        <time>2013-05-14T09:21:01Z</time>
      </trkpt>
      <trkpt lat="44.44068" lon="5.9136">
        <ele>876.3791504</ele>
        <time>2013-05-14T09:21:09Z</time>
      </trkpt>
      <trkpt lat="44.44089" lon="5.91346">
        <ele>876.3791504</ele>
        <time>2013-05-14T09:21:14Z</time>
      </trkpt>
      <trkpt lat="44.4416" lon="5.91349">
        <ele>880.2243652</ele>
        <time>2013-05-14T09:21:29Z</time>
      </trkpt>
      <trkpt lat="44.44235" lon="5.91365">
        <ele>883.5888672</ele>
        <time>2013-05-14T09:21:45Z</time>
      </trkpt>
      <trkpt lat="44.44239" lon="5.91366">
        <ele>884.0695801</ele>
        <time>2013-05-14T09:21:46Z</time>
      </trkpt>
      <trkpt lat="44.44274" lon="5.91378">
        <ele>886.4729004</ele>
        <time>2013-05-14T09:21:54Z</time>
      </trkpt>
      <trkpt lat="44.44326" lon="5.91397">
        <ele>890.798584</ele>
        <time>2013-05-14T09:22:06Z</time>
      </trkpt>
      <trkpt lat="44.44388" lon="5.91417">
        <ele>894.1635742</ele>
        <time>2013-05-14T09:22:20Z</time>
      </trkpt>
      <trkpt lat="44.44429" lon="5.91427">
        <ele>896.0861816</ele>
        <time>2013-05-14T09:22:29Z</time>
      </trkpt>
      <trkpt lat="44.44498" lon="5.91406">
        <ele>899.4506836</ele>
        <time>2013-05-14T09:22:44Z</time>
      </trkpt>
      <trkpt lat="44.44546" lon="5.91389">
        <ele>902.8151855</ele>
        <time>2013-05-14T09:22:55Z</time>
      </trkpt>
      <trkpt lat="44.44583" lon="5.91376">
        <ele>905.2185059</ele>
        <time>2013-05-14T09:23:04Z</time>
      </trkpt>
      <trkpt lat="44.44604" lon="5.91368">
        <ele>906.6604004</ele>
        <time>2013-05-14T09:23:09Z</time>
      </trkpt>
      <trkpt lat="44.44652" lon="5.91349">
        <ele>910.0251465</ele>
        <time>2013-05-14T09:23:20Z</time>
      </trkpt>
      <trkpt lat="44.44658" lon="5.91346">
        <ele>911.4672852</ele>
        <time>2013-05-14T09:23:22Z</time>
      </trkpt>
      <trkpt lat="44.44676" lon="5.91336">
        <ele>912.4284668</ele>
        <time>2013-05-14T09:23:28Z</time>
      </trkpt>
      <trkpt lat="44.44703" lon="5.91304">
        <ele>914.3510742</ele>
        <time>2013-05-14T09:23:36Z</time>
      </trkpt>
      <trkpt lat="44.44715" lon="5.9128">
        <ele>916.2736816</ele>
        <time>2013-05-14T09:23:41Z</time>
      </trkpt>
      <trkpt lat="44.44721" lon="5.91263">
        <ele>916.7543945</ele>
        <time>2013-05-14T09:23:44Z</time>
      </trkpt>
      <trkpt lat="44.44748" lon="5.91189">
        <ele>920.1188965</ele>
        <time>2013-05-14T09:23:57Z</time>
      </trkpt>
      <trkpt lat="44.44766" lon="5.91138">
        <ele>923.4836426</ele>
        <time>2013-05-14T09:24:07Z</time>
      </trkpt>
      <trkpt lat="44.44768" lon="5.91133">
        <ele>923.4836426</ele>
        <time>2013-05-14T09:24:08Z</time>
      </trkpt>
      <trkpt lat="44.44787" lon="5.91081">
        <ele>927.3291016</ele>
        <time>2013-05-14T09:24:18Z</time>
      </trkpt>
      <trkpt lat="44.44799" lon="5.91047">
        <ele>929.7321777</ele>
        <time>2013-05-14T09:24:25Z</time>
      </trkpt>
      <trkpt lat="44.44806" lon="5.91026">
        <ele>930.6936035</ele>
        <time>2013-05-14T09:24:29Z</time>
      </trkpt>
      <trkpt lat="44.44821" lon="5.90991">
        <ele>933.0966797</ele>
        <time>2013-05-14T09:24:36Z</time>
      </trkpt>
      <trkpt lat="44.44824" lon="5.90987">
        <ele>933.5773926</ele>
        <time>2013-05-14T09:24:37Z</time>
      </trkpt>
      <trkpt lat="44.4484" lon="5.9096">
        <ele>935.5</ele>
        <time>2013-05-14T09:24:43Z</time>
      </trkpt>
      <trkpt lat="44.44842" lon="5.90954">
        <ele>936.4614258</ele>
        <time>2013-05-14T09:24:44Z</time>
      </trkpt>
      <trkpt lat="44.44843" lon="5.90943">
        <ele>936.4614258</ele>
        <time>2013-05-14T09:24:46Z</time>
      </trkpt>
      <trkpt lat="44.44841" lon="5.90921">
        <ele>937.9033203</ele>
        <time>2013-05-14T09:24:50Z</time>
      </trkpt>
      <trkpt lat="44.44839" lon="5.90893">
        <ele>938.8647461</ele>
        <time>2013-05-14T09:24:54Z</time>
      </trkpt>
      <trkpt lat="44.44837" lon="5.9085">
        <ele>940.3068848</ele>
        <time>2013-05-14T09:25:01Z</time>
      </trkpt>
      <trkpt lat="44.4483" lon="5.90829">
        <ele>941.2680664</ele>
        <time>2013-05-14T09:25:05Z</time>
      </trkpt>
      <trkpt lat="44.44819" lon="5.90808">
        <ele>941.7487793</ele>
        <time>2013-05-14T09:25:09Z</time>
      </trkpt>
      <trkpt lat="44.44803" lon="5.90792">
        <ele>942.2294922</ele>
        <time>2013-05-14T09:25:13Z</time>
      </trkpt>
      <trkpt lat="44.44791" lon="5.90768">
        <ele>942.7102051</ele>
        <time>2013-05-14T09:25:18Z</time>
      </trkpt>
      <trkpt lat="44.44801" lon="5.9071">
        <ele>940.7873535</ele>
        <time>2013-05-14T09:25:26Z</time>
      </trkpt>
      <trkpt lat="44.44817" lon="5.90715">
        <ele>941.2680664</ele>
        <time>2013-05-14T09:25:29Z</time>
      </trkpt>
      <trkpt lat="44.44853" lon="5.90734">
        <ele>944.6325684</ele>
        <time>2013-05-14T09:25:37Z</time>
      </trkpt>
      <trkpt lat="44.44869" lon="5.90741">
        <ele>945.5939941</ele>
        <time>2013-05-14T09:25:41Z</time>
      </trkpt>
      <trkpt lat="44.44881" lon="5.90745">
        <ele>947.0358887</ele>
        <time>2013-05-14T09:25:44Z</time>
      </trkpt>
      <trkpt lat="44.44899" lon="5.90734">
        <ele>947.0358887</ele>
        <time>2013-05-14T09:25:48Z</time>
      </trkpt>
      <trkpt lat="44.44908" lon="5.90718">
        <ele>947.0358887</ele>
        <time>2013-05-14T09:25:51Z</time>
      </trkpt>
      <trkpt lat="44.44954" lon="5.90647">
        <ele>946.074707</ele>
        <time>2013-05-14T09:26:04Z</time>
      </trkpt>
      <trkpt lat="44.44993" lon="5.90585">
        <ele>948.4777832</ele>
        <time>2013-05-14T09:26:16Z</time>
      </trkpt>
      <trkpt lat="44.45037" lon="5.90517">
        <ele>952.8037109</ele>
        <time>2013-05-14T09:26:30Z</time>
      </trkpt>
      <trkpt lat="44.45044" lon="5.9051">
        <ele>953.2844238</ele>
        <time>2013-05-14T09:26:32Z</time>
      </trkpt>
      <trkpt lat="44.45059" lon="5.90499">
        <ele>954.2458496</ele>
        <time>2013-05-14T09:26:36Z</time>
      </trkpt>
      <trkpt lat="44.45078" lon="5.90492">
        <ele>956.168457</ele>
        <time>2013-05-14T09:26:41Z</time>
      </trkpt>
      <trkpt lat="44.45118" lon="5.90468">
        <ele>959.0524902</ele>
        <time>2013-05-14T09:26:51Z</time>
      </trkpt>
      <trkpt lat="44.45121" lon="5.90466">
        <ele>959.0524902</ele>
        <time>2013-05-14T09:26:52Z</time>
      </trkpt>
      <trkpt lat="44.45129" lon="5.90457">
        <ele>960.4943848</ele>
        <time>2013-05-14T09:26:55Z</time>
      </trkpt>
      <trkpt lat="44.45142" lon="5.90437">
        <ele>961.9365234</ele>
        <time>2013-05-14T09:27:00Z</time>
      </trkpt>
      <trkpt lat="44.45156" lon="5.90408">
        <ele>962.8977051</ele>
        <time>2013-05-14T09:27:06Z</time>
      </trkpt>
      <trkpt lat="44.4517" lon="5.90376">
        <ele>964.8203125</ele>
        <time>2013-05-14T09:27:12Z</time>
      </trkpt>
      <trkpt lat="44.45177" lon="5.90359">
        <ele>964.8203125</ele>
        <time>2013-05-14T09:27:15Z</time>
      </trkpt>
      <trkpt lat="44.45181" lon="5.9035">
        <ele>965.7817383</ele>
        <time>2013-05-14T09:27:17Z</time>
      </trkpt>
      <trkpt lat="44.45188" lon="5.90335">
        <ele>965.7817383</ele>
        <time>2013-05-14T09:27:20Z</time>
      </trkpt>
      <trkpt lat="44.45199" lon="5.90316">
        <ele>967.2236328</ele>
        <time>2013-05-14T09:27:24Z</time>
      </trkpt>
      <trkpt lat="44.45213" lon="5.90304">
        <ele>967.2236328</ele>
        <time>2013-05-14T09:27:28Z</time>
      </trkpt>
      <trkpt lat="44.45232" lon="5.90303">
        <ele>968.6655273</ele>
        <time>2013-05-14T09:27:32Z</time>
      </trkpt>
      <trkpt lat="44.45265" lon="5.90309">
        <ele>969.6269531</ele>
        <time>2013-05-14T09:27:38Z</time>
      </trkpt>
      <trkpt lat="44.45309" lon="5.90333">
        <ele>971.0688477</ele>
        <time>2013-05-14T09:27:48Z</time>
      </trkpt>
      <trkpt lat="44.45318" lon="5.90336">
        <ele>970.5881348</ele>
        <time>2013-05-14T09:27:50Z</time>
      </trkpt>
      <trkpt lat="44.45352" lon="5.90333">
        <ele>972.9916992</ele>
        <time>2013-05-14T09:27:57Z</time>
      </trkpt>
      <trkpt lat="44.45372" lon="5.90323">
        <ele>975.3947754</ele>
        <time>2013-05-14T09:28:02Z</time>
      </trkpt>
      <trkpt lat="44.45413" lon="5.90299">
        <ele>978.2788086</ele>
        <time>2013-05-14T09:28:12Z</time>
      </trkpt>
      <trkpt lat="44.45424" lon="5.90288">
        <ele>980.201416</ele>
        <time>2013-05-14T09:28:15Z</time>
      </trkpt>
      <trkpt lat="44.45432" lon="5.90272">
        <ele>981.1628418</ele>
        <time>2013-05-14T09:28:19Z</time>
      </trkpt>
      <trkpt lat="44.45435" lon="5.90262">
        <ele>981.1628418</ele>
        <time>2013-05-14T09:28:21Z</time>
      </trkpt>
      <trkpt lat="44.45435" lon="5.9025">
        <ele>982.6047363</ele>
        <time>2013-05-14T09:28:23Z</time>
      </trkpt>
      <trkpt lat="44.45439" lon="5.90214">
        <ele>984.5273438</ele>
        <time>2013-05-14T09:28:29Z</time>
      </trkpt>
      <trkpt lat="44.45448" lon="5.90192">
        <ele>985.4885254</ele>
        <time>2013-05-14T09:28:33Z</time>
      </trkpt>
      <trkpt lat="44.45468" lon="5.90149">
        <ele>988.8535156</ele>
        <time>2013-05-14T09:28:42Z</time>
      </trkpt>
      <trkpt lat="44.45474" lon="5.90127">
        <ele>990.2954102</ele>
        <time>2013-05-14T09:28:46Z</time>
      </trkpt>
      <trkpt lat="44.45493" lon="5.90069">
        <ele>993.1791992</ele>
        <time>2013-05-14T09:28:57Z</time>
      </trkpt>
      <trkpt lat="44.45513" lon="5.89999">
        <ele>996.5439453</ele>
        <time>2013-05-14T09:29:10Z</time>
      </trkpt>
      <trkpt lat="44.45519" lon="5.89953">
        <ele>998.4663086</ele>
        <time>2013-05-14T09:29:18Z</time>
      </trkpt>
      <trkpt lat="44.45518" lon="5.89929">
        <ele>998.9470215</ele>
        <time>2013-05-14T09:29:22Z</time>
      </trkpt>
      <trkpt lat="44.45515" lon="5.89912">
        <ele>999.4277344</ele>
        <time>2013-05-14T09:29:25Z</time>
      </trkpt>
      <trkpt lat="44.45498" lon="5.89844">
        <ele>1002.3115234</ele>
        <time>2013-05-14T09:29:37Z</time>
      </trkpt>
      <trkpt lat="44.45511" lon="5.89818">
        <ele>1001.8310547</ele>
        <time>2013-05-14T09:29:41Z</time>
      </trkpt>
      <trkpt lat="44.45556" lon="5.898">
        <ele>1004.2346191</ele>
        <time>2013-05-14T09:29:51Z</time>
      </trkpt>
      <trkpt lat="44.45577" lon="5.8977">
        <ele>1006.1569824</ele>
        <time>2013-05-14T09:29:57Z</time>
      </trkpt>
      <trkpt lat="44.45591" lon="5.89772">
        <ele>1007.1184082</ele>
        <time>2013-05-14T09:30:01Z</time>
      </trkpt>
      <trkpt lat="44.45601" lon="5.89784">
        <ele>1007.5991211</ele>
        <time>2013-05-14T09:30:04Z</time>
      </trkpt>
      <trkpt lat="44.4562" lon="5.89778">
        <ele>1010.4829102</ele>
        <time>2013-05-14T09:30:09Z</time>
      </trkpt>
      <trkpt lat="44.45623" lon="5.89776">
        <ele>1010.4829102</ele>
        <time>2013-05-14T09:30:10Z</time>
      </trkpt>
      <trkpt lat="44.45638" lon="5.89767">
        <ele>1011.9250488</ele>
        <time>2013-05-14T09:30:14Z</time>
      </trkpt>
      <trkpt lat="44.45649" lon="5.8975">
        <ele>1012.8862305</ele>
        <time>2013-05-14T09:30:18Z</time>
      </trkpt>
      <trkpt lat="44.45655" lon="5.89737">
        <ele>1014.328125</ele>
        <time>2013-05-14T09:30:21Z</time>
      </trkpt>
      <trkpt lat="44.45681" lon="5.89745">
        <ele>1015.2895508</ele>
        <time>2013-05-14T09:30:27Z</time>
      </trkpt>
      <trkpt lat="44.45701" lon="5.89735">
        <ele>1016.2507324</ele>
        <time>2013-05-14T09:30:32Z</time>
      </trkpt>
      <trkpt lat="44.45728" lon="5.89696">
        <ele>1019.6154785</ele>
        <time>2013-05-14T09:30:42Z</time>
      </trkpt>
      <trkpt lat="44.45755" lon="5.8967">
        <ele>1022.4995117</ele>
        <time>2013-05-14T09:30:51Z</time>
      </trkpt>
      <trkpt lat="44.4577" lon="5.89669">
        <ele>1023.4609375</ele>
        <time>2013-05-14T09:30:55Z</time>
      </trkpt>
      <trkpt lat="44.45801" lon="5.89668">
        <ele>1025.3833008</ele>
        <time>2013-05-14T09:31:02Z</time>
      </trkpt>
      <trkpt lat="44.45843" lon="5.8967">
        <ele>1028.7480469</ele>
        <time>2013-05-14T09:31:12Z</time>
      </trkpt>
      <trkpt lat="44.45858" lon="5.89668">
        <ele>1030.1899414</ele>
        <time>2013-05-14T09:31:16Z</time>
      </trkpt>
      <trkpt lat="44.45892" lon="5.89636">
        <ele>1032.1125488</ele>
        <time>2013-05-14T09:31:27Z</time>
      </trkpt>
      <trkpt lat="44.45894" lon="5.89631">
        <ele>1032.5932617</ele>
        <time>2013-05-14T09:31:28Z</time>
      </trkpt>
      <trkpt lat="44.459" lon="5.89588">
        <ele>1035.9577637</ele>
        <time>2013-05-14T09:31:36Z</time>
      </trkpt>
      <trkpt lat="44.45903" lon="5.89566">
        <ele>1037.3999023</ele>
        <time>2013-05-14T09:31:40Z</time>
      </trkpt>
      <trkpt lat="44.45912" lon="5.89509">
        <ele>1039.3225098</ele>
        <time>2013-05-14T09:31:51Z</time>
      </trkpt>
      <trkpt lat="44.45916" lon="5.89492">
        <ele>1040.2839355</ele>
        <time>2013-05-14T09:31:54Z</time>
      </trkpt>
      <trkpt lat="44.45919" lon="5.89474">
        <ele>1042.6872559</ele>
        <time>2013-05-14T09:31:57Z</time>
      </trkpt>
      <trkpt lat="44.45922" lon="5.89461">
        <ele>1043.1677246</ele>
        <time>2013-05-14T09:31:59Z</time>
      </trkpt>
      <trkpt lat="44.45926" lon="5.89444">
        <ele>1041.7258301</ele>
        <time>2013-05-14T09:32:02Z</time>
      </trkpt>
      <trkpt lat="44.45942" lon="5.89375">
        <ele>1045.090332</ele>
        <time>2013-05-14T09:32:15Z</time>
      </trkpt>
      <trkpt lat="44.45947" lon="5.89339">
        <ele>1048.454834</ele>
        <time>2013-05-14T09:32:22Z</time>
      </trkpt>
      <trkpt lat="44.45948" lon="5.89334">
        <ele>1048.454834</ele>
        <time>2013-05-14T09:32:23Z</time>
      </trkpt>
      <trkpt lat="44.45959" lon="5.89285">
        <ele>1050.8581543</ele>
        <time>2013-05-14T09:32:32Z</time>
      </trkpt>
      <trkpt lat="44.45972" lon="5.89244">
        <ele>1054.2231445</ele>
        <time>2013-05-14T09:32:40Z</time>
      </trkpt>
      <trkpt lat="44.45976" lon="5.89234">
        <ele>1053.7424316</ele>
        <time>2013-05-14T09:32:42Z</time>
      </trkpt>
      <trkpt lat="44.45989" lon="5.89181">
        <ele>1058.0683594</ele>
        <time>2013-05-14T09:32:52Z</time>
      </trkpt>
      <trkpt lat="44.45991" lon="5.89175">
        <ele>1058.0683594</ele>
        <time>2013-05-14T09:32:53Z</time>
      </trkpt>
      <trkpt lat="44.46007" lon="5.89113">
        <ele>1057.5876465</ele>
        <time>2013-05-14T09:33:04Z</time>
      </trkpt>
      <trkpt lat="44.46008" lon="5.891">
        <ele>1059.029541</ele>
        <time>2013-05-14T09:33:06Z</time>
      </trkpt>
      <trkpt lat="44.46007" lon="5.89074">
        <ele>1060.4714355</ele>
        <time>2013-05-14T09:33:10Z</time>
      </trkpt>
      <trkpt lat="44.46004" lon="5.8905">
        <ele>1060.9521484</ele>
        <time>2013-05-14T09:33:14Z</time>
      </trkpt>
      <trkpt lat="44.46004" lon="5.89033">
        <ele>1060.4714355</ele>
        <time>2013-05-14T09:33:17Z</time>
      </trkpt>
      <trkpt lat="44.46013" lon="5.8901">
        <ele>1060.4714355</ele>
        <time>2013-05-14T09:33:22Z</time>
      </trkpt>
      <trkpt lat="44.46026" lon="5.89003">
        <ele>1060.9521484</ele>
        <time>2013-05-14T09:33:25Z</time>
      </trkpt>
      <trkpt lat="44.46056" lon="5.89024">
        <ele>1062.8747559</ele>
        <time>2013-05-14T09:33:33Z</time>
      </trkpt>
      <trkpt lat="44.46073" lon="5.89029">
        <ele>1063.8359375</ele>
        <time>2013-05-14T09:33:37Z</time>
      </trkpt>
      <trkpt lat="44.46086" lon="5.89032">
        <ele>1064.3166504</ele>
        <time>2013-05-14T09:33:40Z</time>
      </trkpt>
      <trkpt lat="44.46106" lon="5.89022">
        <ele>1064.7973633</ele>
        <time>2013-05-14T09:33:45Z</time>
      </trkpt>
      <trkpt lat="44.46123" lon="5.89011">
        <ele>1066.2392578</ele>
        <time>2013-05-14T09:33:50Z</time>
      </trkpt>
      <trkpt lat="44.46134" lon="5.89006">
        <ele>1067.6811523</ele>
        <time>2013-05-14T09:33:53Z</time>
      </trkpt>
      <trkpt lat="44.46154" lon="5.88999">
        <ele>1069.604248</ele>
        <time>2013-05-14T09:33:58Z</time>
      </trkpt>
      <trkpt lat="44.46181" lon="5.88978">
        <ele>1072.4880371</ele>
        <time>2013-05-14T09:34:05Z</time>
      </trkpt>
      <trkpt lat="44.46202" lon="5.89">
        <ele>1073.9299316</ele>
        <time>2013-05-14T09:34:12Z</time>
      </trkpt>
      <trkpt lat="44.46212" lon="5.89022">
        <ele>1075.3718262</ele>
        <time>2013-05-14T09:34:17Z</time>
      </trkpt>
      <trkpt lat="44.46233" lon="5.8902">
        <ele>1076.333252</ele>
        <time>2013-05-14T09:34:23Z</time>
      </trkpt>
      <trkpt lat="44.46244" lon="5.89">
        <ele>1078.7365723</ele>
        <time>2013-05-14T09:34:28Z</time>
      </trkpt>
      <trkpt lat="44.46261" lon="5.88985">
        <ele>1080.1784668</ele>
        <time>2013-05-14T09:34:33Z</time>
      </trkpt>
      <trkpt lat="44.46279" lon="5.8897">
        <ele>1082.1010742</ele>
        <time>2013-05-14T09:34:38Z</time>
      </trkpt>
      <trkpt lat="44.46293" lon="5.88987">
        <ele>1083.5429688</ele>
        <time>2013-05-14T09:34:45Z</time>
      </trkpt>
      <trkpt lat="44.46311" lon="5.89002">
        <ele>1085.9465332</ele>
        <time>2013-05-14T09:34:50Z</time>
      </trkpt>
      <trkpt lat="44.4633" lon="5.89005">
        <ele>1086.9077148</ele>
        <time>2013-05-14T09:34:55Z</time>
      </trkpt>
      <trkpt lat="44.46351" lon="5.89011">
        <ele>1088.3498535</ele>
        <time>2013-05-14T09:35:00Z</time>
      </trkpt>
      <trkpt lat="44.46387" lon="5.89013">
        <ele>1090.2724609</ele>
        <time>2013-05-14T09:35:08Z</time>
      </trkpt>
      <trkpt lat="44.46397" lon="5.89001">
        <ele>1091.2336426</ele>
        <time>2013-05-14T09:35:12Z</time>
      </trkpt>
      <trkpt lat="44.46402" lon="5.8899">
        <ele>1091.7143555</ele>
        <time>2013-05-14T09:35:14Z</time>
      </trkpt>
      <trkpt lat="44.46401" lon="5.88959">
        <ele>1093.15625</ele>
        <time>2013-05-14T09:35:19Z</time>
      </trkpt>
      <trkpt lat="44.46386" lon="5.88903">
        <ele>1094.5981445</ele>
        <time>2013-05-14T09:35:30Z</time>
      </trkpt>
      <trkpt lat="44.46388" lon="5.88885">
        <ele>1095.0788574</ele>
        <time>2013-05-14T09:35:31Z</time>
      </trkpt>
      <trkpt lat="44.46439" lon="5.88862">
        <ele>1098.9240723</ele>
        <time>2013-05-14T09:35:45Z</time>
      </trkpt>
      <trkpt lat="44.46452" lon="5.88817">
        <ele>1100.8469238</ele>
        <time>2013-05-14T09:35:53Z</time>
      </trkpt>
      <trkpt lat="44.46452" lon="5.88764">
        <ele>1102.2888184</ele>
        <time>2013-05-14T09:36:02Z</time>
      </trkpt>
      <trkpt lat="44.46445" lon="5.88723">
        <ele>1104.2116699</ele>
        <time>2013-05-14T09:36:09Z</time>
      </trkpt>
      <trkpt lat="44.46463" lon="5.88663">
        <ele>1106.6147461</ele>
        <time>2013-05-14T09:36:20Z</time>
      </trkpt>
      <trkpt lat="44.46463" lon="5.88662">
        <ele>1106.6147461</ele>
        <time>2013-05-14T09:36:21Z</time>
      </trkpt>
      <trkpt lat="44.46469" lon="5.88611">
        <ele>1108.0568848</ele>
        <time>2013-05-14T09:36:30Z</time>
      </trkpt>
      <trkpt lat="44.46518" lon="5.88579">
        <ele>1111.9020996</ele>
        <time>2013-05-14T09:36:43Z</time>
      </trkpt>
      <trkpt lat="44.46561" lon="5.8858">
        <ele>1115.2666016</ele>
        <time>2013-05-14T09:36:54Z</time>
      </trkpt>
      <trkpt lat="44.46566" lon="5.8855">
        <ele>1116.7087402</ele>
        <time>2013-05-14T09:37:01Z</time>
      </trkpt>
      <trkpt lat="44.46549" lon="5.88487">
        <ele>1120.0732422</ele>
        <time>2013-05-14T09:37:13Z</time>
      </trkpt>
      <trkpt lat="44.46539" lon="5.8846">
        <ele>1121.034668</ele>
        <time>2013-05-14T09:37:19Z</time>
      </trkpt>
      <trkpt lat="44.46533" lon="5.88442">
        <ele>1121.5151367</ele>
        <time>2013-05-14T09:37:23Z</time>
      </trkpt>
      <trkpt lat="44.46533" lon="5.88422">
        <ele>1121.9958496</ele>
        <time>2013-05-14T09:37:27Z</time>
      </trkpt>
      <trkpt lat="44.4657" lon="5.88417">
        <ele>1124.3991699</ele>
        <time>2013-05-14T09:37:35Z</time>
      </trkpt>
      <trkpt lat="44.4658" lon="5.88408">
        <ele>1125.8410645</ele>
        <time>2013-05-14T09:37:38Z</time>
      </trkpt>
      <trkpt lat="44.46582" lon="5.88374">
        <ele>1127.2832031</ele>
        <time>2013-05-14T09:37:44Z</time>
      </trkpt>
      <trkpt lat="44.4659" lon="5.88342">
        <ele>1128.7250977</ele>
        <time>2013-05-14T09:37:50Z</time>
      </trkpt>
      <trkpt lat="44.466" lon="5.88307">
        <ele>1130.6477051</ele>
        <time>2013-05-14T09:37:57Z</time>
      </trkpt>
      <trkpt lat="44.46627" lon="5.88282">
        <ele>1132.5705566</ele>
        <time>2013-05-14T09:38:06Z</time>
      </trkpt>
      <trkpt lat="44.46651" lon="5.88287">
        <ele>1134.4931641</ele>
        <time>2013-05-14T09:38:12Z</time>
      </trkpt>
      <trkpt lat="44.46659" lon="5.883">
        <ele>1134.973877</ele>
        <time>2013-05-14T09:38:15Z</time>
      </trkpt>
      <trkpt lat="44.46704" lon="5.88374">
        <ele>1138.3383789</ele>
        <time>2013-05-14T09:38:31Z</time>
      </trkpt>
      <trkpt lat="44.46713" lon="5.88386">
        <ele>1138.3383789</ele>
        <time>2013-05-14T09:38:34Z</time>
      </trkpt>
      <trkpt lat="44.4672" lon="5.88392">
        <ele>1139.2995605</ele>
        <time>2013-05-14T09:38:36Z</time>
      </trkpt>
      <trkpt lat="44.46738" lon="5.88397">
        <ele>1140.2609863</ele>
        <time>2013-05-14T09:38:40Z</time>
      </trkpt>
      <trkpt lat="44.46756" lon="5.88407">
        <ele>1140.2609863</ele>
        <time>2013-05-14T09:38:44Z</time>
      </trkpt>
      <trkpt lat="44.46768" lon="5.88417">
        <ele>1141.222168</ele>
        <time>2013-05-14T09:38:47Z</time>
      </trkpt>
      <trkpt lat="44.46795" lon="5.88455">
        <ele>1141.222168</ele>
        <time>2013-05-14T09:38:55Z</time>
      </trkpt>
      <trkpt lat="44.46805" lon="5.88481">
        <ele>1141.222168</ele>
        <time>2013-05-14T09:38:59Z</time>
      </trkpt>
      <trkpt lat="44.46809" lon="5.88502">
        <ele>1140.7414551</ele>
        <time>2013-05-14T09:39:02Z</time>
      </trkpt>
      <trkpt lat="44.4681" lon="5.88524">
        <ele>1141.7028809</ele>
        <time>2013-05-14T09:39:05Z</time>
      </trkpt>
      <trkpt lat="44.46807" lon="5.88558">
        <ele>1141.7028809</ele>
        <time>2013-05-14T09:39:10Z</time>
      </trkpt>
      <trkpt lat="44.46822" lon="5.88579">
        <ele>1143.1447754</ele>
        <time>2013-05-14T09:39:17Z</time>
      </trkpt>
      <trkpt lat="44.46829" lon="5.88569">
        <ele>1143.1447754</ele>
        <time>2013-05-14T09:39:19Z</time>
      </trkpt>
      <trkpt lat="44.46849" lon="5.88567">
        <ele>1143.1447754</ele>
        <time>2013-05-14T09:39:23Z</time>
      </trkpt>
      <trkpt lat="44.46863" lon="5.88567">
        <ele>1143.1447754</ele>
        <time>2013-05-14T09:39:26Z</time>
      </trkpt>
      <trkpt lat="44.46887" lon="5.88558">
        <ele>1143.6254883</ele>
        <time>2013-05-14T09:39:32Z</time>
      </trkpt>
      <trkpt lat="44.46907" lon="5.88587">
        <ele>1144.5866699</ele>
        <time>2013-05-14T09:39:38Z</time>
      </trkpt>
      <trkpt lat="44.46932" lon="5.88623">
        <ele>1144.1062012</ele>
        <time>2013-05-14T09:39:45Z</time>
      </trkpt>
      <trkpt lat="44.46956" lon="5.88637">
        <ele>1144.1062012</ele>
        <time>2013-05-14T09:39:50Z</time>
      </trkpt>
      <trkpt lat="44.46979" lon="5.88638">
        <ele>1144.5866699</ele>
        <time>2013-05-14T09:39:55Z</time>
      </trkpt>
      <trkpt lat="44.46998" lon="5.88633">
        <ele>1145.0673828</ele>
        <time>2013-05-14T09:39:59Z</time>
      </trkpt>
      <trkpt lat="44.4702" lon="5.88606">
        <ele>1146.0288086</ele>
        <time>2013-05-14T09:40:05Z</time>
      </trkpt>
      <trkpt lat="44.47037" lon="5.8859">
        <ele>1145.5480957</ele>
        <time>2013-05-14T09:40:09Z</time>
      </trkpt>
      <trkpt lat="44.47051" lon="5.88576">
        <ele>1145.5480957</ele>
        <time>2013-05-14T09:40:12Z</time>
      </trkpt>
      <trkpt lat="44.47057" lon="5.88564">
        <ele>1146.5095215</ele>
        <time>2013-05-14T09:40:15Z</time>
      </trkpt>
      <trkpt lat="44.47073" lon="5.88576">
        <ele>1147.4707031</ele>
        <time>2013-05-14T09:40:20Z</time>
      </trkpt>
      <trkpt lat="44.47073" lon="5.88587">
        <ele>1147.4707031</ele>
        <time>2013-05-14T09:40:22Z</time>
      </trkpt>
      <trkpt lat="44.47093" lon="5.88603">
        <ele>1146.9899902</ele>
        <time>2013-05-14T09:40:27Z</time>
      </trkpt>
      <trkpt lat="44.47107" lon="5.88603">
        <ele>1146.9899902</ele>
        <time>2013-05-14T09:40:30Z</time>
      </trkpt>
      <trkpt lat="44.47113" lon="5.88629">
        <ele>1147.4707031</ele>
        <time>2013-05-14T09:40:36Z</time>
      </trkpt>
      <trkpt lat="44.4711" lon="5.88647">
        <ele>1147.951416</ele>
        <time>2013-05-14T09:40:39Z</time>
      </trkpt>
      <trkpt lat="44.47125" lon="5.88674">
        <ele>1147.951416</ele>
        <time>2013-05-14T09:40:46Z</time>
      </trkpt>
      <trkpt lat="44.47141" lon="5.88665">
        <ele>1148.9128418</ele>
        <time>2013-05-14T09:40:50Z</time>
      </trkpt>
      <trkpt lat="44.47154" lon="5.88655">
        <ele>1148.9128418</ele>
        <time>2013-05-14T09:40:53Z</time>
      </trkpt>
      <trkpt lat="44.47185" lon="5.88678">
        <ele>1150.3549805</ele>
        <time>2013-05-14T09:41:02Z</time>
      </trkpt>
      <trkpt lat="44.47217" lon="5.8866">
        <ele>1151.3161621</ele>
        <time>2013-05-14T09:41:12Z</time>
      </trkpt>
      <trkpt lat="44.47258" lon="5.88621">
        <ele>1151.3161621</ele>
        <time>2013-05-14T09:41:24Z</time>
      </trkpt>
      <trkpt lat="44.47266" lon="5.88619">
        <ele>1152.2773438</ele>
        <time>2013-05-14T09:41:26Z</time>
      </trkpt>
      <trkpt lat="44.47273" lon="5.8865">
        <ele>1152.7580566</ele>
        <time>2013-05-14T09:41:32Z</time>
      </trkpt>
      <trkpt lat="44.47265" lon="5.88681">
        <ele>1151.796875</ele>
        <time>2013-05-14T09:41:37Z</time>
      </trkpt>
      <trkpt lat="44.47267" lon="5.88714">
        <ele>1152.2773438</ele>
        <time>2013-05-14T09:41:43Z</time>
      </trkpt>
      <trkpt lat="44.47297" lon="5.88736">
        <ele>1153.2387695</ele>
        <time>2013-05-14T09:41:51Z</time>
      </trkpt>
      <trkpt lat="44.47308" lon="5.88747">
        <ele>1153.2387695</ele>
        <time>2013-05-14T09:41:54Z</time>
      </trkpt>
      <trkpt lat="44.47319" lon="5.88757">
        <ele>1152.7580566</ele>
        <time>2013-05-14T09:41:57Z</time>
      </trkpt>
      <trkpt lat="44.47321" lon="5.88786">
        <ele>1153.2387695</ele>
        <time>2013-05-14T09:42:03Z</time>
      </trkpt>
      <trkpt lat="44.47314" lon="5.88793">
        <ele>1153.2387695</ele>
        <time>2013-05-14T09:42:05Z</time>
      </trkpt>
      <trkpt lat="44.47317" lon="5.88823">
        <ele>1153.7194824</ele>
        <time>2013-05-14T09:42:10Z</time>
      </trkpt>
      <trkpt lat="44.47339" lon="5.88855">
        <ele>1155.161377</ele>
        <time>2013-05-14T09:42:22Z</time>
      </trkpt>
      <trkpt lat="44.47351" lon="5.8886">
        <ele>1155.6420898</ele>
        <time>2013-05-14T09:42:35Z</time>
      </trkpt>
      <trkpt lat="44.47351" lon="5.8886">
        <ele>1157.0839844</ele>
        <time>2013-05-14T09:42:53Z</time>
      </trkpt>
      <trkpt lat="44.47351" lon="5.8886">
        <ele>1154.6806641</ele>
        <time>2013-05-14T09:43:27Z</time>
      </trkpt>
      <trkpt lat="44.47351" lon="5.8886">
        <ele>1154.6806641</ele>
        <time>2013-05-14T09:43:28Z</time>
      </trkpt>
      <trkpt lat="44.47351" lon="5.8886">
        <ele>1156.1225586</ele>
        <time>2013-05-14T09:43:52Z</time>
      </trkpt>
      <trkpt lat="44.47351" lon="5.8886">
        <ele>1156.1225586</ele>
        <time>2013-05-14T09:44:28Z</time>
      </trkpt>
      <trkpt lat="44.47351" lon="5.8886">
        <ele>1158.5258789</ele>
        <time>2013-05-14T09:45:03Z</time>
      </trkpt>
      <trkpt lat="44.47351" lon="5.8886">
        <ele>1159.9677734</ele>
        <time>2013-05-14T09:46:26Z</time>
      </trkpt>
      <trkpt lat="44.47351" lon="5.8886">
        <ele>1160.4484863</ele>
        <time>2013-05-14T09:47:28Z</time>
      </trkpt>
      <trkpt lat="44.47366" lon="5.88857">
        <ele>1159.9677734</ele>
        <time>2013-05-14T09:47:35Z</time>
      </trkpt>
      <trkpt lat="44.47384" lon="5.88859">
        <ele>1159.9677734</ele>
        <time>2013-05-14T09:47:39Z</time>
      </trkpt>
      <trkpt lat="44.47419" lon="5.88873">
        <ele>1159.4873047</ele>
        <time>2013-05-14T09:47:46Z</time>
      </trkpt>
      <trkpt lat="44.47442" lon="5.88888">
        <ele>1159.0065918</ele>
        <time>2013-05-14T09:47:51Z</time>
      </trkpt>
      <trkpt lat="44.47468" lon="5.8889">
        <ele>1159.0065918</ele>
        <time>2013-05-14T09:47:56Z</time>
      </trkpt>
      <trkpt lat="44.47492" lon="5.88901">
        <ele>1159.0065918</ele>
        <time>2013-05-14T09:48:01Z</time>
      </trkpt>
      <trkpt lat="44.47505" lon="5.88921">
        <ele>1159.0065918</ele>
        <time>2013-05-14T09:48:05Z</time>
      </trkpt>
      <trkpt lat="44.47513" lon="5.88941">
        <ele>1159.0065918</ele>
        <time>2013-05-14T09:48:08Z</time>
      </trkpt>
      <trkpt lat="44.47552" lon="5.88946">
        <ele>1157.0839844</ele>
        <time>2013-05-14T09:48:16Z</time>
      </trkpt>
      <trkpt lat="44.47579" lon="5.88923">
        <ele>1155.6420898</ele>
        <time>2013-05-14T09:48:21Z</time>
      </trkpt>
      <trkpt lat="44.47594" lon="5.8891">
        <ele>1155.161377</ele>
        <time>2013-05-14T09:48:24Z</time>
      </trkpt>
      <trkpt lat="44.47614" lon="5.88911">
        <ele>1153.7194824</ele>
        <time>2013-05-14T09:48:28Z</time>
      </trkpt>
      <trkpt lat="44.47657" lon="5.88947">
        <ele>1153.7194824</ele>
        <time>2013-05-14T09:48:36Z</time>
      </trkpt>
      <trkpt lat="44.47686" lon="5.88961">
        <ele>1152.7580566</ele>
        <time>2013-05-14T09:48:41Z</time>
      </trkpt>
      <trkpt lat="44.47699" lon="5.88969">
        <ele>1151.796875</ele>
        <time>2013-05-14T09:48:43Z</time>
      </trkpt>
      <trkpt lat="44.47736" lon="5.88944">
        <ele>1150.3549805</ele>
        <time>2013-05-14T09:48:50Z</time>
      </trkpt>
      <trkpt lat="44.47738" lon="5.88923">
        <ele>1149.3935547</ele>
        <time>2013-05-14T09:48:52Z</time>
      </trkpt>
      <trkpt lat="44.4774" lon="5.8888">
        <ele>1148.4321289</ele>
        <time>2013-05-14T09:48:56Z</time>
      </trkpt>
      <trkpt lat="44.47732" lon="5.88837">
        <ele>1147.4707031</ele>
        <time>2013-05-14T09:49:00Z</time>
      </trkpt>
      <trkpt lat="44.47737" lon="5.88754">
        <ele>1145.0673828</ele>
        <time>2013-05-14T09:49:10Z</time>
      </trkpt>
      <trkpt lat="44.47757" lon="5.88743">
        <ele>1144.5866699</ele>
        <time>2013-05-14T09:49:13Z</time>
      </trkpt>
      <trkpt lat="44.47772" lon="5.88743">
        <ele>1144.5866699</ele>
        <time>2013-05-14T09:49:15Z</time>
      </trkpt>
      <trkpt lat="44.47802" lon="5.88787">
        <ele>1145.0673828</ele>
        <time>2013-05-14T09:49:22Z</time>
      </trkpt>
      <trkpt lat="44.47812" lon="5.88828">
        <ele>1144.1062012</ele>
        <time>2013-05-14T09:49:27Z</time>
      </trkpt>
      <trkpt lat="44.47836" lon="5.88852">
        <ele>1143.1447754</ele>
        <time>2013-05-14T09:49:32Z</time>
      </trkpt>
      <trkpt lat="44.4785" lon="5.88854">
        <ele>1142.1835938</ele>
        <time>2013-05-14T09:49:34Z</time>
      </trkpt>
      <trkpt lat="44.47916" lon="5.88864">
        <ele>1138.3383789</ele>
        <time>2013-05-14T09:49:42Z</time>
      </trkpt>
      <trkpt lat="44.47949" lon="5.88883">
        <ele>1136.4157715</ele>
        <time>2013-05-14T09:49:46Z</time>
      </trkpt>
      <trkpt lat="44.47965" lon="5.88899">
        <ele>1136.4157715</ele>
        <time>2013-05-14T09:49:48Z</time>
      </trkpt>
      <trkpt lat="44.48006" lon="5.88901">
        <ele>1135.4543457</ele>
        <time>2013-05-14T09:49:53Z</time>
      </trkpt>
      <trkpt lat="44.48023" lon="5.88895">
        <ele>1134.0124512</ele>
        <time>2013-05-14T09:49:55Z</time>
      </trkpt>
      <trkpt lat="44.48074" lon="5.88873">
        <ele>1131.128418</ele>
        <time>2013-05-14T09:50:01Z</time>
      </trkpt>
      <trkpt lat="44.48084" lon="5.88869">
        <ele>1131.128418</ele>
        <time>2013-05-14T09:50:02Z</time>
      </trkpt>
      <trkpt lat="44.48092" lon="5.88869">
        <ele>1130.1669922</ele>
        <time>2013-05-14T09:50:03Z</time>
      </trkpt>
      <trkpt lat="44.48129" lon="5.88854">
        <ele>1129.6862793</ele>
        <time>2013-05-14T09:50:07Z</time>
      </trkpt>
      <trkpt lat="44.48146" lon="5.88841">
        <ele>1129.2055664</ele>
        <time>2013-05-14T09:50:09Z</time>
      </trkpt>
      <trkpt lat="44.48188" lon="5.88833">
        <ele>1125.8410645</ele>
        <time>2013-05-14T09:50:14Z</time>
      </trkpt>
      <trkpt lat="44.48205" lon="5.88832">
        <ele>1124.8798828</ele>
        <time>2013-05-14T09:50:16Z</time>
      </trkpt>
      <trkpt lat="44.48273" lon="5.8883">
        <ele>1121.5151367</ele>
        <time>2013-05-14T09:50:23Z</time>
      </trkpt>
      <trkpt lat="44.48293" lon="5.88836">
        <ele>1119.5927734</ele>
        <time>2013-05-14T09:50:25Z</time>
      </trkpt>
      <trkpt lat="44.48312" lon="5.88835">
        <ele>1120.0732422</ele>
        <time>2013-05-14T09:50:27Z</time>
      </trkpt>
      <trkpt lat="44.48359" lon="5.88819">
        <ele>1117.6699219</ele>
        <time>2013-05-14T09:50:32Z</time>
      </trkpt>
      <trkpt lat="44.48379" lon="5.88812">
        <ele>1115.7473145</ele>
        <time>2013-05-14T09:50:34Z</time>
      </trkpt>
      <trkpt lat="44.48423" lon="5.88804">
        <ele>1113.3439941</ele>
        <time>2013-05-14T09:50:39Z</time>
      </trkpt>
      <trkpt lat="44.48458" lon="5.88818">
        <ele>1110.4599609</ele>
        <time>2013-05-14T09:50:44Z</time>
      </trkpt>
      <trkpt lat="44.48489" lon="5.88849">
        <ele>1108.5373535</ele>
        <time>2013-05-14T09:50:48Z</time>
      </trkpt>
      <trkpt lat="44.48508" lon="5.88863">
        <ele>1107.095459</ele>
        <time>2013-05-14T09:50:50Z</time>
      </trkpt>
      <trkpt lat="44.48529" lon="5.88875">
        <ele>1101.8083496</ele>
        <time>2013-05-14T09:50:52Z</time>
      </trkpt>
      <trkpt lat="44.48538" lon="5.88882">
        <ele>1101.8083496</ele>
        <time>2013-05-14T09:50:53Z</time>
      </trkpt>
      <trkpt lat="44.48565" lon="5.88908">
        <ele>1098.4433594</ele>
        <time>2013-05-14T09:50:56Z</time>
      </trkpt>
      <trkpt lat="44.48576" lon="5.88934">
        <ele>1100.3664551</ele>
        <time>2013-05-14T09:50:59Z</time>
      </trkpt>
      <trkpt lat="44.48579" lon="5.88943">
        <ele>1100.3664551</ele>
        <time>2013-05-14T09:51:00Z</time>
      </trkpt>
      <trkpt lat="44.48605" lon="5.8894">
        <ele>1097.4821777</ele>
        <time>2013-05-14T09:51:05Z</time>
      </trkpt>
      <trkpt lat="44.48629" lon="5.88928">
        <ele>1093.6369629</ele>
        <time>2013-05-14T09:51:08Z</time>
      </trkpt>
      <trkpt lat="44.4864" lon="5.88925">
        <ele>1093.6369629</ele>
        <time>2013-05-14T09:51:09Z</time>
      </trkpt>
      <trkpt lat="44.48658" lon="5.8892">
        <ele>1091.7143555</ele>
        <time>2013-05-14T09:51:11Z</time>
      </trkpt>
      <trkpt lat="44.48674" lon="5.88917">
        <ele>1091.2336426</ele>
        <time>2013-05-14T09:51:13Z</time>
      </trkpt>
      <trkpt lat="44.487" lon="5.88928">
        <ele>1089.3110352</ele>
        <time>2013-05-14T09:51:16Z</time>
      </trkpt>
      <trkpt lat="44.48734" lon="5.88943">
        <ele>1087.3884277</ele>
        <time>2013-05-14T09:51:20Z</time>
      </trkpt>
      <trkpt lat="44.48751" lon="5.88966">
        <ele>1084.5046387</ele>
        <time>2013-05-14T09:51:23Z</time>
      </trkpt>
      <trkpt lat="44.48761" lon="5.88982">
        <ele>1084.0239258</ele>
        <time>2013-05-14T09:51:25Z</time>
      </trkpt>
      <trkpt lat="44.48796" lon="5.88994">
        <ele>1082.1010742</ele>
        <time>2013-05-14T09:51:30Z</time>
      </trkpt>
      <trkpt lat="44.48829" lon="5.89005">
        <ele>1079.6977539</ele>
        <time>2013-05-14T09:51:34Z</time>
      </trkpt>
      <trkpt lat="44.48844" lon="5.89011">
        <ele>1077.2946777</ele>
        <time>2013-05-14T09:51:36Z</time>
      </trkpt>
      <trkpt lat="44.48859" lon="5.89031">
        <ele>1075.3718262</ele>
        <time>2013-05-14T09:51:39Z</time>
      </trkpt>
      <trkpt lat="44.48867" lon="5.89051">
        <ele>1074.8913574</ele>
        <time>2013-05-14T09:51:41Z</time>
      </trkpt>
      <trkpt lat="44.48875" lon="5.8907">
        <ele>1074.8913574</ele>
        <time>2013-05-14T09:51:43Z</time>
      </trkpt>
      <trkpt lat="44.48897" lon="5.89066">
        <ele>1072.4880371</ele>
        <time>2013-05-14T09:51:47Z</time>
      </trkpt>
      <trkpt lat="44.48919" lon="5.89058">
        <ele>1071.0461426</ele>
        <time>2013-05-14T09:51:50Z</time>
      </trkpt>
      <trkpt lat="44.48944" lon="5.89041">
        <ele>1069.604248</ele>
        <time>2013-05-14T09:51:54Z</time>
      </trkpt>
      <trkpt lat="44.48963" lon="5.89058">
        <ele>1069.1235352</ele>
        <time>2013-05-14T09:52:00Z</time>
      </trkpt>
      <trkpt lat="44.48956" lon="5.89069">
        <ele>1069.1235352</ele>
        <time>2013-05-14T09:52:02Z</time>
      </trkpt>
      <trkpt lat="44.48935" lon="5.89114">
        <ele>1066.2392578</ele>
        <time>2013-05-14T09:52:07Z</time>
      </trkpt>
      <trkpt lat="44.48914" lon="5.89146">
        <ele>1063.8359375</ele>
        <time>2013-05-14T09:52:11Z</time>
      </trkpt>
      <trkpt lat="44.48918" lon="5.89198">
        <ele>1060.9521484</ele>
        <time>2013-05-14T09:52:16Z</time>
      </trkpt>
      <trkpt lat="44.48932" lon="5.89231">
        <ele>1058.5488281</ele>
        <time>2013-05-14T09:52:19Z</time>
      </trkpt>
      <trkpt lat="44.48944" lon="5.89245">
        <ele>1057.1069336</ele>
        <time>2013-05-14T09:52:21Z</time>
      </trkpt>
      <trkpt lat="44.4895" lon="5.8927">
        <ele>1056.1455078</ele>
        <time>2013-05-14T09:52:23Z</time>
      </trkpt>
      <trkpt lat="44.48953" lon="5.89295">
        <ele>1054.7036133</ele>
        <time>2013-05-14T09:52:25Z</time>
      </trkpt>
      <trkpt lat="44.4896" lon="5.89332">
        <ele>1053.7424316</ele>
        <time>2013-05-14T09:52:28Z</time>
      </trkpt>
      <trkpt lat="44.48982" lon="5.8935">
        <ele>1051.8195801</ele>
        <time>2013-05-14T09:52:33Z</time>
      </trkpt>
      <trkpt lat="44.48995" lon="5.89347">
        <ele>1050.3776855</ele>
        <time>2013-05-14T09:52:35Z</time>
      </trkpt>
      <trkpt lat="44.49011" lon="5.89347">
        <ele>1048.9355469</ele>
        <time>2013-05-14T09:52:37Z</time>
      </trkpt>
      <trkpt lat="44.4903" lon="5.89354">
        <ele>1047.4936523</ele>
        <time>2013-05-14T09:52:39Z</time>
      </trkpt>
      <trkpt lat="44.49042" lon="5.89357">
        <ele>1045.5710449</ele>
        <time>2013-05-14T09:52:40Z</time>
      </trkpt>
      <trkpt lat="44.49077" lon="5.8939">
        <ele>1042.206543</ele>
        <time>2013-05-14T09:52:45Z</time>
      </trkpt>
      <trkpt lat="44.49085" lon="5.8941">
        <ele>1040.7644043</ele>
        <time>2013-05-14T09:52:47Z</time>
      </trkpt>
      <trkpt lat="44.49096" lon="5.89459">
        <ele>1038.3613281</ele>
        <time>2013-05-14T09:52:51Z</time>
      </trkpt>
      <trkpt lat="44.491" lon="5.89471">
        <ele>1038.842041</ele>
        <time>2013-05-14T09:52:52Z</time>
      </trkpt>
      <trkpt lat="44.49129" lon="5.8949">
        <ele>1037.8806152</ele>
        <time>2013-05-14T09:52:57Z</time>
      </trkpt>
      <trkpt lat="44.49148" lon="5.89493">
        <ele>1035.4770508</ele>
        <time>2013-05-14T09:52:59Z</time>
      </trkpt>
      <trkpt lat="44.49172" lon="5.89515">
        <ele>1032.5932617</ele>
        <time>2013-05-14T09:53:02Z</time>
      </trkpt>
      <trkpt lat="44.49179" lon="5.89521">
        <ele>1032.1125488</ele>
        <time>2013-05-14T09:53:03Z</time>
      </trkpt>
      <trkpt lat="44.49195" lon="5.89526">
        <ele>1031.1513672</ele>
        <time>2013-05-14T09:53:05Z</time>
      </trkpt>
      <trkpt lat="44.49209" lon="5.89535">
        <ele>1030.1899414</ele>
        <time>2013-05-14T09:53:07Z</time>
      </trkpt>
      <trkpt lat="44.49212" lon="5.8957">
        <ele>1027.7866211</ele>
        <time>2013-05-14T09:53:11Z</time>
      </trkpt>
      <trkpt lat="44.49234" lon="5.89619">
        <ele>1024.902832</ele>
        <time>2013-05-14T09:53:16Z</time>
      </trkpt>
      <trkpt lat="44.49251" lon="5.89634">
        <ele>1022.9802246</ele>
        <time>2013-05-14T09:53:18Z</time>
      </trkpt>
      <trkpt lat="44.49275" lon="5.89653">
        <ele>1020.5769043</ele>
        <time>2013-05-14T09:53:21Z</time>
      </trkpt>
      <trkpt lat="44.49295" lon="5.89693">
        <ele>1018.6540527</ele>
        <time>2013-05-14T09:53:25Z</time>
      </trkpt>
      <trkpt lat="44.49313" lon="5.89724">
        <ele>1018.1733398</ele>
        <time>2013-05-14T09:53:28Z</time>
      </trkpt>
      <trkpt lat="44.49326" lon="5.89739">
        <ele>1016.2507324</ele>
        <time>2013-05-14T09:53:30Z</time>
      </trkpt>
      <trkpt lat="44.4934" lon="5.89754">
        <ele>1014.8088379</ele>
        <time>2013-05-14T09:53:32Z</time>
      </trkpt>
      <trkpt lat="44.49366" lon="5.89765">
        <ele>1012.8862305</ele>
        <time>2013-05-14T09:53:35Z</time>
      </trkpt>
      <trkpt lat="44.49375" lon="5.89767">
        <ele>1011.9250488</ele>
        <time>2013-05-14T09:53:36Z</time>
      </trkpt>
      <trkpt lat="44.49403" lon="5.89768">
        <ele>1009.5217285</ele>
        <time>2013-05-14T09:53:39Z</time>
      </trkpt>
      <trkpt lat="44.4944" lon="5.89763">
        <ele>1009.0410156</ele>
        <time>2013-05-14T09:53:44Z</time>
      </trkpt>
      <trkpt lat="44.49463" lon="5.89745">
        <ele>1007.1184082</ele>
        <time>2013-05-14T09:53:48Z</time>
      </trkpt>
      <trkpt lat="44.49476" lon="5.89731">
        <ele>1003.7536621</ele>
        <time>2013-05-14T09:53:50Z</time>
      </trkpt>
      <trkpt lat="44.49485" lon="5.89724">
        <ele>1003.7536621</ele>
        <time>2013-05-14T09:53:51Z</time>
      </trkpt>
      <trkpt lat="44.49501" lon="5.89696">
        <ele>1001.3503418</ele>
        <time>2013-05-14T09:53:54Z</time>
      </trkpt>
      <trkpt lat="44.49534" lon="5.89672">
        <ele>997.0244141</ele>
        <time>2013-05-14T09:53:57Z</time>
      </trkpt>
      <trkpt lat="44.49561" lon="5.89647">
        <ele>996.5439453</ele>
        <time>2013-05-14T09:54:00Z</time>
      </trkpt>
      <trkpt lat="44.49579" lon="5.89632">
        <ele>994.6210938</ele>
        <time>2013-05-14T09:54:02Z</time>
      </trkpt>
      <trkpt lat="44.49598" lon="5.89621">
        <ele>991.7373047</ele>
        <time>2013-05-14T09:54:04Z</time>
      </trkpt>
      <trkpt lat="44.49633" lon="5.89577">
        <ele>990.2954102</ele>
        <time>2013-05-14T09:54:09Z</time>
      </trkpt>
      <trkpt lat="44.49659" lon="5.89561">
        <ele>987.8918457</ele>
        <time>2013-05-14T09:54:12Z</time>
      </trkpt>
      <trkpt lat="44.49678" lon="5.89559">
        <ele>986.4499512</ele>
        <time>2013-05-14T09:54:14Z</time>
      </trkpt>
      <trkpt lat="44.49701" lon="5.89548">
        <ele>985.4885254</ele>
        <time>2013-05-14T09:54:17Z</time>
      </trkpt>
      <trkpt lat="44.49723" lon="5.89563">
        <ele>986.4499512</ele>
        <time>2013-05-14T09:54:22Z</time>
      </trkpt>
      <trkpt lat="44.49734" lon="5.8959">
        <ele>985.4885254</ele>
        <time>2013-05-14T09:54:26Z</time>
      </trkpt>
      <trkpt lat="44.49753" lon="5.89605">
        <ele>985.4885254</ele>
        <time>2013-05-14T09:54:30Z</time>
      </trkpt>
      <trkpt lat="44.49778" lon="5.89618">
        <ele>984.5273438</ele>
        <time>2013-05-14T09:54:35Z</time>
      </trkpt>
      <trkpt lat="44.49822" lon="5.89613">
        <ele>983.0852051</ele>
        <time>2013-05-14T09:54:44Z</time>
      </trkpt>
      <trkpt lat="44.49881" lon="5.89588">
        <ele>980.201416</ele>
        <time>2013-05-14T09:54:52Z</time>
      </trkpt>
      <trkpt lat="44.49896" lon="5.8958">
        <ele>980.6821289</ele>
        <time>2013-05-14T09:54:54Z</time>
      </trkpt>
      <trkpt lat="44.49924" lon="5.89518">
        <ele>978.7595215</ele>
        <time>2013-05-14T09:55:01Z</time>
      </trkpt>
      <trkpt lat="44.49932" lon="5.89503">
        <ele>977.317627</ele>
        <time>2013-05-14T09:55:03Z</time>
      </trkpt>
      <trkpt lat="44.49941" lon="5.89489">
        <ele>977.317627</ele>
        <time>2013-05-14T09:55:05Z</time>
      </trkpt>
      <trkpt lat="44.49987" lon="5.89416">
        <ele>977.317627</ele>
        <time>2013-05-14T09:55:15Z</time>
      </trkpt>
      <trkpt lat="44.50044" lon="5.89355">
        <ele>973.9528809</ele>
        <time>2013-05-14T09:55:24Z</time>
      </trkpt>
      <trkpt lat="44.5005" lon="5.89349">
        <ele>973.9528809</ele>
        <time>2013-05-14T09:55:25Z</time>
      </trkpt>
      <trkpt lat="44.50068" lon="5.89331">
        <ele>974.4335938</ele>
        <time>2013-05-14T09:55:28Z</time>
      </trkpt>
      <trkpt lat="44.50087" lon="5.89292">
        <ele>974.4335938</ele>
        <time>2013-05-14T09:55:33Z</time>
      </trkpt>
      <trkpt lat="44.50095" lon="5.89223">
        <ele>972.9916992</ele>
        <time>2013-05-14T09:55:40Z</time>
      </trkpt>
      <trkpt lat="44.50112" lon="5.89151">
        <ele>972.0302734</ele>
        <time>2013-05-14T09:55:47Z</time>
      </trkpt>
      <trkpt lat="44.5012" lon="5.89071">
        <ele>969.6269531</ele>
        <time>2013-05-14T09:55:54Z</time>
      </trkpt>
      <trkpt lat="44.50139" lon="5.88996">
        <ele>967.7041016</ele>
        <time>2013-05-14T09:56:01Z</time>
      </trkpt>
      <trkpt lat="44.5015" lon="5.88977">
        <ele>966.7429199</ele>
        <time>2013-05-14T09:56:03Z</time>
      </trkpt>
      <trkpt lat="44.50164" lon="5.88947">
        <ele>966.7429199</ele>
        <time>2013-05-14T09:56:06Z</time>
      </trkpt>
      <trkpt lat="44.50177" lon="5.88924">
        <ele>966.262207</ele>
        <time>2013-05-14T09:56:08Z</time>
      </trkpt>
      <trkpt lat="44.50246" lon="5.88866">
        <ele>963.378418</ele>
        <time>2013-05-14T09:56:17Z</time>
      </trkpt>
      <trkpt lat="44.50259" lon="5.88852">
        <ele>962.4169922</ele>
        <time>2013-05-14T09:56:19Z</time>
      </trkpt>
      <trkpt lat="44.50277" lon="5.88821">
        <ele>960.9750977</ele>
        <time>2013-05-14T09:56:22Z</time>
      </trkpt>
      <trkpt lat="44.5029" lon="5.88804">
        <ele>961.9365234</ele>
        <time>2013-05-14T09:56:24Z</time>
      </trkpt>
      <trkpt lat="44.50403" lon="5.88714">
        <ele>957.6105957</ele>
        <time>2013-05-14T09:56:39Z</time>
      </trkpt>
      <trkpt lat="44.50434" lon="5.8869">
        <ele>956.6491699</ele>
        <time>2013-05-14T09:56:43Z</time>
      </trkpt>
      <trkpt lat="44.50478" lon="5.88629">
        <ele>955.6877441</ele>
        <time>2013-05-14T09:56:50Z</time>
      </trkpt>
      <trkpt lat="44.50492" lon="5.88599">
        <ele>954.7263184</ele>
        <time>2013-05-14T09:56:53Z</time>
      </trkpt>
      <trkpt lat="44.50495" lon="5.88576">
        <ele>954.2458496</ele>
        <time>2013-05-14T09:56:55Z</time>
      </trkpt>
      <trkpt lat="44.50516" lon="5.88554">
        <ele>954.7263184</ele>
        <time>2013-05-14T09:56:59Z</time>
      </trkpt>
      <trkpt lat="44.50531" lon="5.88558">
        <ele>954.2458496</ele>
        <time>2013-05-14T09:57:01Z</time>
      </trkpt>
      <trkpt lat="44.50555" lon="5.8854">
        <ele>951.8425293</ele>
        <time>2013-05-14T09:57:05Z</time>
      </trkpt>
      <trkpt lat="44.50564" lon="5.88523">
        <ele>950.8811035</ele>
        <time>2013-05-14T09:57:07Z</time>
      </trkpt>
      <trkpt lat="44.50576" lon="5.88494">
        <ele>948.9584961</ele>
        <time>2013-05-14T09:57:10Z</time>
      </trkpt>
      <trkpt lat="44.50579" lon="5.88483">
        <ele>948.9584961</ele>
        <time>2013-05-14T09:57:11Z</time>
      </trkpt>
      <trkpt lat="44.50561" lon="5.88383">
        <ele>948.9584961</ele>
        <time>2013-05-14T09:57:20Z</time>
      </trkpt>
      <trkpt lat="44.50576" lon="5.88334">
        <ele>948.9584961</ele>
        <time>2013-05-14T09:57:27Z</time>
      </trkpt>
      <trkpt lat="44.50582" lon="5.88328">
        <ele>948.9584961</ele>
        <time>2013-05-14T09:57:28Z</time>
      </trkpt>
      <trkpt lat="44.50652" lon="5.88273">
        <ele>944.6325684</ele>
        <time>2013-05-14T09:57:38Z</time>
      </trkpt>
      <trkpt lat="44.50682" lon="5.8825">
        <ele>942.7102051</ele>
        <time>2013-05-14T09:57:42Z</time>
      </trkpt>
      <trkpt lat="44.50757" lon="5.88186">
        <ele>939.8259277</ele>
        <time>2013-05-14T09:57:52Z</time>
      </trkpt>
      <trkpt lat="44.50793" lon="5.88158">
        <ele>940.7873535</ele>
        <time>2013-05-14T09:57:57Z</time>
      </trkpt>
      <trkpt lat="44.50884" lon="5.88085">
        <ele>938.3840332</ele>
        <time>2013-05-14T09:58:12Z</time>
      </trkpt>
      <trkpt lat="44.50977" lon="5.88009">
        <ele>936.4614258</ele>
        <time>2013-05-14T09:58:28Z</time>
      </trkpt>
      <trkpt lat="44.51054" lon="5.87946">
        <ele>936.4614258</ele>
        <time>2013-05-14T09:58:43Z</time>
      </trkpt>
      <trkpt lat="44.51065" lon="5.87937">
        <ele>937.4226074</ele>
        <time>2013-05-14T09:58:46Z</time>
      </trkpt>
      <trkpt lat="44.51128" lon="5.87886">
        <ele>937.9033203</ele>
        <time>2013-05-14T09:59:01Z</time>
      </trkpt>
      <trkpt lat="44.51139" lon="5.87877">
        <ele>937.9033203</ele>
        <time>2013-05-14T09:59:05Z</time>
      </trkpt>
      <trkpt lat="44.51142" lon="5.87856">
        <ele>936.9418945</ele>
        <time>2013-05-14T09:59:13Z</time>
      </trkpt>
      <trkpt lat="44.51142" lon="5.87856">
        <ele>937.4226074</ele>
        <time>2013-05-14T09:59:35Z</time>
      </trkpt>
      <trkpt lat="44.51142" lon="5.87856">
        <ele>937.9033203</ele>
        <time>2013-05-14T10:00:09Z</time>
      </trkpt>
      <trkpt lat="44.51142" lon="5.87856">
        <ele>938.3840332</ele>
        <time>2013-05-14T10:00:43Z</time>
      </trkpt>
      <trkpt lat="44.51142" lon="5.87856">
        <ele>939.3452148</ele>
        <time>2013-05-14T10:00:53Z</time>
      </trkpt>
      <trkpt lat="44.51125" lon="5.87823">
        <ele>937.9033203</ele>
        <time>2013-05-14T10:01:04Z</time>
      </trkpt>
      <trkpt lat="44.51123" lon="5.87804">
        <ele>938.3840332</ele>
        <time>2013-05-14T10:01:07Z</time>
      </trkpt>
      <trkpt lat="44.51119" lon="5.87761">
        <ele>940.3068848</ele>
        <time>2013-05-14T10:01:14Z</time>
      </trkpt>
      <trkpt lat="44.51117" lon="5.87712">
        <ele>940.3068848</ele>
        <time>2013-05-14T10:01:23Z</time>
      </trkpt>
      <trkpt lat="44.51116" lon="5.87653">
        <ele>941.7487793</ele>
        <time>2013-05-14T10:01:35Z</time>
      </trkpt>
      <trkpt lat="44.51117" lon="5.87603">
        <ele>942.2294922</ele>
        <time>2013-05-14T10:01:45Z</time>
      </trkpt>
      <trkpt lat="44.51115" lon="5.87585">
        <ele>943.1906738</ele>
        <time>2013-05-14T10:01:49Z</time>
      </trkpt>
      <trkpt lat="44.51113" lon="5.87536">
        <ele>946.074707</ele>
        <time>2013-05-14T10:02:02Z</time>
      </trkpt>
      <trkpt lat="44.51112" lon="5.87523">
        <ele>947.5166016</ele>
        <time>2013-05-14T10:02:05Z</time>
      </trkpt>
      <trkpt lat="44.51111" lon="5.87456">
        <ele>949.439209</ele>
        <time>2013-05-14T10:02:19Z</time>
      </trkpt>
      <trkpt lat="44.51111" lon="5.87425">
        <ele>949.439209</ele>
        <time>2013-05-14T10:02:27Z</time>
      </trkpt>
      <trkpt lat="44.51109" lon="5.87366">
        <ele>951.8425293</ele>
        <time>2013-05-14T10:02:41Z</time>
      </trkpt>
      <trkpt lat="44.51115" lon="5.87291">
        <ele>953.2844238</ele>
        <time>2013-05-14T10:02:54Z</time>
      </trkpt>
      <trkpt lat="44.51127" lon="5.87164">
        <ele>954.7263184</ele>
        <time>2013-05-14T10:03:13Z</time>
      </trkpt>
      <trkpt lat="44.51128" lon="5.8715">
        <ele>954.7263184</ele>
        <time>2013-05-14T10:03:15Z</time>
      </trkpt>
      <trkpt lat="44.51118" lon="5.87126">
        <ele>955.2070313</ele>
        <time>2013-05-14T10:03:19Z</time>
      </trkpt>
      <trkpt lat="44.51111" lon="5.87118">
        <ele>955.2070313</ele>
        <time>2013-05-14T10:03:21Z</time>
      </trkpt>
      <trkpt lat="44.51107" lon="5.87085">
        <ele>956.168457</ele>
        <time>2013-05-14T10:03:26Z</time>
      </trkpt>
      <trkpt lat="44.51108" lon="5.87072">
        <ele>957.1298828</ele>
        <time>2013-05-14T10:03:28Z</time>
      </trkpt>
      <trkpt lat="44.51109" lon="5.87022">
        <ele>959.0524902</ele>
        <time>2013-05-14T10:03:36Z</time>
      </trkpt>
      <trkpt lat="44.51115" lon="5.8696">
        <ele>961.4558105</ele>
        <time>2013-05-14T10:03:46Z</time>
      </trkpt>
      <trkpt lat="44.51105" lon="5.86936">
        <ele>962.8977051</ele>
        <time>2013-05-14T10:03:50Z</time>
      </trkpt>
      <trkpt lat="44.51063" lon="5.8689">
        <ele>963.378418</ele>
        <time>2013-05-14T10:04:01Z</time>
      </trkpt>
      <trkpt lat="44.51062" lon="5.86847">
        <ele>963.378418</ele>
        <time>2013-05-14T10:04:07Z</time>
      </trkpt>
      <trkpt lat="44.51076" lon="5.86827">
        <ele>963.8588867</ele>
        <time>2013-05-14T10:04:11Z</time>
      </trkpt>
      <trkpt lat="44.51099" lon="5.86756">
        <ele>965.7817383</ele>
        <time>2013-05-14T10:04:23Z</time>
      </trkpt>
      <trkpt lat="44.51113" lon="5.86704">
        <ele>969.1462402</ele>
        <time>2013-05-14T10:04:32Z</time>
      </trkpt>
      <trkpt lat="44.51125" lon="5.86645">
        <ele>972.5109863</ele>
        <time>2013-05-14T10:04:43Z</time>
      </trkpt>
      <trkpt lat="44.51128" lon="5.86634">
        <ele>972.5109863</ele>
        <time>2013-05-14T10:04:45Z</time>
      </trkpt>
      <trkpt lat="44.51147" lon="5.86585">
        <ele>975.8754883</ele>
        <time>2013-05-14T10:04:55Z</time>
      </trkpt>
      <trkpt lat="44.51149" lon="5.86581">
        <ele>975.8754883</ele>
        <time>2013-05-14T10:04:56Z</time>
      </trkpt>
      <trkpt lat="44.51167" lon="5.86531">
        <ele>979.2399902</ele>
        <time>2013-05-14T10:05:06Z</time>
      </trkpt>
      <trkpt lat="44.51169" lon="5.86527">
        <ele>979.2399902</ele>
        <time>2013-05-14T10:05:07Z</time>
      </trkpt>
      <trkpt lat="44.5118" lon="5.86492">
        <ele>983.0852051</ele>
        <time>2013-05-14T10:05:15Z</time>
      </trkpt>
      <trkpt lat="44.51179" lon="5.86447">
        <ele>985.4885254</ele>
        <time>2013-05-14T10:05:24Z</time>
      </trkpt>
      <trkpt lat="44.51158" lon="5.86428">
        <ele>985.0080566</ele>
        <time>2013-05-14T10:05:29Z</time>
      </trkpt>
      <trkpt lat="44.51147" lon="5.86418">
        <ele>985.0080566</ele>
        <time>2013-05-14T10:05:32Z</time>
      </trkpt>
      <trkpt lat="44.51103" lon="5.86336">
        <ele>984.0466309</ele>
        <time>2013-05-14T10:05:45Z</time>
      </trkpt>
      <trkpt lat="44.51095" lon="5.86317">
        <ele>983.565918</ele>
        <time>2013-05-14T10:05:48Z</time>
      </trkpt>
      <trkpt lat="44.51086" lon="5.86297">
        <ele>983.0852051</ele>
        <time>2013-05-14T10:05:51Z</time>
      </trkpt>
      <trkpt lat="44.51074" lon="5.86273">
        <ele>982.6047363</ele>
        <time>2013-05-14T10:05:55Z</time>
      </trkpt>
      <trkpt lat="44.5106" lon="5.86263">
        <ele>982.6047363</ele>
        <time>2013-05-14T10:05:58Z</time>
      </trkpt>
      <trkpt lat="44.51048" lon="5.86255">
        <ele>984.0466309</ele>
        <time>2013-05-14T10:06:01Z</time>
      </trkpt>
      <trkpt lat="44.51019" lon="5.86236">
        <ele>987.4111328</ele>
        <time>2013-05-14T10:06:08Z</time>
      </trkpt>
      <trkpt lat="44.51012" lon="5.86229">
        <ele>987.8918457</ele>
        <time>2013-05-14T10:06:10Z</time>
      </trkpt>
      <trkpt lat="44.50992" lon="5.86212">
        <ele>989.3339844</ele>
        <time>2013-05-14T10:06:15Z</time>
      </trkpt>
      <trkpt lat="44.50953" lon="5.86171">
        <ele>992.6987305</ele>
        <time>2013-05-14T10:06:26Z</time>
      </trkpt>
      <trkpt lat="44.50938" lon="5.86156">
        <ele>993.1791992</ele>
        <time>2013-05-14T10:06:30Z</time>
      </trkpt>
      <trkpt lat="44.50923" lon="5.86144">
        <ele>993.6599121</ele>
        <time>2013-05-14T10:06:34Z</time>
      </trkpt>
      <trkpt lat="44.50907" lon="5.86135">
        <ele>995.1018066</ele>
        <time>2013-05-14T10:06:38Z</time>
      </trkpt>
      <trkpt lat="44.50874" lon="5.86076">
        <ele>997.505127</ele>
        <time>2013-05-14T10:06:49Z</time>
      </trkpt>
      <trkpt lat="44.50863" lon="5.86061">
        <ele>999.4277344</ele>
        <time>2013-05-14T10:06:53Z</time>
      </trkpt>
      <trkpt lat="44.5083" lon="5.86038">
        <ele>1002.7922363</ele>
        <time>2013-05-14T10:07:02Z</time>
      </trkpt>
      <trkpt lat="44.50826" lon="5.86035">
        <ele>1002.7922363</ele>
        <time>2013-05-14T10:07:03Z</time>
      </trkpt>
      <trkpt lat="44.50824" lon="5.86033">
        <ele>1003.2729492</ele>
        <time>2013-05-14T10:07:04Z</time>
      </trkpt>
      <trkpt lat="44.50819" lon="5.86026">
        <ele>1003.7536621</ele>
        <time>2013-05-14T10:07:06Z</time>
      </trkpt>
      <trkpt lat="44.50811" lon="5.86005">
        <ele>1004.7150879</ele>
        <time>2013-05-14T10:07:10Z</time>
      </trkpt>
      <trkpt lat="44.50802" lon="5.85935">
        <ele>1007.5991211</ele>
        <time>2013-05-14T10:07:23Z</time>
      </trkpt>
      <trkpt lat="44.50801" lon="5.85881">
        <ele>1010.0021973</ele>
        <time>2013-05-14T10:07:33Z</time>
      </trkpt>
      <trkpt lat="44.50798" lon="5.85869">
        <ele>1009.5217285</ele>
        <time>2013-05-14T10:07:35Z</time>
      </trkpt>
      <trkpt lat="44.50793" lon="5.85851">
        <ele>1010.963623</ele>
        <time>2013-05-14T10:07:38Z</time>
      </trkpt>
      <trkpt lat="44.50789" lon="5.8584">
        <ele>1009.5217285</ele>
        <time>2013-05-14T10:07:40Z</time>
      </trkpt>
      <trkpt lat="44.50757" lon="5.85792">
        <ele>1010.963623</ele>
        <time>2013-05-14T10:07:50Z</time>
      </trkpt>
      <trkpt lat="44.50745" lon="5.85759">
        <ele>1011.9250488</ele>
        <time>2013-05-14T10:07:56Z</time>
      </trkpt>
      <trkpt lat="44.50729" lon="5.85715">
        <ele>1014.8088379</ele>
        <time>2013-05-14T10:08:04Z</time>
      </trkpt>
      <trkpt lat="44.50708" lon="5.8567">
        <ele>1019.1347656</ele>
        <time>2013-05-14T10:08:14Z</time>
      </trkpt>
      <trkpt lat="44.50705" lon="5.85666">
        <ele>1019.1347656</ele>
        <time>2013-05-14T10:08:15Z</time>
      </trkpt>
      <trkpt lat="44.50692" lon="5.85646">
        <ele>1021.5380859</ele>
        <time>2013-05-14T10:08:21Z</time>
      </trkpt>
      <trkpt lat="44.50686" lon="5.85639">
        <ele>1022.9802246</ele>
        <time>2013-05-14T10:08:23Z</time>
      </trkpt>
      <trkpt lat="44.50665" lon="5.85613">
        <ele>1025.8640137</ele>
        <time>2013-05-14T10:08:31Z</time>
      </trkpt>
      <trkpt lat="44.50646" lon="5.85573">
        <ele>1028.7480469</ele>
        <time>2013-05-14T10:08:40Z</time>
      </trkpt>
      <trkpt lat="44.50634" lon="5.85538">
        <ele>1032.5932617</ele>
        <time>2013-05-14T10:08:48Z</time>
      </trkpt>
      <trkpt lat="44.50629" lon="5.85522">
        <ele>1035.4770508</ele>
        <time>2013-05-14T10:08:54Z</time>
      </trkpt>
      <trkpt lat="44.50622" lon="5.85488">
        <ele>1037.3999023</ele>
        <time>2013-05-14T10:08:59Z</time>
      </trkpt>
      <trkpt lat="44.50623" lon="5.85477">
        <ele>1038.3613281</ele>
        <time>2013-05-14T10:09:01Z</time>
      </trkpt>
      <trkpt lat="44.5063" lon="5.85447">
        <ele>1042.206543</ele>
        <time>2013-05-14T10:09:07Z</time>
      </trkpt>
      <trkpt lat="44.50632" lon="5.85443">
        <ele>1042.206543</ele>
        <time>2013-05-14T10:09:08Z</time>
      </trkpt>
      <trkpt lat="44.50633" lon="5.8544">
        <ele>1042.6872559</ele>
        <time>2013-05-14T10:09:09Z</time>
      </trkpt>
      <trkpt lat="44.50643" lon="5.85422">
        <ele>1043.6484375</ele>
        <time>2013-05-14T10:09:14Z</time>
      </trkpt>
      <trkpt lat="44.50652" lon="5.8541">
        <ele>1045.090332</ele>
        <time>2013-05-14T10:09:17Z</time>
      </trkpt>
      <trkpt lat="44.50665" lon="5.85388">
        <ele>1047.9743652</ele>
        <time>2013-05-14T10:09:24Z</time>
      </trkpt>
      <trkpt lat="44.50667" lon="5.85385">
        <ele>1048.9355469</ele>
        <time>2013-05-14T10:09:25Z</time>
      </trkpt>
      <trkpt lat="44.50658" lon="5.85341">
        <ele>1052.300293</ele>
        <time>2013-05-14T10:09:36Z</time>
      </trkpt>
      <trkpt lat="44.50635" lon="5.8532">
        <ele>1051.8195801</ele>
        <time>2013-05-14T10:09:46Z</time>
      </trkpt>
      <trkpt lat="44.50618" lon="5.85299">
        <ele>1051.3388672</ele>
        <time>2013-05-14T10:09:52Z</time>
      </trkpt>
      <trkpt lat="44.50603" lon="5.85277">
        <ele>1049.4162598</ele>
        <time>2013-05-14T10:10:02Z</time>
      </trkpt>
      <trkpt lat="44.50603" lon="5.85277">
        <ele>1049.8969727</ele>
        <time>2013-05-14T10:10:24Z</time>
      </trkpt>
      <trkpt lat="44.50603" lon="5.85277">
        <ele>1050.3776855</ele>
        <time>2013-05-14T10:11:19Z</time>
      </trkpt>
      <trkpt lat="44.50601" lon="5.85275">
        <ele>1049.8969727</ele>
        <time>2013-05-14T10:11:40Z</time>
      </trkpt>
      <trkpt lat="44.50601" lon="5.85275">
        <ele>1050.8581543</ele>
        <time>2013-05-14T10:11:52Z</time>
      </trkpt>
      <trkpt lat="44.50587" lon="5.85257">
        <ele>1047.9743652</ele>
        <time>2013-05-14T10:12:00Z</time>
      </trkpt>
      <trkpt lat="44.50576" lon="5.8522">
        <ele>1046.0517578</ele>
        <time>2013-05-14T10:12:05Z</time>
      </trkpt>
      <trkpt lat="44.50573" lon="5.85192">
        <ele>1044.1291504</ele>
        <time>2013-05-14T10:12:08Z</time>
      </trkpt>
      <trkpt lat="44.50572" lon="5.8517">
        <ele>1042.6872559</ele>
        <time>2013-05-14T10:12:10Z</time>
      </trkpt>
      <trkpt lat="44.50573" lon="5.85147">
        <ele>1041.2451172</ele>
        <time>2013-05-14T10:12:12Z</time>
      </trkpt>
      <trkpt lat="44.50577" lon="5.8511">
        <ele>1038.842041</ele>
        <time>2013-05-14T10:12:15Z</time>
      </trkpt>
      <trkpt lat="44.50581" lon="5.85088">
        <ele>1036.4387207</ele>
        <time>2013-05-14T10:12:17Z</time>
      </trkpt>
      <trkpt lat="44.50572" lon="5.85039">
        <ele>1031.6318359</ele>
        <time>2013-05-14T10:12:21Z</time>
      </trkpt>
      <trkpt lat="44.50567" lon="5.85027">
        <ele>1031.6318359</ele>
        <time>2013-05-14T10:12:22Z</time>
      </trkpt>
      <trkpt lat="44.5056" lon="5.85015">
        <ele>1028.267334</ele>
        <time>2013-05-14T10:12:23Z</time>
      </trkpt>
      <trkpt lat="44.5055" lon="5.85003">
        <ele>1028.267334</ele>
        <time>2013-05-14T10:12:24Z</time>
      </trkpt>
      <trkpt lat="44.50541" lon="5.84993">
        <ele>1024.902832</ele>
        <time>2013-05-14T10:12:25Z</time>
      </trkpt>
      <trkpt lat="44.50531" lon="5.84985">
        <ele>1024.902832</ele>
        <time>2013-05-14T10:12:26Z</time>
      </trkpt>
      <trkpt lat="44.50521" lon="5.84979">
        <ele>1022.4995117</ele>
        <time>2013-05-14T10:12:27Z</time>
      </trkpt>
      <trkpt lat="44.50498" lon="5.84966">
        <ele>1021.5380859</ele>
        <time>2013-05-14T10:12:29Z</time>
      </trkpt>
      <trkpt lat="44.50476" lon="5.84958">
        <ele>1019.1347656</ele>
        <time>2013-05-14T10:12:31Z</time>
      </trkpt>
      <trkpt lat="44.50454" lon="5.84955">
        <ele>1017.2121582</ele>
        <time>2013-05-14T10:12:33Z</time>
      </trkpt>
      <trkpt lat="44.50437" lon="5.84959">
        <ele>1013.3669434</ele>
        <time>2013-05-14T10:12:35Z</time>
      </trkpt>
      <trkpt lat="44.50408" lon="5.84928">
        <ele>1011.9250488</ele>
        <time>2013-05-14T10:12:41Z</time>
      </trkpt>
      <trkpt lat="44.504" lon="5.84901">
        <ele>1010.4829102</ele>
        <time>2013-05-14T10:12:44Z</time>
      </trkpt>
      <trkpt lat="44.50375" lon="5.84882">
        <ele>1009.0410156</ele>
        <time>2013-05-14T10:12:48Z</time>
      </trkpt>
      <trkpt lat="44.5036" lon="5.8488">
        <ele>1008.079834</ele>
        <time>2013-05-14T10:12:50Z</time>
      </trkpt>
      <trkpt lat="44.50345" lon="5.84881">
        <ele>1006.6376953</ele>
        <time>2013-05-14T10:12:52Z</time>
      </trkpt>
      <trkpt lat="44.5031" lon="5.84886">
        <ele>1004.7150879</ele>
        <time>2013-05-14T10:12:56Z</time>
      </trkpt>
      <trkpt lat="44.50301" lon="5.84887">
        <ele>1001.8310547</ele>
        <time>2013-05-14T10:12:57Z</time>
      </trkpt>
      <trkpt lat="44.50282" lon="5.8489">
        <ele>1000.3891602</ele>
        <time>2013-05-14T10:12:59Z</time>
      </trkpt>
      <trkpt lat="44.50272" lon="5.84892">
        <ele>997.9858398</ele>
        <time>2013-05-14T10:13:00Z</time>
      </trkpt>
      <trkpt lat="44.50218" lon="5.84878">
        <ele>994.140625</ele>
        <time>2013-05-14T10:13:05Z</time>
      </trkpt>
      <trkpt lat="44.50208" lon="5.84873">
        <ele>994.140625</ele>
        <time>2013-05-14T10:13:06Z</time>
      </trkpt>
      <trkpt lat="44.50169" lon="5.84857">
        <ele>993.1791992</ele>
        <time>2013-05-14T10:13:10Z</time>
      </trkpt>
      <trkpt lat="44.50144" lon="5.84843">
        <ele>990.7758789</ele>
        <time>2013-05-14T10:13:13Z</time>
      </trkpt>
      <trkpt lat="44.5013" lon="5.84825">
        <ele>989.3339844</ele>
        <time>2013-05-14T10:13:15Z</time>
      </trkpt>
      <trkpt lat="44.50123" lon="5.84814">
        <ele>988.3728027</ele>
        <time>2013-05-14T10:13:16Z</time>
      </trkpt>
      <trkpt lat="44.50095" lon="5.84774">
        <ele>985.9692383</ele>
        <time>2013-05-14T10:13:20Z</time>
      </trkpt>
      <trkpt lat="44.50078" lon="5.84755">
        <ele>984.0466309</ele>
        <time>2013-05-14T10:13:22Z</time>
      </trkpt>
      <trkpt lat="44.50059" lon="5.84743">
        <ele>985.4885254</ele>
        <time>2013-05-14T10:13:24Z</time>
      </trkpt>
      <trkpt lat="44.5005" lon="5.84738">
        <ele>984.0466309</ele>
        <time>2013-05-14T10:13:25Z</time>
      </trkpt>
      <trkpt lat="44.50021" lon="5.84725">
        <ele>980.201416</ele>
        <time>2013-05-14T10:13:28Z</time>
      </trkpt>
      <trkpt lat="44.5001" lon="5.84721">
        <ele>980.201416</ele>
        <time>2013-05-14T10:13:29Z</time>
      </trkpt>
      <trkpt lat="44.49979" lon="5.84711">
        <ele>977.7980957</ele>
        <time>2013-05-14T10:13:32Z</time>
      </trkpt>
      <trkpt lat="44.49951" lon="5.84696">
        <ele>975.3947754</ele>
        <time>2013-05-14T10:13:35Z</time>
      </trkpt>
      <trkpt lat="44.49928" lon="5.84664">
        <ele>973.4724121</ele>
        <time>2013-05-14T10:13:38Z</time>
      </trkpt>
      <trkpt lat="44.49911" lon="5.84649">
        <ele>972.0302734</ele>
        <time>2013-05-14T10:13:40Z</time>
      </trkpt>
      <trkpt lat="44.49892" lon="5.84633">
        <ele>968.6655273</ele>
        <time>2013-05-14T10:13:42Z</time>
      </trkpt>
      <trkpt lat="44.49884" lon="5.84625">
        <ele>968.6655273</ele>
        <time>2013-05-14T10:13:43Z</time>
      </trkpt>
      <trkpt lat="44.49875" lon="5.84616">
        <ele>966.7429199</ele>
        <time>2013-05-14T10:13:44Z</time>
      </trkpt>
      <trkpt lat="44.49836" lon="5.84555">
        <ele>964.3395996</ele>
        <time>2013-05-14T10:13:50Z</time>
      </trkpt>
      <trkpt lat="44.49799" lon="5.84537">
        <ele>961.9365234</ele>
        <time>2013-05-14T10:13:54Z</time>
      </trkpt>
      <trkpt lat="44.49781" lon="5.84535">
        <ele>960.0136719</ele>
        <time>2013-05-14T10:13:56Z</time>
      </trkpt>
      <trkpt lat="44.49756" lon="5.84519">
        <ele>959.5332031</ele>
        <time>2013-05-14T10:13:59Z</time>
      </trkpt>
      <trkpt lat="44.49742" lon="5.84502">
        <ele>957.6105957</ele>
        <time>2013-05-14T10:14:01Z</time>
      </trkpt>
      <trkpt lat="44.49729" lon="5.84482">
        <ele>954.7263184</ele>
        <time>2013-05-14T10:14:03Z</time>
      </trkpt>
      <trkpt lat="44.49722" lon="5.84472">
        <ele>954.7263184</ele>
        <time>2013-05-14T10:14:04Z</time>
      </trkpt>
      <trkpt lat="44.49704" lon="5.84444">
        <ele>951.8425293</ele>
        <time>2013-05-14T10:14:07Z</time>
      </trkpt>
      <trkpt lat="44.49698" lon="5.84435">
        <ele>951.8425293</ele>
        <time>2013-05-14T10:14:08Z</time>
      </trkpt>
      <trkpt lat="44.49687" lon="5.84417">
        <ele>950.4006348</ele>
        <time>2013-05-14T10:14:10Z</time>
      </trkpt>
      <trkpt lat="44.49682" lon="5.84411">
        <ele>949.9199219</ele>
        <time>2013-05-14T10:14:11Z</time>
      </trkpt>
      <trkpt lat="44.49653" lon="5.84404">
        <ele>949.439209</ele>
        <time>2013-05-14T10:14:17Z</time>
      </trkpt>
      <trkpt lat="44.49647" lon="5.84424">
        <ele>948.4777832</ele>
        <time>2013-05-14T10:14:19Z</time>
      </trkpt>
      <trkpt lat="44.49642" lon="5.84442">
        <ele>947.0358887</ele>
        <time>2013-05-14T10:14:21Z</time>
      </trkpt>
      <trkpt lat="44.49616" lon="5.84485">
        <ele>944.6325684</ele>
        <time>2013-05-14T10:14:26Z</time>
      </trkpt>
      <trkpt lat="44.49603" lon="5.84497">
        <ele>943.6713867</ele>
        <time>2013-05-14T10:14:28Z</time>
      </trkpt>
      <trkpt lat="44.49578" lon="5.84517">
        <ele>944.1520996</ele>
        <time>2013-05-14T10:14:32Z</time>
      </trkpt>
      <trkpt lat="44.49567" lon="5.84524">
        <ele>945.1132813</ele>
        <time>2013-05-14T10:14:34Z</time>
      </trkpt>
      <trkpt lat="44.49559" lon="5.84527">
        <ele>946.074707</ele>
        <time>2013-05-14T10:14:36Z</time>
      </trkpt>
      <trkpt lat="44.49551" lon="5.8453">
        <ele>946.074707</ele>
        <time>2013-05-14T10:14:39Z</time>
      </trkpt>
      <trkpt lat="44.49534" lon="5.84522">
        <ele>944.6325684</ele>
        <time>2013-05-14T10:14:42Z</time>
      </trkpt>
      <trkpt lat="44.4951" lon="5.84482">
        <ele>940.7873535</ele>
        <time>2013-05-14T10:14:47Z</time>
      </trkpt>
      <trkpt lat="44.49509" lon="5.84473">
        <ele>940.7873535</ele>
        <time>2013-05-14T10:14:48Z</time>
      </trkpt>
      <trkpt lat="44.49506" lon="5.84449">
        <ele>940.7873535</ele>
        <time>2013-05-14T10:14:50Z</time>
      </trkpt>
      <trkpt lat="44.49506" lon="5.84424">
        <ele>938.3840332</ele>
        <time>2013-05-14T10:14:52Z</time>
      </trkpt>
      <trkpt lat="44.49513" lon="5.84377">
        <ele>935.5</ele>
        <time>2013-05-14T10:14:56Z</time>
      </trkpt>
      <trkpt lat="44.49516" lon="5.84367">
        <ele>935.5</ele>
        <time>2013-05-14T10:14:57Z</time>
      </trkpt>
      <trkpt lat="44.4953" lon="5.84322">
        <ele>937.4226074</ele>
        <time>2013-05-14T10:15:02Z</time>
      </trkpt>
      <trkpt lat="44.49526" lon="5.84263">
        <ele>937.4226074</ele>
        <time>2013-05-14T10:15:10Z</time>
      </trkpt>
      <trkpt lat="44.49502" lon="5.84223">
        <ele>936.4614258</ele>
        <time>2013-05-14T10:15:18Z</time>
      </trkpt>
      <trkpt lat="44.4949" lon="5.84205">
        <ele>936.4614258</ele>
        <time>2013-05-14T10:15:21Z</time>
      </trkpt>
      <trkpt lat="44.49475" lon="5.84176">
        <ele>935.0195313</ele>
        <time>2013-05-14T10:15:25Z</time>
      </trkpt>
      <trkpt lat="44.49468" lon="5.84159">
        <ele>933.5773926</ele>
        <time>2013-05-14T10:15:27Z</time>
      </trkpt>
      <trkpt lat="44.49412" lon="5.84044">
        <ele>931.6547852</ele>
        <time>2013-05-14T10:15:42Z</time>
      </trkpt>
      <trkpt lat="44.49372" lon="5.83949">
        <ele>928.2902832</ele>
        <time>2013-05-14T10:15:53Z</time>
      </trkpt>
      <trkpt lat="44.49364" lon="5.83931">
        <ele>926.3676758</ele>
        <time>2013-05-14T10:15:55Z</time>
      </trkpt>
      <trkpt lat="44.49353" lon="5.83902">
        <ele>925.40625</ele>
        <time>2013-05-14T10:15:58Z</time>
      </trkpt>
      <trkpt lat="44.49343" lon="5.83858">
        <ele>923.4836426</ele>
        <time>2013-05-14T10:16:02Z</time>
      </trkpt>
      <trkpt lat="44.49337" lon="5.83837">
        <ele>922.0415039</ele>
        <time>2013-05-14T10:16:04Z</time>
      </trkpt>
      <trkpt lat="44.49331" lon="5.83813">
        <ele>921.0803223</ele>
        <time>2013-05-14T10:16:06Z</time>
      </trkpt>
      <trkpt lat="44.49325" lon="5.83788">
        <ele>917.7155762</ele>
        <time>2013-05-14T10:16:08Z</time>
      </trkpt>
      <trkpt lat="44.49322" lon="5.83775">
        <ele>917.7155762</ele>
        <time>2013-05-14T10:16:09Z</time>
      </trkpt>
      <trkpt lat="44.49312" lon="5.83734">
        <ele>914.8317871</ele>
        <time>2013-05-14T10:16:12Z</time>
      </trkpt>
      <trkpt lat="44.49308" lon="5.83719">
        <ele>914.8317871</ele>
        <time>2013-05-14T10:16:13Z</time>
      </trkpt>
      <trkpt lat="44.49294" lon="5.83661">
        <ele>912.9091797</ele>
        <time>2013-05-14T10:16:17Z</time>
      </trkpt>
      <trkpt lat="44.49288" lon="5.83631">
        <ele>909.5446777</ele>
        <time>2013-05-14T10:16:19Z</time>
      </trkpt>
      <trkpt lat="44.49285" lon="5.83617">
        <ele>909.5446777</ele>
        <time>2013-05-14T10:16:20Z</time>
      </trkpt>
      <trkpt lat="44.49279" lon="5.83586">
        <ele>908.1027832</ele>
        <time>2013-05-14T10:16:22Z</time>
      </trkpt>
      <trkpt lat="44.49274" lon="5.83557">
        <ele>904.737793</ele>
        <time>2013-05-14T10:16:24Z</time>
      </trkpt>
      <trkpt lat="44.4927" lon="5.83545">
        <ele>904.737793</ele>
        <time>2013-05-14T10:16:25Z</time>
      </trkpt>
      <trkpt lat="44.49257" lon="5.83423">
        <ele>907.6218262</ele>
        <time>2013-05-14T10:16:36Z</time>
      </trkpt>
      <trkpt lat="44.49256" lon="5.83373">
        <ele>907.1411133</ele>
        <time>2013-05-14T10:16:41Z</time>
      </trkpt>
      <trkpt lat="44.49253" lon="5.83322">
        <ele>905.6992188</ele>
        <time>2013-05-14T10:16:46Z</time>
      </trkpt>
      <trkpt lat="44.49241" lon="5.83288">
        <ele>903.7766113</ele>
        <time>2013-05-14T10:16:50Z</time>
      </trkpt>
      <trkpt lat="44.49225" lon="5.83264">
        <ele>902.3344727</ele>
        <time>2013-05-14T10:16:53Z</time>
      </trkpt>
      <trkpt lat="44.49213" lon="5.83245">
        <ele>900.8925781</ele>
        <time>2013-05-14T10:16:55Z</time>
      </trkpt>
      <trkpt lat="44.49177" lon="5.83186">
        <ele>898.0087891</ele>
        <time>2013-05-14T10:17:01Z</time>
      </trkpt>
      <trkpt lat="44.49171" lon="5.83177">
        <ele>898.0087891</ele>
        <time>2013-05-14T10:17:02Z</time>
      </trkpt>
      <trkpt lat="44.49154" lon="5.8315">
        <ele>897.5280762</ele>
        <time>2013-05-14T10:17:05Z</time>
      </trkpt>
      <trkpt lat="44.49146" lon="5.83106">
        <ele>895.1247559</ele>
        <time>2013-05-14T10:17:09Z</time>
      </trkpt>
      <trkpt lat="44.49152" lon="5.83071">
        <ele>894.644043</ele>
        <time>2013-05-14T10:17:12Z</time>
      </trkpt>
      <trkpt lat="44.49165" lon="5.83022">
        <ele>891.7600098</ele>
        <time>2013-05-14T10:17:16Z</time>
      </trkpt>
      <trkpt lat="44.49171" lon="5.83001">
        <ele>891.2792969</ele>
        <time>2013-05-14T10:17:18Z</time>
      </trkpt>
      <trkpt lat="44.49157" lon="5.82978">
        <ele>891.7600098</ele>
        <time>2013-05-14T10:17:24Z</time>
      </trkpt>
      <trkpt lat="44.49118" lon="5.82998">
        <ele>894.1635742</ele>
        <time>2013-05-14T10:17:33Z</time>
      </trkpt>
      <trkpt lat="44.49048" lon="5.83007">
        <ele>895.1247559</ele>
        <time>2013-05-14T10:17:50Z</time>
      </trkpt>
      <trkpt lat="44.49029" lon="5.83007">
        <ele>894.644043</ele>
        <time>2013-05-14T10:17:54Z</time>
      </trkpt>
      <trkpt lat="44.4901" lon="5.83007">
        <ele>894.1635742</ele>
        <time>2013-05-14T10:17:59Z</time>
      </trkpt>
      <trkpt lat="44.48977" lon="5.8303">
        <ele>893.6828613</ele>
        <time>2013-05-14T10:18:08Z</time>
      </trkpt>
      <trkpt lat="44.48957" lon="5.83037">
        <ele>891.2792969</ele>
        <time>2013-05-14T10:18:12Z</time>
      </trkpt>
      <trkpt lat="44.48888" lon="5.83031">
        <ele>889.8374023</ele>
        <time>2013-05-14T10:18:25Z</time>
      </trkpt>
      <trkpt lat="44.48864" lon="5.83019">
        <ele>887.434082</ele>
        <time>2013-05-14T10:18:29Z</time>
      </trkpt>
      <trkpt lat="44.48835" lon="5.82992">
        <ele>885.5114746</ele>
        <time>2013-05-14T10:18:34Z</time>
      </trkpt>
      <trkpt lat="44.48821" lon="5.82975">
        <ele>885.0310059</ele>
        <time>2013-05-14T10:18:37Z</time>
      </trkpt>
      <trkpt lat="44.4881" lon="5.82964">
        <ele>883.1081543</ele>
        <time>2013-05-14T10:18:39Z</time>
      </trkpt>
      <trkpt lat="44.48767" lon="5.82967">
        <ele>879.7436523</ele>
        <time>2013-05-14T10:18:45Z</time>
      </trkpt>
      <trkpt lat="44.48726" lon="5.83001">
        <ele>879.2629395</ele>
        <time>2013-05-14T10:18:51Z</time>
      </trkpt>
      <trkpt lat="44.48711" lon="5.83012">
        <ele>877.8210449</ele>
        <time>2013-05-14T10:18:53Z</time>
      </trkpt>
      <trkpt lat="44.48646" lon="5.83033">
        <ele>874.4562988</ele>
        <time>2013-05-14T10:19:01Z</time>
      </trkpt>
      <trkpt lat="44.48615" lon="5.83038">
        <ele>873.0144043</ele>
        <time>2013-05-14T10:19:05Z</time>
      </trkpt>
      <trkpt lat="44.48581" lon="5.83047">
        <ele>870.1303711</ele>
        <time>2013-05-14T10:19:09Z</time>
      </trkpt>
      <trkpt lat="44.4853" lon="5.83073">
        <ele>870.1303711</ele>
        <time>2013-05-14T10:19:16Z</time>
      </trkpt>
      <trkpt lat="44.48489" lon="5.83078">
        <ele>867.7270508</ele>
        <time>2013-05-14T10:19:21Z</time>
      </trkpt>
      <trkpt lat="44.48466" lon="5.83081">
        <ele>866.7658691</ele>
        <time>2013-05-14T10:19:24Z</time>
      </trkpt>
      <trkpt lat="44.4845" lon="5.83082">
        <ele>866.7658691</ele>
        <time>2013-05-14T10:19:26Z</time>
      </trkpt>
      <trkpt lat="44.48397" lon="5.83073">
        <ele>865.8046875</ele>
        <time>2013-05-14T10:19:33Z</time>
      </trkpt>
      <trkpt lat="44.48355" lon="5.83067">
        <ele>864.8432617</ele>
        <time>2013-05-14T10:19:39Z</time>
      </trkpt>
      <trkpt lat="44.48315" lon="5.83048">
        <ele>862.4399414</ele>
        <time>2013-05-14T10:19:45Z</time>
      </trkpt>
      <trkpt lat="44.48291" lon="5.83027">
        <ele>863.4013672</ele>
        <time>2013-05-14T10:19:49Z</time>
      </trkpt>
      <trkpt lat="44.48241" lon="5.83">
        <ele>860.0366211</ele>
        <time>2013-05-14T10:19:57Z</time>
      </trkpt>
      <trkpt lat="44.48226" lon="5.82999">
        <ele>858.5944824</ele>
        <time>2013-05-14T10:19:59Z</time>
      </trkpt>
      <trkpt lat="44.4821" lon="5.82995">
        <ele>858.1140137</ele>
        <time>2013-05-14T10:20:01Z</time>
      </trkpt>
      <trkpt lat="44.48132" lon="5.82953">
        <ele>854.2687988</ele>
        <time>2013-05-14T10:20:12Z</time>
      </trkpt>
      <trkpt lat="44.48115" lon="5.8294">
        <ele>853.7880859</ele>
        <time>2013-05-14T10:20:14Z</time>
      </trkpt>
      <trkpt lat="44.48094" lon="5.82918">
        <ele>852.3459473</ele>
        <time>2013-05-14T10:20:17Z</time>
      </trkpt>
      <trkpt lat="44.48026" lon="5.82815">
        <ele>848.9814453</ele>
        <time>2013-05-14T10:20:30Z</time>
      </trkpt>
      <trkpt lat="44.47949" lon="5.82695">
        <ele>847.5395508</ele>
        <time>2013-05-14T10:20:47Z</time>
      </trkpt>
      <trkpt lat="44.47923" lon="5.82612">
        <ele>843.6940918</ele>
        <time>2013-05-14T10:20:56Z</time>
      </trkpt>
      <trkpt lat="44.47895" lon="5.8248">
        <ele>841.2907715</ele>
        <time>2013-05-14T10:21:10Z</time>
      </trkpt>
      <trkpt lat="44.47872" lon="5.82366">
        <ele>840.8100586</ele>
        <time>2013-05-14T10:21:23Z</time>
      </trkpt>
      <trkpt lat="44.47859" lon="5.82336">
        <ele>839.3681641</ele>
        <time>2013-05-14T10:21:27Z</time>
      </trkpt>
      <trkpt lat="44.47829" lon="5.82325">
        <ele>838.8876953</ele>
        <time>2013-05-14T10:21:32Z</time>
      </trkpt>
      <trkpt lat="44.47776" lon="5.82329">
        <ele>836.9648438</ele>
        <time>2013-05-14T10:21:40Z</time>
      </trkpt>
      <trkpt lat="44.4773" lon="5.82346">
        <ele>836.0036621</ele>
        <time>2013-05-14T10:21:48Z</time>
      </trkpt>
      <trkpt lat="44.47692" lon="5.82368">
        <ele>835.5229492</ele>
        <time>2013-05-14T10:21:57Z</time>
      </trkpt>
      <trkpt lat="44.47666" lon="5.82362">
        <ele>834.0810547</ele>
        <time>2013-05-14T10:22:02Z</time>
      </trkpt>
      <trkpt lat="44.47657" lon="5.82351">
        <ele>832.1584473</ele>
        <time>2013-05-14T10:22:04Z</time>
      </trkpt>
      <trkpt lat="44.47651" lon="5.82342">
        <ele>831.6777344</ele>
        <time>2013-05-14T10:22:05Z</time>
      </trkpt>
      <trkpt lat="44.47637" lon="5.82298">
        <ele>829.2744141</ele>
        <time>2013-05-14T10:22:10Z</time>
      </trkpt>
      <trkpt lat="44.47632" lon="5.8228">
        <ele>828.7939453</ele>
        <time>2013-05-14T10:22:12Z</time>
      </trkpt>
      <trkpt lat="44.47587" lon="5.82176">
        <ele>826.8710938</ele>
        <time>2013-05-14T10:22:24Z</time>
      </trkpt>
      <trkpt lat="44.47552" lon="5.82112">
        <ele>826.3903809</ele>
        <time>2013-05-14T10:22:33Z</time>
      </trkpt>
      <trkpt lat="44.47543" lon="5.82077">
        <ele>826.3903809</ele>
        <time>2013-05-14T10:22:37Z</time>
      </trkpt>
      <trkpt lat="44.47549" lon="5.82036">
        <ele>823.9870605</ele>
        <time>2013-05-14T10:22:41Z</time>
      </trkpt>
      <trkpt lat="44.47559" lon="5.81959">
        <ele>821.1032715</ele>
        <time>2013-05-14T10:22:48Z</time>
      </trkpt>
      <trkpt lat="44.47578" lon="5.81817">
        <ele>817.7385254</ele>
        <time>2013-05-14T10:23:00Z</time>
      </trkpt>
      <trkpt lat="44.47587" lon="5.81745">
        <ele>817.2580566</ele>
        <time>2013-05-14T10:23:06Z</time>
      </trkpt>
      <trkpt lat="44.47611" lon="5.81592">
        <ele>813.8933105</ele>
        <time>2013-05-14T10:23:19Z</time>
      </trkpt>
      <trkpt lat="44.47613" lon="5.81581">
        <ele>813.8933105</ele>
        <time>2013-05-14T10:23:20Z</time>
      </trkpt>
      <trkpt lat="44.4764" lon="5.81455">
        <ele>812.451416</ele>
        <time>2013-05-14T10:23:33Z</time>
      </trkpt>
      <trkpt lat="44.47643" lon="5.81447">
        <ele>812.451416</ele>
        <time>2013-05-14T10:23:34Z</time>
      </trkpt>
      <trkpt lat="44.47659" lon="5.81407">
        <ele>812.9321289</ele>
        <time>2013-05-14T10:23:39Z</time>
      </trkpt>
      <trkpt lat="44.47666" lon="5.81339">
        <ele>815.3354492</ele>
        <time>2013-05-14T10:23:47Z</time>
      </trkpt>
      <trkpt lat="44.47667" lon="5.81315">
        <ele>814.8547363</ele>
        <time>2013-05-14T10:23:50Z</time>
      </trkpt>
      <trkpt lat="44.47662" lon="5.8119">
        <ele>811.4899902</ele>
        <time>2013-05-14T10:24:03Z</time>
      </trkpt>
      <trkpt lat="44.47658" lon="5.81129">
        <ele>810.0478516</ele>
        <time>2013-05-14T10:24:09Z</time>
      </trkpt>
      <trkpt lat="44.47663" lon="5.8105">
        <ele>807.6447754</ele>
        <time>2013-05-14T10:24:16Z</time>
      </trkpt>
      <trkpt lat="44.47663" lon="5.81027">
        <ele>809.0866699</ele>
        <time>2013-05-14T10:24:18Z</time>
      </trkpt>
      <trkpt lat="44.47671" lon="5.80937">
        <ele>807.6447754</ele>
        <time>2013-05-14T10:24:26Z</time>
      </trkpt>
      <trkpt lat="44.47673" lon="5.80893">
        <ele>806.2026367</ele>
        <time>2013-05-14T10:24:30Z</time>
      </trkpt>
      <trkpt lat="44.47674" lon="5.80809">
        <ele>808.1254883</ele>
        <time>2013-05-14T10:24:39Z</time>
      </trkpt>
      <trkpt lat="44.47673" lon="5.80763">
        <ele>809.5673828</ele>
        <time>2013-05-14T10:24:45Z</time>
      </trkpt>
      <trkpt lat="44.47671" lon="5.80739">
        <ele>809.0866699</ele>
        <time>2013-05-14T10:24:48Z</time>
      </trkpt>
      <trkpt lat="44.47671" lon="5.8069">
        <ele>807.1640625</ele>
        <time>2013-05-14T10:24:53Z</time>
      </trkpt>
      <trkpt lat="44.47675" lon="5.80644">
        <ele>804.7607422</ele>
        <time>2013-05-14T10:24:57Z</time>
      </trkpt>
      <trkpt lat="44.47677" lon="5.80606">
        <ele>803.7995605</ele>
        <time>2013-05-14T10:25:00Z</time>
      </trkpt>
      <trkpt lat="44.47649" lon="5.80547">
        <ele>804.7607422</ele>
        <time>2013-05-14T10:25:07Z</time>
      </trkpt>
      <trkpt lat="44.47636" lon="5.80543">
        <ele>805.722168</ele>
        <time>2013-05-14T10:25:09Z</time>
      </trkpt>
      <trkpt lat="44.47624" lon="5.8054">
        <ele>805.722168</ele>
        <time>2013-05-14T10:25:11Z</time>
      </trkpt>
      <trkpt lat="44.47587" lon="5.80489">
        <ele>806.2026367</ele>
        <time>2013-05-14T10:25:20Z</time>
      </trkpt>
      <trkpt lat="44.47586" lon="5.80478">
        <ele>807.1640625</ele>
        <time>2013-05-14T10:25:22Z</time>
      </trkpt>
      <trkpt lat="44.47585" lon="5.80461">
        <ele>806.6833496</ele>
        <time>2013-05-14T10:25:25Z</time>
      </trkpt>
      <trkpt lat="44.47578" lon="5.8036">
        <ele>805.2414551</ele>
        <time>2013-05-14T10:25:37Z</time>
      </trkpt>
      <trkpt lat="44.47607" lon="5.80259">
        <ele>804.7607422</ele>
        <time>2013-05-14T10:25:50Z</time>
      </trkpt>
      <trkpt lat="44.47611" lon="5.80205">
        <ele>802.8381348</ele>
        <time>2013-05-14T10:25:56Z</time>
      </trkpt>
      <trkpt lat="44.47609" lon="5.80163">
        <ele>801.3962402</ele>
        <time>2013-05-14T10:26:00Z</time>
      </trkpt>
      <trkpt lat="44.47602" lon="5.8005">
        <ele>801.8769531</ele>
        <time>2013-05-14T10:26:12Z</time>
      </trkpt>
      <trkpt lat="44.47597" lon="5.79969">
        <ele>805.2414551</ele>
        <time>2013-05-14T10:26:26Z</time>
      </trkpt>
      <trkpt lat="44.47596" lon="5.79957">
        <ele>803.7995605</ele>
        <time>2013-05-14T10:26:28Z</time>
      </trkpt>
      <trkpt lat="44.47596" lon="5.79941">
        <ele>804.2802734</ele>
        <time>2013-05-14T10:26:31Z</time>
      </trkpt>
      <trkpt lat="44.47589" lon="5.79902">
        <ele>802.3574219</ele>
        <time>2013-05-14T10:26:37Z</time>
      </trkpt>
      <trkpt lat="44.47581" lon="5.79847">
        <ele>800.4350586</ele>
        <time>2013-05-14T10:26:42Z</time>
      </trkpt>
      <trkpt lat="44.47579" lon="5.79823">
        <ele>798.9929199</ele>
        <time>2013-05-14T10:26:44Z</time>
      </trkpt>
      <trkpt lat="44.47583" lon="5.79747">
        <ele>795.1474609</ele>
        <time>2013-05-14T10:26:50Z</time>
      </trkpt>
      <trkpt lat="44.47584" lon="5.79733">
        <ele>795.1474609</ele>
        <time>2013-05-14T10:26:51Z</time>
      </trkpt>
      <trkpt lat="44.47592" lon="5.79582">
        <ele>794.666748</ele>
        <time>2013-05-14T10:27:03Z</time>
      </trkpt>
      <trkpt lat="44.47591" lon="5.79562">
        <ele>794.1862793</ele>
        <time>2013-05-14T10:27:05Z</time>
      </trkpt>
      <trkpt lat="44.4759" lon="5.79531">
        <ele>795.6281738</ele>
        <time>2013-05-14T10:27:09Z</time>
      </trkpt>
      <trkpt lat="44.47591" lon="5.79468">
        <ele>797.5510254</ele>
        <time>2013-05-14T10:27:19Z</time>
      </trkpt>
      <trkpt lat="44.47618" lon="5.79362">
        <ele>797.0703125</ele>
        <time>2013-05-14T10:27:32Z</time>
      </trkpt>
      <trkpt lat="44.47624" lon="5.79332">
        <ele>796.1091309</ele>
        <time>2013-05-14T10:27:35Z</time>
      </trkpt>
      <trkpt lat="44.47629" lon="5.79301">
        <ele>795.6281738</ele>
        <time>2013-05-14T10:27:38Z</time>
      </trkpt>
      <trkpt lat="44.47632" lon="5.79248">
        <ele>792.7443848</ele>
        <time>2013-05-14T10:27:42Z</time>
      </trkpt>
      <trkpt lat="44.47627" lon="5.79207">
        <ele>789.8603516</ele>
        <time>2013-05-14T10:27:45Z</time>
      </trkpt>
      <trkpt lat="44.47625" lon="5.79193">
        <ele>789.8603516</ele>
        <time>2013-05-14T10:27:46Z</time>
      </trkpt>
      <trkpt lat="44.47619" lon="5.79151">
        <ele>787.9377441</ele>
        <time>2013-05-14T10:27:49Z</time>
      </trkpt>
      <trkpt lat="44.47617" lon="5.79122">
        <ele>787.4570313</ele>
        <time>2013-05-14T10:27:51Z</time>
      </trkpt>
      <trkpt lat="44.47619" lon="5.79055">
        <ele>787.4570313</ele>
        <time>2013-05-14T10:27:56Z</time>
      </trkpt>
      <trkpt lat="44.47607" lon="5.78999">
        <ele>787.4570313</ele>
        <time>2013-05-14T10:28:01Z</time>
      </trkpt>
      <trkpt lat="44.47599" lon="5.78979">
        <ele>786.4958496</ele>
        <time>2013-05-14T10:28:03Z</time>
      </trkpt>
      <trkpt lat="44.4758" lon="5.7891">
        <ele>784.5732422</ele>
        <time>2013-05-14T10:28:09Z</time>
      </trkpt>
      <trkpt lat="44.47563" lon="5.78852">
        <ele>784.0925293</ele>
        <time>2013-05-14T10:28:14Z</time>
      </trkpt>
      <trkpt lat="44.4756" lon="5.7881">
        <ele>784.0925293</ele>
        <time>2013-05-14T10:28:18Z</time>
      </trkpt>
      <trkpt lat="44.47573" lon="5.78676">
        <ele>786.0151367</ele>
        <time>2013-05-14T10:28:32Z</time>
      </trkpt>
      <trkpt lat="44.47575" lon="5.78667">
        <ele>786.0151367</ele>
        <time>2013-05-14T10:28:33Z</time>
      </trkpt>
      <trkpt lat="44.47612" lon="5.7856">
        <ele>787.4570313</ele>
        <time>2013-05-14T10:28:46Z</time>
      </trkpt>
      <trkpt lat="44.47618" lon="5.78505">
        <ele>789.3796387</ele>
        <time>2013-05-14T10:28:54Z</time>
      </trkpt>
      <trkpt lat="44.47648" lon="5.78436">
        <ele>791.782959</ele>
        <time>2013-05-14T10:29:08Z</time>
      </trkpt>
      <trkpt lat="44.47656" lon="5.78424">
        <ele>792.2636719</ele>
        <time>2013-05-14T10:29:11Z</time>
      </trkpt>
      <trkpt lat="44.47669" lon="5.7839">
        <ele>791.3022461</ele>
        <time>2013-05-14T10:29:17Z</time>
      </trkpt>
      <trkpt lat="44.47673" lon="5.78377">
        <ele>790.3410645</ele>
        <time>2013-05-14T10:29:19Z</time>
      </trkpt>
      <trkpt lat="44.47655" lon="5.78351">
        <ele>788.418457</ele>
        <time>2013-05-14T10:29:22Z</time>
      </trkpt>
      <trkpt lat="44.47646" lon="5.78341">
        <ele>786.9763184</ele>
        <time>2013-05-14T10:29:24Z</time>
      </trkpt>
      <trkpt lat="44.47635" lon="5.78333">
        <ele>786.9763184</ele>
        <time>2013-05-14T10:29:26Z</time>
      </trkpt>
      <trkpt lat="44.47604" lon="5.78317">
        <ele>786.0151367</ele>
        <time>2013-05-14T10:29:31Z</time>
      </trkpt>
      <trkpt lat="44.47568" lon="5.78286">
        <ele>785.5344238</ele>
        <time>2013-05-14T10:29:37Z</time>
      </trkpt>
      <trkpt lat="44.47558" lon="5.78272">
        <ele>785.5344238</ele>
        <time>2013-05-14T10:29:39Z</time>
      </trkpt>
      <trkpt lat="44.47519" lon="5.78214">
        <ele>783.1311035</ele>
        <time>2013-05-14T10:29:47Z</time>
      </trkpt>
      <trkpt lat="44.47491" lon="5.78195">
        <ele>780.2473145</ele>
        <time>2013-05-14T10:29:51Z</time>
      </trkpt>
      <trkpt lat="44.47405" lon="5.78161">
        <ele>778.3244629</ele>
        <time>2013-05-14T10:30:03Z</time>
      </trkpt>
      <trkpt lat="44.47373" lon="5.78168">
        <ele>778.8051758</ele>
        <time>2013-05-14T10:30:09Z</time>
      </trkpt>
      <trkpt lat="44.47361" lon="5.78188">
        <ele>777.3632813</ele>
        <time>2013-05-14T10:30:12Z</time>
      </trkpt>
      <trkpt lat="44.47294" lon="5.78305">
        <ele>775.4404297</ele>
        <time>2013-05-14T10:30:28Z</time>
      </trkpt>
      <trkpt lat="44.47276" lon="5.78336">
        <ele>773.9985352</ele>
        <time>2013-05-14T10:30:33Z</time>
      </trkpt>
      <trkpt lat="44.47269" lon="5.78349">
        <ele>775.4404297</ele>
        <time>2013-05-14T10:30:35Z</time>
      </trkpt>
      <trkpt lat="44.47227" lon="5.78422">
        <ele>773.9985352</ele>
        <time>2013-05-14T10:30:48Z</time>
      </trkpt>
      <trkpt lat="44.47208" lon="5.78455">
        <ele>773.5180664</ele>
        <time>2013-05-14T10:30:54Z</time>
      </trkpt>
      <trkpt lat="44.47156" lon="5.78543">
        <ele>774.479248</ele>
        <time>2013-05-14T10:31:10Z</time>
      </trkpt>
      <trkpt lat="44.47141" lon="5.78568">
        <ele>775.4404297</ele>
        <time>2013-05-14T10:31:15Z</time>
      </trkpt>
      <trkpt lat="44.4713" lon="5.78587">
        <ele>776.4018555</ele>
        <time>2013-05-14T10:31:19Z</time>
      </trkpt>
      <trkpt lat="44.47106" lon="5.78632">
        <ele>775.9211426</ele>
        <time>2013-05-14T10:31:28Z</time>
      </trkpt>
      <trkpt lat="44.47061" lon="5.78711">
        <ele>776.8825684</ele>
        <time>2013-05-14T10:31:39Z</time>
      </trkpt>
      <trkpt lat="44.47044" lon="5.78738">
        <ele>775.9211426</ele>
        <time>2013-05-14T10:31:43Z</time>
      </trkpt>
      <trkpt lat="44.47034" lon="5.7875">
        <ele>773.9985352</ele>
        <time>2013-05-14T10:31:45Z</time>
      </trkpt>
      <trkpt lat="44.47002" lon="5.78751">
        <ele>774.479248</ele>
        <time>2013-05-14T10:31:50Z</time>
      </trkpt>
      <trkpt lat="44.46991" lon="5.78747">
        <ele>775.9211426</ele>
        <time>2013-05-14T10:31:52Z</time>
      </trkpt>
      <trkpt lat="44.46985" lon="5.78744">
        <ele>775.4404297</ele>
        <time>2013-05-14T10:31:53Z</time>
      </trkpt>
      <trkpt lat="44.46961" lon="5.78723">
        <ele>775.9211426</ele>
        <time>2013-05-14T10:31:58Z</time>
      </trkpt>
      <trkpt lat="44.46946" lon="5.78695">
        <ele>776.4018555</ele>
        <time>2013-05-14T10:32:02Z</time>
      </trkpt>
      <trkpt lat="44.46931" lon="5.78675">
        <ele>776.8825684</ele>
        <time>2013-05-14T10:32:06Z</time>
      </trkpt>
      <trkpt lat="44.46889" lon="5.78651">
        <ele>775.9211426</ele>
        <time>2013-05-14T10:32:14Z</time>
      </trkpt>
      <trkpt lat="44.46866" lon="5.78633">
        <ele>774.479248</ele>
        <time>2013-05-14T10:32:18Z</time>
      </trkpt>
      <trkpt lat="44.46798" lon="5.78575">
        <ele>775.4404297</ele>
        <time>2013-05-14T10:32:31Z</time>
      </trkpt>
      <trkpt lat="44.46739" lon="5.78522">
        <ele>778.3244629</ele>
        <time>2013-05-14T10:32:46Z</time>
      </trkpt>
      <trkpt lat="44.46715" lon="5.785">
        <ele>778.3244629</ele>
        <time>2013-05-14T10:32:53Z</time>
      </trkpt>
      <trkpt lat="44.46696" lon="5.78477">
        <ele>778.8051758</ele>
        <time>2013-05-14T10:32:59Z</time>
      </trkpt>
      <trkpt lat="44.46688" lon="5.78461">
        <ele>778.8051758</ele>
        <time>2013-05-14T10:33:02Z</time>
      </trkpt>
      <trkpt lat="44.46679" lon="5.78439">
        <ele>778.8051758</ele>
        <time>2013-05-14T10:33:06Z</time>
      </trkpt>
      <trkpt lat="44.46667" lon="5.7841">
        <ele>779.7663574</ele>
        <time>2013-05-14T10:33:12Z</time>
      </trkpt>
      <trkpt lat="44.46627" lon="5.78374">
        <ele>779.2856445</ele>
        <time>2013-05-14T10:33:22Z</time>
      </trkpt>
      <trkpt lat="44.46591" lon="5.78352">
        <ele>780.2473145</ele>
        <time>2013-05-14T10:33:31Z</time>
      </trkpt>
      <trkpt lat="44.46573" lon="5.7834">
        <ele>780.2473145</ele>
        <time>2013-05-14T10:33:35Z</time>
      </trkpt>
      <trkpt lat="44.46523" lon="5.78316">
        <ele>780.2473145</ele>
        <time>2013-05-14T10:33:44Z</time>
      </trkpt>
      <trkpt lat="44.46507" lon="5.78311">
        <ele>781.2087402</ele>
        <time>2013-05-14T10:33:47Z</time>
      </trkpt>
      <trkpt lat="44.46497" lon="5.78308">
        <ele>781.2087402</ele>
        <time>2013-05-14T10:33:49Z</time>
      </trkpt>
      <trkpt lat="44.46476" lon="5.78302">
        <ele>780.7280273</ele>
        <time>2013-05-14T10:33:53Z</time>
      </trkpt>
      <trkpt lat="44.46466" lon="5.783">
        <ele>781.2087402</ele>
        <time>2013-05-14T10:33:55Z</time>
      </trkpt>
      <trkpt lat="44.46415" lon="5.7832">
        <ele>781.689209</ele>
        <time>2013-05-14T10:34:05Z</time>
      </trkpt>
      <trkpt lat="44.46385" lon="5.78323">
        <ele>781.689209</ele>
        <time>2013-05-14T10:34:11Z</time>
      </trkpt>
      <trkpt lat="44.46366" lon="5.7832">
        <ele>781.689209</ele>
        <time>2013-05-14T10:34:15Z</time>
      </trkpt>
      <trkpt lat="44.46351" lon="5.78317">
        <ele>782.1699219</ele>
        <time>2013-05-14T10:34:18Z</time>
      </trkpt>
      <trkpt lat="44.46329" lon="5.78318">
        <ele>782.1699219</ele>
        <time>2013-05-14T10:34:22Z</time>
      </trkpt>
      <trkpt lat="44.46317" lon="5.78318">
        <ele>781.689209</ele>
        <time>2013-05-14T10:34:24Z</time>
      </trkpt>
      <trkpt lat="44.46299" lon="5.78315">
        <ele>781.689209</ele>
        <time>2013-05-14T10:34:27Z</time>
      </trkpt>
      <trkpt lat="44.46283" lon="5.78307">
        <ele>782.1699219</ele>
        <time>2013-05-14T10:34:30Z</time>
      </trkpt>
      <trkpt lat="44.46269" lon="5.78297">
        <ele>782.6506348</ele>
        <time>2013-05-14T10:34:33Z</time>
      </trkpt>
      <trkpt lat="44.4625" lon="5.78282">
        <ele>783.1311035</ele>
        <time>2013-05-14T10:34:38Z</time>
      </trkpt>
      <trkpt lat="44.46211" lon="5.78256">
        <ele>783.1311035</ele>
        <time>2013-05-14T10:34:47Z</time>
      </trkpt>
      <trkpt lat="44.46153" lon="5.78252">
        <ele>785.0539551</ele>
        <time>2013-05-14T10:34:59Z</time>
      </trkpt>
      <trkpt lat="44.46126" lon="5.78255">
        <ele>785.0539551</ele>
        <time>2013-05-14T10:35:05Z</time>
      </trkpt>
      <trkpt lat="44.46104" lon="5.78258">
        <ele>786.0151367</ele>
        <time>2013-05-14T10:35:10Z</time>
      </trkpt>
      <trkpt lat="44.46089" lon="5.78266">
        <ele>786.0151367</ele>
        <time>2013-05-14T10:35:13Z</time>
      </trkpt>
      <trkpt lat="44.46082" lon="5.78277">
        <ele>786.4958496</ele>
        <time>2013-05-14T10:35:15Z</time>
      </trkpt>
      <trkpt lat="44.46072" lon="5.78293">
        <ele>786.4958496</ele>
        <time>2013-05-14T10:35:18Z</time>
      </trkpt>
      <trkpt lat="44.46062" lon="5.78307">
        <ele>786.4958496</ele>
        <time>2013-05-14T10:35:21Z</time>
      </trkpt>
      <trkpt lat="44.46043" lon="5.78323">
        <ele>786.0151367</ele>
        <time>2013-05-14T10:35:25Z</time>
      </trkpt>
      <trkpt lat="44.46028" lon="5.78327">
        <ele>786.4958496</ele>
        <time>2013-05-14T10:35:28Z</time>
      </trkpt>
      <trkpt lat="44.45977" lon="5.78329">
        <ele>786.4958496</ele>
        <time>2013-05-14T10:35:38Z</time>
      </trkpt>
      <trkpt lat="44.45968" lon="5.78327">
        <ele>786.9763184</ele>
        <time>2013-05-14T10:35:40Z</time>
      </trkpt>
      <trkpt lat="44.45951" lon="5.78315">
        <ele>787.9377441</ele>
        <time>2013-05-14T10:35:44Z</time>
      </trkpt>
      <trkpt lat="44.45943" lon="5.78301">
        <ele>789.3796387</ele>
        <time>2013-05-14T10:35:47Z</time>
      </trkpt>
      <trkpt lat="44.45924" lon="5.78283">
        <ele>789.8603516</ele>
        <time>2013-05-14T10:35:53Z</time>
      </trkpt>
      <trkpt lat="44.45902" lon="5.7828">
        <ele>791.782959</ele>
        <time>2013-05-14T10:35:58Z</time>
      </trkpt>
      <trkpt lat="44.45889" lon="5.78282">
        <ele>792.7443848</ele>
        <time>2013-05-14T10:36:01Z</time>
      </trkpt>
      <trkpt lat="44.45838" lon="5.78311">
        <ele>796.1091309</ele>
        <time>2013-05-14T10:36:14Z</time>
      </trkpt>
      <trkpt lat="44.45801" lon="5.78356">
        <ele>798.9929199</ele>
        <time>2013-05-14T10:36:26Z</time>
      </trkpt>
      <trkpt lat="44.45773" lon="5.78388">
        <ele>800.4350586</ele>
        <time>2013-05-14T10:36:34Z</time>
      </trkpt>
      <trkpt lat="44.45765" lon="5.78396">
        <ele>800.4350586</ele>
        <time>2013-05-14T10:36:36Z</time>
      </trkpt>
      <trkpt lat="44.45752" lon="5.78405">
        <ele>800.9155273</ele>
        <time>2013-05-14T10:36:39Z</time>
      </trkpt>
      <trkpt lat="44.45728" lon="5.78407">
        <ele>800.9155273</ele>
        <time>2013-05-14T10:36:44Z</time>
      </trkpt>
      <trkpt lat="44.45708" lon="5.78401">
        <ele>800.4350586</ele>
        <time>2013-05-14T10:36:48Z</time>
      </trkpt>
      <trkpt lat="44.4568" lon="5.78369">
        <ele>802.3574219</ele>
        <time>2013-05-14T10:36:57Z</time>
      </trkpt>
      <trkpt lat="44.45651" lon="5.7829">
        <ele>805.2414551</ele>
        <time>2013-05-14T10:37:09Z</time>
      </trkpt>
      <trkpt lat="44.45614" lon="5.78266">
        <ele>807.6447754</ele>
        <time>2013-05-14T10:37:17Z</time>
      </trkpt>
      <trkpt lat="44.45602" lon="5.78281">
        <ele>807.6447754</ele>
        <time>2013-05-14T10:37:20Z</time>
      </trkpt>
      <trkpt lat="44.45595" lon="5.78292">
        <ele>808.1254883</ele>
        <time>2013-05-14T10:37:22Z</time>
      </trkpt>
      <trkpt lat="44.45583" lon="5.78309">
        <ele>809.0866699</ele>
        <time>2013-05-14T10:37:25Z</time>
      </trkpt>
      <trkpt lat="44.4555" lon="5.78319">
        <ele>811.0092773</ele>
        <time>2013-05-14T10:37:31Z</time>
      </trkpt>
      <trkpt lat="44.4547" lon="5.78315">
        <ele>813.8933105</ele>
        <time>2013-05-14T10:37:46Z</time>
      </trkpt>
      <trkpt lat="44.45454" lon="5.78315">
        <ele>815.8161621</ele>
        <time>2013-05-14T10:37:49Z</time>
      </trkpt>
      <trkpt lat="44.45435" lon="5.78322">
        <ele>815.8161621</ele>
        <time>2013-05-14T10:37:53Z</time>
      </trkpt>
      <trkpt lat="44.4542" lon="5.78333">
        <ele>814.8547363</ele>
        <time>2013-05-14T10:37:56Z</time>
      </trkpt>
      <trkpt lat="44.45397" lon="5.78362">
        <ele>811.4899902</ele>
        <time>2013-05-14T10:38:01Z</time>
      </trkpt>
      <trkpt lat="44.45392" lon="5.78369">
        <ele>811.4899902</ele>
        <time>2013-05-14T10:38:02Z</time>
      </trkpt>
      <trkpt lat="44.4538" lon="5.78384">
        <ele>810.0478516</ele>
        <time>2013-05-14T10:38:04Z</time>
      </trkpt>
      <trkpt lat="44.45356" lon="5.78415">
        <ele>806.6833496</ele>
        <time>2013-05-14T10:38:08Z</time>
      </trkpt>
      <trkpt lat="44.4535" lon="5.78424">
        <ele>806.6833496</ele>
        <time>2013-05-14T10:38:09Z</time>
      </trkpt>
      <trkpt lat="44.45303" lon="5.78483">
        <ele>803.7995605</ele>
        <time>2013-05-14T10:38:16Z</time>
      </trkpt>
      <trkpt lat="44.45297" lon="5.7849">
        <ele>803.7995605</ele>
        <time>2013-05-14T10:38:17Z</time>
      </trkpt>
      <trkpt lat="44.45249" lon="5.78495">
        <ele>802.8381348</ele>
        <time>2013-05-14T10:38:23Z</time>
      </trkpt>
      <trkpt lat="44.45239" lon="5.78482">
        <ele>803.3188477</ele>
        <time>2013-05-14T10:38:25Z</time>
      </trkpt>
      <trkpt lat="44.45201" lon="5.78436">
        <ele>803.3188477</ele>
        <time>2013-05-14T10:38:32Z</time>
      </trkpt>
      <trkpt lat="44.45189" lon="5.78424">
        <ele>803.3188477</ele>
        <time>2013-05-14T10:38:35Z</time>
      </trkpt>
      <trkpt lat="44.45169" lon="5.78419">
        <ele>803.3188477</ele>
        <time>2013-05-14T10:38:39Z</time>
      </trkpt>
      <trkpt lat="44.45145" lon="5.78441">
        <ele>804.2802734</ele>
        <time>2013-05-14T10:38:46Z</time>
      </trkpt>
      <trkpt lat="44.45117" lon="5.78453">
        <ele>803.7995605</ele>
        <time>2013-05-14T10:38:51Z</time>
      </trkpt>
      <trkpt lat="44.45104" lon="5.78439">
        <ele>805.2414551</ele>
        <time>2013-05-14T10:38:54Z</time>
      </trkpt>
      <trkpt lat="44.4509" lon="5.78426">
        <ele>804.2802734</ele>
        <time>2013-05-14T10:38:57Z</time>
      </trkpt>
      <trkpt lat="44.45067" lon="5.7843">
        <ele>804.7607422</ele>
        <time>2013-05-14T10:39:02Z</time>
      </trkpt>
      <trkpt lat="44.45051" lon="5.78443">
        <ele>805.2414551</ele>
        <time>2013-05-14T10:39:06Z</time>
      </trkpt>
      <trkpt lat="44.45012" lon="5.78436">
        <ele>804.7607422</ele>
        <time>2013-05-14T10:39:14Z</time>
      </trkpt>
      <trkpt lat="44.45016" lon="5.78398">
        <ele>805.2414551</ele>
        <time>2013-05-14T10:39:19Z</time>
      </trkpt>
      <trkpt lat="44.45022" lon="5.78371">
        <ele>805.722168</ele>
        <time>2013-05-14T10:39:23Z</time>
      </trkpt>
      <trkpt lat="44.45023" lon="5.78349">
        <ele>805.2414551</ele>
        <time>2013-05-14T10:39:26Z</time>
      </trkpt>
      <trkpt lat="44.45006" lon="5.78316">
        <ele>805.722168</ele>
        <time>2013-05-14T10:39:33Z</time>
      </trkpt>
      <trkpt lat="44.44924" lon="5.7824">
        <ele>804.7607422</ele>
        <time>2013-05-14T10:39:51Z</time>
      </trkpt>
      <trkpt lat="44.44908" lon="5.78225">
        <ele>803.7995605</ele>
        <time>2013-05-14T10:39:54Z</time>
      </trkpt>
      <trkpt lat="44.4489" lon="5.7821">
        <ele>802.3574219</ele>
        <time>2013-05-14T10:39:57Z</time>
      </trkpt>
      <trkpt lat="44.44883" lon="5.78207">
        <ele>801.8769531</ele>
        <time>2013-05-14T10:39:58Z</time>
      </trkpt>
      <trkpt lat="44.44869" lon="5.78204">
        <ele>800.9155273</ele>
        <time>2013-05-14T10:40:00Z</time>
      </trkpt>
      <trkpt lat="44.4481" lon="5.78196">
        <ele>800.4350586</ele>
        <time>2013-05-14T10:40:09Z</time>
      </trkpt>
      <trkpt lat="44.44791" lon="5.78194">
        <ele>800.4350586</ele>
        <time>2013-05-14T10:40:12Z</time>
      </trkpt>
      <trkpt lat="44.44712" lon="5.78244">
        <ele>798.512207</ele>
        <time>2013-05-14T10:40:25Z</time>
      </trkpt>
      <trkpt lat="44.4463" lon="5.78322">
        <ele>797.5510254</ele>
        <time>2013-05-14T10:40:40Z</time>
      </trkpt>
      <trkpt lat="44.44625" lon="5.78326">
        <ele>797.5510254</ele>
        <time>2013-05-14T10:40:41Z</time>
      </trkpt>
      <trkpt lat="44.44608" lon="5.78339">
        <ele>795.1474609</ele>
        <time>2013-05-14T10:40:44Z</time>
      </trkpt>
      <trkpt lat="44.44572" lon="5.78326">
        <ele>794.1862793</ele>
        <time>2013-05-14T10:40:49Z</time>
      </trkpt>
      <trkpt lat="44.44561" lon="5.78318">
        <ele>794.1862793</ele>
        <time>2013-05-14T10:40:51Z</time>
      </trkpt>
      <trkpt lat="44.44531" lon="5.78311">
        <ele>797.5510254</ele>
        <time>2013-05-14T10:40:58Z</time>
      </trkpt>
      <trkpt lat="44.4452" lon="5.7833">
        <ele>798.9929199</ele>
        <time>2013-05-14T10:41:02Z</time>
      </trkpt>
      <trkpt lat="44.44498" lon="5.78375">
        <ele>800.9155273</ele>
        <time>2013-05-14T10:41:11Z</time>
      </trkpt>
      <trkpt lat="44.44472" lon="5.78439">
        <ele>802.8381348</ele>
        <time>2013-05-14T10:41:24Z</time>
      </trkpt>
      <trkpt lat="44.4445" lon="5.78489">
        <ele>806.2026367</ele>
        <time>2013-05-14T10:41:33Z</time>
      </trkpt>
      <trkpt lat="44.44433" lon="5.78532">
        <ele>807.6447754</ele>
        <time>2013-05-14T10:41:41Z</time>
      </trkpt>
      <trkpt lat="44.44425" lon="5.786">
        <ele>810.0478516</ele>
        <time>2013-05-14T10:41:52Z</time>
      </trkpt>
      <trkpt lat="44.44423" lon="5.78612">
        <ele>811.4899902</ele>
        <time>2013-05-14T10:41:54Z</time>
      </trkpt>
      <trkpt lat="44.44406" lon="5.78667">
        <ele>814.3740234</ele>
        <time>2013-05-14T10:42:05Z</time>
      </trkpt>
      <trkpt lat="44.44398" lon="5.78694">
        <ele>816.2966309</ele>
        <time>2013-05-14T10:42:11Z</time>
      </trkpt>
      <trkpt lat="44.44393" lon="5.78728">
        <ele>818.2192383</ele>
        <time>2013-05-14T10:42:18Z</time>
      </trkpt>
      <trkpt lat="44.44387" lon="5.7877">
        <ele>820.6225586</ele>
        <time>2013-05-14T10:42:26Z</time>
      </trkpt>
      <trkpt lat="44.44376" lon="5.78832">
        <ele>823.9870605</ele>
        <time>2013-05-14T10:42:38Z</time>
      </trkpt>
      <trkpt lat="44.44358" lon="5.7888">
        <ele>825.909668</ele>
        <time>2013-05-14T10:42:48Z</time>
      </trkpt>
      <trkpt lat="44.44327" lon="5.78908">
        <ele>829.755127</ele>
        <time>2013-05-14T10:42:58Z</time>
      </trkpt>
      <trkpt lat="44.44286" lon="5.78934">
        <ele>832.1584473</ele>
        <time>2013-05-14T10:43:10Z</time>
      </trkpt>
      <trkpt lat="44.44242" lon="5.78961">
        <ele>835.5229492</ele>
        <time>2013-05-14T10:43:22Z</time>
      </trkpt>
      <trkpt lat="44.44196" lon="5.78987">
        <ele>838.8876953</ele>
        <time>2013-05-14T10:43:35Z</time>
      </trkpt>
      <trkpt lat="44.44175" lon="5.79028">
        <ele>840.3295898</ele>
        <time>2013-05-14T10:43:46Z</time>
      </trkpt>
      <trkpt lat="44.44154" lon="5.79074">
        <ele>841.7714844</ele>
        <time>2013-05-14T10:43:56Z</time>
      </trkpt>
      <trkpt lat="44.44127" lon="5.79134">
        <ele>843.6940918</ele>
        <time>2013-05-14T10:44:07Z</time>
      </trkpt>
      <trkpt lat="44.44109" lon="5.79166">
        <ele>842.7329102</ele>
        <time>2013-05-14T10:44:13Z</time>
      </trkpt>
      <trkpt lat="44.44081" lon="5.79215">
        <ele>844.6555176</ele>
        <time>2013-05-14T10:44:24Z</time>
      </trkpt>
      <trkpt lat="44.44042" lon="5.79261">
        <ele>847.0588379</ele>
        <time>2013-05-14T10:44:35Z</time>
      </trkpt>
      <trkpt lat="44.43985" lon="5.7929">
        <ele>849.4621582</ele>
        <time>2013-05-14T10:44:48Z</time>
      </trkpt>
      <trkpt lat="44.43955" lon="5.79299">
        <ele>848.9814453</ele>
        <time>2013-05-14T10:44:54Z</time>
      </trkpt>
      <trkpt lat="44.43855" lon="5.79324">
        <ele>848.5007324</ele>
        <time>2013-05-14T10:45:14Z</time>
      </trkpt>
      <trkpt lat="44.43763" lon="5.79367">
        <ele>850.423584</ele>
        <time>2013-05-14T10:45:34Z</time>
      </trkpt>
      <trkpt lat="44.43745" lon="5.79376">
        <ele>850.9040527</ele>
        <time>2013-05-14T10:45:38Z</time>
      </trkpt>
      <trkpt lat="44.43736" lon="5.79381">
        <ele>850.9040527</ele>
        <time>2013-05-14T10:45:40Z</time>
      </trkpt>
      <trkpt lat="44.43637" lon="5.7941">
        <ele>848.5007324</ele>
        <time>2013-05-14T10:45:59Z</time>
      </trkpt>
      <trkpt lat="44.43547" lon="5.79439">
        <ele>845.6169434</ele>
        <time>2013-05-14T10:46:13Z</time>
      </trkpt>
      <trkpt lat="44.43534" lon="5.79446">
        <ele>845.1362305</ele>
        <time>2013-05-14T10:46:15Z</time>
      </trkpt>
      <trkpt lat="44.43506" lon="5.79448">
        <ele>843.6940918</ele>
        <time>2013-05-14T10:46:19Z</time>
      </trkpt>
      <trkpt lat="44.43499" lon="5.79444">
        <ele>843.6940918</ele>
        <time>2013-05-14T10:46:20Z</time>
      </trkpt>
      <trkpt lat="44.43477" lon="5.79429">
        <ele>841.7714844</ele>
        <time>2013-05-14T10:46:23Z</time>
      </trkpt>
      <trkpt lat="44.43461" lon="5.79419">
        <ele>837.9262695</ele>
        <time>2013-05-14T10:46:25Z</time>
      </trkpt>
      <trkpt lat="44.43453" lon="5.79413">
        <ele>837.9262695</ele>
        <time>2013-05-14T10:46:26Z</time>
      </trkpt>
      <trkpt lat="44.43421" lon="5.7939">
        <ele>835.5229492</ele>
        <time>2013-05-14T10:46:30Z</time>
      </trkpt>
      <trkpt lat="44.43398" lon="5.79376">
        <ele>836.9648438</ele>
        <time>2013-05-14T10:46:33Z</time>
      </trkpt>
      <trkpt lat="44.43387" lon="5.79367">
        <ele>838.8876953</ele>
        <time>2013-05-14T10:46:35Z</time>
      </trkpt>
      <trkpt lat="44.43382" lon="5.79363">
        <ele>841.2907715</ele>
        <time>2013-05-14T10:46:36Z</time>
      </trkpt>
      <trkpt lat="44.43344" lon="5.79335">
        <ele>845.1362305</ele>
        <time>2013-05-14T10:46:48Z</time>
      </trkpt>
      <trkpt lat="44.43341" lon="5.79334">
        <ele>845.1362305</ele>
        <time>2013-05-14T10:46:49Z</time>
      </trkpt>
      <trkpt lat="44.43317" lon="5.79321">
        <ele>846.5783691</ele>
        <time>2013-05-14T10:47:00Z</time>
      </trkpt>
      <trkpt lat="44.43316" lon="5.79321">
        <ele>848.5007324</ele>
        <time>2013-05-14T10:47:13Z</time>
      </trkpt>
      <trkpt lat="44.43316" lon="5.79321">
        <ele>848.0202637</ele>
        <time>2013-05-14T10:47:35Z</time>
      </trkpt>
      <trkpt lat="44.43316" lon="5.79321">
        <ele>848.5007324</ele>
        <time>2013-05-14T10:48:47Z</time>
      </trkpt>
      <trkpt lat="44.43316" lon="5.79321">
        <ele>847.5395508</ele>
        <time>2013-05-14T10:49:05Z</time>
      </trkpt>
      <trkpt lat="44.43316" lon="5.79321">
        <ele>848.5007324</ele>
        <time>2013-05-14T10:51:22Z</time>
      </trkpt>
      <trkpt lat="44.43316" lon="5.79321">
        <ele>847.0588379</ele>
        <time>2013-05-14T10:51:26Z</time>
      </trkpt>
      <trkpt lat="44.43316" lon="5.79321">
        <ele>847.5395508</ele>
        <time>2013-05-14T10:51:58Z</time>
      </trkpt>
      <trkpt lat="44.43316" lon="5.79321">
        <ele>847.0588379</ele>
        <time>2013-05-14T10:52:02Z</time>
      </trkpt>
      <trkpt lat="44.43316" lon="5.79321">
        <ele>848.0202637</ele>
        <time>2013-05-14T10:52:06Z</time>
      </trkpt>
      <trkpt lat="44.43316" lon="5.79321">
        <ele>849.4621582</ele>
        <time>2013-05-14T10:52:08Z</time>
      </trkpt>
      <trkpt lat="44.43316" lon="5.79321">
        <ele>848.0202637</ele>
        <time>2013-05-14T10:52:12Z</time>
      </trkpt>
      <trkpt lat="44.43316" lon="5.79321">
        <ele>849.4621582</ele>
        <time>2013-05-14T10:52:15Z</time>
      </trkpt>
      <trkpt lat="44.43316" lon="5.79321">
        <ele>847.0588379</ele>
        <time>2013-05-14T10:52:53Z</time>
      </trkpt>
      <trkpt lat="44.43316" lon="5.79321">
        <ele>847.5395508</ele>
        <time>2013-05-14T10:52:57Z</time>
      </trkpt>
      <trkpt lat="44.43296" lon="5.79322">
        <ele>847.5395508</ele>
        <time>2013-05-14T10:53:05Z</time>
      </trkpt>
      <trkpt lat="44.43279" lon="5.79333">
        <ele>845.1362305</ele>
        <time>2013-05-14T10:53:09Z</time>
      </trkpt>
      <trkpt lat="44.43264" lon="5.7935">
        <ele>842.2521973</ele>
        <time>2013-05-14T10:53:12Z</time>
      </trkpt>
      <trkpt lat="44.43242" lon="5.79384">
        <ele>839.848877</ele>
        <time>2013-05-14T10:53:16Z</time>
      </trkpt>
      <trkpt lat="44.43223" lon="5.79399">
        <ele>838.4069824</ele>
        <time>2013-05-14T10:53:19Z</time>
      </trkpt>
      <trkpt lat="44.43216" lon="5.79403">
        <ele>837.4455566</ele>
        <time>2013-05-14T10:53:20Z</time>
      </trkpt>
      <trkpt lat="44.43206" lon="5.79437">
        <ele>835.0424805</ele>
        <time>2013-05-14T10:53:24Z</time>
      </trkpt>
      <trkpt lat="44.43194" lon="5.79449">
        <ele>833.6003418</ele>
        <time>2013-05-14T10:53:26Z</time>
      </trkpt>
      <trkpt lat="44.4317" lon="5.79451">
        <ele>832.6391602</ele>
        <time>2013-05-14T10:53:29Z</time>
      </trkpt>
      <trkpt lat="44.43159" lon="5.79466">
        <ele>830.7165527</ele>
        <time>2013-05-14T10:53:31Z</time>
      </trkpt>
      <trkpt lat="44.43154" lon="5.79486">
        <ele>828.7939453</ele>
        <time>2013-05-14T10:53:33Z</time>
      </trkpt>
      <trkpt lat="44.43154" lon="5.79494">
        <ele>827.8322754</ele>
        <time>2013-05-14T10:53:34Z</time>
      </trkpt>
      <trkpt lat="44.43139" lon="5.79509">
        <ele>824.9484863</ele>
        <time>2013-05-14T10:53:41Z</time>
      </trkpt>
      <trkpt lat="44.43137" lon="5.79492">
        <ele>823.5065918</ele>
        <time>2013-05-14T10:53:43Z</time>
      </trkpt>
      <trkpt lat="44.43142" lon="5.79464">
        <ele>822.0644531</ele>
        <time>2013-05-14T10:53:46Z</time>
      </trkpt>
      <trkpt lat="44.43147" lon="5.7944">
        <ele>821.5837402</ele>
        <time>2013-05-14T10:53:48Z</time>
      </trkpt>
      <trkpt lat="44.43148" lon="5.79417">
        <ele>820.1418457</ele>
        <time>2013-05-14T10:53:50Z</time>
      </trkpt>
      <trkpt lat="44.43136" lon="5.79387">
        <ele>816.2966309</ele>
        <time>2013-05-14T10:53:53Z</time>
      </trkpt>
      <trkpt lat="44.43122" lon="5.7937">
        <ele>813.8933105</ele>
        <time>2013-05-14T10:53:55Z</time>
      </trkpt>
      <trkpt lat="44.43106" lon="5.79353">
        <ele>811.4899902</ele>
        <time>2013-05-14T10:53:57Z</time>
      </trkpt>
      <trkpt lat="44.43097" lon="5.79345">
        <ele>811.4899902</ele>
        <time>2013-05-14T10:53:58Z</time>
      </trkpt>
      <trkpt lat="44.43049" lon="5.79316">
        <ele>810.0478516</ele>
        <time>2013-05-14T10:54:04Z</time>
      </trkpt>
      <trkpt lat="44.43023" lon="5.79334">
        <ele>805.2414551</ele>
        <time>2013-05-14T10:54:09Z</time>
      </trkpt>
      <trkpt lat="44.43033" lon="5.79353">
        <ele>803.3188477</ele>
        <time>2013-05-14T10:54:12Z</time>
      </trkpt>
      <trkpt lat="44.43044" lon="5.79361">
        <ele>802.3574219</ele>
        <time>2013-05-14T10:54:14Z</time>
      </trkpt>
      <trkpt lat="44.43049" lon="5.79392">
        <ele>799.9543457</ele>
        <time>2013-05-14T10:54:18Z</time>
      </trkpt>
      <trkpt lat="44.43039" lon="5.79405">
        <ele>798.512207</ele>
        <time>2013-05-14T10:54:20Z</time>
      </trkpt>
      <trkpt lat="44.43025" lon="5.79416">
        <ele>797.5510254</ele>
        <time>2013-05-14T10:54:22Z</time>
      </trkpt>
      <trkpt lat="44.43012" lon="5.79425">
        <ele>797.0703125</ele>
        <time>2013-05-14T10:54:24Z</time>
      </trkpt>
      <trkpt lat="44.43001" lon="5.79465">
        <ele>791.782959</ele>
        <time>2013-05-14T10:54:28Z</time>
      </trkpt>
      <trkpt lat="44.42985" lon="5.79495">
        <ele>788.418457</ele>
        <time>2013-05-14T10:54:31Z</time>
      </trkpt>
      <trkpt lat="44.42978" lon="5.79504">
        <ele>788.418457</ele>
        <time>2013-05-14T10:54:32Z</time>
      </trkpt>
      <trkpt lat="44.42967" lon="5.7952">
        <ele>787.4570313</ele>
        <time>2013-05-14T10:54:34Z</time>
      </trkpt>
      <trkpt lat="44.42942" lon="5.79525">
        <ele>785.0539551</ele>
        <time>2013-05-14T10:54:39Z</time>
      </trkpt>
      <trkpt lat="44.42941" lon="5.79515">
        <ele>786.0151367</ele>
        <time>2013-05-14T10:54:40Z</time>
      </trkpt>
      <trkpt lat="44.4293" lon="5.79499">
        <ele>785.5344238</ele>
        <time>2013-05-14T10:54:42Z</time>
      </trkpt>
      <trkpt lat="44.429" lon="5.79475">
        <ele>782.6506348</ele>
        <time>2013-05-14T10:54:46Z</time>
      </trkpt>
      <trkpt lat="44.42884" lon="5.79464">
        <ele>780.7280273</ele>
        <time>2013-05-14T10:54:48Z</time>
      </trkpt>
      <trkpt lat="44.42868" lon="5.7946">
        <ele>778.8051758</ele>
        <time>2013-05-14T10:54:50Z</time>
      </trkpt>
      <trkpt lat="44.42845" lon="5.79474">
        <ele>775.9211426</ele>
        <time>2013-05-14T10:54:53Z</time>
      </trkpt>
      <trkpt lat="44.42828" lon="5.79489">
        <ele>774.9599609</ele>
        <time>2013-05-14T10:54:55Z</time>
      </trkpt>
      <trkpt lat="44.42782" lon="5.79495">
        <ele>769.6728516</ele>
        <time>2013-05-14T10:55:00Z</time>
      </trkpt>
      <trkpt lat="44.42724" lon="5.79524">
        <ele>764.8662109</ele>
        <time>2013-05-14T10:55:07Z</time>
      </trkpt>
      <trkpt lat="44.42719" lon="5.79535">
        <ele>763.4240723</ele>
        <time>2013-05-14T10:55:08Z</time>
      </trkpt>
      <trkpt lat="44.42708" lon="5.79567">
        <ele>764.385498</ele>
        <time>2013-05-14T10:55:11Z</time>
      </trkpt>
      <trkpt lat="44.42682" lon="5.79594">
        <ele>763.4240723</ele>
        <time>2013-05-14T10:55:15Z</time>
      </trkpt>
      <trkpt lat="44.4266" lon="5.79608">
        <ele>762.9433594</ele>
        <time>2013-05-14T10:55:18Z</time>
      </trkpt>
      <trkpt lat="44.42589" lon="5.79604">
        <ele>759.0981445</ele>
        <time>2013-05-14T10:55:26Z</time>
      </trkpt>
      <trkpt lat="44.42571" lon="5.79599">
        <ele>757.65625</ele>
        <time>2013-05-14T10:55:28Z</time>
      </trkpt>
      <trkpt lat="44.42551" lon="5.79589">
        <ele>757.1755371</ele>
        <time>2013-05-14T10:55:30Z</time>
      </trkpt>
      <trkpt lat="44.425" lon="5.79556">
        <ele>754.291748</ele>
        <time>2013-05-14T10:55:36Z</time>
      </trkpt>
      <trkpt lat="44.42419" lon="5.79509">
        <ele>755.2529297</ele>
        <time>2013-05-14T10:55:47Z</time>
      </trkpt>
      <trkpt lat="44.42381" lon="5.79491">
        <ele>753.8110352</ele>
        <time>2013-05-14T10:55:53Z</time>
      </trkpt>
      <trkpt lat="44.42355" lon="5.79485">
        <ele>755.2529297</ele>
        <time>2013-05-14T10:55:57Z</time>
      </trkpt>
      <trkpt lat="44.42334" lon="5.7948">
        <ele>753.3303223</ele>
        <time>2013-05-14T10:56:00Z</time>
      </trkpt>
      <trkpt lat="44.42319" lon="5.79477">
        <ele>751.8884277</ele>
        <time>2013-05-14T10:56:02Z</time>
      </trkpt>
      <trkpt lat="44.42279" lon="5.79476">
        <ele>750.4465332</ele>
        <time>2013-05-14T10:56:07Z</time>
      </trkpt>
      <trkpt lat="44.42229" lon="5.79479">
        <ele>745.6396484</ele>
        <time>2013-05-14T10:56:13Z</time>
      </trkpt>
      <trkpt lat="44.4222" lon="5.79478">
        <ele>745.6396484</ele>
        <time>2013-05-14T10:56:14Z</time>
      </trkpt>
      <trkpt lat="44.42213" lon="5.79477">
        <ele>745.6396484</ele>
        <time>2013-05-14T10:56:15Z</time>
      </trkpt>
      <trkpt lat="44.42202" lon="5.79472">
        <ele>745.6396484</ele>
        <time>2013-05-14T10:56:17Z</time>
      </trkpt>
      <trkpt lat="44.42195" lon="5.79469">
        <ele>746.6010742</ele>
        <time>2013-05-14T10:56:20Z</time>
      </trkpt>
      <trkpt lat="44.42161" lon="5.79437">
        <ele>746.6010742</ele>
        <time>2013-05-14T10:56:31Z</time>
      </trkpt>
      <trkpt lat="44.42161" lon="5.79437">
        <ele>747.081543</ele>
        <time>2013-05-14T10:57:07Z</time>
      </trkpt>
      <trkpt lat="44.42161" lon="5.79437">
        <ele>748.0432129</ele>
        <time>2013-05-14T10:57:44Z</time>
      </trkpt>
      <trkpt lat="44.42132" lon="5.7941">
        <ele>747.5622559</ele>
        <time>2013-05-14T10:57:56Z</time>
      </trkpt>
      <trkpt lat="44.42109" lon="5.79384">
        <ele>748.0432129</ele>
        <time>2013-05-14T10:58:06Z</time>
      </trkpt>
      <trkpt lat="44.42077" lon="5.79314">
        <ele>747.081543</ele>
        <time>2013-05-14T10:58:18Z</time>
      </trkpt>
      <trkpt lat="44.42068" lon="5.79268">
        <ele>746.6010742</ele>
        <time>2013-05-14T10:58:24Z</time>
      </trkpt>
      <trkpt lat="44.42063" lon="5.79235">
        <ele>745.6396484</ele>
        <time>2013-05-14T10:58:28Z</time>
      </trkpt>
      <trkpt lat="44.42051" lon="5.79199">
        <ele>746.1203613</ele>
        <time>2013-05-14T10:58:33Z</time>
      </trkpt>
      <trkpt lat="44.42032" lon="5.79151">
        <ele>746.6010742</ele>
        <time>2013-05-14T10:58:40Z</time>
      </trkpt>
      <trkpt lat="44.42026" lon="5.79128">
        <ele>746.1203613</ele>
        <time>2013-05-14T10:58:43Z</time>
      </trkpt>
      <trkpt lat="44.42014" lon="5.79033">
        <ele>745.6396484</ele>
        <time>2013-05-14T10:58:56Z</time>
      </trkpt>
      <trkpt lat="44.42009" lon="5.78981">
        <ele>747.5622559</ele>
        <time>2013-05-14T10:59:03Z</time>
      </trkpt>
      <trkpt lat="44.42017" lon="5.78889">
        <ele>749.9658203</ele>
        <time>2013-05-14T10:59:20Z</time>
      </trkpt>
      <trkpt lat="44.42027" lon="5.78836">
        <ele>750.927002</ele>
        <time>2013-05-14T10:59:30Z</time>
      </trkpt>
      <trkpt lat="44.42031" lon="5.78815">
        <ele>750.927002</ele>
        <time>2013-05-14T10:59:34Z</time>
      </trkpt>
      <trkpt lat="44.42039" lon="5.78725">
        <ele>751.8884277</ele>
        <time>2013-05-14T10:59:50Z</time>
      </trkpt>
      <trkpt lat="44.42039" lon="5.78661">
        <ele>754.291748</ele>
        <time>2013-05-14T11:00:05Z</time>
      </trkpt>
      <trkpt lat="44.42061" lon="5.7866">
        <ele>754.7722168</ele>
        <time>2013-05-14T11:00:11Z</time>
      </trkpt>
      <trkpt lat="44.42082" lon="5.78668">
        <ele>756.6948242</ele>
        <time>2013-05-14T11:00:24Z</time>
      </trkpt>
      <trkpt lat="44.42082" lon="5.78668">
        <ele>756.2141113</ele>
        <time>2013-05-14T11:00:31Z</time>
      </trkpt>
      <trkpt lat="44.42054" lon="5.78657">
        <ele>754.291748</ele>
        <time>2013-05-14T11:00:42Z</time>
      </trkpt>
      <trkpt lat="44.42047" lon="5.78654">
        <ele>753.8110352</ele>
        <time>2013-05-14T11:00:44Z</time>
      </trkpt>
      <trkpt lat="44.42039" lon="5.78624">
        <ele>753.3303223</ele>
        <time>2013-05-14T11:00:48Z</time>
      </trkpt>
      <trkpt lat="44.42039" lon="5.7859">
        <ele>751.4077148</ele>
        <time>2013-05-14T11:00:52Z</time>
      </trkpt>
      <trkpt lat="44.42039" lon="5.78579">
        <ele>749.4851074</ele>
        <time>2013-05-14T11:00:53Z</time>
      </trkpt>
      <trkpt lat="44.42038" lon="5.78554">
        <ele>748.5236816</ele>
        <time>2013-05-14T11:00:55Z</time>
      </trkpt>
      <trkpt lat="44.42037" lon="5.78529">
        <ele>746.6010742</ele>
        <time>2013-05-14T11:00:57Z</time>
      </trkpt>
      <trkpt lat="44.42033" lon="5.78501">
        <ele>744.6782227</ele>
        <time>2013-05-14T11:00:59Z</time>
      </trkpt>
      <trkpt lat="44.4203" lon="5.78471">
        <ele>740.8330078</ele>
        <time>2013-05-14T11:01:01Z</time>
      </trkpt>
      <trkpt lat="44.42029" lon="5.78455">
        <ele>740.8330078</ele>
        <time>2013-05-14T11:01:02Z</time>
      </trkpt>
      <trkpt lat="44.42025" lon="5.78424">
        <ele>738.9106445</ele>
        <time>2013-05-14T11:01:04Z</time>
      </trkpt>
      <trkpt lat="44.42021" lon="5.7839">
        <ele>736.5073242</ele>
        <time>2013-05-14T11:01:06Z</time>
      </trkpt>
      <trkpt lat="44.42018" lon="5.78355">
        <ele>732.6621094</ele>
        <time>2013-05-14T11:01:08Z</time>
      </trkpt>
      <trkpt lat="44.42016" lon="5.78336">
        <ele>732.6621094</ele>
        <time>2013-05-14T11:01:09Z</time>
      </trkpt>
      <trkpt lat="44.42013" lon="5.78301">
        <ele>731.2199707</ele>
        <time>2013-05-14T11:01:11Z</time>
      </trkpt>
      <trkpt lat="44.42008" lon="5.78265">
        <ele>729.2971191</ele>
        <time>2013-05-14T11:01:13Z</time>
      </trkpt>
      <trkpt lat="44.42009" lon="5.78115">
        <ele>726.4133301</ele>
        <time>2013-05-14T11:01:22Z</time>
      </trkpt>
      <trkpt lat="44.4201" lon="5.78099">
        <ele>726.4133301</ele>
        <time>2013-05-14T11:01:23Z</time>
      </trkpt>
      <trkpt lat="44.42014" lon="5.7805">
        <ele>728.8166504</ele>
        <time>2013-05-14T11:01:27Z</time>
      </trkpt>
      <trkpt lat="44.42017" lon="5.77993">
        <ele>728.3359375</ele>
        <time>2013-05-14T11:01:33Z</time>
      </trkpt>
      <trkpt lat="44.42036" lon="5.77972">
        <ele>728.3359375</ele>
        <time>2013-05-14T11:01:39Z</time>
      </trkpt>
      <trkpt lat="44.42079" lon="5.77952">
        <ele>729.2971191</ele>
        <time>2013-05-14T11:01:48Z</time>
      </trkpt>
      <trkpt lat="44.42111" lon="5.77899">
        <ele>730.2585449</ele>
        <time>2013-05-14T11:01:58Z</time>
      </trkpt>
      <trkpt lat="44.42144" lon="5.77822">
        <ele>728.8166504</ele>
        <time>2013-05-14T11:02:09Z</time>
      </trkpt>
      <trkpt lat="44.42152" lon="5.77811">
        <ele>728.8166504</ele>
        <time>2013-05-14T11:02:11Z</time>
      </trkpt>
      <trkpt lat="44.42168" lon="5.77793">
        <ele>729.777832</ele>
        <time>2013-05-14T11:02:15Z</time>
      </trkpt>
      <trkpt lat="44.42179" lon="5.7778">
        <ele>730.2585449</ele>
        <time>2013-05-14T11:02:18Z</time>
      </trkpt>
      <trkpt lat="44.42198" lon="5.77755">
        <ele>730.7392578</ele>
        <time>2013-05-14T11:02:24Z</time>
      </trkpt>
      <trkpt lat="44.42208" lon="5.7774">
        <ele>730.7392578</ele>
        <time>2013-05-14T11:02:27Z</time>
      </trkpt>
      <trkpt lat="44.42215" lon="5.77724">
        <ele>728.8166504</ele>
        <time>2013-05-14T11:02:30Z</time>
      </trkpt>
      <trkpt lat="44.4222" lon="5.77707">
        <ele>727.8552246</ele>
        <time>2013-05-14T11:02:32Z</time>
      </trkpt>
      <trkpt lat="44.4225" lon="5.777">
        <ele>726.894043</ele>
        <time>2013-05-14T11:02:38Z</time>
      </trkpt>
      <trkpt lat="44.4228" lon="5.77728">
        <ele>728.3359375</ele>
        <time>2013-05-14T11:02:45Z</time>
      </trkpt>
      <trkpt lat="44.42299" lon="5.77736">
        <ele>728.3359375</ele>
        <time>2013-05-14T11:02:49Z</time>
      </trkpt>
      <trkpt lat="44.42315" lon="5.77733">
        <ele>729.2971191</ele>
        <time>2013-05-14T11:02:54Z</time>
      </trkpt>
      <trkpt lat="44.42354" lon="5.77686">
        <ele>732.1813965</ele>
        <time>2013-05-14T11:03:03Z</time>
      </trkpt>
      <trkpt lat="44.42372" lon="5.77672">
        <ele>733.1425781</ele>
        <time>2013-05-14T11:03:08Z</time>
      </trkpt>
      <trkpt lat="44.42383" lon="5.77664">
        <ele>733.1425781</ele>
        <time>2013-05-14T11:03:11Z</time>
      </trkpt>
      <trkpt lat="44.42431" lon="5.77626">
        <ele>736.0266113</ele>
        <time>2013-05-14T11:03:27Z</time>
      </trkpt>
      <trkpt lat="44.42435" lon="5.77623">
        <ele>736.5073242</ele>
        <time>2013-05-14T11:03:36Z</time>
      </trkpt>
      <trkpt lat="44.42435" lon="5.77623">
        <ele>736.987793</ele>
        <time>2013-05-14T11:04:09Z</time>
      </trkpt>
      <trkpt lat="44.42435" lon="5.77623">
        <ele>738.4299316</ele>
        <time>2013-05-14T11:04:21Z</time>
      </trkpt>
      <trkpt lat="44.42435" lon="5.77623">
        <ele>737.9492188</ele>
        <time>2013-05-14T11:04:36Z</time>
      </trkpt>
      <trkpt lat="44.42435" lon="5.77623">
        <ele>737.9492188</ele>
        <time>2013-05-14T11:04:44Z</time>
      </trkpt>
      <trkpt lat="44.42435" lon="5.77623">
        <ele>737.4685059</ele>
        <time>2013-05-14T11:04:58Z</time>
      </trkpt>
      <trkpt lat="44.42435" lon="5.77623">
        <ele>738.4299316</ele>
        <time>2013-05-14T11:05:20Z</time>
      </trkpt>
      <trkpt lat="44.42435" lon="5.77623">
        <ele>736.987793</ele>
        <time>2013-05-14T11:05:34Z</time>
      </trkpt>
      <trkpt lat="44.42435" lon="5.77623">
        <ele>737.9492188</ele>
        <time>2013-05-14T11:05:36Z</time>
      </trkpt>
      <trkpt lat="44.42435" lon="5.77623">
        <ele>738.9106445</ele>
        <time>2013-05-14T11:06:16Z</time>
      </trkpt>
      <trkpt lat="44.42435" lon="5.77623">
        <ele>738.4299316</ele>
        <time>2013-05-14T11:07:00Z</time>
      </trkpt>
      <trkpt lat="44.42435" lon="5.77623">
        <ele>738.4299316</ele>
        <time>2013-05-14T11:08:09Z</time>
      </trkpt>
      <trkpt lat="44.42435" lon="5.77623">
        <ele>738.9106445</ele>
        <time>2013-05-14T11:09:32Z</time>
      </trkpt>
      <trkpt lat="44.42435" lon="5.77623">
        <ele>739.3911133</ele>
        <time>2013-05-14T11:10:11Z</time>
      </trkpt>
      <trkpt lat="44.42435" lon="5.77623">
        <ele>738.4299316</ele>
        <time>2013-05-14T11:10:23Z</time>
      </trkpt>
      <trkpt lat="44.42435" lon="5.77623">
        <ele>738.9106445</ele>
        <time>2013-05-14T11:10:31Z</time>
      </trkpt>
      <trkpt lat="44.42435" lon="5.77623">
        <ele>740.3525391</ele>
        <time>2013-05-14T11:10:33Z</time>
      </trkpt>
      <trkpt lat="44.42435" lon="5.77623">
        <ele>738.4299316</ele>
        <time>2013-05-14T11:10:36Z</time>
      </trkpt>
      <trkpt lat="44.42435" lon="5.77623">
        <ele>739.8718262</ele>
        <time>2013-05-14T11:10:38Z</time>
      </trkpt>
      <trkpt lat="44.42435" lon="5.77623">
        <ele>741.3137207</ele>
        <time>2013-05-14T11:10:40Z</time>
      </trkpt>
      <trkpt lat="44.42435" lon="5.77623">
        <ele>739.3911133</ele>
        <time>2013-05-14T11:11:24Z</time>
      </trkpt>
      <trkpt lat="44.42435" lon="5.77623">
        <ele>742.7558594</ele>
        <time>2013-05-14T11:15:53Z</time>
      </trkpt>
      <trkpt lat="44.42435" lon="5.77623">
        <ele>743.2363281</ele>
        <time>2013-05-14T11:18:58Z</time>
      </trkpt>
      <trkpt lat="44.42435" lon="5.77623">
        <ele>743.2363281</ele>
        <time>2013-05-14T11:19:32Z</time>
      </trkpt>
      <trkpt lat="44.42435" lon="5.77623">
        <ele>743.717041</ele>
        <time>2013-05-14T11:20:00Z</time>
      </trkpt>
      <trkpt lat="44.42435" lon="5.77623">
        <ele>743.717041</ele>
        <time>2013-05-14T11:20:35Z</time>
      </trkpt>
      <trkpt lat="44.42435" lon="5.77623">
        <ele>743.717041</ele>
        <time>2013-05-14T11:21:06Z</time>
      </trkpt>
      <trkpt lat="44.42435" lon="5.77623">
        <ele>744.1977539</ele>
        <time>2013-05-14T11:21:43Z</time>
      </trkpt>
      <trkpt lat="44.42435" lon="5.77623">
        <ele>744.6782227</ele>
        <time>2013-05-14T11:22:19Z</time>
      </trkpt>
      <trkpt lat="44.42435" lon="5.77623">
        <ele>744.1977539</ele>
        <time>2013-05-14T11:22:56Z</time>
      </trkpt>
      <trkpt lat="44.42435" lon="5.77623">
        <ele>744.6782227</ele>
        <time>2013-05-14T11:24:20Z</time>
      </trkpt>
      <trkpt lat="44.42435" lon="5.77623">
        <ele>744.1977539</ele>
        <time>2013-05-14T11:31:04Z</time>
      </trkpt>
      <trkpt lat="44.42435" lon="5.77623">
        <ele>747.5622559</ele>
        <time>2013-05-14T11:56:57Z</time>
      </trkpt>
      <trkpt lat="44.42435" lon="5.77623">
        <ele>747.081543</ele>
        <time>2013-05-14T11:57:36Z</time>
      </trkpt>
      <trkpt lat="44.42435" lon="5.77623">
        <ele>747.081543</ele>
        <time>2013-05-14T11:57:59Z</time>
      </trkpt>
      <trkpt lat="44.42435" lon="5.77623">
        <ele>747.5622559</ele>
        <time>2013-05-14T11:58:33Z</time>
      </trkpt>
      <trkpt lat="44.42435" lon="5.77623">
        <ele>747.5622559</ele>
        <time>2013-05-14T11:59:04Z</time>
      </trkpt>
      <trkpt lat="44.42435" lon="5.77623">
        <ele>747.5622559</ele>
        <time>2013-05-14T11:59:56Z</time>
      </trkpt>
      <trkpt lat="44.42435" lon="5.77623">
        <ele>748.0432129</ele>
        <time>2013-05-14T12:00:26Z</time>
      </trkpt>
      <trkpt lat="44.42435" lon="5.77623">
        <ele>747.081543</ele>
        <time>2013-05-14T12:00:46Z</time>
      </trkpt>
      <trkpt lat="44.42435" lon="5.77623">
        <ele>748.0432129</ele>
        <time>2013-05-14T12:01:20Z</time>
      </trkpt>
      <trkpt lat="44.42435" lon="5.77623">
        <ele>748.0432129</ele>
        <time>2013-05-14T12:02:37Z</time>
      </trkpt>
      <trkpt lat="44.42435" lon="5.77623">
        <ele>748.0432129</ele>
        <time>2013-05-14T12:03:18Z</time>
      </trkpt>
      <trkpt lat="44.42435" lon="5.77623">
        <ele>748.5236816</ele>
        <time>2013-05-14T12:04:01Z</time>
      </trkpt>
      <trkpt lat="44.42435" lon="5.77623">
        <ele>747.5622559</ele>
        <time>2013-05-14T12:04:30Z</time>
      </trkpt>
      <trkpt lat="44.42435" lon="5.77623">
        <ele>747.5622559</ele>
        <time>2013-05-14T12:05:21Z</time>
      </trkpt>
      <trkpt lat="44.42435" lon="5.77623">
        <ele>748.0432129</ele>
        <time>2013-05-14T12:06:05Z</time>
      </trkpt>
      <trkpt lat="44.42435" lon="5.77623">
        <ele>748.5236816</ele>
        <time>2013-05-14T12:06:46Z</time>
      </trkpt>
      <trkpt lat="44.42435" lon="5.77623">
        <ele>748.5236816</ele>
        <time>2013-05-14T12:07:54Z</time>
      </trkpt>
      <trkpt lat="44.42435" lon="5.77623">
        <ele>748.5236816</ele>
        <time>2013-05-14T12:09:11Z</time>
      </trkpt>
      <trkpt lat="44.42362" lon="5.7768">
        <ele>748.5236816</ele>
        <time>2013-05-14T12:09:52Z</time>
      </trkpt>
      <trkpt lat="44.42362" lon="5.7768">
        <ele>748.5236816</ele>
        <time>2013-05-14T12:10:26Z</time>
      </trkpt>
      <trkpt lat="44.42362" lon="5.7768">
        <ele>748.0432129</ele>
        <time>2013-05-14T12:11:10Z</time>
      </trkpt>
      <trkpt lat="44.42362" lon="5.7768">
        <ele>747.081543</ele>
        <time>2013-05-14T12:12:16Z</time>
      </trkpt>
      <trkpt lat="44.42362" lon="5.7768">
        <ele>749.4851074</ele>
        <time>2013-05-14T12:28:33Z</time>
      </trkpt>
      <trkpt lat="44.42362" lon="5.7768">
        <ele>749.9658203</ele>
        <time>2013-05-14T12:29:13Z</time>
      </trkpt>
      <trkpt lat="44.42362" lon="5.7768">
        <ele>750.4465332</ele>
        <time>2013-05-14T12:29:38Z</time>
      </trkpt>
      <trkpt lat="44.42362" lon="5.7768">
        <ele>750.4465332</ele>
        <time>2013-05-14T12:30:16Z</time>
      </trkpt>
      <trkpt lat="44.42362" lon="5.7768">
        <ele>749.0043945</ele>
        <time>2013-05-14T12:31:17Z</time>
      </trkpt>
      <trkpt lat="44.42362" lon="5.7768">
        <ele>749.9658203</ele>
        <time>2013-05-14T12:31:56Z</time>
      </trkpt>
      <trkpt lat="44.42362" lon="5.7768">
        <ele>749.9658203</ele>
        <time>2013-05-14T12:32:37Z</time>
      </trkpt>
      <trkpt lat="44.42362" lon="5.7768">
        <ele>749.9658203</ele>
        <time>2013-05-14T12:33:18Z</time>
      </trkpt>
      <trkpt lat="44.42362" lon="5.7768">
        <ele>749.9658203</ele>
        <time>2013-05-14T12:33:59Z</time>
      </trkpt>
      <trkpt lat="44.42362" lon="5.7768">
        <ele>750.4465332</ele>
        <time>2013-05-14T12:35:11Z</time>
      </trkpt>
      <trkpt lat="44.42362" lon="5.7768">
        <ele>750.4465332</ele>
        <time>2013-05-14T12:37:49Z</time>
      </trkpt>
      <trkpt lat="44.42362" lon="5.7768">
        <ele>750.927002</ele>
        <time>2013-05-14T12:38:41Z</time>
      </trkpt>
      <trkpt lat="44.42362" lon="5.7768">
        <ele>750.4465332</ele>
        <time>2013-05-14T12:39:45Z</time>
      </trkpt>
      <trkpt lat="44.42362" lon="5.7768">
        <ele>750.927002</ele>
        <time>2013-05-14T12:40:14Z</time>
      </trkpt>
      <trkpt lat="44.42362" lon="5.7768">
        <ele>750.927002</ele>
        <time>2013-05-14T12:42:48Z</time>
      </trkpt>
      <trkpt lat="44.42362" lon="5.7768">
        <ele>750.927002</ele>
        <time>2013-05-14T12:43:14Z</time>
      </trkpt>
      <trkpt lat="44.42362" lon="5.7768">
        <ele>750.4465332</ele>
        <time>2013-05-14T12:44:14Z</time>
      </trkpt>
      <trkpt lat="44.42362" lon="5.7768">
        <ele>750.927002</ele>
        <time>2013-05-14T12:45:05Z</time>
      </trkpt>
      <trkpt lat="44.42362" lon="5.7768">
        <ele>750.927002</ele>
        <time>2013-05-14T12:45:49Z</time>
      </trkpt>
      <trkpt lat="44.42362" lon="5.7768">
        <ele>750.927002</ele>
        <time>2013-05-14T12:46:35Z</time>
      </trkpt>
      <trkpt lat="44.42362" lon="5.7768">
        <ele>750.4465332</ele>
        <time>2013-05-14T12:47:14Z</time>
      </trkpt>
      <trkpt lat="44.42362" lon="5.7768">
        <ele>750.4465332</ele>
        <time>2013-05-14T12:48:01Z</time>
      </trkpt>
      <trkpt lat="44.42362" lon="5.7768">
        <ele>751.4077148</ele>
        <time>2013-05-14T12:49:08Z</time>
      </trkpt>
      <trkpt lat="44.42362" lon="5.7768">
        <ele>751.4077148</ele>
        <time>2013-05-14T12:54:16Z</time>
      </trkpt>
      <trkpt lat="44.42431" lon="5.77626">
        <ele>751.4077148</ele>
        <time>2013-05-14T12:54:36Z</time>
      </trkpt>
      <trkpt lat="44.42431" lon="5.77626">
        <ele>750.927002</ele>
        <time>2013-05-14T12:55:03Z</time>
      </trkpt>
      <trkpt lat="44.42431" lon="5.77626">
        <ele>750.927002</ele>
        <time>2013-05-14T12:56:20Z</time>
      </trkpt>
      <trkpt lat="44.42442" lon="5.77625">
        <ele>750.4465332</ele>
        <time>2013-05-14T12:56:35Z</time>
      </trkpt>
      <trkpt lat="44.42439" lon="5.77623">
        <ele>748.5236816</ele>
        <time>2013-05-14T12:58:33Z</time>
      </trkpt>
      <trkpt lat="44.42428" lon="5.77629">
        <ele>748.0432129</ele>
        <time>2013-05-14T12:58:39Z</time>
      </trkpt>
      <trkpt lat="44.42408" lon="5.77645">
        <ele>746.6010742</ele>
        <time>2013-05-14T12:58:54Z</time>
      </trkpt>
      <trkpt lat="44.4239" lon="5.77662">
        <ele>746.1203613</ele>
        <time>2013-05-14T12:59:24Z</time>
      </trkpt>
      <trkpt lat="44.42339" lon="5.77701">
        <ele>742.2751465</ele>
        <time>2013-05-14T12:59:37Z</time>
      </trkpt>
      <trkpt lat="44.42335" lon="5.77706">
        <ele>742.2751465</ele>
        <time>2013-05-14T12:59:38Z</time>
      </trkpt>
      <trkpt lat="44.42324" lon="5.77719">
        <ele>740.8330078</ele>
        <time>2013-05-14T12:59:41Z</time>
      </trkpt>
      <trkpt lat="44.42319" lon="5.77728">
        <ele>741.3137207</ele>
        <time>2013-05-14T12:59:43Z</time>
      </trkpt>
      <trkpt lat="44.42298" lon="5.77736">
        <ele>740.3525391</ele>
        <time>2013-05-14T12:59:48Z</time>
      </trkpt>
      <trkpt lat="44.42289" lon="5.77733">
        <ele>739.8718262</ele>
        <time>2013-05-14T12:59:50Z</time>
      </trkpt>
      <trkpt lat="44.42257" lon="5.77707">
        <ele>738.9106445</ele>
        <time>2013-05-14T12:59:57Z</time>
      </trkpt>
      <trkpt lat="44.4222" lon="5.77708">
        <ele>738.9106445</ele>
        <time>2013-05-14T13:00:05Z</time>
      </trkpt>
      <trkpt lat="44.42203" lon="5.77747">
        <ele>741.3137207</ele>
        <time>2013-05-14T13:00:16Z</time>
      </trkpt>
      <trkpt lat="44.42189" lon="5.77768">
        <ele>741.3137207</ele>
        <time>2013-05-14T13:00:24Z</time>
      </trkpt>
      <trkpt lat="44.42153" lon="5.77809">
        <ele>739.8718262</ele>
        <time>2013-05-14T13:00:37Z</time>
      </trkpt>
      <trkpt lat="44.42123" lon="5.77874">
        <ele>740.3525391</ele>
        <time>2013-05-14T13:00:50Z</time>
      </trkpt>
      <trkpt lat="44.4209" lon="5.77937">
        <ele>739.8718262</ele>
        <time>2013-05-14T13:01:05Z</time>
      </trkpt>
      <trkpt lat="44.42084" lon="5.77945">
        <ele>740.3525391</ele>
        <time>2013-05-14T13:01:07Z</time>
      </trkpt>
      <trkpt lat="44.42064" lon="5.77961">
        <ele>738.9106445</ele>
        <time>2013-05-14T13:01:12Z</time>
      </trkpt>
      <trkpt lat="44.42017" lon="5.77982">
        <ele>738.9106445</ele>
        <time>2013-05-14T13:01:28Z</time>
      </trkpt>
      <trkpt lat="44.42013" lon="5.7807">
        <ele>739.8718262</ele>
        <time>2013-05-14T13:01:45Z</time>
      </trkpt>
      <trkpt lat="44.42006" lon="5.78148">
        <ele>741.3137207</ele>
        <time>2013-05-14T13:02:04Z</time>
      </trkpt>
      <trkpt lat="44.42004" lon="5.78229">
        <ele>742.7558594</ele>
        <time>2013-05-14T13:02:24Z</time>
      </trkpt>
      <trkpt lat="44.42014" lon="5.78311">
        <ele>745.1589355</ele>
        <time>2013-05-14T13:02:41Z</time>
      </trkpt>
      <trkpt lat="44.4202" lon="5.78383">
        <ele>748.5236816</ele>
        <time>2013-05-14T13:02:57Z</time>
      </trkpt>
      <trkpt lat="44.42026" lon="5.78433">
        <ele>751.8884277</ele>
        <time>2013-05-14T13:03:09Z</time>
      </trkpt>
      <trkpt lat="44.42032" lon="5.78487">
        <ele>755.2529297</ele>
        <time>2013-05-14T13:03:22Z</time>
      </trkpt>
      <trkpt lat="44.42038" lon="5.78541">
        <ele>757.65625</ele>
        <time>2013-05-14T13:03:35Z</time>
      </trkpt>
      <trkpt lat="44.42038" lon="5.7855">
        <ele>759.0981445</ele>
        <time>2013-05-14T13:03:37Z</time>
      </trkpt>
      <trkpt lat="44.42039" lon="5.78597">
        <ele>762.4626465</ele>
        <time>2013-05-14T13:03:48Z</time>
      </trkpt>
      <trkpt lat="44.42039" lon="5.78601">
        <ele>762.4626465</ele>
        <time>2013-05-14T13:03:49Z</time>
      </trkpt>
      <trkpt lat="44.42039" lon="5.7861">
        <ele>763.4240723</ele>
        <time>2013-05-14T13:03:51Z</time>
      </trkpt>
      <trkpt lat="44.42039" lon="5.78671">
        <ele>764.385498</ele>
        <time>2013-05-14T13:04:05Z</time>
      </trkpt>
      <trkpt lat="44.42039" lon="5.78687">
        <ele>761.9821777</ele>
        <time>2013-05-14T13:04:08Z</time>
      </trkpt>
      <trkpt lat="44.42039" lon="5.78702">
        <ele>761.9821777</ele>
        <time>2013-05-14T13:04:11Z</time>
      </trkpt>
      <trkpt lat="44.4203" lon="5.78821">
        <ele>761.020752</ele>
        <time>2013-05-14T13:04:28Z</time>
      </trkpt>
      <trkpt lat="44.42028" lon="5.78834">
        <ele>760.5400391</ele>
        <time>2013-05-14T13:04:30Z</time>
      </trkpt>
      <trkpt lat="44.42013" lon="5.78911">
        <ele>759.0981445</ele>
        <time>2013-05-14T13:04:42Z</time>
      </trkpt>
      <trkpt lat="44.42009" lon="5.78986">
        <ele>755.2529297</ele>
        <time>2013-05-14T13:04:50Z</time>
      </trkpt>
      <trkpt lat="44.4201" lon="5.78996">
        <ele>755.2529297</ele>
        <time>2013-05-14T13:04:51Z</time>
      </trkpt>
      <trkpt lat="44.42024" lon="5.79111">
        <ele>751.8884277</ele>
        <time>2013-05-14T13:05:02Z</time>
      </trkpt>
      <trkpt lat="44.42025" lon="5.79119">
        <ele>751.8884277</ele>
        <time>2013-05-14T13:05:03Z</time>
      </trkpt>
      <trkpt lat="44.42027" lon="5.79137">
        <ele>753.8110352</ele>
        <time>2013-05-14T13:05:05Z</time>
      </trkpt>
      <trkpt lat="44.42063" lon="5.79235">
        <ele>753.8110352</ele>
        <time>2013-05-14T13:05:20Z</time>
      </trkpt>
      <trkpt lat="44.42072" lon="5.79288">
        <ele>755.2529297</ele>
        <time>2013-05-14T13:05:29Z</time>
      </trkpt>
      <trkpt lat="44.42096" lon="5.79361">
        <ele>756.6948242</ele>
        <time>2013-05-14T13:05:44Z</time>
      </trkpt>
      <trkpt lat="44.42144" lon="5.79422">
        <ele>756.6948242</ele>
        <time>2013-05-14T13:06:01Z</time>
      </trkpt>
      <trkpt lat="44.42182" lon="5.79457">
        <ele>756.2141113</ele>
        <time>2013-05-14T13:06:11Z</time>
      </trkpt>
      <trkpt lat="44.42194" lon="5.79472">
        <ele>756.2141113</ele>
        <time>2013-05-14T13:06:15Z</time>
      </trkpt>
      <trkpt lat="44.4218" lon="5.79501">
        <ele>755.2529297</ele>
        <time>2013-05-14T13:06:20Z</time>
      </trkpt>
      <trkpt lat="44.42139" lon="5.79568">
        <ele>757.1755371</ele>
        <time>2013-05-14T13:06:35Z</time>
      </trkpt>
      <trkpt lat="44.42124" lon="5.79604">
        <ele>759.0981445</ele>
        <time>2013-05-14T13:06:43Z</time>
      </trkpt>
      <trkpt lat="44.42099" lon="5.79663">
        <ele>761.5014648</ele>
        <time>2013-05-14T13:06:59Z</time>
      </trkpt>
      <trkpt lat="44.42079" lon="5.79705">
        <ele>760.5400391</ele>
        <time>2013-05-14T13:07:14Z</time>
      </trkpt>
      <trkpt lat="44.42039" lon="5.7977">
        <ele>759.5788574</ele>
        <time>2013-05-14T13:07:31Z</time>
      </trkpt>
      <trkpt lat="44.42024" lon="5.79851">
        <ele>760.0593262</ele>
        <time>2013-05-14T13:07:48Z</time>
      </trkpt>
      <trkpt lat="44.42009" lon="5.79868">
        <ele>759.5788574</ele>
        <time>2013-05-14T13:07:53Z</time>
      </trkpt>
      <trkpt lat="44.41957" lon="5.79877">
        <ele>760.0593262</ele>
        <time>2013-05-14T13:08:08Z</time>
      </trkpt>
      <trkpt lat="44.41956" lon="5.79877">
        <ele>760.0593262</ele>
        <time>2013-05-14T13:08:23Z</time>
      </trkpt>
      <trkpt lat="44.41942" lon="5.7989">
        <ele>758.6174316</ele>
        <time>2013-05-14T13:08:37Z</time>
      </trkpt>
      <trkpt lat="44.41902" lon="5.79936">
        <ele>757.1755371</ele>
        <time>2013-05-14T13:08:50Z</time>
      </trkpt>
      <trkpt lat="44.41862" lon="5.79995">
        <ele>756.6948242</ele>
        <time>2013-05-14T13:09:05Z</time>
      </trkpt>
      <trkpt lat="44.41814" lon="5.80076">
        <ele>757.65625</ele>
        <time>2013-05-14T13:09:26Z</time>
      </trkpt>
      <trkpt lat="44.4176" lon="5.80139">
        <ele>755.2529297</ele>
        <time>2013-05-14T13:09:45Z</time>
      </trkpt>
      <trkpt lat="44.41756" lon="5.80142">
        <ele>755.2529297</ele>
        <time>2013-05-14T13:09:46Z</time>
      </trkpt>
      <trkpt lat="44.41724" lon="5.80167">
        <ele>755.7336426</ele>
        <time>2013-05-14T13:09:55Z</time>
      </trkpt>
      <trkpt lat="44.41704" lon="5.8024">
        <ele>756.6948242</ele>
        <time>2013-05-14T13:10:08Z</time>
      </trkpt>
      <trkpt lat="44.417" lon="5.80251">
        <ele>756.6948242</ele>
        <time>2013-05-14T13:10:10Z</time>
      </trkpt>
      <trkpt lat="44.41695" lon="5.80261">
        <ele>757.1755371</ele>
        <time>2013-05-14T13:10:12Z</time>
      </trkpt>
      <trkpt lat="44.41641" lon="5.80324">
        <ele>758.6174316</ele>
        <time>2013-05-14T13:10:31Z</time>
      </trkpt>
      <trkpt lat="44.41577" lon="5.80413">
        <ele>758.6174316</ele>
        <time>2013-05-14T13:10:51Z</time>
      </trkpt>
      <trkpt lat="44.41498" lon="5.8052">
        <ele>756.6948242</ele>
        <time>2013-05-14T13:11:13Z</time>
      </trkpt>
      <trkpt lat="44.41492" lon="5.8053">
        <ele>757.1755371</ele>
        <time>2013-05-14T13:11:15Z</time>
      </trkpt>
      <trkpt lat="44.41474" lon="5.8059">
        <ele>760.0593262</ele>
        <time>2013-05-14T13:11:28Z</time>
      </trkpt>
      <trkpt lat="44.41477" lon="5.80621">
        <ele>761.020752</ele>
        <time>2013-05-14T13:11:35Z</time>
      </trkpt>
      <trkpt lat="44.41499" lon="5.80696">
        <ele>762.9433594</ele>
        <time>2013-05-14T13:11:53Z</time>
      </trkpt>
      <trkpt lat="44.41502" lon="5.8077">
        <ele>764.8662109</ele>
        <time>2013-05-14T13:12:10Z</time>
      </trkpt>
      <trkpt lat="44.415" lon="5.80859">
        <ele>767.75</ele>
        <time>2013-05-14T13:12:30Z</time>
      </trkpt>
      <trkpt lat="44.41498" lon="5.80982">
        <ele>770.6340332</ele>
        <time>2013-05-14T13:12:57Z</time>
      </trkpt>
      <trkpt lat="44.41483" lon="5.81093">
        <ele>773.5180664</ele>
        <time>2013-05-14T13:13:22Z</time>
      </trkpt>
      <trkpt lat="44.41478" lon="5.81179">
        <ele>774.9599609</ele>
        <time>2013-05-14T13:13:41Z</time>
      </trkpt>
      <trkpt lat="44.41461" lon="5.81276">
        <ele>776.4018555</ele>
        <time>2013-05-14T13:14:01Z</time>
      </trkpt>
      <trkpt lat="44.41437" lon="5.81343">
        <ele>777.84375</ele>
        <time>2013-05-14T13:14:17Z</time>
      </trkpt>
      <trkpt lat="44.41408" lon="5.81426">
        <ele>781.2087402</ele>
        <time>2013-05-14T13:14:38Z</time>
      </trkpt>
      <trkpt lat="44.41392" lon="5.81467">
        <ele>782.1699219</ele>
        <time>2013-05-14T13:14:49Z</time>
      </trkpt>
      <trkpt lat="44.41361" lon="5.8155">
        <ele>784.0925293</ele>
        <time>2013-05-14T13:15:10Z</time>
      </trkpt>
      <trkpt lat="44.41337" lon="5.81628">
        <ele>786.9763184</ele>
        <time>2013-05-14T13:15:29Z</time>
      </trkpt>
      <trkpt lat="44.41322" lon="5.81682">
        <ele>789.8603516</ele>
        <time>2013-05-14T13:15:43Z</time>
      </trkpt>
      <trkpt lat="44.41305" lon="5.81738">
        <ele>793.7055664</ele>
        <time>2013-05-14T13:15:57Z</time>
      </trkpt>
      <trkpt lat="44.41288" lon="5.81795">
        <ele>796.1091309</ele>
        <time>2013-05-14T13:16:12Z</time>
      </trkpt>
      <trkpt lat="44.41279" lon="5.81856">
        <ele>798.0317383</ele>
        <time>2013-05-14T13:16:27Z</time>
      </trkpt>
      <trkpt lat="44.41271" lon="5.8192">
        <ele>798.9929199</ele>
        <time>2013-05-14T13:16:42Z</time>
      </trkpt>
      <trkpt lat="44.41266" lon="5.8196">
        <ele>801.3962402</ele>
        <time>2013-05-14T13:16:51Z</time>
      </trkpt>
      <trkpt lat="44.41285" lon="5.82019">
        <ele>804.2802734</ele>
        <time>2013-05-14T13:17:06Z</time>
      </trkpt>
      <trkpt lat="44.41312" lon="5.82069">
        <ele>807.1640625</ele>
        <time>2013-05-14T13:17:21Z</time>
      </trkpt>
      <trkpt lat="44.41345" lon="5.82131">
        <ele>809.5673828</ele>
        <time>2013-05-14T13:17:39Z</time>
      </trkpt>
      <trkpt lat="44.41378" lon="5.82194">
        <ele>812.451416</ele>
        <time>2013-05-14T13:17:58Z</time>
      </trkpt>
      <trkpt lat="44.41407" lon="5.8225">
        <ele>814.8547363</ele>
        <time>2013-05-14T13:18:14Z</time>
      </trkpt>
      <trkpt lat="44.41432" lon="5.82305">
        <ele>816.2966309</ele>
        <time>2013-05-14T13:18:28Z</time>
      </trkpt>
      <trkpt lat="44.4144" lon="5.82326">
        <ele>814.8547363</ele>
        <time>2013-05-14T13:18:32Z</time>
      </trkpt>
      <trkpt lat="44.41452" lon="5.82389">
        <ele>814.8547363</ele>
        <time>2013-05-14T13:18:44Z</time>
      </trkpt>
      <trkpt lat="44.41464" lon="5.82457">
        <ele>815.8161621</ele>
        <time>2013-05-14T13:18:58Z</time>
      </trkpt>
      <trkpt lat="44.41477" lon="5.82527">
        <ele>818.6999512</ele>
        <time>2013-05-14T13:19:14Z</time>
      </trkpt>
      <trkpt lat="44.41488" lon="5.82594">
        <ele>821.5837402</ele>
        <time>2013-05-14T13:19:27Z</time>
      </trkpt>
      <trkpt lat="44.41502" lon="5.82668">
        <ele>823.9870605</ele>
        <time>2013-05-14T13:19:45Z</time>
      </trkpt>
      <trkpt lat="44.41505" lon="5.82684">
        <ele>825.909668</ele>
        <time>2013-05-14T13:19:49Z</time>
      </trkpt>
      <trkpt lat="44.41518" lon="5.8275">
        <ele>829.2744141</ele>
        <time>2013-05-14T13:20:04Z</time>
      </trkpt>
      <trkpt lat="44.4153" lon="5.82816">
        <ele>831.6777344</ele>
        <time>2013-05-14T13:20:20Z</time>
      </trkpt>
      <trkpt lat="44.41542" lon="5.82881">
        <ele>832.1584473</ele>
        <time>2013-05-14T13:20:35Z</time>
      </trkpt>
      <trkpt lat="44.41555" lon="5.82945">
        <ele>835.5229492</ele>
        <time>2013-05-14T13:20:51Z</time>
      </trkpt>
      <trkpt lat="44.41566" lon="5.83015">
        <ele>835.0424805</ele>
        <time>2013-05-14T13:21:07Z</time>
      </trkpt>
      <trkpt lat="44.41573" lon="5.83078">
        <ele>838.4069824</ele>
        <time>2013-05-14T13:21:22Z</time>
      </trkpt>
      <trkpt lat="44.4155" lon="5.83112">
        <ele>840.3295898</ele>
        <time>2013-05-14T13:21:33Z</time>
      </trkpt>
      <trkpt lat="44.4151" lon="5.8316">
        <ele>845.1362305</ele>
        <time>2013-05-14T13:21:48Z</time>
      </trkpt>
      <trkpt lat="44.41508" lon="5.83163">
        <ele>845.1362305</ele>
        <time>2013-05-14T13:21:49Z</time>
      </trkpt>
      <trkpt lat="44.41485" lon="5.83204">
        <ele>848.0202637</ele>
        <time>2013-05-14T13:22:00Z</time>
      </trkpt>
      <trkpt lat="44.41482" lon="5.83213">
        <ele>848.9814453</ele>
        <time>2013-05-14T13:22:03Z</time>
      </trkpt>
      <trkpt lat="44.41475" lon="5.83283">
        <ele>853.307373</ele>
        <time>2013-05-14T13:22:15Z</time>
      </trkpt>
      <trkpt lat="44.41498" lon="5.83352">
        <ele>854.2687988</ele>
        <time>2013-05-14T13:22:26Z</time>
      </trkpt>
      <trkpt lat="44.41524" lon="5.83404">
        <ele>857.6333008</ele>
        <time>2013-05-14T13:22:38Z</time>
      </trkpt>
      <trkpt lat="44.41526" lon="5.83406">
        <ele>857.6333008</ele>
        <time>2013-05-14T13:22:39Z</time>
      </trkpt>
      <trkpt lat="44.4154" lon="5.83482">
        <ele>860.0366211</ele>
        <time>2013-05-14T13:22:52Z</time>
      </trkpt>
      <trkpt lat="44.41548" lon="5.83502">
        <ele>860.0366211</ele>
        <time>2013-05-14T13:22:56Z</time>
      </trkpt>
      <trkpt lat="44.41549" lon="5.83522">
        <ele>860.9980469</ele>
        <time>2013-05-14T13:23:00Z</time>
      </trkpt>
      <trkpt lat="44.41535" lon="5.83528">
        <ele>862.4399414</ele>
        <time>2013-05-14T13:23:03Z</time>
      </trkpt>
      <trkpt lat="44.41501" lon="5.83511">
        <ele>863.8818359</ele>
        <time>2013-05-14T13:23:12Z</time>
      </trkpt>
      <trkpt lat="44.41489" lon="5.83509">
        <ele>866.2851563</ele>
        <time>2013-05-14T13:23:16Z</time>
      </trkpt>
      <trkpt lat="44.41475" lon="5.83512">
        <ele>868.6884766</ele>
        <time>2013-05-14T13:23:21Z</time>
      </trkpt>
      <trkpt lat="44.41451" lon="5.83525">
        <ele>871.0917969</ele>
        <time>2013-05-14T13:23:29Z</time>
      </trkpt>
      <trkpt lat="44.41409" lon="5.83518">
        <ele>873.9755859</ele>
        <time>2013-05-14T13:23:40Z</time>
      </trkpt>
      <trkpt lat="44.41402" lon="5.83516">
        <ele>874.9370117</ele>
        <time>2013-05-14T13:23:42Z</time>
      </trkpt>
      <trkpt lat="44.41397" lon="5.83533">
        <ele>876.8598633</ele>
        <time>2013-05-14T13:23:46Z</time>
      </trkpt>
      <trkpt lat="44.41393" lon="5.83541">
        <ele>878.3017578</ele>
        <time>2013-05-14T13:23:48Z</time>
      </trkpt>
      <trkpt lat="44.41371" lon="5.83579">
        <ele>879.7436523</ele>
        <time>2013-05-14T13:23:56Z</time>
      </trkpt>
      <trkpt lat="44.41362" lon="5.83626">
        <ele>883.1081543</ele>
        <time>2013-05-14T13:24:06Z</time>
      </trkpt>
      <trkpt lat="44.41361" lon="5.83635">
        <ele>883.1081543</ele>
        <time>2013-05-14T13:24:08Z</time>
      </trkpt>
      <trkpt lat="44.41341" lon="5.83659">
        <ele>886.4729004</ele>
        <time>2013-05-14T13:24:17Z</time>
      </trkpt>
      <trkpt lat="44.41326" lon="5.8369">
        <ele>890.3181152</ele>
        <time>2013-05-14T13:24:24Z</time>
      </trkpt>
      <trkpt lat="44.41328" lon="5.837">
        <ele>889.8374023</ele>
        <time>2013-05-14T13:24:26Z</time>
      </trkpt>
      <trkpt lat="44.41339" lon="5.83728">
        <ele>892.2409668</ele>
        <time>2013-05-14T13:24:33Z</time>
      </trkpt>
      <trkpt lat="44.41341" lon="5.83754">
        <ele>893.6828613</ele>
        <time>2013-05-14T13:24:39Z</time>
      </trkpt>
      <trkpt lat="44.41319" lon="5.83792">
        <ele>898.0087891</ele>
        <time>2013-05-14T13:24:49Z</time>
      </trkpt>
      <trkpt lat="44.41302" lon="5.83825">
        <ele>901.373291</ele>
        <time>2013-05-14T13:24:57Z</time>
      </trkpt>
      <trkpt lat="44.41282" lon="5.83861">
        <ele>904.2573242</ele>
        <time>2013-05-14T13:25:07Z</time>
      </trkpt>
      <trkpt lat="44.41276" lon="5.83882">
        <ele>905.6992188</ele>
        <time>2013-05-14T13:25:13Z</time>
      </trkpt>
      <trkpt lat="44.41255" lon="5.83912">
        <ele>909.5446777</ele>
        <time>2013-05-14T13:25:23Z</time>
      </trkpt>
      <trkpt lat="44.41224" lon="5.83918">
        <ele>912.9091797</ele>
        <time>2013-05-14T13:25:33Z</time>
      </trkpt>
      <trkpt lat="44.4121" lon="5.83932">
        <ele>916.2736816</ele>
        <time>2013-05-14T13:25:40Z</time>
      </trkpt>
      <trkpt lat="44.41169" lon="5.83928">
        <ele>919.1577148</ele>
        <time>2013-05-14T13:25:51Z</time>
      </trkpt>
      <trkpt lat="44.4115" lon="5.83921">
        <ele>921.0803223</ele>
        <time>2013-05-14T13:25:58Z</time>
      </trkpt>
      <trkpt lat="44.41135" lon="5.8394">
        <ele>923.9641113</ele>
        <time>2013-05-14T13:26:05Z</time>
      </trkpt>
      <trkpt lat="44.411" lon="5.83954">
        <ele>927.8095703</ele>
        <time>2013-05-14T13:26:16Z</time>
      </trkpt>
      <trkpt lat="44.41092" lon="5.83958">
        <ele>927.8095703</ele>
        <time>2013-05-14T13:26:18Z</time>
      </trkpt>
      <trkpt lat="44.41061" lon="5.83976">
        <ele>931.1743164</ele>
        <time>2013-05-14T13:26:30Z</time>
      </trkpt>
      <trkpt lat="44.41034" lon="5.8398">
        <ele>934.5388184</ele>
        <time>2013-05-14T13:26:41Z</time>
      </trkpt>
      <trkpt lat="44.40985" lon="5.83976">
        <ele>937.9033203</ele>
        <time>2013-05-14T13:26:53Z</time>
      </trkpt>
      <trkpt lat="44.40928" lon="5.83997">
        <ele>940.3068848</ele>
        <time>2013-05-14T13:27:08Z</time>
      </trkpt>
      <trkpt lat="44.40871" lon="5.84038">
        <ele>938.8647461</ele>
        <time>2013-05-14T13:27:21Z</time>
      </trkpt>
      <trkpt lat="44.40832" lon="5.84047">
        <ele>937.4226074</ele>
        <time>2013-05-14T13:27:29Z</time>
      </trkpt>
      <trkpt lat="44.40764" lon="5.84062">
        <ele>938.3840332</ele>
        <time>2013-05-14T13:27:42Z</time>
      </trkpt>
      <trkpt lat="44.40723" lon="5.84074">
        <ele>940.7873535</ele>
        <time>2013-05-14T13:27:55Z</time>
      </trkpt>
      <trkpt lat="44.40682" lon="5.84111">
        <ele>941.2680664</ele>
        <time>2013-05-14T13:28:09Z</time>
      </trkpt>
      <trkpt lat="44.40652" lon="5.84154">
        <ele>944.1520996</ele>
        <time>2013-05-14T13:28:22Z</time>
      </trkpt>
      <trkpt lat="44.40623" lon="5.84193">
        <ele>946.074707</ele>
        <time>2013-05-14T13:28:35Z</time>
      </trkpt>
      <trkpt lat="44.40596" lon="5.84222">
        <ele>947.0358887</ele>
        <time>2013-05-14T13:28:46Z</time>
      </trkpt>
      <trkpt lat="44.4056" lon="5.84222">
        <ele>947.0358887</ele>
        <time>2013-05-14T13:28:58Z</time>
      </trkpt>
      <trkpt lat="44.40545" lon="5.84214">
        <ele>945.1132813</ele>
        <time>2013-05-14T13:29:06Z</time>
      </trkpt>
      <trkpt lat="44.40524" lon="5.84198">
        <ele>943.1906738</ele>
        <time>2013-05-14T13:29:18Z</time>
      </trkpt>
      <trkpt lat="44.40523" lon="5.84196">
        <ele>943.1906738</ele>
        <time>2013-05-14T13:29:19Z</time>
      </trkpt>
      <trkpt lat="44.40519" lon="5.84193">
        <ele>943.1906738</ele>
        <time>2013-05-14T13:29:31Z</time>
      </trkpt>
      <trkpt lat="44.40438" lon="5.84132">
        <ele>943.1906738</ele>
        <time>2013-05-14T13:29:47Z</time>
      </trkpt>
      <trkpt lat="44.40438" lon="5.84132">
        <ele>940.7873535</ele>
        <time>2013-05-14T13:31:34Z</time>
      </trkpt>
      <trkpt lat="44.40438" lon="5.84132">
        <ele>939.8259277</ele>
        <time>2013-05-14T13:32:43Z</time>
      </trkpt>
      <trkpt lat="44.40392" lon="5.84112">
        <ele>936.9418945</ele>
        <time>2013-05-14T13:32:52Z</time>
      </trkpt>
      <trkpt lat="44.40364" lon="5.84106">
        <ele>935.0195313</ele>
        <time>2013-05-14T13:32:57Z</time>
      </trkpt>
      <trkpt lat="44.40315" lon="5.84123">
        <ele>933.5773926</ele>
        <time>2013-05-14T13:33:05Z</time>
      </trkpt>
      <trkpt lat="44.40289" lon="5.84152">
        <ele>933.5773926</ele>
        <time>2013-05-14T13:33:11Z</time>
      </trkpt>
      <trkpt lat="44.40281" lon="5.84226">
        <ele>932.135498</ele>
        <time>2013-05-14T13:33:19Z</time>
      </trkpt>
      <trkpt lat="44.40281" lon="5.8429">
        <ele>929.7321777</ele>
        <time>2013-05-14T13:33:25Z</time>
      </trkpt>
      <trkpt lat="44.4028" lon="5.84313">
        <ele>927.3291016</ele>
        <time>2013-05-14T13:33:27Z</time>
      </trkpt>
      <trkpt lat="44.40275" lon="5.84334">
        <ele>927.8095703</ele>
        <time>2013-05-14T13:33:29Z</time>
      </trkpt>
      <trkpt lat="44.40252" lon="5.84389">
        <ele>927.3291016</ele>
        <time>2013-05-14T13:33:35Z</time>
      </trkpt>
      <trkpt lat="44.40234" lon="5.84425">
        <ele>925.40625</ele>
        <time>2013-05-14T13:33:39Z</time>
      </trkpt>
      <trkpt lat="44.4022" lon="5.84453">
        <ele>923.0029297</ele>
        <time>2013-05-14T13:33:42Z</time>
      </trkpt>
      <trkpt lat="44.40204" lon="5.84491">
        <ele>925.40625</ele>
        <time>2013-05-14T13:33:46Z</time>
      </trkpt>
      <trkpt lat="44.40201" lon="5.845">
        <ele>924.4450684</ele>
        <time>2013-05-14T13:33:47Z</time>
      </trkpt>
      <trkpt lat="44.4019" lon="5.84533">
        <ele>923.4836426</ele>
        <time>2013-05-14T13:33:51Z</time>
      </trkpt>
      <trkpt lat="44.40182" lon="5.84564">
        <ele>923.0029297</ele>
        <time>2013-05-14T13:33:54Z</time>
      </trkpt>
      <trkpt lat="44.40176" lon="5.84584">
        <ele>922.0415039</ele>
        <time>2013-05-14T13:33:56Z</time>
      </trkpt>
      <trkpt lat="44.40137" lon="5.84633">
        <ele>919.1577148</ele>
        <time>2013-05-14T13:34:03Z</time>
      </trkpt>
      <trkpt lat="44.40083" lon="5.84646">
        <ele>918.1962891</ele>
        <time>2013-05-14T13:34:10Z</time>
      </trkpt>
      <trkpt lat="44.40052" lon="5.84684">
        <ele>920.1188965</ele>
        <time>2013-05-14T13:34:17Z</time>
      </trkpt>
      <trkpt lat="44.4003" lon="5.84742">
        <ele>921.0803223</ele>
        <time>2013-05-14T13:34:27Z</time>
      </trkpt>
      <trkpt lat="44.40039" lon="5.84828">
        <ele>923.0029297</ele>
        <time>2013-05-14T13:34:38Z</time>
      </trkpt>
      <trkpt lat="44.40042" lon="5.84875">
        <ele>924.4450684</ele>
        <time>2013-05-14T13:34:48Z</time>
      </trkpt>
      <trkpt lat="44.40029" lon="5.84928">
        <ele>925.40625</ele>
        <time>2013-05-14T13:35:03Z</time>
      </trkpt>
      <trkpt lat="44.40028" lon="5.84932">
        <ele>925.40625</ele>
        <time>2013-05-14T13:35:04Z</time>
      </trkpt>
      <trkpt lat="44.40006" lon="5.84977">
        <ele>924.4450684</ele>
        <time>2013-05-14T13:35:16Z</time>
      </trkpt>
      <trkpt lat="44.39952" lon="5.85025">
        <ele>925.40625</ele>
        <time>2013-05-14T13:35:30Z</time>
      </trkpt>
      <trkpt lat="44.39895" lon="5.85049">
        <ele>925.8869629</ele>
        <time>2013-05-14T13:35:43Z</time>
      </trkpt>
      <trkpt lat="44.3984" lon="5.85052">
        <ele>925.40625</ele>
        <time>2013-05-14T13:35:54Z</time>
      </trkpt>
      <trkpt lat="44.39822" lon="5.85064">
        <ele>924.4450684</ele>
        <time>2013-05-14T13:36:00Z</time>
      </trkpt>
      <trkpt lat="44.39802" lon="5.85078">
        <ele>924.9257813</ele>
        <time>2013-05-14T13:36:04Z</time>
      </trkpt>
      <trkpt lat="44.39792" lon="5.85077">
        <ele>925.8869629</ele>
        <time>2013-05-14T13:36:09Z</time>
      </trkpt>
      <trkpt lat="44.39788" lon="5.8518">
        <ele>927.8095703</ele>
        <time>2013-05-14T13:36:20Z</time>
      </trkpt>
      <trkpt lat="44.39802" lon="5.85221">
        <ele>930.2128906</ele>
        <time>2013-05-14T13:36:31Z</time>
      </trkpt>
      <trkpt lat="44.39805" lon="5.85243">
        <ele>930.6936035</ele>
        <time>2013-05-14T13:36:37Z</time>
      </trkpt>
      <trkpt lat="44.39812" lon="5.85302">
        <ele>935.0195313</ele>
        <time>2013-05-14T13:36:52Z</time>
      </trkpt>
      <trkpt lat="44.39814" lon="5.85323">
        <ele>936.4614258</ele>
        <time>2013-05-14T13:36:59Z</time>
      </trkpt>
      <trkpt lat="44.39817" lon="5.85344">
        <ele>937.9033203</ele>
        <time>2013-05-14T13:37:10Z</time>
      </trkpt>
      <trkpt lat="44.39822" lon="5.85402">
        <ele>939.8259277</ele>
        <time>2013-05-14T13:37:22Z</time>
      </trkpt>
      <trkpt lat="44.39816" lon="5.85445">
        <ele>939.3452148</ele>
        <time>2013-05-14T13:37:33Z</time>
      </trkpt>
      <trkpt lat="44.39815" lon="5.85449">
        <ele>936.9418945</ele>
        <time>2013-05-14T13:37:34Z</time>
      </trkpt>
      <trkpt lat="44.39798" lon="5.85475">
        <ele>935.5</ele>
        <time>2013-05-14T13:37:37Z</time>
      </trkpt>
      <trkpt lat="44.39785" lon="5.85483">
        <ele>934.0581055</ele>
        <time>2013-05-14T13:37:38Z</time>
      </trkpt>
      <trkpt lat="44.39759" lon="5.85483">
        <ele>932.6162109</ele>
        <time>2013-05-14T13:37:40Z</time>
      </trkpt>
      <trkpt lat="44.39742" lon="5.8548">
        <ele>931.1743164</ele>
        <time>2013-05-14T13:37:42Z</time>
      </trkpt>
      <trkpt lat="44.39728" lon="5.85475">
        <ele>927.8095703</ele>
        <time>2013-05-14T13:37:43Z</time>
      </trkpt>
      <trkpt lat="44.39717" lon="5.85471">
        <ele>927.8095703</ele>
        <time>2013-05-14T13:37:44Z</time>
      </trkpt>
      <trkpt lat="44.39694" lon="5.85462">
        <ele>923.4836426</ele>
        <time>2013-05-14T13:37:46Z</time>
      </trkpt>
      <trkpt lat="44.39684" lon="5.85459">
        <ele>923.4836426</ele>
        <time>2013-05-14T13:37:47Z</time>
      </trkpt>
      <trkpt lat="44.39659" lon="5.85456">
        <ele>921.560791</ele>
        <time>2013-05-14T13:37:49Z</time>
      </trkpt>
      <trkpt lat="44.39569" lon="5.85436">
        <ele>920.1188965</ele>
        <time>2013-05-14T13:37:57Z</time>
      </trkpt>
      <trkpt lat="44.39518" lon="5.85451">
        <ele>920.1188965</ele>
        <time>2013-05-14T13:38:03Z</time>
      </trkpt>
      <trkpt lat="44.39503" lon="5.8547">
        <ele>920.5996094</ele>
        <time>2013-05-14T13:38:06Z</time>
      </trkpt>
      <trkpt lat="44.39487" lon="5.85491">
        <ele>923.9641113</ele>
        <time>2013-05-14T13:38:15Z</time>
      </trkpt>
      <trkpt lat="44.39487" lon="5.85491">
        <ele>923.4836426</ele>
        <time>2013-05-14T13:38:41Z</time>
      </trkpt>
      <trkpt lat="44.39454" lon="5.85537">
        <ele>922.0415039</ele>
        <time>2013-05-14T13:39:26Z</time>
      </trkpt>
      <trkpt lat="44.39438" lon="5.85558">
        <ele>922.0415039</ele>
        <time>2013-05-14T13:39:30Z</time>
      </trkpt>
      <trkpt lat="44.39423" lon="5.85573">
        <ele>922.5222168</ele>
        <time>2013-05-14T13:39:34Z</time>
      </trkpt>
      <trkpt lat="44.39384" lon="5.85626">
        <ele>922.0415039</ele>
        <time>2013-05-14T13:39:47Z</time>
      </trkpt>
      <trkpt lat="44.3938" lon="5.85632">
        <ele>922.0415039</ele>
        <time>2013-05-14T13:39:48Z</time>
      </trkpt>
      <trkpt lat="44.39368" lon="5.85656">
        <ele>922.0415039</ele>
        <time>2013-05-14T13:39:52Z</time>
      </trkpt>
      <trkpt lat="44.39361" lon="5.85669">
        <ele>922.0415039</ele>
        <time>2013-05-14T13:39:54Z</time>
      </trkpt>
      <trkpt lat="44.39347" lon="5.8572">
        <ele>921.560791</ele>
        <time>2013-05-14T13:40:00Z</time>
      </trkpt>
      <trkpt lat="44.3934" lon="5.85742">
        <ele>922.0415039</ele>
        <time>2013-05-14T13:40:03Z</time>
      </trkpt>
      <trkpt lat="44.39324" lon="5.85779">
        <ele>923.4836426</ele>
        <time>2013-05-14T13:40:09Z</time>
      </trkpt>
      <trkpt lat="44.39292" lon="5.85841">
        <ele>923.4836426</ele>
        <time>2013-05-14T13:40:23Z</time>
      </trkpt>
      <trkpt lat="44.39283" lon="5.85864">
        <ele>925.40625</ele>
        <time>2013-05-14T13:40:30Z</time>
      </trkpt>
      <trkpt lat="44.39261" lon="5.85934">
        <ele>924.9257813</ele>
        <time>2013-05-14T13:40:42Z</time>
      </trkpt>
      <trkpt lat="44.39246" lon="5.85974">
        <ele>923.4836426</ele>
        <time>2013-05-14T13:40:47Z</time>
      </trkpt>
      <trkpt lat="44.39229" lon="5.86017">
        <ele>921.560791</ele>
        <time>2013-05-14T13:40:52Z</time>
      </trkpt>
      <trkpt lat="44.39209" lon="5.86083">
        <ele>920.5996094</ele>
        <time>2013-05-14T13:40:59Z</time>
      </trkpt>
      <trkpt lat="44.39174" lon="5.86158">
        <ele>916.7543945</ele>
        <time>2013-05-14T13:41:07Z</time>
      </trkpt>
      <trkpt lat="44.39167" lon="5.86167">
        <ele>915.3125</ele>
        <time>2013-05-14T13:41:08Z</time>
      </trkpt>
      <trkpt lat="44.3915" lon="5.86189">
        <ele>913.8703613</ele>
        <time>2013-05-14T13:41:11Z</time>
      </trkpt>
      <trkpt lat="44.3913" lon="5.86215">
        <ele>911.4672852</ele>
        <time>2013-05-14T13:41:14Z</time>
      </trkpt>
      <trkpt lat="44.39116" lon="5.86232">
        <ele>909.0639648</ele>
        <time>2013-05-14T13:41:16Z</time>
      </trkpt>
      <trkpt lat="44.39107" lon="5.86242">
        <ele>908.1027832</ele>
        <time>2013-05-14T13:41:17Z</time>
      </trkpt>
      <trkpt lat="44.39085" lon="5.86267">
        <ele>907.6218262</ele>
        <time>2013-05-14T13:41:20Z</time>
      </trkpt>
      <trkpt lat="44.3906" lon="5.86292">
        <ele>905.6992188</ele>
        <time>2013-05-14T13:41:23Z</time>
      </trkpt>
      <trkpt lat="44.39018" lon="5.86354">
        <ele>905.2185059</ele>
        <time>2013-05-14T13:41:28Z</time>
      </trkpt>
      <trkpt lat="44.39005" lon="5.86376">
        <ele>903.7766113</ele>
        <time>2013-05-14T13:41:30Z</time>
      </trkpt>
      <trkpt lat="44.38983" lon="5.86392">
        <ele>901.8540039</ele>
        <time>2013-05-14T13:41:32Z</time>
      </trkpt>
      <trkpt lat="44.3897" lon="5.86398">
        <ele>900.8925781</ele>
        <time>2013-05-14T13:41:33Z</time>
      </trkpt>
      <trkpt lat="44.38927" lon="5.8642">
        <ele>898.0087891</ele>
        <time>2013-05-14T13:41:37Z</time>
      </trkpt>
      <trkpt lat="44.38844" lon="5.86509">
        <ele>898.4892578</ele>
        <time>2013-05-14T13:41:48Z</time>
      </trkpt>
      <trkpt lat="44.38829" lon="5.86523">
        <ele>898.9699707</ele>
        <time>2013-05-14T13:41:50Z</time>
      </trkpt>
      <trkpt lat="44.38804" lon="5.86544">
        <ele>894.1635742</ele>
        <time>2013-05-14T13:41:53Z</time>
      </trkpt>
      <trkpt lat="44.38786" lon="5.86556">
        <ele>892.2409668</ele>
        <time>2013-05-14T13:41:55Z</time>
      </trkpt>
      <trkpt lat="44.38766" lon="5.8657">
        <ele>890.3181152</ele>
        <time>2013-05-14T13:41:57Z</time>
      </trkpt>
      <trkpt lat="44.38755" lon="5.86577">
        <ele>887.434082</ele>
        <time>2013-05-14T13:41:58Z</time>
      </trkpt>
      <trkpt lat="44.38733" lon="5.86591">
        <ele>885.5114746</ele>
        <time>2013-05-14T13:42:00Z</time>
      </trkpt>
      <trkpt lat="44.38721" lon="5.86598">
        <ele>882.1469727</ele>
        <time>2013-05-14T13:42:01Z</time>
      </trkpt>
      <trkpt lat="44.38707" lon="5.86605">
        <ele>882.1469727</ele>
        <time>2013-05-14T13:42:02Z</time>
      </trkpt>
      <trkpt lat="44.38681" lon="5.86619">
        <ele>879.7436523</ele>
        <time>2013-05-14T13:42:04Z</time>
      </trkpt>
      <trkpt lat="44.38654" lon="5.86632">
        <ele>875.8981934</ele>
        <time>2013-05-14T13:42:06Z</time>
      </trkpt>
      <trkpt lat="44.38641" lon="5.86638">
        <ele>875.8981934</ele>
        <time>2013-05-14T13:42:07Z</time>
      </trkpt>
      <trkpt lat="44.38586" lon="5.86661">
        <ele>873.0144043</ele>
        <time>2013-05-14T13:42:11Z</time>
      </trkpt>
      <trkpt lat="44.38551" lon="5.86679">
        <ele>870.611084</ele>
        <time>2013-05-14T13:42:14Z</time>
      </trkpt>
      <trkpt lat="44.38539" lon="5.86685">
        <ele>870.1303711</ele>
        <time>2013-05-14T13:42:15Z</time>
      </trkpt>
      <trkpt lat="44.38418" lon="5.86771">
        <ele>869.1691895</ele>
        <time>2013-05-14T13:42:27Z</time>
      </trkpt>
      <trkpt lat="44.38382" lon="5.86803">
        <ele>868.6884766</ele>
        <time>2013-05-14T13:42:32Z</time>
      </trkpt>
      <trkpt lat="44.38347" lon="5.86827">
        <ele>870.611084</ele>
        <time>2013-05-14T13:42:37Z</time>
      </trkpt>
      <trkpt lat="44.38316" lon="5.86841">
        <ele>868.2077637</ele>
        <time>2013-05-14T13:42:41Z</time>
      </trkpt>
      <trkpt lat="44.383" lon="5.86848">
        <ele>863.8818359</ele>
        <time>2013-05-14T13:42:43Z</time>
      </trkpt>
      <trkpt lat="44.38273" lon="5.86862">
        <ele>862.4399414</ele>
        <time>2013-05-14T13:42:46Z</time>
      </trkpt>
      <trkpt lat="44.38232" lon="5.8688">
        <ele>857.6333008</ele>
        <time>2013-05-14T13:42:50Z</time>
      </trkpt>
      <trkpt lat="44.38222" lon="5.86882">
        <ele>857.6333008</ele>
        <time>2013-05-14T13:42:51Z</time>
      </trkpt>
      <trkpt lat="44.38177" lon="5.8689">
        <ele>855.2299805</ele>
        <time>2013-05-14T13:42:55Z</time>
      </trkpt>
      <trkpt lat="44.38159" lon="5.86893">
        <ele>851.8654785</ele>
        <time>2013-05-14T13:42:57Z</time>
      </trkpt>
      <trkpt lat="44.38127" lon="5.86887">
        <ele>850.423584</ele>
        <time>2013-05-14T13:43:00Z</time>
      </trkpt>
      <trkpt lat="44.38116" lon="5.86885">
        <ele>848.5007324</ele>
        <time>2013-05-14T13:43:01Z</time>
      </trkpt>
      <trkpt lat="44.38081" lon="5.86892">
        <ele>844.6555176</ele>
        <time>2013-05-14T13:43:04Z</time>
      </trkpt>
      <trkpt lat="44.3807" lon="5.869">
        <ele>844.6555176</ele>
        <time>2013-05-14T13:43:05Z</time>
      </trkpt>
      <trkpt lat="44.38049" lon="5.86919">
        <ele>843.6940918</ele>
        <time>2013-05-14T13:43:07Z</time>
      </trkpt>
      <trkpt lat="44.38031" lon="5.86938">
        <ele>840.8100586</ele>
        <time>2013-05-14T13:43:09Z</time>
      </trkpt>
      <trkpt lat="44.38013" lon="5.86953">
        <ele>839.848877</ele>
        <time>2013-05-14T13:43:11Z</time>
      </trkpt>
      <trkpt lat="44.37959" lon="5.8695">
        <ele>835.5229492</ele>
        <time>2013-05-14T13:43:18Z</time>
      </trkpt>
      <trkpt lat="44.37952" lon="5.86947">
        <ele>832.1584473</ele>
        <time>2013-05-14T13:43:19Z</time>
      </trkpt>
      <trkpt lat="44.3791" lon="5.86927">
        <ele>829.2744141</ele>
        <time>2013-05-14T13:43:23Z</time>
      </trkpt>
      <trkpt lat="44.37889" lon="5.86922">
        <ele>827.3518066</ele>
        <time>2013-05-14T13:43:25Z</time>
      </trkpt>
      <trkpt lat="44.3787" lon="5.86916">
        <ele>824.4677734</ele>
        <time>2013-05-14T13:43:27Z</time>
      </trkpt>
      <trkpt lat="44.37832" lon="5.86892">
        <ele>822.0644531</ele>
        <time>2013-05-14T13:43:31Z</time>
      </trkpt>
      <trkpt lat="44.37799" lon="5.86889">
        <ele>819.661377</ele>
        <time>2013-05-14T13:43:34Z</time>
      </trkpt>
      <trkpt lat="44.37789" lon="5.86885">
        <ele>819.661377</ele>
        <time>2013-05-14T13:43:35Z</time>
      </trkpt>
      <trkpt lat="44.37768" lon="5.86876">
        <ele>817.7385254</ele>
        <time>2013-05-14T13:43:37Z</time>
      </trkpt>
      <trkpt lat="44.3775" lon="5.86872">
        <ele>815.8161621</ele>
        <time>2013-05-14T13:43:39Z</time>
      </trkpt>
      <trkpt lat="44.37724" lon="5.86882">
        <ele>812.9321289</ele>
        <time>2013-05-14T13:43:42Z</time>
      </trkpt>
      <trkpt lat="44.37706" lon="5.86899">
        <ele>811.9707031</ele>
        <time>2013-05-14T13:43:44Z</time>
      </trkpt>
      <trkpt lat="44.37689" lon="5.86919">
        <ele>810.5285645</ele>
        <time>2013-05-14T13:43:46Z</time>
      </trkpt>
      <trkpt lat="44.37659" lon="5.86936">
        <ele>806.2026367</ele>
        <time>2013-05-14T13:43:49Z</time>
      </trkpt>
      <trkpt lat="44.37648" lon="5.86939">
        <ele>805.722168</ele>
        <time>2013-05-14T13:43:50Z</time>
      </trkpt>
      <trkpt lat="44.37617" lon="5.86942">
        <ele>803.3188477</ele>
        <time>2013-05-14T13:43:53Z</time>
      </trkpt>
      <trkpt lat="44.37611" lon="5.86943">
        <ele>801.8769531</ele>
        <time>2013-05-14T13:43:54Z</time>
      </trkpt>
      <trkpt lat="44.37605" lon="5.86959">
        <ele>799.9543457</ele>
        <time>2013-05-14T13:44:00Z</time>
      </trkpt>
      <trkpt lat="44.37618" lon="5.86965">
        <ele>798.9929199</ele>
        <time>2013-05-14T13:44:03Z</time>
      </trkpt>
      <trkpt lat="44.37632" lon="5.8697">
        <ele>797.5510254</ele>
        <time>2013-05-14T13:44:05Z</time>
      </trkpt>
      <trkpt lat="44.37659" lon="5.87001">
        <ele>796.1091309</ele>
        <time>2013-05-14T13:44:09Z</time>
      </trkpt>
      <trkpt lat="44.37664" lon="5.87015">
        <ele>793.7055664</ele>
        <time>2013-05-14T13:44:10Z</time>
      </trkpt>
      <trkpt lat="44.37671" lon="5.87044">
        <ele>792.2636719</ele>
        <time>2013-05-14T13:44:12Z</time>
      </trkpt>
      <trkpt lat="44.37675" lon="5.87058">
        <ele>790.3410645</ele>
        <time>2013-05-14T13:44:13Z</time>
      </trkpt>
      <trkpt lat="44.37696" lon="5.87107">
        <ele>788.8991699</ele>
        <time>2013-05-14T13:44:17Z</time>
      </trkpt>
      <trkpt lat="44.37706" lon="5.87125">
        <ele>787.4570313</ele>
        <time>2013-05-14T13:44:19Z</time>
      </trkpt>
      <trkpt lat="44.37708" lon="5.87168">
        <ele>785.0539551</ele>
        <time>2013-05-14T13:44:23Z</time>
      </trkpt>
      <trkpt lat="44.3771" lon="5.8718">
        <ele>783.1311035</ele>
        <time>2013-05-14T13:44:24Z</time>
      </trkpt>
      <trkpt lat="44.37718" lon="5.87204">
        <ele>781.689209</ele>
        <time>2013-05-14T13:44:26Z</time>
      </trkpt>
      <trkpt lat="44.3773" lon="5.87223">
        <ele>779.2856445</ele>
        <time>2013-05-14T13:44:28Z</time>
      </trkpt>
      <trkpt lat="44.37738" lon="5.87243">
        <ele>777.84375</ele>
        <time>2013-05-14T13:44:30Z</time>
      </trkpt>
      <trkpt lat="44.37754" lon="5.87258">
        <ele>774.9599609</ele>
        <time>2013-05-14T13:44:33Z</time>
      </trkpt>
      <trkpt lat="44.37761" lon="5.8726">
        <ele>773.5180664</ele>
        <time>2013-05-14T13:44:34Z</time>
      </trkpt>
      <trkpt lat="44.3778" lon="5.87278">
        <ele>771.5952148</ele>
        <time>2013-05-14T13:44:38Z</time>
      </trkpt>
      <trkpt lat="44.37763" lon="5.87296">
        <ele>767.75</ele>
        <time>2013-05-14T13:44:43Z</time>
      </trkpt>
      <trkpt lat="44.37758" lon="5.873">
        <ele>767.75</ele>
        <time>2013-05-14T13:44:44Z</time>
      </trkpt>
      <trkpt lat="44.37751" lon="5.87305">
        <ele>766.3081055</ele>
        <time>2013-05-14T13:44:45Z</time>
      </trkpt>
      <trkpt lat="44.37726" lon="5.87318">
        <ele>762.4626465</ele>
        <time>2013-05-14T13:44:48Z</time>
      </trkpt>
      <trkpt lat="44.37718" lon="5.87323">
        <ele>762.4626465</ele>
        <time>2013-05-14T13:44:49Z</time>
      </trkpt>
      <trkpt lat="44.377" lon="5.8734">
        <ele>760.0593262</ele>
        <time>2013-05-14T13:44:51Z</time>
      </trkpt>
      <trkpt lat="44.37685" lon="5.87361">
        <ele>758.6174316</ele>
        <time>2013-05-14T13:44:53Z</time>
      </trkpt>
      <trkpt lat="44.37669" lon="5.87381">
        <ele>755.2529297</ele>
        <time>2013-05-14T13:44:55Z</time>
      </trkpt>
      <trkpt lat="44.37659" lon="5.87391">
        <ele>755.2529297</ele>
        <time>2013-05-14T13:44:56Z</time>
      </trkpt>
      <trkpt lat="44.37641" lon="5.87408">
        <ele>753.3303223</ele>
        <time>2013-05-14T13:44:58Z</time>
      </trkpt>
      <trkpt lat="44.37624" lon="5.87424">
        <ele>752.3688965</ele>
        <time>2013-05-14T13:45:00Z</time>
      </trkpt>
      <trkpt lat="44.37602" lon="5.87485">
        <ele>750.927002</ele>
        <time>2013-05-14T13:45:05Z</time>
      </trkpt>
      <trkpt lat="44.37603" lon="5.87513">
        <ele>748.0432129</ele>
        <time>2013-05-14T13:45:07Z</time>
      </trkpt>
      <trkpt lat="44.376" lon="5.87541">
        <ele>745.1589355</ele>
        <time>2013-05-14T13:45:09Z</time>
      </trkpt>
      <trkpt lat="44.37599" lon="5.87555">
        <ele>745.1589355</ele>
        <time>2013-05-14T13:45:10Z</time>
      </trkpt>
      <trkpt lat="44.3761" lon="5.87614">
        <ele>742.7558594</ele>
        <time>2013-05-14T13:45:14Z</time>
      </trkpt>
      <trkpt lat="44.37617" lon="5.87641">
        <ele>739.8718262</ele>
        <time>2013-05-14T13:45:16Z</time>
      </trkpt>
      <trkpt lat="44.37623" lon="5.87684">
        <ele>736.987793</ele>
        <time>2013-05-14T13:45:19Z</time>
      </trkpt>
      <trkpt lat="44.37625" lon="5.87746">
        <ele>734.1040039</ele>
        <time>2013-05-14T13:45:23Z</time>
      </trkpt>
      <trkpt lat="44.37625" lon="5.87778">
        <ele>730.7392578</ele>
        <time>2013-05-14T13:45:25Z</time>
      </trkpt>
      <trkpt lat="44.37636" lon="5.87824">
        <ele>728.3359375</ele>
        <time>2013-05-14T13:45:28Z</time>
      </trkpt>
      <trkpt lat="44.37643" lon="5.87856">
        <ele>726.894043</ele>
        <time>2013-05-14T13:45:30Z</time>
      </trkpt>
      <trkpt lat="44.37646" lon="5.87872">
        <ele>723.529541</ele>
        <time>2013-05-14T13:45:31Z</time>
      </trkpt>
      <trkpt lat="44.37653" lon="5.87903">
        <ele>721.1262207</ele>
        <time>2013-05-14T13:45:33Z</time>
      </trkpt>
      <trkpt lat="44.37658" lon="5.87935">
        <ele>719.2036133</ele>
        <time>2013-05-14T13:45:35Z</time>
      </trkpt>
      <trkpt lat="44.37659" lon="5.87952">
        <ele>717.7614746</ele>
        <time>2013-05-14T13:45:36Z</time>
      </trkpt>
      <trkpt lat="44.37655" lon="5.88005">
        <ele>714.3967285</ele>
        <time>2013-05-14T13:45:39Z</time>
      </trkpt>
      <trkpt lat="44.37654" lon="5.88024">
        <ele>714.3967285</ele>
        <time>2013-05-14T13:45:40Z</time>
      </trkpt>
      <trkpt lat="44.37653" lon="5.88042">
        <ele>710.5515137</ele>
        <time>2013-05-14T13:45:41Z</time>
      </trkpt>
      <trkpt lat="44.37651" lon="5.88062">
        <ele>710.5515137</ele>
        <time>2013-05-14T13:45:42Z</time>
      </trkpt>
      <trkpt lat="44.37648" lon="5.88098">
        <ele>708.1484375</ele>
        <time>2013-05-14T13:45:44Z</time>
      </trkpt>
      <trkpt lat="44.37645" lon="5.88135">
        <ele>705.2644043</ele>
        <time>2013-05-14T13:45:46Z</time>
      </trkpt>
      <trkpt lat="44.37644" lon="5.88153">
        <ele>705.2644043</ele>
        <time>2013-05-14T13:45:47Z</time>
      </trkpt>
      <trkpt lat="44.37641" lon="5.88189">
        <ele>702.861084</ele>
        <time>2013-05-14T13:45:49Z</time>
      </trkpt>
      <trkpt lat="44.3764" lon="5.88222">
        <ele>701.8999023</ele>
        <time>2013-05-14T13:45:51Z</time>
      </trkpt>
      <trkpt lat="44.37646" lon="5.88272">
        <ele>699.015625</ele>
        <time>2013-05-14T13:45:54Z</time>
      </trkpt>
      <trkpt lat="44.37652" lon="5.88304">
        <ele>696.6125488</ele>
        <time>2013-05-14T13:45:56Z</time>
      </trkpt>
      <trkpt lat="44.37664" lon="5.88371">
        <ele>692.767334</ele>
        <time>2013-05-14T13:46:00Z</time>
      </trkpt>
      <trkpt lat="44.37668" lon="5.88388">
        <ele>692.767334</ele>
        <time>2013-05-14T13:46:01Z</time>
      </trkpt>
      <trkpt lat="44.37681" lon="5.8842">
        <ele>690.3640137</ele>
        <time>2013-05-14T13:46:03Z</time>
      </trkpt>
      <trkpt lat="44.37704" lon="5.8848">
        <ele>687.9606934</ele>
        <time>2013-05-14T13:46:07Z</time>
      </trkpt>
      <trkpt lat="44.37687" lon="5.88539">
        <ele>687.4799805</ele>
        <time>2013-05-14T13:46:13Z</time>
      </trkpt>
      <trkpt lat="44.37659" lon="5.88604">
        <ele>683.6345215</ele>
        <time>2013-05-14T13:46:20Z</time>
      </trkpt>
      <trkpt lat="44.37641" lon="5.88645">
        <ele>681.2314453</ele>
        <time>2013-05-14T13:46:24Z</time>
      </trkpt>
      <trkpt lat="44.37633" lon="5.88666">
        <ele>679.7893066</ele>
        <time>2013-05-14T13:46:26Z</time>
      </trkpt>
      <trkpt lat="44.37624" lon="5.88687">
        <ele>678.3474121</ele>
        <time>2013-05-14T13:46:28Z</time>
      </trkpt>
      <trkpt lat="44.37583" lon="5.88782">
        <ele>675.4633789</ele>
        <time>2013-05-14T13:46:37Z</time>
      </trkpt>
      <trkpt lat="44.37578" lon="5.88792">
        <ele>675.4633789</ele>
        <time>2013-05-14T13:46:38Z</time>
      </trkpt>
      <trkpt lat="44.37505" lon="5.88869">
        <ele>674.5021973</ele>
        <time>2013-05-14T13:46:49Z</time>
      </trkpt>
      <trkpt lat="44.37474" lon="5.889">
        <ele>674.0214844</ele>
        <time>2013-05-14T13:46:54Z</time>
      </trkpt>
      <trkpt lat="44.37447" lon="5.8893">
        <ele>671.1376953</ele>
        <time>2013-05-14T13:46:59Z</time>
      </trkpt>
      <trkpt lat="44.37437" lon="5.88945">
        <ele>669.6958008</ele>
        <time>2013-05-14T13:47:01Z</time>
      </trkpt>
      <trkpt lat="44.37429" lon="5.88968">
        <ele>668.2536621</ele>
        <time>2013-05-14T13:47:03Z</time>
      </trkpt>
      <trkpt lat="44.37426" lon="5.88981">
        <ele>667.7727051</ele>
        <time>2013-05-14T13:47:04Z</time>
      </trkpt>
      <trkpt lat="44.37417" lon="5.8902">
        <ele>664.888916</ele>
        <time>2013-05-14T13:47:07Z</time>
      </trkpt>
      <trkpt lat="44.37417" lon="5.89073">
        <ele>663.4470215</ele>
        <time>2013-05-14T13:47:11Z</time>
      </trkpt>
      <trkpt lat="44.37436" lon="5.89118">
        <ele>662.005127</ele>
        <time>2013-05-14T13:47:15Z</time>
      </trkpt>
      <trkpt lat="44.37445" lon="5.89137">
        <ele>659.6018066</ele>
        <time>2013-05-14T13:47:17Z</time>
      </trkpt>
      <trkpt lat="44.37454" lon="5.89157">
        <ele>659.1210938</ele>
        <time>2013-05-14T13:47:19Z</time>
      </trkpt>
      <trkpt lat="44.37461" lon="5.89192">
        <ele>656.7177734</ele>
        <time>2013-05-14T13:47:22Z</time>
      </trkpt>
      <trkpt lat="44.37462" lon="5.89204">
        <ele>655.7565918</ele>
        <time>2013-05-14T13:47:23Z</time>
      </trkpt>
      <trkpt lat="44.37464" lon="5.89228">
        <ele>654.795166</ele>
        <time>2013-05-14T13:47:25Z</time>
      </trkpt>
      <trkpt lat="44.37457" lon="5.89273">
        <ele>652.8725586</ele>
        <time>2013-05-14T13:47:28Z</time>
      </trkpt>
      <trkpt lat="44.3745" lon="5.89302">
        <ele>649.9885254</ele>
        <time>2013-05-14T13:47:30Z</time>
      </trkpt>
      <trkpt lat="44.37445" lon="5.89349">
        <ele>647.1044922</ele>
        <time>2013-05-14T13:47:33Z</time>
      </trkpt>
      <trkpt lat="44.37443" lon="5.8938">
        <ele>645.1818848</ele>
        <time>2013-05-14T13:47:35Z</time>
      </trkpt>
      <trkpt lat="44.37442" lon="5.89413">
        <ele>641.8173828</ele>
        <time>2013-05-14T13:47:37Z</time>
      </trkpt>
      <trkpt lat="44.37441" lon="5.89427">
        <ele>641.8173828</ele>
        <time>2013-05-14T13:47:38Z</time>
      </trkpt>
      <trkpt lat="44.37439" lon="5.89441">
        <ele>640.3754883</ele>
        <time>2013-05-14T13:47:39Z</time>
      </trkpt>
      <trkpt lat="44.37426" lon="5.89477">
        <ele>638.4528809</ele>
        <time>2013-05-14T13:47:42Z</time>
      </trkpt>
      <trkpt lat="44.3742" lon="5.89486">
        <ele>637.0107422</ele>
        <time>2013-05-14T13:47:43Z</time>
      </trkpt>
      <trkpt lat="44.37406" lon="5.89506">
        <ele>636.0495605</ele>
        <time>2013-05-14T13:47:45Z</time>
      </trkpt>
      <trkpt lat="44.37399" lon="5.89535">
        <ele>634.126709</ele>
        <time>2013-05-14T13:47:47Z</time>
      </trkpt>
      <trkpt lat="44.37393" lon="5.89563">
        <ele>632.2041016</ele>
        <time>2013-05-14T13:47:49Z</time>
      </trkpt>
      <trkpt lat="44.37372" lon="5.89601">
        <ele>628.3588867</ele>
        <time>2013-05-14T13:47:52Z</time>
      </trkpt>
      <trkpt lat="44.37359" lon="5.89626">
        <ele>626.9169922</ele>
        <time>2013-05-14T13:47:54Z</time>
      </trkpt>
      <trkpt lat="44.37335" lon="5.89681">
        <ele>623.0717773</ele>
        <time>2013-05-14T13:47:58Z</time>
      </trkpt>
      <trkpt lat="44.3733" lon="5.89694">
        <ele>623.0717773</ele>
        <time>2013-05-14T13:47:59Z</time>
      </trkpt>
      <trkpt lat="44.37325" lon="5.89706">
        <ele>622.5910645</ele>
        <time>2013-05-14T13:48:00Z</time>
      </trkpt>
      <trkpt lat="44.37313" lon="5.89728">
        <ele>622.1103516</ele>
        <time>2013-05-14T13:48:02Z</time>
      </trkpt>
      <trkpt lat="44.37272" lon="5.8977">
        <ele>622.1103516</ele>
        <time>2013-05-14T13:48:08Z</time>
      </trkpt>
      <trkpt lat="44.37261" lon="5.8978">
        <ele>620.668457</ele>
        <time>2013-05-14T13:48:10Z</time>
      </trkpt>
      <trkpt lat="44.37238" lon="5.89812">
        <ele>618.2648926</ele>
        <time>2013-05-14T13:48:13Z</time>
      </trkpt>
      <trkpt lat="44.37229" lon="5.89839">
        <ele>617.3037109</ele>
        <time>2013-05-14T13:48:15Z</time>
      </trkpt>
      <trkpt lat="44.37222" lon="5.89865">
        <ele>615.8618164</ele>
        <time>2013-05-14T13:48:17Z</time>
      </trkpt>
      <trkpt lat="44.37197" lon="5.89951">
        <ele>616.822998</ele>
        <time>2013-05-14T13:48:27Z</time>
      </trkpt>
      <trkpt lat="44.37195" lon="5.89956">
        <ele>617.3037109</ele>
        <time>2013-05-14T13:48:28Z</time>
      </trkpt>
      <trkpt lat="44.37193" lon="5.89961">
        <ele>619.2263184</ele>
        <time>2013-05-14T13:48:41Z</time>
      </trkpt>
      <trkpt lat="44.37193" lon="5.89961">
        <ele>617.3037109</ele>
        <time>2013-05-14T13:49:13Z</time>
      </trkpt>
      <trkpt lat="44.37193" lon="5.89961">
        <ele>617.7841797</ele>
        <time>2013-05-14T13:49:26Z</time>
      </trkpt>
      <trkpt lat="44.37201" lon="5.89989">
        <ele>617.3037109</ele>
        <time>2013-05-14T13:49:32Z</time>
      </trkpt>
      <trkpt lat="44.37231" lon="5.90031">
        <ele>617.7841797</ele>
        <time>2013-05-14T13:49:45Z</time>
      </trkpt>
      <trkpt lat="44.37277" lon="5.90094">
        <ele>620.668457</ele>
        <time>2013-05-14T13:50:02Z</time>
      </trkpt>
      <trkpt lat="44.3732" lon="5.90149">
        <ele>622.5910645</ele>
        <time>2013-05-14T13:50:19Z</time>
      </trkpt>
      <trkpt lat="44.37344" lon="5.9018">
        <ele>623.5524902</ele>
        <time>2013-05-14T13:50:30Z</time>
      </trkpt>
      <trkpt lat="44.37368" lon="5.90211">
        <ele>624.5136719</ele>
        <time>2013-05-14T13:50:42Z</time>
      </trkpt>
      <trkpt lat="44.37381" lon="5.90228">
        <ele>624.5136719</ele>
        <time>2013-05-14T13:50:47Z</time>
      </trkpt>
      <trkpt lat="44.37423" lon="5.90284">
        <ele>625.9555664</ele>
        <time>2013-05-14T13:51:02Z</time>
      </trkpt>
      <trkpt lat="44.37462" lon="5.90334">
        <ele>627.3977051</ele>
        <time>2013-05-14T13:51:17Z</time>
      </trkpt>
      <trkpt lat="44.37512" lon="5.90395">
        <ele>627.8781738</ele>
        <time>2013-05-14T13:51:34Z</time>
      </trkpt>
      <trkpt lat="44.3755" lon="5.90443">
        <ele>628.8395996</ele>
        <time>2013-05-14T13:51:47Z</time>
      </trkpt>
      <trkpt lat="44.37612" lon="5.90485">
        <ele>626.9169922</ele>
        <time>2013-05-14T13:52:00Z</time>
      </trkpt>
      <trkpt lat="44.37667" lon="5.90522">
        <ele>627.3977051</ele>
        <time>2013-05-14T13:52:10Z</time>
      </trkpt>
      <trkpt lat="44.37703" lon="5.90554">
        <ele>626.4362793</ele>
        <time>2013-05-14T13:52:17Z</time>
      </trkpt>
      <trkpt lat="44.37763" lon="5.90638">
        <ele>625.9555664</ele>
        <time>2013-05-14T13:52:32Z</time>
      </trkpt>
      <trkpt lat="44.37768" lon="5.90643">
        <ele>626.9169922</ele>
        <time>2013-05-14T13:52:33Z</time>
      </trkpt>
      <trkpt lat="44.37807" lon="5.90682">
        <ele>625.4748535</ele>
        <time>2013-05-14T13:52:41Z</time>
      </trkpt>
      <trkpt lat="44.37846" lon="5.9072">
        <ele>624.9943848</ele>
        <time>2013-05-14T13:52:49Z</time>
      </trkpt>
      <trkpt lat="44.37862" lon="5.90735">
        <ele>624.032959</ele>
        <time>2013-05-14T13:52:52Z</time>
      </trkpt>
      <trkpt lat="44.37902" lon="5.90774">
        <ele>624.9943848</ele>
        <time>2013-05-14T13:53:00Z</time>
      </trkpt>
      <trkpt lat="44.37957" lon="5.90866">
        <ele>623.0717773</ele>
        <time>2013-05-14T13:53:14Z</time>
      </trkpt>
      <trkpt lat="44.37998" lon="5.9096">
        <ele>622.5910645</ele>
        <time>2013-05-14T13:53:26Z</time>
      </trkpt>
      <trkpt lat="44.38033" lon="5.91039">
        <ele>623.5524902</ele>
        <time>2013-05-14T13:53:37Z</time>
      </trkpt>
      <trkpt lat="44.38077" lon="5.91147">
        <ele>623.0717773</ele>
        <time>2013-05-14T13:53:52Z</time>
      </trkpt>
      <trkpt lat="44.38126" lon="5.91268">
        <ele>622.5910645</ele>
        <time>2013-05-14T13:54:08Z</time>
      </trkpt>
      <trkpt lat="44.38173" lon="5.91379">
        <ele>622.1103516</ele>
        <time>2013-05-14T13:54:23Z</time>
      </trkpt>
      <trkpt lat="44.3822" lon="5.91465">
        <ele>621.6296387</ele>
        <time>2013-05-14T13:54:36Z</time>
      </trkpt>
      <trkpt lat="44.38261" lon="5.91541">
        <ele>623.0717773</ele>
        <time>2013-05-14T13:54:48Z</time>
      </trkpt>
      <trkpt lat="44.38264" lon="5.91547">
        <ele>623.0717773</ele>
        <time>2013-05-14T13:54:49Z</time>
      </trkpt>
      <trkpt lat="44.38304" lon="5.91622">
        <ele>621.6296387</ele>
        <time>2013-05-14T13:55:01Z</time>
      </trkpt>
      <trkpt lat="44.38319" lon="5.9165">
        <ele>622.5910645</ele>
        <time>2013-05-14T13:55:05Z</time>
      </trkpt>
      <trkpt lat="44.38355" lon="5.91715">
        <ele>621.1491699</ele>
        <time>2013-05-14T13:55:14Z</time>
      </trkpt>
      <trkpt lat="44.38366" lon="5.91736">
        <ele>620.1877441</ele>
        <time>2013-05-14T13:55:17Z</time>
      </trkpt>
      <trkpt lat="44.38424" lon="5.91843">
        <ele>619.2263184</ele>
        <time>2013-05-14T13:55:32Z</time>
      </trkpt>
      <trkpt lat="44.38502" lon="5.91991">
        <ele>617.3037109</ele>
        <time>2013-05-14T13:55:49Z</time>
      </trkpt>
      <trkpt lat="44.38517" lon="5.92019">
        <ele>616.3422852</ele>
        <time>2013-05-14T13:55:52Z</time>
      </trkpt>
      <trkpt lat="44.38575" lon="5.9213">
        <ele>614.9003906</ele>
        <time>2013-05-14T13:56:04Z</time>
      </trkpt>
      <trkpt lat="44.38604" lon="5.92239">
        <ele>617.7841797</ele>
        <time>2013-05-14T13:56:16Z</time>
      </trkpt>
      <trkpt lat="44.38613" lon="5.92264">
        <ele>618.2648926</ele>
        <time>2013-05-14T13:56:20Z</time>
      </trkpt>
      <trkpt lat="44.38634" lon="5.92317">
        <ele>619.7070313</ele>
        <time>2013-05-14T13:56:30Z</time>
      </trkpt>
      <trkpt lat="44.38638" lon="5.92333">
        <ele>619.7070313</ele>
        <time>2013-05-14T13:56:33Z</time>
      </trkpt>
      <trkpt lat="44.38642" lon="5.92343">
        <ele>619.2263184</ele>
        <time>2013-05-14T13:56:35Z</time>
      </trkpt>
      <trkpt lat="44.38652" lon="5.92378">
        <ele>619.7070313</ele>
        <time>2013-05-14T13:56:41Z</time>
      </trkpt>
      <trkpt lat="44.38656" lon="5.92404">
        <ele>619.7070313</ele>
        <time>2013-05-14T13:56:45Z</time>
      </trkpt>
      <trkpt lat="44.38659" lon="5.92498">
        <ele>618.7456055</ele>
        <time>2013-05-14T13:56:58Z</time>
      </trkpt>
      <trkpt lat="44.38659" lon="5.92506">
        <ele>618.2648926</ele>
        <time>2013-05-14T13:56:59Z</time>
      </trkpt>
      <trkpt lat="44.38664" lon="5.92545">
        <ele>617.7841797</ele>
        <time>2013-05-14T13:57:04Z</time>
      </trkpt>
      <trkpt lat="44.38672" lon="5.92577">
        <ele>615.8618164</ele>
        <time>2013-05-14T13:57:08Z</time>
      </trkpt>
      <trkpt lat="44.38684" lon="5.92627">
        <ele>612.9777832</ele>
        <time>2013-05-14T13:57:13Z</time>
      </trkpt>
      <trkpt lat="44.38689" lon="5.92648">
        <ele>612.0166016</ele>
        <time>2013-05-14T13:57:15Z</time>
      </trkpt>
      <trkpt lat="44.387" lon="5.92707">
        <ele>609.6132813</ele>
        <time>2013-05-14T13:57:20Z</time>
      </trkpt>
      <trkpt lat="44.38693" lon="5.92754">
        <ele>610.09375</ele>
        <time>2013-05-14T13:57:24Z</time>
      </trkpt>
      <trkpt lat="44.38685" lon="5.92797">
        <ele>610.09375</ele>
        <time>2013-05-14T13:57:28Z</time>
      </trkpt>
      <trkpt lat="44.38683" lon="5.92882">
        <ele>608.6518555</ele>
        <time>2013-05-14T13:57:36Z</time>
      </trkpt>
      <trkpt lat="44.38665" lon="5.92981">
        <ele>607.6906738</ele>
        <time>2013-05-14T13:57:46Z</time>
      </trkpt>
      <trkpt lat="44.38678" lon="5.93096">
        <ele>606.729248</ele>
        <time>2013-05-14T13:57:57Z</time>
      </trkpt>
      <trkpt lat="44.38693" lon="5.93167">
        <ele>605.7680664</ele>
        <time>2013-05-14T13:58:04Z</time>
      </trkpt>
      <trkpt lat="44.38723" lon="5.93282">
        <ele>602.8837891</ele>
        <time>2013-05-14T13:58:16Z</time>
      </trkpt>
      <trkpt lat="44.38725" lon="5.93329">
        <ele>600.9611816</ele>
        <time>2013-05-14T13:58:20Z</time>
      </trkpt>
      <trkpt lat="44.3872" lon="5.93419">
        <ele>598.5578613</ele>
        <time>2013-05-14T13:58:28Z</time>
      </trkpt>
      <trkpt lat="44.38718" lon="5.93431">
        <ele>598.5578613</ele>
        <time>2013-05-14T13:58:29Z</time>
      </trkpt>
      <trkpt lat="44.38713" lon="5.93505">
        <ele>593.7514648</ele>
        <time>2013-05-14T13:58:35Z</time>
      </trkpt>
      <trkpt lat="44.38713" lon="5.93517">
        <ele>593.7514648</ele>
        <time>2013-05-14T13:58:36Z</time>
      </trkpt>
      <trkpt lat="44.38711" lon="5.93542">
        <ele>592.3095703</ele>
        <time>2013-05-14T13:58:38Z</time>
      </trkpt>
      <trkpt lat="44.3871" lon="5.93562">
        <ele>594.2321777</ele>
        <time>2013-05-14T13:58:40Z</time>
      </trkpt>
      <trkpt lat="44.38709" lon="5.93578">
        <ele>595.1933594</ele>
        <time>2013-05-14T13:58:42Z</time>
      </trkpt>
      <trkpt lat="44.38709" lon="5.93583">
        <ele>595.1933594</ele>
        <time>2013-05-14T13:58:43Z</time>
      </trkpt>
      <trkpt lat="44.38752" lon="5.9363">
        <ele>595.6740723</ele>
        <time>2013-05-14T13:58:53Z</time>
      </trkpt>
      <trkpt lat="44.38777" lon="5.93652">
        <ele>594.2321777</ele>
        <time>2013-05-14T13:58:57Z</time>
      </trkpt>
      <trkpt lat="44.38789" lon="5.93663">
        <ele>593.7514648</ele>
        <time>2013-05-14T13:58:59Z</time>
      </trkpt>
      <trkpt lat="44.38806" lon="5.93678">
        <ele>593.270752</ele>
        <time>2013-05-14T13:59:02Z</time>
      </trkpt>
      <trkpt lat="44.38826" lon="5.93694">
        <ele>593.270752</ele>
        <time>2013-05-14T13:59:05Z</time>
      </trkpt>
      <trkpt lat="44.38908" lon="5.93762">
        <ele>593.270752</ele>
        <time>2013-05-14T13:59:19Z</time>
      </trkpt>
      <trkpt lat="44.38928" lon="5.93779">
        <ele>593.270752</ele>
        <time>2013-05-14T13:59:23Z</time>
      </trkpt>
      <trkpt lat="44.38998" lon="5.93836">
        <ele>593.7514648</ele>
        <time>2013-05-14T13:59:37Z</time>
      </trkpt>
      <trkpt lat="44.39059" lon="5.93886">
        <ele>595.6740723</ele>
        <time>2013-05-14T13:59:49Z</time>
      </trkpt>
      <trkpt lat="44.39064" lon="5.93891">
        <ele>595.6740723</ele>
        <time>2013-05-14T13:59:50Z</time>
      </trkpt>
      <trkpt lat="44.39074" lon="5.93899">
        <ele>594.2321777</ele>
        <time>2013-05-14T13:59:52Z</time>
      </trkpt>
      <trkpt lat="44.39181" lon="5.93992">
        <ele>593.270752</ele>
        <time>2013-05-14T14:00:10Z</time>
      </trkpt>
      <trkpt lat="44.39296" lon="5.9409">
        <ele>593.270752</ele>
        <time>2013-05-14T14:00:29Z</time>
      </trkpt>
      <trkpt lat="44.39374" lon="5.94151">
        <ele>594.7126465</ele>
        <time>2013-05-14T14:00:43Z</time>
      </trkpt>
      <trkpt lat="44.39391" lon="5.94164">
        <ele>595.6740723</ele>
        <time>2013-05-14T14:00:47Z</time>
      </trkpt>
      <trkpt lat="44.39454" lon="5.94221">
        <ele>593.7514648</ele>
        <time>2013-05-14T14:01:00Z</time>
      </trkpt>
      <trkpt lat="44.39494" lon="5.94254">
        <ele>593.7514648</ele>
        <time>2013-05-14T14:01:08Z</time>
      </trkpt>
      <trkpt lat="44.39508" lon="5.94266">
        <ele>593.7514648</ele>
        <time>2013-05-14T14:01:11Z</time>
      </trkpt>
      <trkpt lat="44.39532" lon="5.94286">
        <ele>594.2321777</ele>
        <time>2013-05-14T14:01:15Z</time>
      </trkpt>
      <trkpt lat="44.39552" lon="5.94303">
        <ele>593.7514648</ele>
        <time>2013-05-14T14:01:19Z</time>
      </trkpt>
      <trkpt lat="44.39568" lon="5.94317">
        <ele>593.270752</ele>
        <time>2013-05-14T14:01:22Z</time>
      </trkpt>
      <trkpt lat="44.39654" lon="5.94382">
        <ele>595.6740723</ele>
        <time>2013-05-14T14:01:37Z</time>
      </trkpt>
      <trkpt lat="44.3966" lon="5.94385">
        <ele>595.6740723</ele>
        <time>2013-05-14T14:01:38Z</time>
      </trkpt>
      <trkpt lat="44.39688" lon="5.94403">
        <ele>597.5966797</ele>
        <time>2013-05-14T14:01:44Z</time>
      </trkpt>
      <trkpt lat="44.39709" lon="5.94415">
        <ele>598.5578613</ele>
        <time>2013-05-14T14:01:49Z</time>
      </trkpt>
      <trkpt lat="44.39758" lon="5.94445">
        <ele>601.9226074</ele>
        <time>2013-05-14T14:02:01Z</time>
      </trkpt>
      <trkpt lat="44.39778" lon="5.94455">
        <ele>602.4030762</ele>
        <time>2013-05-14T14:02:05Z</time>
      </trkpt>
      <trkpt lat="44.39812" lon="5.94484">
        <ele>605.2873535</ele>
        <time>2013-05-14T14:02:14Z</time>
      </trkpt>
      <trkpt lat="44.39831" lon="5.94503">
        <ele>606.729248</ele>
        <time>2013-05-14T14:02:19Z</time>
      </trkpt>
      <trkpt lat="44.39853" lon="5.94523">
        <ele>607.2099609</ele>
        <time>2013-05-14T14:02:23Z</time>
      </trkpt>
      <trkpt lat="44.39869" lon="5.94539">
        <ele>608.1713867</ele>
        <time>2013-05-14T14:02:27Z</time>
      </trkpt>
      <trkpt lat="44.39934" lon="5.94584">
        <ele>612.0166016</ele>
        <time>2013-05-14T14:02:42Z</time>
      </trkpt>
      <trkpt lat="44.39957" lon="5.94595">
        <ele>613.4584961</ele>
        <time>2013-05-14T14:02:47Z</time>
      </trkpt>
      <trkpt lat="44.40027" lon="5.94627">
        <ele>614.9003906</ele>
        <time>2013-05-14T14:03:04Z</time>
      </trkpt>
      <trkpt lat="44.40122" lon="5.94678">
        <ele>614.4196777</ele>
        <time>2013-05-14T14:03:24Z</time>
      </trkpt>
      <trkpt lat="44.40126" lon="5.94681">
        <ele>614.4196777</ele>
        <time>2013-05-14T14:03:25Z</time>
      </trkpt>
      <trkpt lat="44.4022" lon="5.94765">
        <ele>613.9389648</ele>
        <time>2013-05-14T14:03:46Z</time>
      </trkpt>
      <trkpt lat="44.40274" lon="5.94851">
        <ele>613.9389648</ele>
        <time>2013-05-14T14:04:01Z</time>
      </trkpt>
      <trkpt lat="44.40292" lon="5.94888">
        <ele>615.8618164</ele>
        <time>2013-05-14T14:04:07Z</time>
      </trkpt>
      <trkpt lat="44.40298" lon="5.94901">
        <ele>614.4196777</ele>
        <time>2013-05-14T14:04:09Z</time>
      </trkpt>
      <trkpt lat="44.40335" lon="5.94985">
        <ele>612.0166016</ele>
        <time>2013-05-14T14:04:22Z</time>
      </trkpt>
      <trkpt lat="44.40359" lon="5.94994">
        <ele>612.0166016</ele>
        <time>2013-05-14T14:04:27Z</time>
      </trkpt>
      <trkpt lat="44.40407" lon="5.9504">
        <ele>613.4584961</ele>
        <time>2013-05-14T14:04:38Z</time>
      </trkpt>
      <trkpt lat="44.40464" lon="5.95074">
        <ele>615.8618164</ele>
        <time>2013-05-14T14:04:51Z</time>
      </trkpt>
      <trkpt lat="44.40487" lon="5.95083">
        <ele>617.3037109</ele>
        <time>2013-05-14T14:04:56Z</time>
      </trkpt>
      <trkpt lat="44.40495" lon="5.95083">
        <ele>618.2648926</ele>
        <time>2013-05-14T14:04:58Z</time>
      </trkpt>
      <trkpt lat="44.40539" lon="5.95074">
        <ele>621.1491699</ele>
        <time>2013-05-14T14:05:08Z</time>
      </trkpt>
      <trkpt lat="44.40582" lon="5.95069">
        <ele>624.5136719</ele>
        <time>2013-05-14T14:05:18Z</time>
      </trkpt>
      <trkpt lat="44.40587" lon="5.95069">
        <ele>624.5136719</ele>
        <time>2013-05-14T14:05:19Z</time>
      </trkpt>
      <trkpt lat="44.40639" lon="5.95055">
        <ele>627.8781738</ele>
        <time>2013-05-14T14:05:31Z</time>
      </trkpt>
      <trkpt lat="44.40682" lon="5.95042">
        <ele>630.2814941</ele>
        <time>2013-05-14T14:05:42Z</time>
      </trkpt>
      <trkpt lat="44.40691" lon="5.95041">
        <ele>629.8007813</ele>
        <time>2013-05-14T14:05:44Z</time>
      </trkpt>
      <trkpt lat="44.40765" lon="5.95033">
        <ele>628.8395996</ele>
        <time>2013-05-14T14:06:00Z</time>
      </trkpt>
      <trkpt lat="44.40794" lon="5.95032">
        <ele>627.8781738</ele>
        <time>2013-05-14T14:06:05Z</time>
      </trkpt>
      <trkpt lat="44.40827" lon="5.95037">
        <ele>625.9555664</ele>
        <time>2013-05-14T14:06:10Z</time>
      </trkpt>
      <trkpt lat="44.40854" lon="5.95041">
        <ele>626.9169922</ele>
        <time>2013-05-14T14:06:14Z</time>
      </trkpt>
      <trkpt lat="44.40891" lon="5.95026">
        <ele>626.9169922</ele>
        <time>2013-05-14T14:06:21Z</time>
      </trkpt>
      <trkpt lat="44.40917" lon="5.95011">
        <ele>629.3200684</ele>
        <time>2013-05-14T14:06:27Z</time>
      </trkpt>
      <trkpt lat="44.40938" lon="5.95017">
        <ele>631.2429199</ele>
        <time>2013-05-14T14:06:32Z</time>
      </trkpt>
      <trkpt lat="44.4095" lon="5.95027">
        <ele>631.7233887</ele>
        <time>2013-05-14T14:06:35Z</time>
      </trkpt>
      <trkpt lat="44.4097" lon="5.95042">
        <ele>633.1652832</ele>
        <time>2013-05-14T14:06:40Z</time>
      </trkpt>
      <trkpt lat="44.41014" lon="5.95065">
        <ele>636.5302734</ele>
        <time>2013-05-14T14:06:50Z</time>
      </trkpt>
      <trkpt lat="44.4106" lon="5.9508">
        <ele>640.3754883</ele>
        <time>2013-05-14T14:07:01Z</time>
      </trkpt>
      <trkpt lat="44.41098" lon="5.95089">
        <ele>644.2207031</ele>
        <time>2013-05-14T14:07:11Z</time>
      </trkpt>
      <trkpt lat="44.41119" lon="5.95083">
        <ele>645.6625977</ele>
        <time>2013-05-14T14:07:16Z</time>
      </trkpt>
      <trkpt lat="44.41152" lon="5.95075">
        <ele>649.0270996</ele>
        <time>2013-05-14T14:07:24Z</time>
      </trkpt>
      <trkpt lat="44.41188" lon="5.95069">
        <ele>652.3918457</ele>
        <time>2013-05-14T14:07:34Z</time>
      </trkpt>
      <trkpt lat="44.41223" lon="5.95065">
        <ele>653.8339844</ele>
        <time>2013-05-14T14:07:48Z</time>
      </trkpt>
      <trkpt lat="44.4127" lon="5.95051">
        <ele>652.8725586</ele>
        <time>2013-05-14T14:08:04Z</time>
      </trkpt>
      <trkpt lat="44.41311" lon="5.95034">
        <ele>652.8725586</ele>
        <time>2013-05-14T14:08:14Z</time>
      </trkpt>
      <trkpt lat="44.41332" lon="5.95025">
        <ele>652.3918457</ele>
        <time>2013-05-14T14:08:19Z</time>
      </trkpt>
      <trkpt lat="44.41367" lon="5.95013">
        <ele>652.3918457</ele>
        <time>2013-05-14T14:08:26Z</time>
      </trkpt>
      <trkpt lat="44.41453" lon="5.9502">
        <ele>648.5463867</ele>
        <time>2013-05-14T14:08:42Z</time>
      </trkpt>
      <trkpt lat="44.41458" lon="5.95021">
        <ele>649.0270996</ele>
        <time>2013-05-14T14:08:44Z</time>
      </trkpt>
      <trkpt lat="44.41456" lon="5.95033">
        <ele>647.5852051</ele>
        <time>2013-05-14T14:08:49Z</time>
      </trkpt>
      <trkpt lat="44.41451" lon="5.95042">
        <ele>646.1433105</ele>
        <time>2013-05-14T14:08:51Z</time>
      </trkpt>
      <trkpt lat="44.41443" lon="5.9506">
        <ele>646.1433105</ele>
        <time>2013-05-14T14:08:54Z</time>
      </trkpt>
      <trkpt lat="44.41428" lon="5.95081">
        <ele>643.7399902</ele>
        <time>2013-05-14T14:08:58Z</time>
      </trkpt>
      <trkpt lat="44.41417" lon="5.95089">
        <ele>642.7788086</ele>
        <time>2013-05-14T14:09:00Z</time>
      </trkpt>
      <trkpt lat="44.41388" lon="5.95116">
        <ele>643.2592773</ele>
        <time>2013-05-14T14:09:06Z</time>
      </trkpt>
      <trkpt lat="44.41352" lon="5.9518">
        <ele>639.4140625</ele>
        <time>2013-05-14T14:09:18Z</time>
      </trkpt>
      <trkpt lat="44.41345" lon="5.95194">
        <ele>638.4528809</ele>
        <time>2013-05-14T14:09:20Z</time>
      </trkpt>
      <trkpt lat="44.41334" lon="5.95217">
        <ele>636.5302734</ele>
        <time>2013-05-14T14:09:23Z</time>
      </trkpt>
      <trkpt lat="44.41315" lon="5.95237">
        <ele>633.6459961</ele>
        <time>2013-05-14T14:09:26Z</time>
      </trkpt>
      <trkpt lat="44.41299" lon="5.95267">
        <ele>634.6074219</ele>
        <time>2013-05-14T14:09:30Z</time>
      </trkpt>
      <trkpt lat="44.41281" lon="5.95331">
        <ele>633.6459961</ele>
        <time>2013-05-14T14:09:39Z</time>
      </trkpt>
      <trkpt lat="44.4127" lon="5.9532">
        <ele>633.1652832</ele>
        <time>2013-05-14T14:09:50Z</time>
      </trkpt>
      <trkpt lat="44.4127" lon="5.9532">
        <ele>633.6459961</ele>
        <time>2013-05-14T14:10:10Z</time>
      </trkpt>
      <trkpt lat="44.4127" lon="5.9532">
        <ele>630.762207</ele>
        <time>2013-05-14T14:11:55Z</time>
      </trkpt>
      <trkpt lat="44.4127" lon="5.9532">
        <ele>628.8395996</ele>
        <time>2013-05-14T14:17:03Z</time>
      </trkpt>
      <trkpt lat="44.4127" lon="5.9532">
        <ele>627.8781738</ele>
        <time>2013-05-14T14:20:44Z</time>
      </trkpt>
      <trkpt lat="44.4127" lon="5.9532">
        <ele>627.8781738</ele>
        <time>2013-05-14T14:20:58Z</time>
      </trkpt>
      <trkpt lat="44.4127" lon="5.9532">
        <ele>628.3588867</ele>
        <time>2013-05-14T14:21:28Z</time>
      </trkpt>
      <trkpt lat="44.4127" lon="5.9532">
        <ele>626.9169922</ele>
        <time>2013-05-14T14:21:57Z</time>
      </trkpt>
      <trkpt lat="44.4127" lon="5.9532">
        <ele>626.9169922</ele>
        <time>2013-05-14T14:22:24Z</time>
      </trkpt>
      <trkpt lat="44.4127" lon="5.9532">
        <ele>626.4362793</ele>
        <time>2013-05-14T14:23:24Z</time>
      </trkpt>
      <trkpt lat="44.4127" lon="5.9532">
        <ele>626.9169922</ele>
        <time>2013-05-14T14:23:47Z</time>
      </trkpt>
      <trkpt lat="44.4127" lon="5.9532">
        <ele>625.9555664</ele>
        <time>2013-05-14T14:24:05Z</time>
      </trkpt>
      <trkpt lat="44.4127" lon="5.9532">
        <ele>625.9555664</ele>
        <time>2013-05-14T14:25:16Z</time>
      </trkpt>
      <trkpt lat="44.4127" lon="5.9532">
        <ele>626.4362793</ele>
        <time>2013-05-14T14:25:41Z</time>
      </trkpt>
      <trkpt lat="44.4127" lon="5.9532">
        <ele>626.4362793</ele>
        <time>2013-05-14T14:26:03Z</time>
      </trkpt>
      <trkpt lat="44.4127" lon="5.9532">
        <ele>625.9555664</ele>
        <time>2013-05-14T14:26:39Z</time>
      </trkpt>
      <trkpt lat="44.41288" lon="5.95306">
        <ele>624.9943848</ele>
        <time>2013-05-14T14:26:45Z</time>
      </trkpt>
      <trkpt lat="44.41311" lon="5.95308">
        <ele>622.5910645</ele>
        <time>2013-05-14T14:26:52Z</time>
      </trkpt>
      <trkpt lat="44.41306" lon="5.95317">
        <ele>622.1103516</ele>
        <time>2013-05-14T14:26:54Z</time>
      </trkpt>
      <trkpt lat="44.413" lon="5.9533">
        <ele>620.1877441</ele>
        <time>2013-05-14T14:26:56Z</time>
      </trkpt>
      <trkpt lat="44.41292" lon="5.95369">
        <ele>618.2648926</ele>
        <time>2013-05-14T14:27:01Z</time>
      </trkpt>
      <trkpt lat="44.41291" lon="5.95388">
        <ele>614.4196777</ele>
        <time>2013-05-14T14:27:03Z</time>
      </trkpt>
      <trkpt lat="44.4129" lon="5.954">
        <ele>614.4196777</ele>
        <time>2013-05-14T14:27:04Z</time>
      </trkpt>
      <trkpt lat="44.41286" lon="5.95422">
        <ele>613.9389648</ele>
        <time>2013-05-14T14:27:06Z</time>
      </trkpt>
      <trkpt lat="44.41283" lon="5.95469">
        <ele>610.5744629</ele>
        <time>2013-05-14T14:27:10Z</time>
      </trkpt>
      <trkpt lat="44.41283" lon="5.95479">
        <ele>610.5744629</ele>
        <time>2013-05-14T14:27:11Z</time>
      </trkpt>
      <trkpt lat="44.41283" lon="5.95495">
        <ele>610.09375</ele>
        <time>2013-05-14T14:27:13Z</time>
      </trkpt>
      <trkpt lat="44.41281" lon="5.95511">
        <ele>610.09375</ele>
        <time>2013-05-14T14:27:16Z</time>
      </trkpt>
      <trkpt lat="44.41295" lon="5.95524">
        <ele>608.6518555</ele>
        <time>2013-05-14T14:27:21Z</time>
      </trkpt>
      <trkpt lat="44.41323" lon="5.95529">
        <ele>605.7680664</ele>
        <time>2013-05-14T14:27:26Z</time>
      </trkpt>
      <trkpt lat="44.4133" lon="5.95531">
        <ele>605.7680664</ele>
        <time>2013-05-14T14:27:27Z</time>
      </trkpt>
      <trkpt lat="44.41375" lon="5.95541">
        <ele>604.3261719</ele>
        <time>2013-05-14T14:27:34Z</time>
      </trkpt>
      <trkpt lat="44.41389" lon="5.95561">
        <ele>604.3261719</ele>
        <time>2013-05-14T14:27:38Z</time>
      </trkpt>
      <trkpt lat="44.41392" lon="5.95573">
        <ele>605.7680664</ele>
        <time>2013-05-14T14:27:40Z</time>
      </trkpt>
      <trkpt lat="44.41402" lon="5.95598">
        <ele>606.2485352</ele>
        <time>2013-05-14T14:27:44Z</time>
      </trkpt>
      <trkpt lat="44.41463" lon="5.95656">
        <ele>608.6518555</ele>
        <time>2013-05-14T14:28:03Z</time>
      </trkpt>
      <trkpt lat="44.41494" lon="5.95653">
        <ele>610.09375</ele>
        <time>2013-05-14T14:28:13Z</time>
      </trkpt>
      <trkpt lat="44.41547" lon="5.95648">
        <ele>613.4584961</ele>
        <time>2013-05-14T14:28:26Z</time>
      </trkpt>
      <trkpt lat="44.41593" lon="5.95647">
        <ele>616.822998</ele>
        <time>2013-05-14T14:28:37Z</time>
      </trkpt>
      <trkpt lat="44.41597" lon="5.95649">
        <ele>616.822998</ele>
        <time>2013-05-14T14:28:38Z</time>
      </trkpt>
      <trkpt lat="44.41608" lon="5.95654">
        <ele>616.822998</ele>
        <time>2013-05-14T14:28:41Z</time>
      </trkpt>
      <trkpt lat="44.41622" lon="5.95659">
        <ele>616.822998</ele>
        <time>2013-05-14T14:28:44Z</time>
      </trkpt>
      <trkpt lat="44.41648" lon="5.95653">
        <ele>618.2648926</ele>
        <time>2013-05-14T14:28:50Z</time>
      </trkpt>
      <trkpt lat="44.41678" lon="5.95674">
        <ele>618.2648926</ele>
        <time>2013-05-14T14:28:57Z</time>
      </trkpt>
      <trkpt lat="44.41686" lon="5.95683">
        <ele>618.7456055</ele>
        <time>2013-05-14T14:28:59Z</time>
      </trkpt>
      <trkpt lat="44.41696" lon="5.95687">
        <ele>619.7070313</ele>
        <time>2013-05-14T14:29:01Z</time>
      </trkpt>
      <trkpt lat="44.41716" lon="5.95689">
        <ele>620.1877441</ele>
        <time>2013-05-14T14:29:05Z</time>
      </trkpt>
      <trkpt lat="44.4173" lon="5.95684">
        <ele>619.7070313</ele>
        <time>2013-05-14T14:29:08Z</time>
      </trkpt>
      <trkpt lat="44.41757" lon="5.95711">
        <ele>619.7070313</ele>
        <time>2013-05-14T14:29:15Z</time>
      </trkpt>
      <trkpt lat="44.41762" lon="5.95721">
        <ele>620.1877441</ele>
        <time>2013-05-14T14:29:17Z</time>
      </trkpt>
      <trkpt lat="44.41772" lon="5.95732">
        <ele>620.1877441</ele>
        <time>2013-05-14T14:29:21Z</time>
      </trkpt>
      <trkpt lat="44.41812" lon="5.95727">
        <ele>620.668457</ele>
        <time>2013-05-14T14:29:34Z</time>
      </trkpt>
      <trkpt lat="44.4182" lon="5.95731">
        <ele>621.1491699</ele>
        <time>2013-05-14T14:29:36Z</time>
      </trkpt>
      <trkpt lat="44.41862" lon="5.95765">
        <ele>622.1103516</ele>
        <time>2013-05-14T14:29:49Z</time>
      </trkpt>
      <trkpt lat="44.41869" lon="5.95768">
        <ele>621.6296387</ele>
        <time>2013-05-14T14:29:51Z</time>
      </trkpt>
      <trkpt lat="44.41913" lon="5.95802">
        <ele>622.5910645</ele>
        <time>2013-05-14T14:30:04Z</time>
      </trkpt>
      <trkpt lat="44.41923" lon="5.95815">
        <ele>622.5910645</ele>
        <time>2013-05-14T14:30:07Z</time>
      </trkpt>
      <trkpt lat="44.41937" lon="5.95835">
        <ele>623.0717773</ele>
        <time>2013-05-14T14:30:12Z</time>
      </trkpt>
      <trkpt lat="44.41953" lon="5.9585">
        <ele>623.5524902</ele>
        <time>2013-05-14T14:30:17Z</time>
      </trkpt>
      <trkpt lat="44.42" lon="5.95862">
        <ele>624.032959</ele>
        <time>2013-05-14T14:30:29Z</time>
      </trkpt>
      <trkpt lat="44.42019" lon="5.95867">
        <ele>624.9943848</ele>
        <time>2013-05-14T14:30:35Z</time>
      </trkpt>
      <trkpt lat="44.42055" lon="5.9588">
        <ele>626.9169922</ele>
        <time>2013-05-14T14:30:46Z</time>
      </trkpt>
      <trkpt lat="44.42078" lon="5.95886">
        <ele>629.8007813</ele>
        <time>2013-05-14T14:30:53Z</time>
      </trkpt>
      <trkpt lat="44.42113" lon="5.9587">
        <ele>633.1652832</ele>
        <time>2013-05-14T14:31:04Z</time>
      </trkpt>
      <trkpt lat="44.42148" lon="5.9584">
        <ele>636.5302734</ele>
        <time>2013-05-14T14:31:14Z</time>
      </trkpt>
      <trkpt lat="44.42155" lon="5.95834">
        <ele>637.4914551</ele>
        <time>2013-05-14T14:31:16Z</time>
      </trkpt>
      <trkpt lat="44.42189" lon="5.95808">
        <ele>640.3754883</ele>
        <time>2013-05-14T14:31:26Z</time>
      </trkpt>
      <trkpt lat="44.42217" lon="5.95781">
        <ele>643.7399902</ele>
        <time>2013-05-14T14:31:35Z</time>
      </trkpt>
      <trkpt lat="44.42245" lon="5.95735">
        <ele>647.1044922</ele>
        <time>2013-05-14T14:31:47Z</time>
      </trkpt>
      <trkpt lat="44.42256" lon="5.95721">
        <ele>648.5463867</ele>
        <time>2013-05-14T14:31:51Z</time>
      </trkpt>
      <trkpt lat="44.42265" lon="5.95706">
        <ele>649.5078125</ele>
        <time>2013-05-14T14:31:55Z</time>
      </trkpt>
      <trkpt lat="44.42279" lon="5.95664">
        <ele>651.9111328</ele>
        <time>2013-05-14T14:32:04Z</time>
      </trkpt>
      <trkpt lat="44.42294" lon="5.95646">
        <ele>653.3532715</ele>
        <time>2013-05-14T14:32:10Z</time>
      </trkpt>
      <trkpt lat="44.42313" lon="5.95631">
        <ele>655.2758789</ele>
        <time>2013-05-14T14:32:21Z</time>
      </trkpt>
      <trkpt lat="44.42339" lon="5.95607">
        <ele>657.6791992</ele>
        <time>2013-05-14T14:32:32Z</time>
      </trkpt>
      <trkpt lat="44.42362" lon="5.95587">
        <ele>660.0822754</ele>
        <time>2013-05-14T14:32:42Z</time>
      </trkpt>
      <trkpt lat="44.4239" lon="5.9558">
        <ele>662.005127</ele>
        <time>2013-05-14T14:32:53Z</time>
      </trkpt>
      <trkpt lat="44.42427" lon="5.95606">
        <ele>664.4082031</ele>
        <time>2013-05-14T14:33:06Z</time>
      </trkpt>
      <trkpt lat="44.4247" lon="5.95644">
        <ele>667.2922363</ele>
        <time>2013-05-14T14:33:22Z</time>
      </trkpt>
      <trkpt lat="44.42508" lon="5.95676">
        <ele>670.1762695</ele>
        <time>2013-05-14T14:33:36Z</time>
      </trkpt>
      <trkpt lat="44.4254" lon="5.95692">
        <ele>673.0603027</ele>
        <time>2013-05-14T14:33:45Z</time>
      </trkpt>
      <trkpt lat="44.42566" lon="5.95695">
        <ele>675.4633789</ele>
        <time>2013-05-14T14:33:55Z</time>
      </trkpt>
      <trkpt lat="44.42602" lon="5.95688">
        <ele>678.3474121</ele>
        <time>2013-05-14T14:34:05Z</time>
      </trkpt>
      <trkpt lat="44.42638" lon="5.95665">
        <ele>680.7507324</ele>
        <time>2013-05-14T14:34:14Z</time>
      </trkpt>
      <trkpt lat="44.4265" lon="5.95665">
        <ele>681.7119141</ele>
        <time>2013-05-14T14:34:18Z</time>
      </trkpt>
      <trkpt lat="44.427" lon="5.95671">
        <ele>684.5961914</ele>
        <time>2013-05-14T14:34:30Z</time>
      </trkpt>
      <trkpt lat="44.42717" lon="5.95668">
        <ele>686.0380859</ele>
        <time>2013-05-14T14:34:34Z</time>
      </trkpt>
      <trkpt lat="44.42752" lon="5.95659">
        <ele>689.4025879</ele>
        <time>2013-05-14T14:34:44Z</time>
      </trkpt>
      <trkpt lat="44.42785" lon="5.95656">
        <ele>692.2866211</ele>
        <time>2013-05-14T14:34:53Z</time>
      </trkpt>
      <trkpt lat="44.42788" lon="5.95656">
        <ele>692.2866211</ele>
        <time>2013-05-14T14:34:54Z</time>
      </trkpt>
      <trkpt lat="44.42822" lon="5.95657">
        <ele>695.651123</ele>
        <time>2013-05-14T14:35:03Z</time>
      </trkpt>
      <trkpt lat="44.42826" lon="5.95658">
        <ele>695.651123</ele>
        <time>2013-05-14T14:35:04Z</time>
      </trkpt>
      <trkpt lat="44.42866" lon="5.9565">
        <ele>697.0930176</ele>
        <time>2013-05-14T14:35:16Z</time>
      </trkpt>
      <trkpt lat="44.42885" lon="5.95627">
        <ele>700.9384766</ele>
        <time>2013-05-14T14:35:23Z</time>
      </trkpt>
      <trkpt lat="44.42888" lon="5.95624">
        <ele>701.4191895</ele>
        <time>2013-05-14T14:35:24Z</time>
      </trkpt>
      <trkpt lat="44.42908" lon="5.95597">
        <ele>702.861084</ele>
        <time>2013-05-14T14:35:32Z</time>
      </trkpt>
      <trkpt lat="44.42921" lon="5.95536">
        <ele>707.1870117</ele>
        <time>2013-05-14T14:35:46Z</time>
      </trkpt>
      <trkpt lat="44.42929" lon="5.95494">
        <ele>710.0708008</ele>
        <time>2013-05-14T14:35:55Z</time>
      </trkpt>
      <trkpt lat="44.42942" lon="5.95434">
        <ele>713.9160156</ele>
        <time>2013-05-14T14:36:09Z</time>
      </trkpt>
      <trkpt lat="44.42942" lon="5.95429">
        <ele>713.9160156</ele>
        <time>2013-05-14T14:36:10Z</time>
      </trkpt>
      <trkpt lat="44.42948" lon="5.95395">
        <ele>715.3581543</ele>
        <time>2013-05-14T14:36:17Z</time>
      </trkpt>
      <trkpt lat="44.42961" lon="5.95362">
        <ele>718.7229004</ele>
        <time>2013-05-14T14:36:24Z</time>
      </trkpt>
      <trkpt lat="44.42969" lon="5.95342">
        <ele>719.6843262</ele>
        <time>2013-05-14T14:36:28Z</time>
      </trkpt>
      <trkpt lat="44.42998" lon="5.95316">
        <ele>723.0488281</ele>
        <time>2013-05-14T14:36:37Z</time>
      </trkpt>
      <trkpt lat="44.4303" lon="5.95317">
        <ele>725.9326172</ele>
        <time>2013-05-14T14:36:45Z</time>
      </trkpt>
      <trkpt lat="44.43071" lon="5.95297">
        <ele>729.2971191</ele>
        <time>2013-05-14T14:36:57Z</time>
      </trkpt>
      <trkpt lat="44.43089" lon="5.95249">
        <ele>730.7392578</ele>
        <time>2013-05-14T14:37:08Z</time>
      </trkpt>
      <trkpt lat="44.43091" lon="5.95237">
        <ele>730.7392578</ele>
        <time>2013-05-14T14:37:10Z</time>
      </trkpt>
      <trkpt lat="44.43115" lon="5.95178">
        <ele>732.6621094</ele>
        <time>2013-05-14T14:37:25Z</time>
      </trkpt>
      <trkpt lat="44.43144" lon="5.95125">
        <ele>734.1040039</ele>
        <time>2013-05-14T14:37:39Z</time>
      </trkpt>
      <trkpt lat="44.43155" lon="5.95102">
        <ele>733.1425781</ele>
        <time>2013-05-14T14:37:45Z</time>
      </trkpt>
      <trkpt lat="44.4316" lon="5.95089">
        <ele>736.0266113</ele>
        <time>2013-05-14T14:37:48Z</time>
      </trkpt>
      <trkpt lat="44.43163" lon="5.95082">
        <ele>734.1040039</ele>
        <time>2013-05-14T14:37:50Z</time>
      </trkpt>
      <trkpt lat="44.43178" lon="5.9506">
        <ele>735.5458984</ele>
        <time>2013-05-14T14:37:56Z</time>
      </trkpt>
      <trkpt lat="44.43201" lon="5.95055">
        <ele>735.0654297</ele>
        <time>2013-05-14T14:38:01Z</time>
      </trkpt>
      <trkpt lat="44.43219" lon="5.95035">
        <ele>736.5073242</ele>
        <time>2013-05-14T14:38:07Z</time>
      </trkpt>
      <trkpt lat="44.43234" lon="5.94992">
        <ele>739.8718262</ele>
        <time>2013-05-14T14:38:18Z</time>
      </trkpt>
      <trkpt lat="44.43234" lon="5.94988">
        <ele>739.8718262</ele>
        <time>2013-05-14T14:38:19Z</time>
      </trkpt>
      <trkpt lat="44.43238" lon="5.9497">
        <ele>743.2363281</ele>
        <time>2013-05-14T14:38:23Z</time>
      </trkpt>
      <trkpt lat="44.43239" lon="5.94967">
        <ele>743.2363281</ele>
        <time>2013-05-14T14:38:24Z</time>
      </trkpt>
      <trkpt lat="44.43269" lon="5.94938">
        <ele>745.6396484</ele>
        <time>2013-05-14T14:38:36Z</time>
      </trkpt>
      <trkpt lat="44.43276" lon="5.9494">
        <ele>747.081543</ele>
        <time>2013-05-14T14:38:38Z</time>
      </trkpt>
      <trkpt lat="44.43311" lon="5.94937">
        <ele>750.4465332</ele>
        <time>2013-05-14T14:38:48Z</time>
      </trkpt>
      <trkpt lat="44.43351" lon="5.94933">
        <ele>753.8110352</ele>
        <time>2013-05-14T14:38:59Z</time>
      </trkpt>
      <trkpt lat="44.43358" lon="5.94932">
        <ele>754.7722168</ele>
        <time>2013-05-14T14:39:01Z</time>
      </trkpt>
      <trkpt lat="44.43397" lon="5.94931">
        <ele>757.1755371</ele>
        <time>2013-05-14T14:39:12Z</time>
      </trkpt>
      <trkpt lat="44.43404" lon="5.94931">
        <ele>758.6174316</ele>
        <time>2013-05-14T14:39:14Z</time>
      </trkpt>
      <trkpt lat="44.43414" lon="5.94932">
        <ele>760.5400391</ele>
        <time>2013-05-14T14:39:17Z</time>
      </trkpt>
      <trkpt lat="44.43447" lon="5.94945">
        <ele>763.904541</ele>
        <time>2013-05-14T14:39:28Z</time>
      </trkpt>
      <trkpt lat="44.4345" lon="5.94946">
        <ele>763.904541</ele>
        <time>2013-05-14T14:39:29Z</time>
      </trkpt>
      <trkpt lat="44.43478" lon="5.94958">
        <ele>766.3081055</ele>
        <time>2013-05-14T14:39:38Z</time>
      </trkpt>
      <trkpt lat="44.43515" lon="5.9495">
        <ele>769.1921387</ele>
        <time>2013-05-14T14:39:49Z</time>
      </trkpt>
      <trkpt lat="44.43559" lon="5.94916">
        <ele>773.0373535</ele>
        <time>2013-05-14T14:40:04Z</time>
      </trkpt>
      <trkpt lat="44.4359" lon="5.94924">
        <ele>773.9985352</ele>
        <time>2013-05-14T14:40:15Z</time>
      </trkpt>
      <trkpt lat="44.43593" lon="5.94925">
        <ele>773.5180664</ele>
        <time>2013-05-14T14:40:31Z</time>
      </trkpt>
      <trkpt lat="44.43616" lon="5.94932">
        <ele>774.479248</ele>
        <time>2013-05-14T14:40:57Z</time>
      </trkpt>
      <trkpt lat="44.4365" lon="5.94942">
        <ele>774.9599609</ele>
        <time>2013-05-14T14:41:08Z</time>
      </trkpt>
      <trkpt lat="44.43667" lon="5.94955">
        <ele>777.84375</ele>
        <time>2013-05-14T14:41:15Z</time>
      </trkpt>
      <trkpt lat="44.43678" lon="5.94974">
        <ele>778.3244629</ele>
        <time>2013-05-14T14:41:21Z</time>
      </trkpt>
      <trkpt lat="44.43708" lon="5.95019">
        <ele>782.6506348</ele>
        <time>2013-05-14T14:41:33Z</time>
      </trkpt>
      <trkpt lat="44.43737" lon="5.9505">
        <ele>786.0151367</ele>
        <time>2013-05-14T14:41:45Z</time>
      </trkpt>
      <trkpt lat="44.43747" lon="5.95057">
        <ele>786.4958496</ele>
        <time>2013-05-14T14:41:57Z</time>
      </trkpt>
      <trkpt lat="44.43747" lon="5.95057">
        <ele>788.8991699</ele>
        <time>2013-05-14T14:42:22Z</time>
      </trkpt>
      <trkpt lat="44.43747" lon="5.95057">
        <ele>786.0151367</ele>
        <time>2013-05-14T14:42:24Z</time>
      </trkpt>
      <trkpt lat="44.43747" lon="5.95057">
        <ele>785.5344238</ele>
        <time>2013-05-14T14:43:23Z</time>
      </trkpt>
      <trkpt lat="44.43747" lon="5.95057">
        <ele>785.5344238</ele>
        <time>2013-05-14T14:43:48Z</time>
      </trkpt>
      <trkpt lat="44.43747" lon="5.95057">
        <ele>785.5344238</ele>
        <time>2013-05-14T14:44:17Z</time>
      </trkpt>
      <trkpt lat="44.43747" lon="5.95057">
        <ele>786.0151367</ele>
        <time>2013-05-14T14:44:41Z</time>
      </trkpt>
      <trkpt lat="44.43771" lon="5.9507">
        <ele>784.5732422</ele>
        <time>2013-05-14T14:45:10Z</time>
      </trkpt>
      <trkpt lat="44.43834" lon="5.95095">
        <ele>786.0151367</ele>
        <time>2013-05-14T14:45:27Z</time>
      </trkpt>
      <trkpt lat="44.43838" lon="5.95097">
        <ele>785.5344238</ele>
        <time>2013-05-14T14:45:28Z</time>
      </trkpt>
      <trkpt lat="44.43894" lon="5.95117">
        <ele>785.0539551</ele>
        <time>2013-05-14T14:45:41Z</time>
      </trkpt>
      <trkpt lat="44.43914" lon="5.95127">
        <ele>784.5732422</ele>
        <time>2013-05-14T14:45:46Z</time>
      </trkpt>
      <trkpt lat="44.43958" lon="5.95176">
        <ele>785.0539551</ele>
        <time>2013-05-14T14:45:58Z</time>
      </trkpt>
      <trkpt lat="44.43987" lon="5.95214">
        <ele>784.0925293</ele>
        <time>2013-05-14T14:46:06Z</time>
      </trkpt>
      <trkpt lat="44.43996" lon="5.95237">
        <ele>784.0925293</ele>
        <time>2013-05-14T14:46:10Z</time>
      </trkpt>
      <trkpt lat="44.44" lon="5.95257">
        <ele>784.0925293</ele>
        <time>2013-05-14T14:46:13Z</time>
      </trkpt>
      <trkpt lat="44.43993" lon="5.95315">
        <ele>784.0925293</ele>
        <time>2013-05-14T14:46:21Z</time>
      </trkpt>
      <trkpt lat="44.4399" lon="5.95336">
        <ele>785.0539551</ele>
        <time>2013-05-14T14:46:24Z</time>
      </trkpt>
      <trkpt lat="44.43986" lon="5.95366">
        <ele>782.6506348</ele>
        <time>2013-05-14T14:46:28Z</time>
      </trkpt>
      <trkpt lat="44.4398" lon="5.95479">
        <ele>781.689209</ele>
        <time>2013-05-14T14:46:42Z</time>
      </trkpt>
      <trkpt lat="44.43989" lon="5.95529">
        <ele>782.1699219</ele>
        <time>2013-05-14T14:46:48Z</time>
      </trkpt>
      <trkpt lat="44.44028" lon="5.95604">
        <ele>780.7280273</ele>
        <time>2013-05-14T14:46:58Z</time>
      </trkpt>
      <trkpt lat="44.44043" lon="5.95724">
        <ele>777.84375</ele>
        <time>2013-05-14T14:47:10Z</time>
      </trkpt>
      <trkpt lat="44.44043" lon="5.95734">
        <ele>777.3632813</ele>
        <time>2013-05-14T14:47:11Z</time>
      </trkpt>
      <trkpt lat="44.44073" lon="5.9579">
        <ele>777.84375</ele>
        <time>2013-05-14T14:47:18Z</time>
      </trkpt>
      <trkpt lat="44.44103" lon="5.95776">
        <ele>776.8825684</ele>
        <time>2013-05-14T14:47:23Z</time>
      </trkpt>
      <trkpt lat="44.44115" lon="5.95748">
        <ele>774.479248</ele>
        <time>2013-05-14T14:47:26Z</time>
      </trkpt>
      <trkpt lat="44.44126" lon="5.95731">
        <ele>772.5566406</ele>
        <time>2013-05-14T14:47:28Z</time>
      </trkpt>
      <trkpt lat="44.44151" lon="5.95703">
        <ele>773.5180664</ele>
        <time>2013-05-14T14:47:32Z</time>
      </trkpt>
      <trkpt lat="44.44205" lon="5.95645">
        <ele>769.6728516</ele>
        <time>2013-05-14T14:47:41Z</time>
      </trkpt>
      <trkpt lat="44.44212" lon="5.95639">
        <ele>769.6728516</ele>
        <time>2013-05-14T14:47:42Z</time>
      </trkpt>
      <trkpt lat="44.44257" lon="5.95631">
        <ele>769.6728516</ele>
        <time>2013-05-14T14:47:48Z</time>
      </trkpt>
      <trkpt lat="44.44352" lon="5.95669">
        <ele>766.7888184</ele>
        <time>2013-05-14T14:48:00Z</time>
      </trkpt>
      <trkpt lat="44.44377" lon="5.9569">
        <ele>766.7888184</ele>
        <time>2013-05-14T14:48:04Z</time>
      </trkpt>
      <trkpt lat="44.44405" lon="5.95729">
        <ele>766.3081055</ele>
        <time>2013-05-14T14:48:10Z</time>
      </trkpt>
      <trkpt lat="44.44409" lon="5.95743">
        <ele>767.2695313</ele>
        <time>2013-05-14T14:48:12Z</time>
      </trkpt>
      <trkpt lat="44.4441" lon="5.95756">
        <ele>766.3081055</ele>
        <time>2013-05-14T14:48:14Z</time>
      </trkpt>
      <trkpt lat="44.44404" lon="5.95786">
        <ele>769.1921387</ele>
        <time>2013-05-14T14:48:19Z</time>
      </trkpt>
      <trkpt lat="44.44377" lon="5.95811">
        <ele>770.1533203</ele>
        <time>2013-05-14T14:48:28Z</time>
      </trkpt>
      <trkpt lat="44.44358" lon="5.95812">
        <ele>772.0759277</ele>
        <time>2013-05-14T14:48:33Z</time>
      </trkpt>
      <trkpt lat="44.44322" lon="5.95814">
        <ele>771.5952148</ele>
        <time>2013-05-14T14:48:43Z</time>
      </trkpt>
      <trkpt lat="44.44299" lon="5.95836">
        <ele>770.6340332</ele>
        <time>2013-05-14T14:48:49Z</time>
      </trkpt>
      <trkpt lat="44.44271" lon="5.95877">
        <ele>774.479248</ele>
        <time>2013-05-14T14:48:59Z</time>
      </trkpt>
      <trkpt lat="44.44269" lon="5.95881">
        <ele>774.479248</ele>
        <time>2013-05-14T14:49:00Z</time>
      </trkpt>
      <trkpt lat="44.44261" lon="5.95888">
        <ele>776.4018555</ele>
        <time>2013-05-14T14:49:03Z</time>
      </trkpt>
      <trkpt lat="44.44241" lon="5.95903">
        <ele>779.7663574</ele>
        <time>2013-05-14T14:49:09Z</time>
      </trkpt>
      <trkpt lat="44.44237" lon="5.95907">
        <ele>779.7663574</ele>
        <time>2013-05-14T14:49:10Z</time>
      </trkpt>
      <trkpt lat="44.44228" lon="5.95929">
        <ele>780.2473145</ele>
        <time>2013-05-14T14:49:14Z</time>
      </trkpt>
      <trkpt lat="44.44211" lon="5.95989">
        <ele>781.689209</ele>
        <time>2013-05-14T14:49:24Z</time>
      </trkpt>
      <trkpt lat="44.442" lon="5.96007">
        <ele>782.1699219</ele>
        <time>2013-05-14T14:49:28Z</time>
      </trkpt>
      <trkpt lat="44.44194" lon="5.96055">
        <ele>783.6118164</ele>
        <time>2013-05-14T14:49:36Z</time>
      </trkpt>
      <trkpt lat="44.44195" lon="5.96067">
        <ele>784.0925293</ele>
        <time>2013-05-14T14:49:38Z</time>
      </trkpt>
      <trkpt lat="44.44177" lon="5.96106">
        <ele>786.0151367</ele>
        <time>2013-05-14T14:49:47Z</time>
      </trkpt>
      <trkpt lat="44.4415" lon="5.96105">
        <ele>786.4958496</ele>
        <time>2013-05-14T14:49:53Z</time>
      </trkpt>
      <trkpt lat="44.44107" lon="5.96141">
        <ele>785.5344238</ele>
        <time>2013-05-14T14:50:03Z</time>
      </trkpt>
      <trkpt lat="44.44104" lon="5.96149">
        <ele>785.0539551</ele>
        <time>2013-05-14T14:50:04Z</time>
      </trkpt>
      <trkpt lat="44.441" lon="5.96162">
        <ele>785.0539551</ele>
        <time>2013-05-14T14:50:06Z</time>
      </trkpt>
      <trkpt lat="44.44075" lon="5.96243">
        <ele>782.1699219</ele>
        <time>2013-05-14T14:50:16Z</time>
      </trkpt>
      <trkpt lat="44.44073" lon="5.96252">
        <ele>782.1699219</ele>
        <time>2013-05-14T14:50:17Z</time>
      </trkpt>
      <trkpt lat="44.4404" lon="5.96358">
        <ele>780.2473145</ele>
        <time>2013-05-14T14:50:28Z</time>
      </trkpt>
      <trkpt lat="44.44011" lon="5.96443">
        <ele>775.9211426</ele>
        <time>2013-05-14T14:50:36Z</time>
      </trkpt>
      <trkpt lat="44.44001" lon="5.96465">
        <ele>774.479248</ele>
        <time>2013-05-14T14:50:38Z</time>
      </trkpt>
      <trkpt lat="44.43978" lon="5.96522">
        <ele>778.3244629</ele>
        <time>2013-05-14T14:50:44Z</time>
      </trkpt>
      <trkpt lat="44.43975" lon="5.96528">
        <ele>778.3244629</ele>
        <time>2013-05-14T14:50:45Z</time>
      </trkpt>
      <trkpt lat="44.43962" lon="5.96572">
        <ele>781.689209</ele>
        <time>2013-05-14T14:50:53Z</time>
      </trkpt>
      <trkpt lat="44.43961" lon="5.96578">
        <ele>781.689209</ele>
        <time>2013-05-14T14:50:54Z</time>
      </trkpt>
      <trkpt lat="44.43953" lon="5.96622">
        <ele>785.0539551</ele>
        <time>2013-05-14T14:51:04Z</time>
      </trkpt>
      <trkpt lat="44.43942" lon="5.96697">
        <ele>787.4570313</ele>
        <time>2013-05-14T14:51:21Z</time>
      </trkpt>
      <trkpt lat="44.4393" lon="5.96816">
        <ele>787.4570313</ele>
        <time>2013-05-14T14:51:43Z</time>
      </trkpt>
      <trkpt lat="44.43932" lon="5.96861">
        <ele>786.0151367</ele>
        <time>2013-05-14T14:51:49Z</time>
      </trkpt>
      <trkpt lat="44.43942" lon="5.96977">
        <ele>782.6506348</ele>
        <time>2013-05-14T14:52:01Z</time>
      </trkpt>
      <trkpt lat="44.43942" lon="5.96989">
        <ele>781.689209</ele>
        <time>2013-05-14T14:52:02Z</time>
      </trkpt>
      <trkpt lat="44.43957" lon="5.97039">
        <ele>781.689209</ele>
        <time>2013-05-14T14:52:07Z</time>
      </trkpt>
      <trkpt lat="44.4398" lon="5.97075">
        <ele>779.7663574</ele>
        <time>2013-05-14T14:52:11Z</time>
      </trkpt>
      <trkpt lat="44.43977" lon="5.97132">
        <ele>779.7663574</ele>
        <time>2013-05-14T14:52:17Z</time>
      </trkpt>
      <trkpt lat="44.43972" lon="5.97139">
        <ele>779.2856445</ele>
        <time>2013-05-14T14:52:18Z</time>
      </trkpt>
      <trkpt lat="44.43961" lon="5.97156">
        <ele>780.2473145</ele>
        <time>2013-05-14T14:52:21Z</time>
      </trkpt>
      <trkpt lat="44.43949" lon="5.97186">
        <ele>784.5732422</ele>
        <time>2013-05-14T14:52:29Z</time>
      </trkpt>
      <trkpt lat="44.4394" lon="5.97233">
        <ele>786.9763184</ele>
        <time>2013-05-14T14:52:40Z</time>
      </trkpt>
      <trkpt lat="44.43928" lon="5.9729">
        <ele>789.8603516</ele>
        <time>2013-05-14T14:52:54Z</time>
      </trkpt>
      <trkpt lat="44.43915" lon="5.97357">
        <ele>790.8215332</ele>
        <time>2013-05-14T14:53:09Z</time>
      </trkpt>
      <trkpt lat="44.43903" lon="5.97415">
        <ele>791.782959</ele>
        <time>2013-05-14T14:53:23Z</time>
      </trkpt>
      <trkpt lat="44.43892" lon="5.97475">
        <ele>792.7443848</ele>
        <time>2013-05-14T14:53:35Z</time>
      </trkpt>
      <trkpt lat="44.43878" lon="5.97538">
        <ele>793.2248535</ele>
        <time>2013-05-14T14:53:49Z</time>
      </trkpt>
      <trkpt lat="44.4387" lon="5.97561">
        <ele>795.1474609</ele>
        <time>2013-05-14T14:53:54Z</time>
      </trkpt>
      <trkpt lat="44.43833" lon="5.9766">
        <ele>794.1862793</ele>
        <time>2013-05-14T14:54:15Z</time>
      </trkpt>
      <trkpt lat="44.43826" lon="5.97677">
        <ele>796.1091309</ele>
        <time>2013-05-14T14:54:19Z</time>
      </trkpt>
      <trkpt lat="44.43789" lon="5.97776">
        <ele>796.1091309</ele>
        <time>2013-05-14T14:54:43Z</time>
      </trkpt>
      <trkpt lat="44.4377" lon="5.97831">
        <ele>799.4736328</ele>
        <time>2013-05-14T14:54:56Z</time>
      </trkpt>
      <trkpt lat="44.43786" lon="5.97886">
        <ele>800.9155273</ele>
        <time>2013-05-14T14:55:09Z</time>
      </trkpt>
      <trkpt lat="44.43815" lon="5.97931">
        <ele>804.2802734</ele>
        <time>2013-05-14T14:55:23Z</time>
      </trkpt>
      <trkpt lat="44.43819" lon="5.97979">
        <ele>805.722168</ele>
        <time>2013-05-14T14:55:35Z</time>
      </trkpt>
      <trkpt lat="44.43804" lon="5.98039">
        <ele>808.605957</ele>
        <time>2013-05-14T14:55:49Z</time>
      </trkpt>
      <trkpt lat="44.43788" lon="5.98086">
        <ele>811.4899902</ele>
        <time>2013-05-14T14:56:00Z</time>
      </trkpt>
      <trkpt lat="44.43775" lon="5.98122">
        <ele>814.3740234</ele>
        <time>2013-05-14T14:56:08Z</time>
      </trkpt>
      <trkpt lat="44.43751" lon="5.98184">
        <ele>817.7385254</ele>
        <time>2013-05-14T14:56:21Z</time>
      </trkpt>
      <trkpt lat="44.43738" lon="5.98197">
        <ele>818.2192383</ele>
        <time>2013-05-14T14:56:25Z</time>
      </trkpt>
      <trkpt lat="44.4371" lon="5.98204">
        <ele>819.661377</ele>
        <time>2013-05-14T14:56:32Z</time>
      </trkpt>
      <trkpt lat="44.43668" lon="5.98156">
        <ele>822.545166</ele>
        <time>2013-05-14T14:56:46Z</time>
      </trkpt>
      <trkpt lat="44.43662" lon="5.98149">
        <ele>823.0258789</ele>
        <time>2013-05-14T14:56:48Z</time>
      </trkpt>
      <trkpt lat="44.43644" lon="5.98135">
        <ele>824.4677734</ele>
        <time>2013-05-14T14:56:53Z</time>
      </trkpt>
      <trkpt lat="44.43634" lon="5.98137">
        <ele>824.4677734</ele>
        <time>2013-05-14T14:56:55Z</time>
      </trkpt>
      <trkpt lat="44.43617" lon="5.98142">
        <ele>824.4677734</ele>
        <time>2013-05-14T14:56:59Z</time>
      </trkpt>
      <trkpt lat="44.43608" lon="5.98143">
        <ele>823.0258789</ele>
        <time>2013-05-14T14:57:01Z</time>
      </trkpt>
      <trkpt lat="44.4359" lon="5.98142">
        <ele>827.8322754</ele>
        <time>2013-05-14T14:57:05Z</time>
      </trkpt>
      <trkpt lat="44.43586" lon="5.98141">
        <ele>827.8322754</ele>
        <time>2013-05-14T14:57:06Z</time>
      </trkpt>
      <trkpt lat="44.43552" lon="5.98137">
        <ele>830.2358398</ele>
        <time>2013-05-14T14:57:14Z</time>
      </trkpt>
      <trkpt lat="44.43536" lon="5.98137">
        <ele>831.6777344</ele>
        <time>2013-05-14T14:57:28Z</time>
      </trkpt>
      <trkpt lat="44.43536" lon="5.98137">
        <ele>830.7165527</ele>
        <time>2013-05-14T14:57:34Z</time>
      </trkpt>
      <trkpt lat="44.43536" lon="5.98137">
        <ele>830.2358398</ele>
        <time>2013-05-14T14:57:59Z</time>
      </trkpt>
      <trkpt lat="44.43536" lon="5.98137">
        <ele>831.1972656</ele>
        <time>2013-05-14T14:58:27Z</time>
      </trkpt>
      <trkpt lat="44.4352" lon="5.98147">
        <ele>830.2358398</ele>
        <time>2013-05-14T14:59:04Z</time>
      </trkpt>
      <trkpt lat="44.43517" lon="5.98152">
        <ele>830.7165527</ele>
        <time>2013-05-14T14:59:06Z</time>
      </trkpt>
      <trkpt lat="44.43503" lon="5.98192">
        <ele>833.6003418</ele>
        <time>2013-05-14T14:59:16Z</time>
      </trkpt>
      <trkpt lat="44.43506" lon="5.9826">
        <ele>835.5229492</ele>
        <time>2013-05-14T14:59:28Z</time>
      </trkpt>
      <trkpt lat="44.43506" lon="5.98365">
        <ele>836.9648438</ele>
        <time>2013-05-14T14:59:44Z</time>
      </trkpt>
      <trkpt lat="44.43504" lon="5.98382">
        <ele>838.8876953</ele>
        <time>2013-05-14T14:59:47Z</time>
      </trkpt>
      <trkpt lat="44.43495" lon="5.98452">
        <ele>842.7329102</ele>
        <time>2013-05-14T15:00:00Z</time>
      </trkpt>
      <trkpt lat="44.43494" lon="5.98457">
        <ele>842.7329102</ele>
        <time>2013-05-14T15:00:01Z</time>
      </trkpt>
      <trkpt lat="44.43494" lon="5.98491">
        <ele>845.1362305</ele>
        <time>2013-05-14T15:00:08Z</time>
      </trkpt>
      <trkpt lat="44.43509" lon="5.98508">
        <ele>846.5783691</ele>
        <time>2013-05-14T15:00:13Z</time>
      </trkpt>
      <trkpt lat="44.43523" lon="5.98502">
        <ele>847.5395508</ele>
        <time>2013-05-14T15:00:17Z</time>
      </trkpt>
      <trkpt lat="44.43552" lon="5.98481">
        <ele>851.3847656</ele>
        <time>2013-05-14T15:00:26Z</time>
      </trkpt>
      <trkpt lat="44.43555" lon="5.98479">
        <ele>851.3847656</ele>
        <time>2013-05-14T15:00:27Z</time>
      </trkpt>
      <trkpt lat="44.43571" lon="5.98466">
        <ele>852.3459473</ele>
        <time>2013-05-14T15:00:32Z</time>
      </trkpt>
      <trkpt lat="44.43592" lon="5.98449">
        <ele>854.7492676</ele>
        <time>2013-05-14T15:00:39Z</time>
      </trkpt>
      <trkpt lat="44.43617" lon="5.98417">
        <ele>858.1140137</ele>
        <time>2013-05-14T15:00:49Z</time>
      </trkpt>
      <trkpt lat="44.43647" lon="5.98378">
        <ele>862.4399414</ele>
        <time>2013-05-14T15:01:01Z</time>
      </trkpt>
      <trkpt lat="44.4368" lon="5.98359">
        <ele>865.8046875</ele>
        <time>2013-05-14T15:01:12Z</time>
      </trkpt>
      <trkpt lat="44.43692" lon="5.98364">
        <ele>867.7270508</ele>
        <time>2013-05-14T15:01:16Z</time>
      </trkpt>
      <trkpt lat="44.43727" lon="5.98396">
        <ele>871.5722656</ele>
        <time>2013-05-14T15:01:28Z</time>
      </trkpt>
      <trkpt lat="44.4373" lon="5.98399">
        <ele>871.5722656</ele>
        <time>2013-05-14T15:01:29Z</time>
      </trkpt>
      <trkpt lat="44.43754" lon="5.98427">
        <ele>873.9755859</ele>
        <time>2013-05-14T15:01:38Z</time>
      </trkpt>
      <trkpt lat="44.43765" lon="5.98438">
        <ele>875.4174805</ele>
        <time>2013-05-14T15:01:42Z</time>
      </trkpt>
      <trkpt lat="44.43802" lon="5.98459">
        <ele>878.7824707</ele>
        <time>2013-05-14T15:01:53Z</time>
      </trkpt>
      <trkpt lat="44.43832" lon="5.98452">
        <ele>882.1469727</ele>
        <time>2013-05-14T15:02:04Z</time>
      </trkpt>
      <trkpt lat="44.43866" lon="5.98429">
        <ele>885.5114746</ele>
        <time>2013-05-14T15:02:15Z</time>
      </trkpt>
      <trkpt lat="44.43899" lon="5.98449">
        <ele>888.3955078</ele>
        <time>2013-05-14T15:02:25Z</time>
      </trkpt>
      <trkpt lat="44.43932" lon="5.98476">
        <ele>891.7600098</ele>
        <time>2013-05-14T15:02:36Z</time>
      </trkpt>
      <trkpt lat="44.4397" lon="5.985">
        <ele>895.6054688</ele>
        <time>2013-05-14T15:02:48Z</time>
      </trkpt>
      <trkpt lat="44.44005" lon="5.98521">
        <ele>898.9699707</ele>
        <time>2013-05-14T15:02:59Z</time>
      </trkpt>
      <trkpt lat="44.44043" lon="5.98542">
        <ele>902.3344727</ele>
        <time>2013-05-14T15:03:11Z</time>
      </trkpt>
      <trkpt lat="44.44076" lon="5.98568">
        <ele>905.6992188</ele>
        <time>2013-05-14T15:03:22Z</time>
      </trkpt>
      <trkpt lat="44.44099" lon="5.98605">
        <ele>909.0639648</ele>
        <time>2013-05-14T15:03:32Z</time>
      </trkpt>
      <trkpt lat="44.44101" lon="5.98608">
        <ele>909.0639648</ele>
        <time>2013-05-14T15:03:33Z</time>
      </trkpt>
      <trkpt lat="44.44125" lon="5.98649">
        <ele>912.4284668</ele>
        <time>2013-05-14T15:03:43Z</time>
      </trkpt>
      <trkpt lat="44.44152" lon="5.98672">
        <ele>914.8317871</ele>
        <time>2013-05-14T15:03:54Z</time>
      </trkpt>
      <trkpt lat="44.44194" lon="5.9868">
        <ele>917.2351074</ele>
        <time>2013-05-14T15:04:06Z</time>
      </trkpt>
      <trkpt lat="44.44233" lon="5.98657">
        <ele>920.5996094</ele>
        <time>2013-05-14T15:04:19Z</time>
      </trkpt>
      <trkpt lat="44.44261" lon="5.98663">
        <ele>924.4450684</ele>
        <time>2013-05-14T15:04:27Z</time>
      </trkpt>
      <trkpt lat="44.44265" lon="5.98665">
        <ele>924.4450684</ele>
        <time>2013-05-14T15:04:28Z</time>
      </trkpt>
      <trkpt lat="44.44305" lon="5.98673">
        <ele>928.7709961</ele>
        <time>2013-05-14T15:04:40Z</time>
      </trkpt>
      <trkpt lat="44.44309" lon="5.98673">
        <ele>928.7709961</ele>
        <time>2013-05-14T15:04:41Z</time>
      </trkpt>
      <trkpt lat="44.44317" lon="5.98675">
        <ele>926.8483887</ele>
        <time>2013-05-14T15:04:43Z</time>
      </trkpt>
      <trkpt lat="44.4434" lon="5.98678">
        <ele>929.7321777</ele>
        <time>2013-05-14T15:04:49Z</time>
      </trkpt>
      <trkpt lat="44.44354" lon="5.9868">
        <ele>931.6547852</ele>
        <time>2013-05-14T15:04:53Z</time>
      </trkpt>
      <trkpt lat="44.44387" lon="5.98682">
        <ele>935.0195313</ele>
        <time>2013-05-14T15:05:03Z</time>
      </trkpt>
      <trkpt lat="44.4439" lon="5.98682">
        <ele>935.0195313</ele>
        <time>2013-05-14T15:05:04Z</time>
      </trkpt>
      <trkpt lat="44.44425" lon="5.98675">
        <ele>936.9418945</ele>
        <time>2013-05-14T15:05:15Z</time>
      </trkpt>
      <trkpt lat="44.44432" lon="5.98674">
        <ele>938.3840332</ele>
        <time>2013-05-14T15:05:17Z</time>
      </trkpt>
      <trkpt lat="44.4445" lon="5.98662">
        <ele>939.8259277</ele>
        <time>2013-05-14T15:05:23Z</time>
      </trkpt>
      <trkpt lat="44.44467" lon="5.98648">
        <ele>941.7487793</ele>
        <time>2013-05-14T15:05:29Z</time>
      </trkpt>
      <trkpt lat="44.44504" lon="5.98628">
        <ele>945.1132813</ele>
        <time>2013-05-14T15:05:41Z</time>
      </trkpt>
      <trkpt lat="44.44518" lon="5.98624">
        <ele>947.9973145</ele>
        <time>2013-05-14T15:05:45Z</time>
      </trkpt>
      <trkpt lat="44.44522" lon="5.98624">
        <ele>947.9973145</ele>
        <time>2013-05-14T15:05:46Z</time>
      </trkpt>
      <trkpt lat="44.44568" lon="5.98614">
        <ele>951.8425293</ele>
        <time>2013-05-14T15:06:00Z</time>
      </trkpt>
      <trkpt lat="44.44571" lon="5.98613">
        <ele>951.8425293</ele>
        <time>2013-05-14T15:06:01Z</time>
      </trkpt>
      <trkpt lat="44.44615" lon="5.9859">
        <ele>954.7263184</ele>
        <time>2013-05-14T15:06:15Z</time>
      </trkpt>
      <trkpt lat="44.44652" lon="5.98571">
        <ele>958.5717773</ele>
        <time>2013-05-14T15:06:27Z</time>
      </trkpt>
      <trkpt lat="44.44674" lon="5.98561">
        <ele>959.5332031</ele>
        <time>2013-05-14T15:06:35Z</time>
      </trkpt>
      <trkpt lat="44.44712" lon="5.98553">
        <ele>962.4169922</ele>
        <time>2013-05-14T15:06:46Z</time>
      </trkpt>
      <trkpt lat="44.4474" lon="5.98556">
        <ele>965.7817383</ele>
        <time>2013-05-14T15:06:55Z</time>
      </trkpt>
      <trkpt lat="44.44743" lon="5.98556">
        <ele>965.7817383</ele>
        <time>2013-05-14T15:06:56Z</time>
      </trkpt>
      <trkpt lat="44.44754" lon="5.98557">
        <ele>967.7041016</ele>
        <time>2013-05-14T15:07:00Z</time>
      </trkpt>
      <trkpt lat="44.4476" lon="5.98558">
        <ele>967.7041016</ele>
        <time>2013-05-14T15:07:02Z</time>
      </trkpt>
      <trkpt lat="44.44767" lon="5.98558">
        <ele>968.1848145</ele>
        <time>2013-05-14T15:07:04Z</time>
      </trkpt>
      <trkpt lat="44.44771" lon="5.98558">
        <ele>969.6269531</ele>
        <time>2013-05-14T15:07:06Z</time>
      </trkpt>
      <trkpt lat="44.44814" lon="5.98558">
        <ele>973.4724121</ele>
        <time>2013-05-14T15:07:18Z</time>
      </trkpt>
      <trkpt lat="44.44816" lon="5.98558">
        <ele>973.4724121</ele>
        <time>2013-05-14T15:07:19Z</time>
      </trkpt>
      <trkpt lat="44.44845" lon="5.98558">
        <ele>977.317627</ele>
        <time>2013-05-14T15:07:28Z</time>
      </trkpt>
      <trkpt lat="44.44866" lon="5.98554">
        <ele>978.7595215</ele>
        <time>2013-05-14T15:07:34Z</time>
      </trkpt>
      <trkpt lat="44.44883" lon="5.98545">
        <ele>980.6821289</ele>
        <time>2013-05-14T15:07:40Z</time>
      </trkpt>
      <trkpt lat="44.44894" lon="5.98508">
        <ele>984.0466309</ele>
        <time>2013-05-14T15:07:50Z</time>
      </trkpt>
      <trkpt lat="44.44885" lon="5.98484">
        <ele>986.9304199</ele>
        <time>2013-05-14T15:07:56Z</time>
      </trkpt>
      <trkpt lat="44.4488" lon="5.98473">
        <ele>988.3728027</ele>
        <time>2013-05-14T15:07:59Z</time>
      </trkpt>
      <trkpt lat="44.44888" lon="5.98421">
        <ele>991.2565918</ele>
        <time>2013-05-14T15:08:08Z</time>
      </trkpt>
      <trkpt lat="44.44891" lon="5.98375">
        <ele>995.1018066</ele>
        <time>2013-05-14T15:08:16Z</time>
      </trkpt>
      <trkpt lat="44.44907" lon="5.98337">
        <ele>997.9858398</ele>
        <time>2013-05-14T15:08:23Z</time>
      </trkpt>
      <trkpt lat="44.4491" lon="5.98333">
        <ele>997.9858398</ele>
        <time>2013-05-14T15:08:24Z</time>
      </trkpt>
      <trkpt lat="44.44948" lon="5.98322">
        <ele>1002.3115234</ele>
        <time>2013-05-14T15:08:34Z</time>
      </trkpt>
      <trkpt lat="44.44951" lon="5.98321">
        <ele>1002.3115234</ele>
        <time>2013-05-14T15:08:35Z</time>
      </trkpt>
      <trkpt lat="44.44983" lon="5.98317">
        <ele>1005.6765137</ele>
        <time>2013-05-14T15:08:44Z</time>
      </trkpt>
      <trkpt lat="44.45028" lon="5.98311">
        <ele>1009.5217285</ele>
        <time>2013-05-14T15:08:57Z</time>
      </trkpt>
      <trkpt lat="44.4504" lon="5.9831">
        <ele>1011.4443359</ele>
        <time>2013-05-14T15:09:01Z</time>
      </trkpt>
      <trkpt lat="44.45061" lon="5.98307">
        <ele>1013.8474121</ele>
        <time>2013-05-14T15:09:08Z</time>
      </trkpt>
      <trkpt lat="44.45084" lon="5.98301">
        <ele>1016.7314453</ele>
        <time>2013-05-14T15:09:16Z</time>
      </trkpt>
      <trkpt lat="44.45116" lon="5.98287">
        <ele>1021.0576172</ele>
        <time>2013-05-14T15:09:27Z</time>
      </trkpt>
      <trkpt lat="44.45118" lon="5.98285">
        <ele>1021.0576172</ele>
        <time>2013-05-14T15:09:28Z</time>
      </trkpt>
      <trkpt lat="44.45144" lon="5.98259">
        <ele>1023.9414063</ele>
        <time>2013-05-14T15:09:38Z</time>
      </trkpt>
      <trkpt lat="44.45158" lon="5.98238">
        <ele>1026.8254395</ele>
        <time>2013-05-14T15:09:45Z</time>
      </trkpt>
      <trkpt lat="44.45176" lon="5.982">
        <ele>1030.1899414</ele>
        <time>2013-05-14T15:09:56Z</time>
      </trkpt>
      <trkpt lat="44.45206" lon="5.98174">
        <ele>1033.5544434</ele>
        <time>2013-05-14T15:10:07Z</time>
      </trkpt>
      <trkpt lat="44.45242" lon="5.98197">
        <ele>1034.0351563</ele>
        <time>2013-05-14T15:10:18Z</time>
      </trkpt>
      <trkpt lat="44.45245" lon="5.98199">
        <ele>1034.0351563</ele>
        <time>2013-05-14T15:10:19Z</time>
      </trkpt>
      <trkpt lat="44.45269" lon="5.98217">
        <ele>1034.0351563</ele>
        <time>2013-05-14T15:10:25Z</time>
      </trkpt>
      <trkpt lat="44.45299" lon="5.98227">
        <ele>1029.7092285</ele>
        <time>2013-05-14T15:10:30Z</time>
      </trkpt>
      <trkpt lat="44.45306" lon="5.9823">
        <ele>1029.7092285</ele>
        <time>2013-05-14T15:10:31Z</time>
      </trkpt>
      <trkpt lat="44.45339" lon="5.9824">
        <ele>1027.3061523</ele>
        <time>2013-05-14T15:10:35Z</time>
      </trkpt>
      <trkpt lat="44.45357" lon="5.98243">
        <ele>1023.4609375</ele>
        <time>2013-05-14T15:10:37Z</time>
      </trkpt>
      <trkpt lat="44.45367" lon="5.98244">
        <ele>1023.4609375</ele>
        <time>2013-05-14T15:10:38Z</time>
      </trkpt>
      <trkpt lat="44.45387" lon="5.98242">
        <ele>1022.4995117</ele>
        <time>2013-05-14T15:10:40Z</time>
      </trkpt>
      <trkpt lat="44.45407" lon="5.98239">
        <ele>1020.0961914</ele>
        <time>2013-05-14T15:10:42Z</time>
      </trkpt>
      <trkpt lat="44.45429" lon="5.98236">
        <ele>1015.7702637</ele>
        <time>2013-05-14T15:10:44Z</time>
      </trkpt>
      <trkpt lat="44.4544" lon="5.98231">
        <ele>1015.7702637</ele>
        <time>2013-05-14T15:10:45Z</time>
      </trkpt>
      <trkpt lat="44.45462" lon="5.98222">
        <ele>1013.8474121</ele>
        <time>2013-05-14T15:10:47Z</time>
      </trkpt>
      <trkpt lat="44.45486" lon="5.98214">
        <ele>1012.4055176</ele>
        <time>2013-05-14T15:10:49Z</time>
      </trkpt>
      <trkpt lat="44.45509" lon="5.98206">
        <ele>1008.079834</ele>
        <time>2013-05-14T15:10:51Z</time>
      </trkpt>
      <trkpt lat="44.45521" lon="5.98203">
        <ele>1008.079834</ele>
        <time>2013-05-14T15:10:52Z</time>
      </trkpt>
      <trkpt lat="44.45581" lon="5.98187">
        <ele>1003.7536621</ele>
        <time>2013-05-14T15:10:57Z</time>
      </trkpt>
      <trkpt lat="44.45592" lon="5.98184">
        <ele>1003.7536621</ele>
        <time>2013-05-14T15:10:58Z</time>
      </trkpt>
      <trkpt lat="44.45613" lon="5.98179">
        <ele>1001.8310547</ele>
        <time>2013-05-14T15:11:00Z</time>
      </trkpt>
      <trkpt lat="44.45632" lon="5.98174">
        <ele>1000.8696289</ele>
        <time>2013-05-14T15:11:02Z</time>
      </trkpt>
      <trkpt lat="44.45669" lon="5.9815">
        <ele>997.9858398</ele>
        <time>2013-05-14T15:11:06Z</time>
      </trkpt>
      <trkpt lat="44.45686" lon="5.98135">
        <ele>996.0632324</ele>
        <time>2013-05-14T15:11:08Z</time>
      </trkpt>
      <trkpt lat="44.45739" lon="5.98091">
        <ele>991.2565918</ele>
        <time>2013-05-14T15:11:14Z</time>
      </trkpt>
      <trkpt lat="44.45748" lon="5.98084">
        <ele>991.2565918</ele>
        <time>2013-05-14T15:11:15Z</time>
      </trkpt>
      <trkpt lat="44.45767" lon="5.98069">
        <ele>993.1791992</ele>
        <time>2013-05-14T15:11:17Z</time>
      </trkpt>
      <trkpt lat="44.4579" lon="5.98044">
        <ele>992.6987305</ele>
        <time>2013-05-14T15:11:20Z</time>
      </trkpt>
      <trkpt lat="44.45868" lon="5.97886">
        <ele>992.2180176</ele>
        <time>2013-05-14T15:11:35Z</time>
      </trkpt>
      <trkpt lat="44.45879" lon="5.97852">
        <ele>989.3339844</ele>
        <time>2013-05-14T15:11:38Z</time>
      </trkpt>
      <trkpt lat="44.4588" lon="5.97815">
        <ele>989.3339844</ele>
        <time>2013-05-14T15:11:41Z</time>
      </trkpt>
      <trkpt lat="44.45879" lon="5.97781">
        <ele>991.2565918</ele>
        <time>2013-05-14T15:11:44Z</time>
      </trkpt>
      <trkpt lat="44.4589" lon="5.9775">
        <ele>990.2954102</ele>
        <time>2013-05-14T15:11:47Z</time>
      </trkpt>
      <trkpt lat="44.45894" lon="5.97741">
        <ele>990.2954102</ele>
        <time>2013-05-14T15:11:48Z</time>
      </trkpt>
      <trkpt lat="44.4592" lon="5.97704">
        <ele>989.8146973</ele>
        <time>2013-05-14T15:11:53Z</time>
      </trkpt>
      <trkpt lat="44.45946" lon="5.97688">
        <ele>989.8146973</ele>
        <time>2013-05-14T15:11:57Z</time>
      </trkpt>
      <trkpt lat="44.4596" lon="5.97688">
        <ele>989.3339844</ele>
        <time>2013-05-14T15:11:59Z</time>
      </trkpt>
      <trkpt lat="44.45979" lon="5.97679">
        <ele>989.3339844</ele>
        <time>2013-05-14T15:12:02Z</time>
      </trkpt>
      <trkpt lat="44.46" lon="5.97637">
        <ele>989.8146973</ele>
        <time>2013-05-14T15:12:08Z</time>
      </trkpt>
      <trkpt lat="44.46035" lon="5.97527">
        <ele>989.3339844</ele>
        <time>2013-05-14T15:12:21Z</time>
      </trkpt>
      <trkpt lat="44.46036" lon="5.975">
        <ele>990.7758789</ele>
        <time>2013-05-14T15:12:24Z</time>
      </trkpt>
      <trkpt lat="44.46005" lon="5.97457">
        <ele>989.3339844</ele>
        <time>2013-05-14T15:12:31Z</time>
      </trkpt>
      <trkpt lat="44.45975" lon="5.97444">
        <ele>989.3339844</ele>
        <time>2013-05-14T15:12:36Z</time>
      </trkpt>
      <trkpt lat="44.45946" lon="5.97385">
        <ele>988.3728027</ele>
        <time>2013-05-14T15:12:44Z</time>
      </trkpt>
      <trkpt lat="44.45951" lon="5.9734">
        <ele>988.3728027</ele>
        <time>2013-05-14T15:12:49Z</time>
      </trkpt>
      <trkpt lat="44.45967" lon="5.97303">
        <ele>988.3728027</ele>
        <time>2013-05-14T15:12:54Z</time>
      </trkpt>
      <trkpt lat="44.45977" lon="5.97273">
        <ele>987.8918457</ele>
        <time>2013-05-14T15:12:58Z</time>
      </trkpt>
      <trkpt lat="44.46012" lon="5.97191">
        <ele>987.4111328</ele>
        <time>2013-05-14T15:13:10Z</time>
      </trkpt>
      <trkpt lat="44.46035" lon="5.97154">
        <ele>986.9304199</ele>
        <time>2013-05-14T15:13:16Z</time>
      </trkpt>
      <trkpt lat="44.46049" lon="5.97135">
        <ele>987.4111328</ele>
        <time>2013-05-14T15:13:19Z</time>
      </trkpt>
      <trkpt lat="44.46075" lon="5.9712">
        <ele>986.9304199</ele>
        <time>2013-05-14T15:13:23Z</time>
      </trkpt>
      <trkpt lat="44.46093" lon="5.97117">
        <ele>986.9304199</ele>
        <time>2013-05-14T15:13:26Z</time>
      </trkpt>
      <trkpt lat="44.46121" lon="5.97078">
        <ele>986.4499512</ele>
        <time>2013-05-14T15:13:34Z</time>
      </trkpt>
      <trkpt lat="44.46129" lon="5.97036">
        <ele>985.9692383</ele>
        <time>2013-05-14T15:13:40Z</time>
      </trkpt>
      <trkpt lat="44.46155" lon="5.96993">
        <ele>985.9692383</ele>
        <time>2013-05-14T15:13:47Z</time>
      </trkpt>
      <trkpt lat="44.46197" lon="5.9697">
        <ele>986.4499512</ele>
        <time>2013-05-14T15:13:55Z</time>
      </trkpt>
      <trkpt lat="44.46219" lon="5.96942">
        <ele>985.9692383</ele>
        <time>2013-05-14T15:14:01Z</time>
      </trkpt>
      <trkpt lat="44.46224" lon="5.96922">
        <ele>985.4885254</ele>
        <time>2013-05-14T15:14:04Z</time>
      </trkpt>
      <trkpt lat="44.46236" lon="5.96868">
        <ele>985.0080566</ele>
        <time>2013-05-14T15:14:13Z</time>
      </trkpt>
      <trkpt lat="44.46249" lon="5.96838">
        <ele>985.4885254</ele>
        <time>2013-05-14T15:14:18Z</time>
      </trkpt>
      <trkpt lat="44.46278" lon="5.96792">
        <ele>985.0080566</ele>
        <time>2013-05-14T15:14:25Z</time>
      </trkpt>
      <trkpt lat="44.46312" lon="5.96765">
        <ele>985.0080566</ele>
        <time>2013-05-14T15:14:31Z</time>
      </trkpt>
      <trkpt lat="44.46351" lon="5.96759">
        <ele>984.0466309</ele>
        <time>2013-05-14T15:14:37Z</time>
      </trkpt>
      <trkpt lat="44.4644" lon="5.96729">
        <ele>984.5273438</ele>
        <time>2013-05-14T15:14:52Z</time>
      </trkpt>
      <trkpt lat="44.46462" lon="5.96715">
        <ele>984.5273438</ele>
        <time>2013-05-14T15:14:57Z</time>
      </trkpt>
      <trkpt lat="44.46486" lon="5.96678">
        <ele>983.0852051</ele>
        <time>2013-05-14T15:15:04Z</time>
      </trkpt>
      <trkpt lat="44.46511" lon="5.9666">
        <ele>983.565918</ele>
        <time>2013-05-14T15:15:10Z</time>
      </trkpt>
      <trkpt lat="44.46537" lon="5.96662">
        <ele>984.0466309</ele>
        <time>2013-05-14T15:15:14Z</time>
      </trkpt>
      <trkpt lat="44.46658" lon="5.96716">
        <ele>984.0466309</ele>
        <time>2013-05-14T15:15:32Z</time>
      </trkpt>
      <trkpt lat="44.46777" lon="5.96769">
        <ele>984.0466309</ele>
        <time>2013-05-14T15:15:50Z</time>
      </trkpt>
      <trkpt lat="44.46882" lon="5.96817">
        <ele>985.4885254</ele>
        <time>2013-05-14T15:16:07Z</time>
      </trkpt>
      <trkpt lat="44.46929" lon="5.96838">
        <ele>985.9692383</ele>
        <time>2013-05-14T15:16:15Z</time>
      </trkpt>
      <trkpt lat="44.46947" lon="5.96841">
        <ele>986.4499512</ele>
        <time>2013-05-14T15:16:18Z</time>
      </trkpt>
      <trkpt lat="44.47036" lon="5.96806">
        <ele>988.8535156</ele>
        <time>2013-05-14T15:16:33Z</time>
      </trkpt>
      <trkpt lat="44.47131" lon="5.96755">
        <ele>990.7758789</ele>
        <time>2013-05-14T15:16:50Z</time>
      </trkpt>
      <trkpt lat="44.4716" lon="5.96757">
        <ele>991.2565918</ele>
        <time>2013-05-14T15:16:55Z</time>
      </trkpt>
      <trkpt lat="44.4717" lon="5.96758">
        <ele>992.6987305</ele>
        <time>2013-05-14T15:16:57Z</time>
      </trkpt>
      <trkpt lat="44.47215" lon="5.96767">
        <ele>993.6599121</ele>
        <time>2013-05-14T15:17:06Z</time>
      </trkpt>
      <trkpt lat="44.47246" lon="5.96779">
        <ele>993.1791992</ele>
        <time>2013-05-14T15:17:11Z</time>
      </trkpt>
      <trkpt lat="44.47268" lon="5.96777">
        <ele>990.7758789</ele>
        <time>2013-05-14T15:17:14Z</time>
      </trkpt>
      <trkpt lat="44.4734" lon="5.96755">
        <ele>994.6210938</ele>
        <time>2013-05-14T15:17:26Z</time>
      </trkpt>
      <trkpt lat="44.47397" lon="5.96749">
        <ele>996.5439453</ele>
        <time>2013-05-14T15:17:37Z</time>
      </trkpt>
      <trkpt lat="44.47441" lon="5.96751">
        <ele>997.9858398</ele>
        <time>2013-05-14T15:17:45Z</time>
      </trkpt>
      <trkpt lat="44.47463" lon="5.96737">
        <ele>998.9470215</ele>
        <time>2013-05-14T15:17:50Z</time>
      </trkpt>
      <trkpt lat="44.47496" lon="5.96682">
        <ele>997.9858398</ele>
        <time>2013-05-14T15:18:01Z</time>
      </trkpt>
      <trkpt lat="44.47511" lon="5.96668">
        <ele>996.5439453</ele>
        <time>2013-05-14T15:18:05Z</time>
      </trkpt>
      <trkpt lat="44.47524" lon="5.96657">
        <ele>996.5439453</ele>
        <time>2013-05-14T15:18:07Z</time>
      </trkpt>
      <trkpt lat="44.47551" lon="5.96637">
        <ele>997.0244141</ele>
        <time>2013-05-14T15:18:11Z</time>
      </trkpt>
      <trkpt lat="44.47567" lon="5.96645">
        <ele>997.0244141</ele>
        <time>2013-05-14T15:18:13Z</time>
      </trkpt>
      <trkpt lat="44.47578" lon="5.96698">
        <ele>997.0244141</ele>
        <time>2013-05-14T15:18:19Z</time>
      </trkpt>
      <trkpt lat="44.47551" lon="5.96765">
        <ele>998.4663086</ele>
        <time>2013-05-14T15:18:28Z</time>
      </trkpt>
      <trkpt lat="44.47548" lon="5.96801">
        <ele>999.9084473</ele>
        <time>2013-05-14T15:18:33Z</time>
      </trkpt>
      <trkpt lat="44.47533" lon="5.96856">
        <ele>1004.2346191</ele>
        <time>2013-05-14T15:18:41Z</time>
      </trkpt>
      <trkpt lat="44.47523" lon="5.96875">
        <ele>1004.2346191</ele>
        <time>2013-05-14T15:18:44Z</time>
      </trkpt>
      <trkpt lat="44.47501" lon="5.96909">
        <ele>1006.1569824</ele>
        <time>2013-05-14T15:18:50Z</time>
      </trkpt>
      <trkpt lat="44.47513" lon="5.96954">
        <ele>1006.6376953</ele>
        <time>2013-05-14T15:18:57Z</time>
      </trkpt>
      <trkpt lat="44.47614" lon="5.97063">
        <ele>1006.1569824</ele>
        <time>2013-05-14T15:19:16Z</time>
      </trkpt>
      <trkpt lat="44.47624" lon="5.97075">
        <ele>1007.1184082</ele>
        <time>2013-05-14T15:19:18Z</time>
      </trkpt>
      <trkpt lat="44.47651" lon="5.97126">
        <ele>1007.5991211</ele>
        <time>2013-05-14T15:19:25Z</time>
      </trkpt>
      <trkpt lat="44.47711" lon="5.97249">
        <ele>1006.6376953</ele>
        <time>2013-05-14T15:19:41Z</time>
      </trkpt>
      <trkpt lat="44.47737" lon="5.97273">
        <ele>1007.1184082</ele>
        <time>2013-05-14T15:19:46Z</time>
      </trkpt>
      <trkpt lat="44.4776" lon="5.97281">
        <ele>1008.079834</ele>
        <time>2013-05-14T15:19:50Z</time>
      </trkpt>
      <trkpt lat="44.47781" lon="5.97289">
        <ele>1008.079834</ele>
        <time>2013-05-14T15:19:53Z</time>
      </trkpt>
      <trkpt lat="44.47791" lon="5.97343">
        <ele>1007.5991211</ele>
        <time>2013-05-14T15:20:00Z</time>
      </trkpt>
      <trkpt lat="44.47773" lon="5.97363">
        <ele>1008.079834</ele>
        <time>2013-05-14T15:20:04Z</time>
      </trkpt>
      <trkpt lat="44.47758" lon="5.97375">
        <ele>1008.079834</ele>
        <time>2013-05-14T15:20:07Z</time>
      </trkpt>
      <trkpt lat="44.47738" lon="5.97388">
        <ele>1008.5603027</ele>
        <time>2013-05-14T15:20:11Z</time>
      </trkpt>
      <trkpt lat="44.47727" lon="5.97425">
        <ele>1009.5217285</ele>
        <time>2013-05-14T15:20:15Z</time>
      </trkpt>
      <trkpt lat="44.47727" lon="5.97483">
        <ele>1009.5217285</ele>
        <time>2013-05-14T15:20:21Z</time>
      </trkpt>
      <trkpt lat="44.47727" lon="5.97513">
        <ele>1009.0410156</ele>
        <time>2013-05-14T15:20:24Z</time>
      </trkpt>
      <trkpt lat="44.47729" lon="5.97532">
        <ele>1008.5603027</ele>
        <time>2013-05-14T15:20:26Z</time>
      </trkpt>
      <trkpt lat="44.47757" lon="5.97589">
        <ele>1004.7150879</ele>
        <time>2013-05-14T15:20:32Z</time>
      </trkpt>
      <trkpt lat="44.47763" lon="5.976">
        <ele>1004.7150879</ele>
        <time>2013-05-14T15:20:33Z</time>
      </trkpt>
      <trkpt lat="44.47787" lon="5.9764">
        <ele>1003.2729492</ele>
        <time>2013-05-14T15:20:37Z</time>
      </trkpt>
      <trkpt lat="44.47804" lon="5.97673">
        <ele>1002.7922363</ele>
        <time>2013-05-14T15:20:40Z</time>
      </trkpt>
      <trkpt lat="44.47816" lon="5.97694">
        <ele>1001.3503418</ele>
        <time>2013-05-14T15:20:42Z</time>
      </trkpt>
      <trkpt lat="44.47868" lon="5.97773">
        <ele>998.4663086</ele>
        <time>2013-05-14T15:20:50Z</time>
      </trkpt>
      <trkpt lat="44.47874" lon="5.97783">
        <ele>998.4663086</ele>
        <time>2013-05-14T15:20:51Z</time>
      </trkpt>
      <trkpt lat="44.47896" lon="5.97813">
        <ele>998.9470215</ele>
        <time>2013-05-14T15:20:55Z</time>
      </trkpt>
      <trkpt lat="44.47909" lon="5.97852">
        <ele>999.9084473</ele>
        <time>2013-05-14T15:20:59Z</time>
      </trkpt>
      <trkpt lat="44.47961" lon="5.9791">
        <ele>1000.8696289</ele>
        <time>2013-05-14T15:21:09Z</time>
      </trkpt>
      <trkpt lat="44.48006" lon="5.97976">
        <ele>1004.2346191</ele>
        <time>2013-05-14T15:21:20Z</time>
      </trkpt>
      <trkpt lat="44.48041" lon="5.98028">
        <ele>1007.1184082</ele>
        <time>2013-05-14T15:21:29Z</time>
      </trkpt>
      <trkpt lat="44.48071" lon="5.98072">
        <ele>1010.4829102</ele>
        <time>2013-05-14T15:21:37Z</time>
      </trkpt>
      <trkpt lat="44.48113" lon="5.98135">
        <ele>1013.3669434</ele>
        <time>2013-05-14T15:21:48Z</time>
      </trkpt>
      <trkpt lat="44.48116" lon="5.9814">
        <ele>1013.3669434</ele>
        <time>2013-05-14T15:21:49Z</time>
      </trkpt>
      <trkpt lat="44.48134" lon="5.98167">
        <ele>1015.2895508</ele>
        <time>2013-05-14T15:21:54Z</time>
      </trkpt>
      <trkpt lat="44.48175" lon="5.98238">
        <ele>1018.6540527</ele>
        <time>2013-05-14T15:22:06Z</time>
      </trkpt>
      <trkpt lat="44.48219" lon="5.98322">
        <ele>1023.4609375</ele>
        <time>2013-05-14T15:22:20Z</time>
      </trkpt>
      <trkpt lat="44.48222" lon="5.98328">
        <ele>1023.4609375</ele>
        <time>2013-05-14T15:22:21Z</time>
      </trkpt>
      <trkpt lat="44.48252" lon="5.98388">
        <ele>1025.8640137</ele>
        <time>2013-05-14T15:22:31Z</time>
      </trkpt>
      <trkpt lat="44.48265" lon="5.98415">
        <ele>1026.3447266</ele>
        <time>2013-05-14T15:22:36Z</time>
      </trkpt>
      <trkpt lat="44.4827" lon="5.98426">
        <ele>1027.7866211</ele>
        <time>2013-05-14T15:22:38Z</time>
      </trkpt>
      <trkpt lat="44.48271" lon="5.9844">
        <ele>1029.2285156</ele>
        <time>2013-05-14T15:22:40Z</time>
      </trkpt>
      <trkpt lat="44.48272" lon="5.98446">
        <ele>1029.2285156</ele>
        <time>2013-05-14T15:22:41Z</time>
      </trkpt>
      <trkpt lat="44.48278" lon="5.98504">
        <ele>1033.0737305</ele>
        <time>2013-05-14T15:22:51Z</time>
      </trkpt>
      <trkpt lat="44.48278" lon="5.98508">
        <ele>1033.0737305</ele>
        <time>2013-05-14T15:22:52Z</time>
      </trkpt>
      <trkpt lat="44.48325" lon="5.98509">
        <ele>1034.5158691</ele>
        <time>2013-05-14T15:22:54Z</time>
      </trkpt>
      <trkpt lat="44.48333" lon="5.98516">
        <ele>1034.5158691</ele>
        <time>2013-05-14T15:22:56Z</time>
      </trkpt>
      <trkpt lat="44.48366" lon="5.98525">
        <ele>1035.4770508</ele>
        <time>2013-05-14T15:23:03Z</time>
      </trkpt>
      <trkpt lat="44.48425" lon="5.98499">
        <ele>1035.9577637</ele>
        <time>2013-05-14T15:23:13Z</time>
      </trkpt>
      <trkpt lat="44.48473" lon="5.98494">
        <ele>1035.9577637</ele>
        <time>2013-05-14T15:23:20Z</time>
      </trkpt>
      <trkpt lat="44.48513" lon="5.98506">
        <ele>1034.5158691</ele>
        <time>2013-05-14T15:23:26Z</time>
      </trkpt>
      <trkpt lat="44.48526" lon="5.98514">
        <ele>1034.5158691</ele>
        <time>2013-05-14T15:23:28Z</time>
      </trkpt>
      <trkpt lat="44.48559" lon="5.98552">
        <ele>1034.0351563</ele>
        <time>2013-05-14T15:23:34Z</time>
      </trkpt>
      <trkpt lat="44.48571" lon="5.98575">
        <ele>1035.4770508</ele>
        <time>2013-05-14T15:23:37Z</time>
      </trkpt>
      <trkpt lat="44.48581" lon="5.98589">
        <ele>1034.996582</ele>
        <time>2013-05-14T15:23:39Z</time>
      </trkpt>
      <trkpt lat="44.48606" lon="5.98605">
        <ele>1035.9577637</ele>
        <time>2013-05-14T15:23:43Z</time>
      </trkpt>
      <trkpt lat="44.48683" lon="5.98625">
        <ele>1035.4770508</ele>
        <time>2013-05-14T15:23:54Z</time>
      </trkpt>
      <trkpt lat="44.48689" lon="5.98626">
        <ele>1032.5932617</ele>
        <time>2013-05-14T15:23:55Z</time>
      </trkpt>
      <trkpt lat="44.48695" lon="5.98627">
        <ele>1032.5932617</ele>
        <time>2013-05-14T15:23:56Z</time>
      </trkpt>
      <trkpt lat="44.48708" lon="5.98628">
        <ele>1032.5932617</ele>
        <time>2013-05-14T15:23:58Z</time>
      </trkpt>
      <trkpt lat="44.48727" lon="5.98628">
        <ele>1034.996582</ele>
        <time>2013-05-14T15:24:01Z</time>
      </trkpt>
      <trkpt lat="44.48759" lon="5.9862">
        <ele>1033.5544434</ele>
        <time>2013-05-14T15:24:06Z</time>
      </trkpt>
      <trkpt lat="44.48773" lon="5.98617">
        <ele>1034.996582</ele>
        <time>2013-05-14T15:24:08Z</time>
      </trkpt>
      <trkpt lat="44.48846" lon="5.98599">
        <ele>1034.996582</ele>
        <time>2013-05-14T15:24:19Z</time>
      </trkpt>
      <trkpt lat="44.48926" lon="5.9858">
        <ele>1035.4770508</ele>
        <time>2013-05-14T15:24:32Z</time>
      </trkpt>
      <trkpt lat="44.49006" lon="5.9856">
        <ele>1034.5158691</ele>
        <time>2013-05-14T15:24:44Z</time>
      </trkpt>
      <trkpt lat="44.49072" lon="5.98543">
        <ele>1034.5158691</ele>
        <time>2013-05-14T15:24:54Z</time>
      </trkpt>
      <trkpt lat="44.49078" lon="5.98542">
        <ele>1033.5544434</ele>
        <time>2013-05-14T15:24:55Z</time>
      </trkpt>
      <trkpt lat="44.49113" lon="5.98535">
        <ele>1032.5932617</ele>
        <time>2013-05-14T15:25:00Z</time>
      </trkpt>
      <trkpt lat="44.49203" lon="5.98548">
        <ele>1032.1125488</ele>
        <time>2013-05-14T15:25:13Z</time>
      </trkpt>
      <trkpt lat="44.49338" lon="5.98578">
        <ele>1034.0351563</ele>
        <time>2013-05-14T15:25:33Z</time>
      </trkpt>
      <trkpt lat="44.49494" lon="5.98614">
        <ele>1032.5932617</ele>
        <time>2013-05-14T15:25:55Z</time>
      </trkpt>
      <trkpt lat="44.495" lon="5.98617">
        <ele>1032.1125488</ele>
        <time>2013-05-14T15:25:56Z</time>
      </trkpt>
      <trkpt lat="44.49555" lon="5.98654">
        <ele>1032.5932617</ele>
        <time>2013-05-14T15:26:05Z</time>
      </trkpt>
      <trkpt lat="44.49587" lon="5.98663">
        <ele>1033.5544434</ele>
        <time>2013-05-14T15:26:10Z</time>
      </trkpt>
      <trkpt lat="44.49619" lon="5.987">
        <ele>1032.5932617</ele>
        <time>2013-05-14T15:26:16Z</time>
      </trkpt>
      <trkpt lat="44.49623" lon="5.98727">
        <ele>1032.5932617</ele>
        <time>2013-05-14T15:26:19Z</time>
      </trkpt>
      <trkpt lat="44.4963" lon="5.9878">
        <ele>1033.0737305</ele>
        <time>2013-05-14T15:26:25Z</time>
      </trkpt>
      <trkpt lat="44.49634" lon="5.98805">
        <ele>1033.0737305</ele>
        <time>2013-05-14T15:26:28Z</time>
      </trkpt>
      <trkpt lat="44.49639" lon="5.98832">
        <ele>1033.5544434</ele>
        <time>2013-05-14T15:26:31Z</time>
      </trkpt>
      <trkpt lat="44.49661" lon="5.98895">
        <ele>1033.5544434</ele>
        <time>2013-05-14T15:26:38Z</time>
      </trkpt>
      <trkpt lat="44.49681" lon="5.98925">
        <ele>1033.0737305</ele>
        <time>2013-05-14T15:26:42Z</time>
      </trkpt>
      <trkpt lat="44.4974" lon="5.9897">
        <ele>1033.0737305</ele>
        <time>2013-05-14T15:26:52Z</time>
      </trkpt>
      <trkpt lat="44.49757" lon="5.98984">
        <ele>1033.0737305</ele>
        <time>2013-05-14T15:26:55Z</time>
      </trkpt>
      <trkpt lat="44.49783" lon="5.99035">
        <ele>1032.1125488</ele>
        <time>2013-05-14T15:27:01Z</time>
      </trkpt>
      <trkpt lat="44.49799" lon="5.99187">
        <ele>1034.0351563</ele>
        <time>2013-05-14T15:27:17Z</time>
      </trkpt>
      <trkpt lat="44.498" lon="5.99215">
        <ele>1034.0351563</ele>
        <time>2013-05-14T15:27:20Z</time>
      </trkpt>
      <trkpt lat="44.49792" lon="5.9927">
        <ele>1033.5544434</ele>
        <time>2013-05-14T15:27:26Z</time>
      </trkpt>
      <trkpt lat="44.49776" lon="5.9933">
        <ele>1034.0351563</ele>
        <time>2013-05-14T15:27:33Z</time>
      </trkpt>
      <trkpt lat="44.49751" lon="5.9937">
        <ele>1033.5544434</ele>
        <time>2013-05-14T15:27:39Z</time>
      </trkpt>
      <trkpt lat="44.49726" lon="5.994">
        <ele>1033.5544434</ele>
        <time>2013-05-14T15:27:44Z</time>
      </trkpt>
      <trkpt lat="44.49706" lon="5.99447">
        <ele>1034.0351563</ele>
        <time>2013-05-14T15:27:50Z</time>
      </trkpt>
      <trkpt lat="44.49719" lon="5.99517">
        <ele>1034.5158691</ele>
        <time>2013-05-14T15:27:59Z</time>
      </trkpt>
      <trkpt lat="44.4974" lon="5.99529">
        <ele>1034.5158691</ele>
        <time>2013-05-14T15:28:02Z</time>
      </trkpt>
      <trkpt lat="44.49796" lon="5.99553">
        <ele>1032.1125488</ele>
        <time>2013-05-14T15:28:09Z</time>
      </trkpt>
      <trkpt lat="44.49823" lon="5.99555">
        <ele>1031.1513672</ele>
        <time>2013-05-14T15:28:12Z</time>
      </trkpt>
      <trkpt lat="44.49919" lon="5.99548">
        <ele>1026.8254395</ele>
        <time>2013-05-14T15:28:22Z</time>
      </trkpt>
      <trkpt lat="44.49928" lon="5.99547">
        <ele>1026.8254395</ele>
        <time>2013-05-14T15:28:23Z</time>
      </trkpt>
      <trkpt lat="44.49967" lon="5.99534">
        <ele>1024.902832</ele>
        <time>2013-05-14T15:28:27Z</time>
      </trkpt>
      <trkpt lat="44.50011" lon="5.9952">
        <ele>1022.9802246</ele>
        <time>2013-05-14T15:28:32Z</time>
      </trkpt>
      <trkpt lat="44.50086" lon="5.99493">
        <ele>1021.0576172</ele>
        <time>2013-05-14T15:28:40Z</time>
      </trkpt>
      <trkpt lat="44.50114" lon="5.99489">
        <ele>1020.5769043</ele>
        <time>2013-05-14T15:28:43Z</time>
      </trkpt>
      <trkpt lat="44.50178" lon="5.99501">
        <ele>1018.1733398</ele>
        <time>2013-05-14T15:28:50Z</time>
      </trkpt>
      <trkpt lat="44.50187" lon="5.99504">
        <ele>1016.7314453</ele>
        <time>2013-05-14T15:28:51Z</time>
      </trkpt>
      <trkpt lat="44.5024" lon="5.99531">
        <ele>1017.692627</ele>
        <time>2013-05-14T15:28:57Z</time>
      </trkpt>
      <trkpt lat="44.50281" lon="5.99535">
        <ele>1016.7314453</ele>
        <time>2013-05-14T15:29:02Z</time>
      </trkpt>
      <trkpt lat="44.50312" lon="5.99531">
        <ele>1016.2507324</ele>
        <time>2013-05-14T15:29:06Z</time>
      </trkpt>
      <trkpt lat="44.50369" lon="5.9952">
        <ele>1015.2895508</ele>
        <time>2013-05-14T15:29:13Z</time>
      </trkpt>
      <trkpt lat="44.50407" lon="5.9952">
        <ele>1014.328125</ele>
        <time>2013-05-14T15:29:18Z</time>
      </trkpt>
      <trkpt lat="44.50438" lon="5.99525">
        <ele>1015.2895508</ele>
        <time>2013-05-14T15:29:22Z</time>
      </trkpt>
      <trkpt lat="44.50469" lon="5.99522">
        <ele>1014.8088379</ele>
        <time>2013-05-14T15:29:26Z</time>
      </trkpt>
      <trkpt lat="44.50568" lon="5.99477">
        <ele>1014.328125</ele>
        <time>2013-05-14T15:29:40Z</time>
      </trkpt>
      <trkpt lat="44.50628" lon="5.99429">
        <ele>1012.8862305</ele>
        <time>2013-05-14T15:29:50Z</time>
      </trkpt>
      <trkpt lat="44.50641" lon="5.9941">
        <ele>1012.8862305</ele>
        <time>2013-05-14T15:29:53Z</time>
      </trkpt>
      <trkpt lat="44.50657" lon="5.99372">
        <ele>1011.4443359</ele>
        <time>2013-05-14T15:29:58Z</time>
      </trkpt>
      <trkpt lat="44.50673" lon="5.99339">
        <ele>1011.4443359</ele>
        <time>2013-05-14T15:30:02Z</time>
      </trkpt>
      <trkpt lat="44.50698" lon="5.99294">
        <ele>1010.963623</ele>
        <time>2013-05-14T15:30:08Z</time>
      </trkpt>
      <trkpt lat="44.50741" lon="5.99223">
        <ele>1010.4829102</ele>
        <time>2013-05-14T15:30:17Z</time>
      </trkpt>
      <trkpt lat="44.50767" lon="5.99204">
        <ele>1009.5217285</ele>
        <time>2013-05-14T15:30:22Z</time>
      </trkpt>
      <trkpt lat="44.50803" lon="5.99195">
        <ele>1007.5991211</ele>
        <time>2013-05-14T15:30:27Z</time>
      </trkpt>
      <trkpt lat="44.50898" lon="5.99209">
        <ele>1004.7150879</ele>
        <time>2013-05-14T15:30:38Z</time>
      </trkpt>
      <trkpt lat="44.50907" lon="5.99211">
        <ele>1004.7150879</ele>
        <time>2013-05-14T15:30:39Z</time>
      </trkpt>
      <trkpt lat="44.50955" lon="5.99219">
        <ele>1001.8310547</ele>
        <time>2013-05-14T15:30:44Z</time>
      </trkpt>
      <trkpt lat="44.50974" lon="5.99224">
        <ele>1001.3503418</ele>
        <time>2013-05-14T15:30:46Z</time>
      </trkpt>
      <trkpt lat="44.50998" lon="5.99244">
        <ele>999.9084473</ele>
        <time>2013-05-14T15:30:49Z</time>
      </trkpt>
      <trkpt lat="44.51006" lon="5.9927">
        <ele>998.4663086</ele>
        <time>2013-05-14T15:30:51Z</time>
      </trkpt>
      <trkpt lat="44.51005" lon="5.99325">
        <ele>997.9858398</ele>
        <time>2013-05-14T15:30:55Z</time>
      </trkpt>
      <trkpt lat="44.50997" lon="5.99412">
        <ele>997.0244141</ele>
        <time>2013-05-14T15:31:01Z</time>
      </trkpt>
      <trkpt lat="44.5102" lon="5.99497">
        <ele>995.5825195</ele>
        <time>2013-05-14T15:31:07Z</time>
      </trkpt>
      <trkpt lat="44.51032" lon="5.9952">
        <ele>994.140625</ele>
        <time>2013-05-14T15:31:09Z</time>
      </trkpt>
      <trkpt lat="44.51092" lon="5.99629">
        <ele>991.7373047</ele>
        <time>2013-05-14T15:31:19Z</time>
      </trkpt>
      <trkpt lat="44.5109" lon="5.99694">
        <ele>991.7373047</ele>
        <time>2013-05-14T15:31:25Z</time>
      </trkpt>
      <trkpt lat="44.5108" lon="5.99708">
        <ele>991.2565918</ele>
        <time>2013-05-14T15:31:27Z</time>
      </trkpt>
      <trkpt lat="44.51034" lon="5.99811">
        <ele>992.2180176</ele>
        <time>2013-05-14T15:31:39Z</time>
      </trkpt>
      <trkpt lat="44.51038" lon="5.99855">
        <ele>992.2180176</ele>
        <time>2013-05-14T15:31:44Z</time>
      </trkpt>
      <trkpt lat="44.51057" lon="5.99906">
        <ele>990.2954102</ele>
        <time>2013-05-14T15:31:49Z</time>
      </trkpt>
      <trkpt lat="44.51064" lon="5.99927">
        <ele>989.3339844</ele>
        <time>2013-05-14T15:31:51Z</time>
      </trkpt>
      <trkpt lat="44.51089" lon="5.99976">
        <ele>989.3339844</ele>
        <time>2013-05-14T15:31:56Z</time>
      </trkpt>
      <trkpt lat="44.5112" lon="6">
        <ele>987.4111328</ele>
        <time>2013-05-14T15:32:00Z</time>
      </trkpt>
      <trkpt lat="44.51152" lon="6.00023">
        <ele>985.4885254</ele>
        <time>2013-05-14T15:32:04Z</time>
      </trkpt>
      <trkpt lat="44.51168" lon="6.00086">
        <ele>985.4885254</ele>
        <time>2013-05-14T15:32:10Z</time>
      </trkpt>
      <trkpt lat="44.51164" lon="6.00131">
        <ele>986.4499512</ele>
        <time>2013-05-14T15:32:14Z</time>
      </trkpt>
      <trkpt lat="44.51155" lon="6.00263">
        <ele>986.4499512</ele>
        <time>2013-05-14T15:32:27Z</time>
      </trkpt>
      <trkpt lat="44.5116" lon="6.003">
        <ele>985.4885254</ele>
        <time>2013-05-14T15:32:31Z</time>
      </trkpt>
      <trkpt lat="44.51177" lon="6.00402">
        <ele>985.4885254</ele>
        <time>2013-05-14T15:32:42Z</time>
      </trkpt>
      <trkpt lat="44.51189" lon="6.00474">
        <ele>985.0080566</ele>
        <time>2013-05-14T15:32:50Z</time>
      </trkpt>
      <trkpt lat="44.512" lon="6.00528">
        <ele>985.0080566</ele>
        <time>2013-05-14T15:32:56Z</time>
      </trkpt>
      <trkpt lat="44.51212" lon="6.006">
        <ele>983.565918</ele>
        <time>2013-05-14T15:33:03Z</time>
      </trkpt>
      <trkpt lat="44.51239" lon="6.00768">
        <ele>982.6047363</ele>
        <time>2013-05-14T15:33:19Z</time>
      </trkpt>
      <trkpt lat="44.51249" lon="6.00847">
        <ele>982.1240234</ele>
        <time>2013-05-14T15:33:27Z</time>
      </trkpt>
      <trkpt lat="44.5126" lon="6.00881">
        <ele>982.6047363</ele>
        <time>2013-05-14T15:33:31Z</time>
      </trkpt>
      <trkpt lat="44.51296" lon="6.00926">
        <ele>981.1628418</ele>
        <time>2013-05-14T15:33:38Z</time>
      </trkpt>
      <trkpt lat="44.51339" lon="6.00959">
        <ele>979.7207031</ele>
        <time>2013-05-14T15:33:45Z</time>
      </trkpt>
      <trkpt lat="44.51417" lon="6.01001">
        <ele>976.3562012</ele>
        <time>2013-05-14T15:33:55Z</time>
      </trkpt>
      <trkpt lat="44.51463" lon="6.01027">
        <ele>974.9143066</ele>
        <time>2013-05-14T15:34:00Z</time>
      </trkpt>
      <trkpt lat="44.51484" lon="6.01054">
        <ele>973.4724121</ele>
        <time>2013-05-14T15:34:03Z</time>
      </trkpt>
      <trkpt lat="44.51494" lon="6.01078">
        <ele>972.0302734</ele>
        <time>2013-05-14T15:34:05Z</time>
      </trkpt>
      <trkpt lat="44.51499" lon="6.01091">
        <ele>970.5881348</ele>
        <time>2013-05-14T15:34:06Z</time>
      </trkpt>
      <trkpt lat="44.51511" lon="6.01135">
        <ele>967.2236328</ele>
        <time>2013-05-14T15:34:09Z</time>
      </trkpt>
      <trkpt lat="44.51516" lon="6.01149">
        <ele>967.2236328</ele>
        <time>2013-05-14T15:34:10Z</time>
      </trkpt>
      <trkpt lat="44.51546" lon="6.01193">
        <ele>965.3010254</ele>
        <time>2013-05-14T15:34:14Z</time>
      </trkpt>
      <trkpt lat="44.51555" lon="6.01253">
        <ele>967.7041016</ele>
        <time>2013-05-14T15:34:19Z</time>
      </trkpt>
      <trkpt lat="44.51555" lon="6.01288">
        <ele>964.8203125</ele>
        <time>2013-05-14T15:34:22Z</time>
      </trkpt>
      <trkpt lat="44.51549" lon="6.0135">
        <ele>961.4558105</ele>
        <time>2013-05-14T15:34:27Z</time>
      </trkpt>
      <trkpt lat="44.51556" lon="6.01389">
        <ele>960.4943848</ele>
        <time>2013-05-14T15:34:30Z</time>
      </trkpt>
      <trkpt lat="44.51588" lon="6.01434">
        <ele>957.6105957</ele>
        <time>2013-05-14T15:34:35Z</time>
      </trkpt>
      <trkpt lat="44.51595" lon="6.0144">
        <ele>957.1298828</ele>
        <time>2013-05-14T15:34:36Z</time>
      </trkpt>
      <trkpt lat="44.5161" lon="6.01455">
        <ele>955.6877441</ele>
        <time>2013-05-14T15:34:38Z</time>
      </trkpt>
      <trkpt lat="44.51618" lon="6.0147">
        <ele>954.7263184</ele>
        <time>2013-05-14T15:34:39Z</time>
      </trkpt>
      <trkpt lat="44.5164" lon="6.01524">
        <ele>953.2844238</ele>
        <time>2013-05-14T15:34:44Z</time>
      </trkpt>
      <trkpt lat="44.51646" lon="6.01547">
        <ele>954.2458496</ele>
        <time>2013-05-14T15:34:47Z</time>
      </trkpt>
      <trkpt lat="44.5165" lon="6.0157">
        <ele>953.2844238</ele>
        <time>2013-05-14T15:34:51Z</time>
      </trkpt>
      <trkpt lat="44.51652" lon="6.01586">
        <ele>953.7651367</ele>
        <time>2013-05-14T15:34:55Z</time>
      </trkpt>
      <trkpt lat="44.51646" lon="6.01607">
        <ele>950.4006348</ele>
        <time>2013-05-14T15:34:58Z</time>
      </trkpt>
      <trkpt lat="44.51643" lon="6.01615">
        <ele>947.5166016</ele>
        <time>2013-05-14T15:35:01Z</time>
      </trkpt>
      <trkpt lat="44.51611" lon="6.01598">
        <ele>946.5554199</ele>
        <time>2013-05-14T15:35:02Z</time>
      </trkpt>
      <trkpt lat="44.51592" lon="6.01594">
        <ele>943.1906738</ele>
        <time>2013-05-14T15:35:07Z</time>
      </trkpt>
      <trkpt lat="44.51596" lon="6.01625">
        <ele>944.6325684</ele>
        <time>2013-05-14T15:35:09Z</time>
      </trkpt>
      <trkpt lat="44.51594" lon="6.01637">
        <ele>944.1520996</ele>
        <time>2013-05-14T15:35:12Z</time>
      </trkpt>
      <trkpt lat="44.51596" lon="6.01654">
        <ele>944.1520996</ele>
        <time>2013-05-14T15:35:21Z</time>
      </trkpt>
      <trkpt lat="44.51566" lon="6.0167">
        <ele>941.2680664</ele>
        <time>2013-05-14T15:35:29Z</time>
      </trkpt>
      <trkpt lat="44.51562" lon="6.01675">
        <ele>941.2680664</ele>
        <time>2013-05-14T15:35:31Z</time>
      </trkpt>
      <trkpt lat="44.51596" lon="6.01654">
        <ele>938.8647461</ele>
        <time>2013-05-14T15:35:36Z</time>
      </trkpt>
      <trkpt lat="44.51596" lon="6.01654">
        <ele>938.3840332</ele>
        <time>2013-05-14T15:35:40Z</time>
      </trkpt>
      <trkpt lat="44.51596" lon="6.01654">
        <ele>937.9033203</ele>
        <time>2013-05-14T15:35:59Z</time>
      </trkpt>
      <trkpt lat="44.51596" lon="6.01654">
        <ele>937.9033203</ele>
        <time>2013-05-14T15:36:14Z</time>
      </trkpt>
      <trkpt lat="44.51596" lon="6.01654">
        <ele>937.9033203</ele>
        <time>2013-05-14T15:36:15Z</time>
      </trkpt>
      <trkpt lat="44.51596" lon="6.01654">
        <ele>938.8647461</ele>
        <time>2013-05-14T15:36:22Z</time>
      </trkpt>
      <trkpt lat="44.51596" lon="6.01654">
        <ele>937.9033203</ele>
        <time>2013-05-14T15:36:36Z</time>
      </trkpt>
      <trkpt lat="44.51596" lon="6.01654">
        <ele>935.0195313</ele>
        <time>2013-05-14T15:36:55Z</time>
      </trkpt>
      <trkpt lat="44.51596" lon="6.01654">
        <ele>933.5773926</ele>
        <time>2013-05-14T15:37:04Z</time>
      </trkpt>
      <trkpt lat="44.51596" lon="6.01654">
        <ele>930.6936035</ele>
        <time>2013-05-14T15:37:22Z</time>
      </trkpt>
      <trkpt lat="44.51596" lon="6.01654">
        <ele>928.2902832</ele>
        <time>2013-05-14T15:37:41Z</time>
      </trkpt>
      <trkpt lat="44.51596" lon="6.01654">
        <ele>927.8095703</ele>
        <time>2013-05-14T15:37:49Z</time>
      </trkpt>
      <trkpt lat="44.51596" lon="6.01654">
        <ele>927.8095703</ele>
        <time>2013-05-14T15:38:09Z</time>
      </trkpt>
      <trkpt lat="44.51544" lon="6.01776">
        <ele>926.3676758</ele>
        <time>2013-05-14T15:38:26Z</time>
      </trkpt>
      <trkpt lat="44.51544" lon="6.01776">
        <ele>926.8483887</ele>
        <time>2013-05-14T15:38:41Z</time>
      </trkpt>
      <trkpt lat="44.51544" lon="6.01776">
        <ele>926.8483887</ele>
        <time>2013-05-14T15:38:49Z</time>
      </trkpt>
    </trkseg>
  </trk>
</gpx>